<?xml version="1.0"?>
<gpx
 version="1.1"
 creator="Satmap Active 20"
 xmlns:xsi="http://www.w3.org/2001/XMLSchema-instance"
 xmlns="http://www.topografix.com/GPX/1/1"
 xmlns:satmap="http://www.satmap.com/updates/xmlschemas/GpxExtensions/v2/GpxExtensions_v2.xsd"
 xsi:schemaLocation="http://www.topografix.com/GPX/1/1 http://www.topografix.com/GPX/1/1/gpx.xsd">
<metadata>
<time>2020-10-21T09:37:34Z</time>
<extensions>
<satmap:platform>43</satmap:platform>
<satmap:software version="3.12.831">SM15.exe</satmap:software>
<satmap:username>Jim Grant</satmap:username>
<satmap:network_ids>
<satmap:network_id type="wifi">00-23-A7-EC-D5-78</satmap:network_id>
<satmap:network_id type="bluetooth">80-BB-EB-D7-5B-7C</satmap:network_id>
</satmap:network_ids>
<satmap:snap_type>simple</satmap:snap_type>
</extensions>
</metadata>
<trk>
<name>2020-10-21_0937</name>
<desc>Track 1</desc>
<number>1</number>
<trkseg>
<trkpt lat="53.239415" lon="-2.065005"><ele>239</ele><time>2020-10-21T09:37:34Z</time><name>PT1</name></trkpt>
<trkpt lat="53.239420" lon="-2.064998"><ele>239</ele><time>2020-10-21T09:37:43Z</time><name>PT2</name></trkpt>
<trkpt lat="53.239420" lon="-2.064995"><ele>238</ele><time>2020-10-21T09:37:45Z</time><name>PT3</name></trkpt>
<trkpt lat="53.239421" lon="-2.065000"><ele>239</ele><time>2020-10-21T09:37:46Z</time><name>PT4</name></trkpt>
<trkpt lat="53.239422" lon="-2.065008"><ele>238</ele><time>2020-10-21T09:37:46Z</time><name>PT5</name></trkpt>
<trkpt lat="53.239423" lon="-2.065013"><ele>238</ele><time>2020-10-21T09:37:48Z</time><name>PT6</name></trkpt>
<trkpt lat="53.239430" lon="-2.065015"><ele>237</ele><time>2020-10-21T09:37:49Z</time><name>PT7</name></trkpt>
<trkpt lat="53.239433" lon="-2.065017"><ele>237</ele><time>2020-10-21T09:37:49Z</time><name>PT8</name></trkpt>
<trkpt lat="53.239441" lon="-2.065011"><ele>236</ele><time>2020-10-21T09:39:15Z</time><name>PT9</name></trkpt>
<trkpt lat="53.239441" lon="-2.065004"><ele>236</ele><time>2020-10-21T09:39:15Z</time><name>PT10</name></trkpt>
<trkpt lat="53.239442" lon="-2.065000"><ele>235</ele><time>2020-10-21T09:39:17Z</time><name>PT11</name></trkpt>
<trkpt lat="53.239443" lon="-2.065005"><ele>235</ele><time>2020-10-21T09:39:48Z</time><name>PT12</name></trkpt>
<trkpt lat="53.239441" lon="-2.065005"><ele>235</ele><time>2020-10-21T09:39:48Z</time><name>PT13</name></trkpt>
<trkpt lat="53.239439" lon="-2.065001"><ele>235</ele><time>2020-10-21T09:40:03Z</time><name>PT14</name></trkpt>
<trkpt lat="53.239437" lon="-2.065010"><ele>235</ele><time>2020-10-21T09:40:03Z</time><name>PT15</name></trkpt>
<trkpt lat="53.239425" lon="-2.065037"><ele>234</ele><time>2020-10-21T09:40:05Z</time><name>PT16</name></trkpt>
<trkpt lat="53.239412" lon="-2.065055"><ele>235</ele><time>2020-10-21T09:40:06Z</time><name>PT17</name></trkpt>
<trkpt lat="53.239405" lon="-2.065068"><ele>235</ele><time>2020-10-21T09:40:07Z</time><name>PT18</name></trkpt>
<trkpt lat="53.239398" lon="-2.065066"><ele>235</ele><time>2020-10-21T09:40:09Z</time><name>PT19</name></trkpt>
<trkpt lat="53.239399" lon="-2.065062"><ele>235</ele><time>2020-10-21T09:40:09Z</time><name>PT20</name></trkpt>
<trkpt lat="53.239397" lon="-2.065052"><ele>235</ele><time>2020-10-21T09:40:11Z</time><name>PT21</name></trkpt>
<trkpt lat="53.239398" lon="-2.065054"><ele>235</ele><time>2020-10-21T09:40:12Z</time><name>PT22</name></trkpt>
<trkpt lat="53.239420" lon="-2.065033"><ele>234</ele><time>2020-10-21T09:40:27Z</time><name>PT23</name></trkpt>
<trkpt lat="53.239418" lon="-2.065029"><ele>234</ele><time>2020-10-21T09:40:29Z</time><name>PT24</name></trkpt>
<trkpt lat="53.239400" lon="-2.065069"><ele>234</ele><time>2020-10-21T09:42:57Z</time><name>PT25</name></trkpt>
<trkpt lat="53.239401" lon="-2.065077"><ele>233</ele><time>2020-10-21T09:43:56Z</time><name>PT26</name></trkpt>
<trkpt lat="53.239414" lon="-2.065078"><ele>232</ele><time>2020-10-21T09:43:59Z</time><name>PT27</name></trkpt>
<trkpt lat="53.239418" lon="-2.065080"><ele>231</ele><time>2020-10-21T09:44:03Z</time><name>PT28</name></trkpt>
<trkpt lat="53.239415" lon="-2.065073"><ele>233</ele><time>2020-10-21T09:45:02Z</time><name>PT29</name></trkpt>
<trkpt lat="53.239408" lon="-2.065067"><ele>234</ele><time>2020-10-21T09:45:06Z</time><name>PT30</name></trkpt>
<trkpt lat="53.239408" lon="-2.065054"><ele>236</ele><time>2020-10-21T09:45:20Z</time><name>PT31</name></trkpt>
<trkpt lat="53.239418" lon="-2.064975"><ele>235</ele><time>2020-10-21T09:45:23Z</time><name>PT32</name></trkpt>
<trkpt lat="53.239415" lon="-2.064942"><ele>234</ele><time>2020-10-21T09:45:26Z</time><name>PT33</name></trkpt>
<trkpt lat="53.239413" lon="-2.064920"><ele>234</ele><time>2020-10-21T09:45:30Z</time><name>PT34</name></trkpt>
<trkpt lat="53.239403" lon="-2.064911"><ele>235</ele><time>2020-10-21T09:46:30Z</time><name>PT35</name></trkpt>
<trkpt lat="53.239402" lon="-2.064943"><ele>235</ele><time>2020-10-21T09:46:35Z</time><name>PT36</name></trkpt>
<trkpt lat="53.239404" lon="-2.064942"><ele>236</ele><time>2020-10-21T09:46:38Z</time><name>PT37</name></trkpt>
<trkpt lat="53.239390" lon="-2.064961"><ele>235</ele><time>2020-10-21T09:46:41Z</time><name>PT38</name></trkpt>
<trkpt lat="53.239388" lon="-2.064955"><ele>234</ele><time>2020-10-21T09:46:45Z</time><name>PT39</name></trkpt>
<trkpt lat="53.239379" lon="-2.064962"><ele>236</ele><time>2020-10-21T09:46:51Z</time><name>PT40</name></trkpt>
<trkpt lat="53.239392" lon="-2.064966"><ele>236</ele><time>2020-10-21T09:46:54Z</time><name>PT41</name></trkpt>
<trkpt lat="53.239390" lon="-2.064969"><ele>237</ele><time>2020-10-21T09:47:24Z</time><name>PT42</name></trkpt>
<trkpt lat="53.239393" lon="-2.064982"><ele>236</ele><time>2020-10-21T09:47:27Z</time><name>PT43</name></trkpt>
<trkpt lat="53.239400" lon="-2.065000"><ele>236</ele><time>2020-10-21T09:47:30Z</time><name>PT44</name></trkpt>
<trkpt lat="53.239411" lon="-2.065014"><ele>236</ele><time>2020-10-21T09:47:33Z</time><name>PT45</name></trkpt>
<trkpt lat="53.239406" lon="-2.065049"><ele>237</ele><time>2020-10-21T09:47:36Z</time><name>PT46</name></trkpt>
<trkpt lat="53.239400" lon="-2.065067"><ele>238</ele><time>2020-10-21T09:47:39Z</time><name>PT47</name></trkpt>
<trkpt lat="53.239378" lon="-2.065070"><ele>237</ele><time>2020-10-21T09:47:44Z</time><name>PT48</name></trkpt>
<trkpt lat="53.239370" lon="-2.065064"><ele>235</ele><time>2020-10-21T09:47:48Z</time><name>PT49</name></trkpt>
<trkpt lat="53.239370" lon="-2.065065"><ele>234</ele><time>2020-10-21T09:47:51Z</time><name>PT50</name></trkpt>
<trkpt lat="53.239372" lon="-2.065067"><ele>234</ele><time>2020-10-21T09:48:21Z</time><name>PT51</name></trkpt>
<trkpt lat="53.239384" lon="-2.065030"><ele>233</ele><time>2020-10-21T09:48:24Z</time><name>PT52</name></trkpt>
<trkpt lat="53.239380" lon="-2.064980"><ele>233</ele><time>2020-10-21T09:48:29Z</time><name>PT53</name></trkpt>
<trkpt lat="53.239379" lon="-2.064928"><ele>234</ele><time>2020-10-21T09:48:32Z</time><name>PT54</name></trkpt>
<trkpt lat="53.239383" lon="-2.064891"><ele>234</ele><time>2020-10-21T09:48:35Z</time><name>PT55</name></trkpt>
<trkpt lat="53.239375" lon="-2.064831"><ele>234</ele><time>2020-10-21T09:48:39Z</time><name>PT56</name></trkpt>
<trkpt lat="53.239375" lon="-2.064771"><ele>234</ele><time>2020-10-21T09:48:42Z</time><name>PT57</name></trkpt>
<trkpt lat="53.239371" lon="-2.064719"><ele>234</ele><time>2020-10-21T09:48:45Z</time><name>PT58</name></trkpt>
<trkpt lat="53.239368" lon="-2.064649"><ele>234</ele><time>2020-10-21T09:48:50Z</time><name>PT59</name></trkpt>
<trkpt lat="53.239361" lon="-2.064589"><ele>233</ele><time>2020-10-21T09:48:54Z</time><name>PT60</name></trkpt>
<trkpt lat="53.239361" lon="-2.064538"><ele>232</ele><time>2020-10-21T09:48:57Z</time><name>PT61</name></trkpt>
<trkpt lat="53.239351" lon="-2.064503"><ele>231</ele><time>2020-10-21T09:49:00Z</time><name>PT62</name></trkpt>
<trkpt lat="53.239335" lon="-2.064424"><ele>232</ele><time>2020-10-21T09:49:03Z</time><name>PT63</name></trkpt>
<trkpt lat="53.239320" lon="-2.064362"><ele>232</ele><time>2020-10-21T09:49:06Z</time><name>PT64</name></trkpt>
<trkpt lat="53.239308" lon="-2.064301"><ele>232</ele><time>2020-10-21T09:49:11Z</time><name>PT65</name></trkpt>
<trkpt lat="53.239304" lon="-2.064245"><ele>231</ele><time>2020-10-21T09:49:14Z</time><name>PT66</name></trkpt>
<trkpt lat="53.239298" lon="-2.064182"><ele>231</ele><time>2020-10-21T09:49:17Z</time><name>PT67</name></trkpt>
<trkpt lat="53.239283" lon="-2.064123"><ele>231</ele><time>2020-10-21T09:49:21Z</time><name>PT68</name></trkpt>
<trkpt lat="53.239264" lon="-2.064042"><ele>233</ele><time>2020-10-21T09:49:24Z</time><name>PT69</name></trkpt>
<trkpt lat="53.239245" lon="-2.063983"><ele>233</ele><time>2020-10-21T09:49:29Z</time><name>PT70</name></trkpt>
<trkpt lat="53.239226" lon="-2.063904"><ele>235</ele><time>2020-10-21T09:49:33Z</time><name>PT71</name></trkpt>
<trkpt lat="53.239194" lon="-2.063817"><ele>236</ele><time>2020-10-21T09:49:36Z</time><name>PT72</name></trkpt>
<trkpt lat="53.239177" lon="-2.063776"><ele>234</ele><time>2020-10-21T09:49:40Z</time><name>PT73</name></trkpt>
<trkpt lat="53.239145" lon="-2.063731"><ele>235</ele><time>2020-10-21T09:49:43Z</time><name>PT74</name></trkpt>
<trkpt lat="53.239091" lon="-2.063690"><ele>236</ele><time>2020-10-21T09:49:47Z</time><name>PT75</name></trkpt>
<trkpt lat="53.239049" lon="-2.063656"><ele>235</ele><time>2020-10-21T09:49:50Z</time><name>PT76</name></trkpt>
<trkpt lat="53.239023" lon="-2.063640"><ele>235</ele><time>2020-10-21T09:49:53Z</time><name>PT77</name></trkpt>
<trkpt lat="53.238989" lon="-2.063618"><ele>234</ele><time>2020-10-21T09:49:56Z</time><name>PT78</name></trkpt>
<trkpt lat="53.238942" lon="-2.063587"><ele>235</ele><time>2020-10-21T09:50:01Z</time><name>PT79</name></trkpt>
<trkpt lat="53.238898" lon="-2.063562"><ele>236</ele><time>2020-10-21T09:50:05Z</time><name>PT80</name></trkpt>
<trkpt lat="53.238863" lon="-2.063543"><ele>237</ele><time>2020-10-21T09:50:08Z</time><name>PT81</name></trkpt>
<trkpt lat="53.238819" lon="-2.063520"><ele>236</ele><time>2020-10-21T09:50:11Z</time><name>PT82</name></trkpt>
<trkpt lat="53.238781" lon="-2.063503"><ele>236</ele><time>2020-10-21T09:50:16Z</time><name>PT83</name></trkpt>
<trkpt lat="53.238748" lon="-2.063483"><ele>236</ele><time>2020-10-21T09:50:19Z</time><name>PT84</name></trkpt>
<trkpt lat="53.238698" lon="-2.063455"><ele>236</ele><time>2020-10-21T09:50:23Z</time><name>PT85</name></trkpt>
<trkpt lat="53.238668" lon="-2.063437"><ele>236</ele><time>2020-10-21T09:50:26Z</time><name>PT86</name></trkpt>
<trkpt lat="53.238641" lon="-2.063431"><ele>236</ele><time>2020-10-21T09:50:29Z</time><name>PT87</name></trkpt>
<trkpt lat="53.238600" lon="-2.063425"><ele>237</ele><time>2020-10-21T09:50:32Z</time><name>PT88</name></trkpt>
<trkpt lat="53.238575" lon="-2.063435"><ele>237</ele><time>2020-10-21T09:50:35Z</time><name>PT89</name></trkpt>
<trkpt lat="53.238536" lon="-2.063443"><ele>237</ele><time>2020-10-21T09:50:40Z</time><name>PT90</name></trkpt>
<trkpt lat="53.238507" lon="-2.063439"><ele>237</ele><time>2020-10-21T09:50:43Z</time><name>PT91</name></trkpt>
<trkpt lat="53.238485" lon="-2.063424"><ele>237</ele><time>2020-10-21T09:50:46Z</time><name>PT92</name></trkpt>
<trkpt lat="53.238454" lon="-2.063410"><ele>237</ele><time>2020-10-21T09:50:50Z</time><name>PT93</name></trkpt>
<trkpt lat="53.238432" lon="-2.063402"><ele>237</ele><time>2020-10-21T09:50:53Z</time><name>PT94</name></trkpt>
<trkpt lat="53.238393" lon="-2.063377"><ele>238</ele><time>2020-10-21T09:50:56Z</time><name>PT95</name></trkpt>
<trkpt lat="53.238369" lon="-2.063370"><ele>239</ele><time>2020-10-21T09:50:59Z</time><name>PT96</name></trkpt>
<trkpt lat="53.238333" lon="-2.063339"><ele>238</ele><time>2020-10-21T09:51:04Z</time><name>PT97</name></trkpt>
<trkpt lat="53.238298" lon="-2.063309"><ele>238</ele><time>2020-10-21T09:51:08Z</time><name>PT98</name></trkpt>
<trkpt lat="53.238266" lon="-2.063298"><ele>238</ele><time>2020-10-21T09:51:11Z</time><name>PT99</name></trkpt>
<trkpt lat="53.238229" lon="-2.063285"><ele>239</ele><time>2020-10-21T09:51:14Z</time><name>PT100</name></trkpt>
<trkpt lat="53.238189" lon="-2.063263"><ele>240</ele><time>2020-10-21T09:51:17Z</time><name>PT101</name></trkpt>
<trkpt lat="53.238155" lon="-2.063251"><ele>240</ele><time>2020-10-21T09:51:20Z</time><name>PT102</name></trkpt>
<trkpt lat="53.238121" lon="-2.063233"><ele>241</ele><time>2020-10-21T09:51:23Z</time><name>PT103</name></trkpt>
<trkpt lat="53.238083" lon="-2.063214"><ele>241</ele><time>2020-10-21T09:51:28Z</time><name>PT104</name></trkpt>
<trkpt lat="53.238055" lon="-2.063200"><ele>241</ele><time>2020-10-21T09:51:31Z</time><name>PT105</name></trkpt>
<trkpt lat="53.238010" lon="-2.063175"><ele>242</ele><time>2020-10-21T09:51:35Z</time><name>PT106</name></trkpt>
<trkpt lat="53.237973" lon="-2.063161"><ele>241</ele><time>2020-10-21T09:51:38Z</time><name>PT107</name></trkpt>
<trkpt lat="53.237933" lon="-2.063138"><ele>240</ele><time>2020-10-21T09:51:43Z</time><name>PT108</name></trkpt>
<trkpt lat="53.237897" lon="-2.063114"><ele>240</ele><time>2020-10-21T09:51:47Z</time><name>PT109</name></trkpt>
<trkpt lat="53.237846" lon="-2.063057"><ele>242</ele><time>2020-10-21T09:51:50Z</time><name>PT110</name></trkpt>
<trkpt lat="53.237805" lon="-2.063016"><ele>243</ele><time>2020-10-21T09:51:53Z</time><name>PT111</name></trkpt>
<trkpt lat="53.237756" lon="-2.062976"><ele>243</ele><time>2020-10-21T09:51:58Z</time><name>PT112</name></trkpt>
<trkpt lat="53.237726" lon="-2.062942"><ele>243</ele><time>2020-10-21T09:52:01Z</time><name>PT113</name></trkpt>
<trkpt lat="53.237689" lon="-2.062914"><ele>241</ele><time>2020-10-21T09:52:05Z</time><name>PT114</name></trkpt>
<trkpt lat="53.237664" lon="-2.062893"><ele>240</ele><time>2020-10-21T09:52:08Z</time><name>PT115</name></trkpt>
<trkpt lat="53.237633" lon="-2.062867"><ele>241</ele><time>2020-10-21T09:52:11Z</time><name>PT116</name></trkpt>
<trkpt lat="53.237591" lon="-2.062837"><ele>240</ele><time>2020-10-21T09:52:16Z</time><name>PT117</name></trkpt>
<trkpt lat="53.237556" lon="-2.062818"><ele>240</ele><time>2020-10-21T09:52:19Z</time><name>PT118</name></trkpt>
<trkpt lat="53.237526" lon="-2.062793"><ele>240</ele><time>2020-10-21T09:52:22Z</time><name>PT119</name></trkpt>
<trkpt lat="53.237485" lon="-2.062767"><ele>239</ele><time>2020-10-21T09:52:26Z</time><name>PT120</name></trkpt>
<trkpt lat="53.237444" lon="-2.062743"><ele>238</ele><time>2020-10-21T09:52:29Z</time><name>PT121</name></trkpt>
<trkpt lat="53.237413" lon="-2.062722"><ele>237</ele><time>2020-10-21T09:52:32Z</time><name>PT122</name></trkpt>
<trkpt lat="53.237369" lon="-2.062696"><ele>236</ele><time>2020-10-21T09:52:37Z</time><name>PT123</name></trkpt>
<trkpt lat="53.237335" lon="-2.062668"><ele>235</ele><time>2020-10-21T09:52:40Z</time><name>PT124</name></trkpt>
<trkpt lat="53.237288" lon="-2.062643"><ele>235</ele><time>2020-10-21T09:52:44Z</time><name>PT125</name></trkpt>
<trkpt lat="53.237253" lon="-2.062631"><ele>234</ele><time>2020-10-21T09:52:47Z</time><name>PT126</name></trkpt>
<trkpt lat="53.237171" lon="-2.062612"><ele>243</ele><time>2020-10-21T09:52:50Z</time><name>PT127</name></trkpt>
<trkpt lat="53.237134" lon="-2.062631"><ele>243</ele><time>2020-10-21T09:52:53Z</time><name>PT128</name></trkpt>
<trkpt lat="53.237101" lon="-2.062646"><ele>243</ele><time>2020-10-21T09:52:56Z</time><name>PT129</name></trkpt>
<trkpt lat="53.237072" lon="-2.062665"><ele>244</ele><time>2020-10-21T09:52:59Z</time><name>PT130</name></trkpt>
<trkpt lat="53.237037" lon="-2.062686"><ele>244</ele><time>2020-10-21T09:53:04Z</time><name>PT131</name></trkpt>
<trkpt lat="53.237001" lon="-2.062705"><ele>241</ele><time>2020-10-21T09:53:08Z</time><name>PT132</name></trkpt>
<trkpt lat="53.236971" lon="-2.062726"><ele>240</ele><time>2020-10-21T09:53:11Z</time><name>PT133</name></trkpt>
<trkpt lat="53.236952" lon="-2.062768"><ele>240</ele><time>2020-10-21T09:53:14Z</time><name>PT134</name></trkpt>
<trkpt lat="53.236922" lon="-2.062820"><ele>241</ele><time>2020-10-21T09:53:17Z</time><name>PT135</name></trkpt>
<trkpt lat="53.236893" lon="-2.062849"><ele>241</ele><time>2020-10-21T09:53:20Z</time><name>PT136</name></trkpt>
<trkpt lat="53.236858" lon="-2.062910"><ele>242</ele><time>2020-10-21T09:53:25Z</time><name>PT137</name></trkpt>
<trkpt lat="53.236820" lon="-2.062972"><ele>242</ele><time>2020-10-21T09:53:29Z</time><name>PT138</name></trkpt>
<trkpt lat="53.236794" lon="-2.062965"><ele>243</ele><time>2020-10-21T09:53:32Z</time><name>PT139</name></trkpt>
<trkpt lat="53.236797" lon="-2.062902"><ele>243</ele><time>2020-10-21T09:53:35Z</time><name>PT140</name></trkpt>
<trkpt lat="53.236804" lon="-2.062856"><ele>242</ele><time>2020-10-21T09:53:38Z</time><name>PT141</name></trkpt>
<trkpt lat="53.236793" lon="-2.062825"><ele>241</ele><time>2020-10-21T09:53:43Z</time><name>PT142</name></trkpt>
<trkpt lat="53.236764" lon="-2.062809"><ele>240</ele><time>2020-10-21T09:53:46Z</time><name>PT143</name></trkpt>
<trkpt lat="53.236722" lon="-2.062789"><ele>240</ele><time>2020-10-21T09:53:50Z</time><name>PT144</name></trkpt>
<trkpt lat="53.236671" lon="-2.062758"><ele>243</ele><time>2020-10-21T09:53:53Z</time><name>PT145</name></trkpt>
<trkpt lat="53.236640" lon="-2.062743"><ele>243</ele><time>2020-10-21T09:53:56Z</time><name>PT146</name></trkpt>
<trkpt lat="53.236611" lon="-2.062719"><ele>244</ele><time>2020-10-21T09:53:59Z</time><name>PT147</name></trkpt>
<trkpt lat="53.236569" lon="-2.062703"><ele>246</ele><time>2020-10-21T09:54:04Z</time><name>PT148</name></trkpt>
<trkpt lat="53.236551" lon="-2.062679"><ele>245</ele><time>2020-10-21T09:54:07Z</time><name>PT149</name></trkpt>
<trkpt lat="53.236502" lon="-2.062641"><ele>245</ele><time>2020-10-21T09:54:11Z</time><name>PT150</name></trkpt>
<trkpt lat="53.236467" lon="-2.062621"><ele>244</ele><time>2020-10-21T09:54:14Z</time><name>PT151</name></trkpt>
<trkpt lat="53.236444" lon="-2.062612"><ele>243</ele><time>2020-10-21T09:54:17Z</time><name>PT152</name></trkpt>
<trkpt lat="53.236417" lon="-2.062592"><ele>244</ele><time>2020-10-21T09:54:20Z</time><name>PT153</name></trkpt>
<trkpt lat="53.236375" lon="-2.062559"><ele>246</ele><time>2020-10-21T09:54:25Z</time><name>PT154</name></trkpt>
<trkpt lat="53.236339" lon="-2.062530"><ele>244</ele><time>2020-10-21T09:54:28Z</time><name>PT155</name></trkpt>
<trkpt lat="53.236307" lon="-2.062524"><ele>242</ele><time>2020-10-21T09:54:32Z</time><name>PT156</name></trkpt>
<trkpt lat="53.236267" lon="-2.062492"><ele>243</ele><time>2020-10-21T09:54:35Z</time><name>PT157</name></trkpt>
<trkpt lat="53.236223" lon="-2.062454"><ele>243</ele><time>2020-10-21T09:54:40Z</time><name>PT158</name></trkpt>
<trkpt lat="53.236188" lon="-2.062395"><ele>242</ele><time>2020-10-21T09:54:44Z</time><name>PT159</name></trkpt>
<trkpt lat="53.236158" lon="-2.062320"><ele>242</ele><time>2020-10-21T09:54:47Z</time><name>PT160</name></trkpt>
<trkpt lat="53.236131" lon="-2.062263"><ele>244</ele><time>2020-10-21T09:54:52Z</time><name>PT161</name></trkpt>
<trkpt lat="53.236111" lon="-2.062231"><ele>242</ele><time>2020-10-21T09:54:56Z</time><name>PT162</name></trkpt>
<trkpt lat="53.236088" lon="-2.062202"><ele>242</ele><time>2020-10-21T09:54:59Z</time><name>PT163</name></trkpt>
<trkpt lat="53.236058" lon="-2.062149"><ele>244</ele><time>2020-10-21T09:55:02Z</time><name>PT164</name></trkpt>
<trkpt lat="53.236043" lon="-2.062110"><ele>244</ele><time>2020-10-21T09:55:05Z</time><name>PT165</name></trkpt>
<trkpt lat="53.236016" lon="-2.062043"><ele>244</ele><time>2020-10-21T09:55:10Z</time><name>PT166</name></trkpt>
<trkpt lat="53.235999" lon="-2.061985"><ele>243</ele><time>2020-10-21T09:55:14Z</time><name>PT167</name></trkpt>
<trkpt lat="53.235980" lon="-2.061931"><ele>244</ele><time>2020-10-21T09:55:17Z</time><name>PT168</name></trkpt>
<trkpt lat="53.235958" lon="-2.061873"><ele>246</ele><time>2020-10-21T09:55:20Z</time><name>PT169</name></trkpt>
<trkpt lat="53.235932" lon="-2.061816"><ele>248</ele><time>2020-10-21T09:55:24Z</time><name>PT170</name></trkpt>
<trkpt lat="53.235906" lon="-2.061758"><ele>249</ele><time>2020-10-21T09:55:28Z</time><name>PT171</name></trkpt>
<trkpt lat="53.235897" lon="-2.061708"><ele>248</ele><time>2020-10-21T09:55:31Z</time><name>PT172</name></trkpt>
<trkpt lat="53.235872" lon="-2.061660"><ele>248</ele><time>2020-10-21T09:55:35Z</time><name>PT173</name></trkpt>
<trkpt lat="53.235852" lon="-2.061617"><ele>247</ele><time>2020-10-21T09:55:38Z</time><name>PT174</name></trkpt>
<trkpt lat="53.235833" lon="-2.061575"><ele>247</ele><time>2020-10-21T09:55:41Z</time><name>PT175</name></trkpt>
<trkpt lat="53.235827" lon="-2.061553"><ele>244</ele><time>2020-10-21T09:55:44Z</time><name>PT176</name></trkpt>
<trkpt lat="53.235812" lon="-2.061454"><ele>249</ele><time>2020-10-21T09:55:47Z</time><name>PT177</name></trkpt>
<trkpt lat="53.235776" lon="-2.061395"><ele>252</ele><time>2020-10-21T09:55:52Z</time><name>PT178</name></trkpt>
<trkpt lat="53.235748" lon="-2.061361"><ele>253</ele><time>2020-10-21T09:55:55Z</time><name>PT179</name></trkpt>
<trkpt lat="53.235728" lon="-2.061328"><ele>252</ele><time>2020-10-21T09:55:58Z</time><name>PT180</name></trkpt>
<trkpt lat="53.235724" lon="-2.061291"><ele>249</ele><time>2020-10-21T09:56:02Z</time><name>PT181</name></trkpt>
<trkpt lat="53.235701" lon="-2.061248"><ele>249</ele><time>2020-10-21T09:56:05Z</time><name>PT182</name></trkpt>
<trkpt lat="53.235678" lon="-2.061208"><ele>252</ele><time>2020-10-21T09:56:08Z</time><name>PT183</name></trkpt>
<trkpt lat="53.235646" lon="-2.061154"><ele>255</ele><time>2020-10-21T09:56:11Z</time><name>PT184</name></trkpt>
<trkpt lat="53.235625" lon="-2.061100"><ele>256</ele><time>2020-10-21T09:56:16Z</time><name>PT185</name></trkpt>
<trkpt lat="53.235599" lon="-2.061048"><ele>255</ele><time>2020-10-21T09:56:19Z</time><name>PT186</name></trkpt>
<trkpt lat="53.235580" lon="-2.060970"><ele>253</ele><time>2020-10-21T09:56:23Z</time><name>PT187</name></trkpt>
<trkpt lat="53.235557" lon="-2.060932"><ele>251</ele><time>2020-10-21T09:56:26Z</time><name>PT188</name></trkpt>
<trkpt lat="53.235525" lon="-2.060884"><ele>253</ele><time>2020-10-21T09:56:29Z</time><name>PT189</name></trkpt>
<trkpt lat="53.235514" lon="-2.060842"><ele>251</ele><time>2020-10-21T09:56:32Z</time><name>PT190</name></trkpt>
<trkpt lat="53.235489" lon="-2.060805"><ele>252</ele><time>2020-10-21T09:56:35Z</time><name>PT191</name></trkpt>
<trkpt lat="53.235449" lon="-2.060739"><ele>253</ele><time>2020-10-21T09:56:40Z</time><name>PT192</name></trkpt>
<trkpt lat="53.235418" lon="-2.060684"><ele>253</ele><time>2020-10-21T09:56:44Z</time><name>PT193</name></trkpt>
<trkpt lat="53.235393" lon="-2.060617"><ele>257</ele><time>2020-10-21T09:56:47Z</time><name>PT194</name></trkpt>
<trkpt lat="53.235376" lon="-2.060574"><ele>254</ele><time>2020-10-21T09:56:50Z</time><name>PT195</name></trkpt>
<trkpt lat="53.235345" lon="-2.060504"><ele>256</ele><time>2020-10-21T09:56:53Z</time><name>PT196</name></trkpt>
<trkpt lat="53.235325" lon="-2.060452"><ele>258</ele><time>2020-10-21T09:56:56Z</time><name>PT197</name></trkpt>
<trkpt lat="53.235298" lon="-2.060410"><ele>258</ele><time>2020-10-21T09:57:01Z</time><name>PT198</name></trkpt>
<trkpt lat="53.235284" lon="-2.060358"><ele>259</ele><time>2020-10-21T09:57:04Z</time><name>PT199</name></trkpt>
<trkpt lat="53.235259" lon="-2.060292"><ele>261</ele><time>2020-10-21T09:57:07Z</time><name>PT200</name></trkpt>
<trkpt lat="53.235235" lon="-2.060198"><ele>264</ele><time>2020-10-21T09:57:11Z</time><name>PT201</name></trkpt>
<trkpt lat="53.235259" lon="-2.060162"><ele>257</ele><time>2020-10-21T09:57:15Z</time><name>PT202</name></trkpt>
<trkpt lat="53.235259" lon="-2.060125"><ele>255</ele><time>2020-10-21T09:57:18Z</time><name>PT203</name></trkpt>
<trkpt lat="53.235260" lon="-2.060095"><ele>256</ele><time>2020-10-21T09:57:21Z</time><name>PT204</name></trkpt>
<trkpt lat="53.235286" lon="-2.060016"><ele>255</ele><time>2020-10-21T09:57:28Z</time><name>PT205</name></trkpt>
<trkpt lat="53.235312" lon="-2.059924"><ele>257</ele><time>2020-10-21T09:57:32Z</time><name>PT206</name></trkpt>
<trkpt lat="53.235327" lon="-2.059891"><ele>258</ele><time>2020-10-21T09:57:35Z</time><name>PT207</name></trkpt>
<trkpt lat="53.235337" lon="-2.059854"><ele>260</ele><time>2020-10-21T09:57:38Z</time><name>PT208</name></trkpt>
<trkpt lat="53.235337" lon="-2.059839"><ele>260</ele><time>2020-10-21T09:57:41Z</time><name>PT209</name></trkpt>
<trkpt lat="53.235358" lon="-2.059777"><ele>262</ele><time>2020-10-21T09:57:44Z</time><name>PT210</name></trkpt>
<trkpt lat="53.235376" lon="-2.059713"><ele>263</ele><time>2020-10-21T09:57:47Z</time><name>PT211</name></trkpt>
<trkpt lat="53.235393" lon="-2.059659"><ele>269</ele><time>2020-10-21T09:57:52Z</time><name>PT212</name></trkpt>
<trkpt lat="53.235393" lon="-2.059600"><ele>270</ele><time>2020-10-21T09:57:56Z</time><name>PT213</name></trkpt>
<trkpt lat="53.235382" lon="-2.059554"><ele>270</ele><time>2020-10-21T09:57:59Z</time><name>PT214</name></trkpt>
<trkpt lat="53.235362" lon="-2.059518"><ele>270</ele><time>2020-10-21T09:58:04Z</time><name>PT215</name></trkpt>
<trkpt lat="53.235351" lon="-2.059479"><ele>270</ele><time>2020-10-21T09:58:07Z</time><name>PT216</name></trkpt>
<trkpt lat="53.235334" lon="-2.059437"><ele>270</ele><time>2020-10-21T09:58:11Z</time><name>PT217</name></trkpt>
<trkpt lat="53.235319" lon="-2.059404"><ele>271</ele><time>2020-10-21T09:58:14Z</time><name>PT218</name></trkpt>
<trkpt lat="53.235309" lon="-2.059371"><ele>270</ele><time>2020-10-21T09:58:17Z</time><name>PT219</name></trkpt>
<trkpt lat="53.235303" lon="-2.059344"><ele>270</ele><time>2020-10-21T09:58:20Z</time><name>PT220</name></trkpt>
<trkpt lat="53.235298" lon="-2.059313"><ele>272</ele><time>2020-10-21T09:58:24Z</time><name>PT221</name></trkpt>
<trkpt lat="53.235299" lon="-2.059267"><ele>272</ele><time>2020-10-21T09:58:27Z</time><name>PT222</name></trkpt>
<trkpt lat="53.235288" lon="-2.059216"><ele>273</ele><time>2020-10-21T09:58:31Z</time><name>PT223</name></trkpt>
<trkpt lat="53.235282" lon="-2.059180"><ele>271</ele><time>2020-10-21T09:58:34Z</time><name>PT224</name></trkpt>
<trkpt lat="53.235280" lon="-2.059153"><ele>271</ele><time>2020-10-21T09:58:37Z</time><name>PT225</name></trkpt>
<trkpt lat="53.235269" lon="-2.059113"><ele>273</ele><time>2020-10-21T09:58:40Z</time><name>PT226</name></trkpt>
<trkpt lat="53.235257" lon="-2.059079"><ele>274</ele><time>2020-10-21T09:58:44Z</time><name>PT227</name></trkpt>
<trkpt lat="53.235256" lon="-2.059019"><ele>278</ele><time>2020-10-21T09:58:47Z</time><name>PT228</name></trkpt>
<trkpt lat="53.235245" lon="-2.058967"><ele>280</ele><time>2020-10-21T09:58:50Z</time><name>PT229</name></trkpt>
<trkpt lat="53.235239" lon="-2.058900"><ele>281</ele><time>2020-10-21T09:58:55Z</time><name>PT230</name></trkpt>
<trkpt lat="53.235234" lon="-2.058881"><ele>283</ele><time>2020-10-21T09:58:58Z</time><name>PT231</name></trkpt>
<trkpt lat="53.235229" lon="-2.058861"><ele>281</ele><time>2020-10-21T09:59:02Z</time><name>PT232</name></trkpt>
<trkpt lat="53.235263" lon="-2.058757"><ele>279</ele><time>2020-10-21T09:59:05Z</time><name>PT233</name></trkpt>
<trkpt lat="53.235262" lon="-2.058686"><ele>279</ele><time>2020-10-21T09:59:08Z</time><name>PT234</name></trkpt>
<trkpt lat="53.235261" lon="-2.058654"><ele>279</ele><time>2020-10-21T09:59:11Z</time><name>PT235</name></trkpt>
<trkpt lat="53.235264" lon="-2.058633"><ele>278</ele><time>2020-10-21T09:59:14Z</time><name>PT236</name></trkpt>
<trkpt lat="53.235261" lon="-2.058583"><ele>280</ele><time>2020-10-21T09:59:19Z</time><name>PT237</name></trkpt>
<trkpt lat="53.235259" lon="-2.058529"><ele>280</ele><time>2020-10-21T09:59:22Z</time><name>PT238</name></trkpt>
<trkpt lat="53.235267" lon="-2.058476"><ele>282</ele><time>2020-10-21T09:59:25Z</time><name>PT239</name></trkpt>
<trkpt lat="53.235267" lon="-2.058413"><ele>282</ele><time>2020-10-21T09:59:29Z</time><name>PT240</name></trkpt>
<trkpt lat="53.235270" lon="-2.058389"><ele>281</ele><time>2020-10-21T09:59:32Z</time><name>PT241</name></trkpt>
<trkpt lat="53.235279" lon="-2.058336"><ele>281</ele><time>2020-10-21T09:59:35Z</time><name>PT242</name></trkpt>
<trkpt lat="53.235283" lon="-2.058297"><ele>281</ele><time>2020-10-21T09:59:38Z</time><name>PT243</name></trkpt>
<trkpt lat="53.235284" lon="-2.058216"><ele>287</ele><time>2020-10-21T09:59:43Z</time><name>PT244</name></trkpt>
<trkpt lat="53.235312" lon="-2.058175"><ele>291</ele><time>2020-10-21T09:59:47Z</time><name>PT245</name></trkpt>
<trkpt lat="53.235317" lon="-2.058152"><ele>291</ele><time>2020-10-21T09:59:50Z</time><name>PT246</name></trkpt>
<trkpt lat="53.235306" lon="-2.058086"><ele>290</ele><time>2020-10-21T09:59:53Z</time><name>PT247</name></trkpt>
<trkpt lat="53.235294" lon="-2.058019"><ele>291</ele><time>2020-10-21T09:59:58Z</time><name>PT248</name></trkpt>
<trkpt lat="53.235281" lon="-2.057978"><ele>290</ele><time>2020-10-21T10:00:01Z</time><name>PT249</name></trkpt>
<trkpt lat="53.235260" lon="-2.057941"><ele>288</ele><time>2020-10-21T10:00:04Z</time><name>PT250</name></trkpt>
<trkpt lat="53.235237" lon="-2.057911"><ele>287</ele><time>2020-10-21T10:00:07Z</time><name>PT251</name></trkpt>
<trkpt lat="53.235207" lon="-2.057874"><ele>284</ele><time>2020-10-21T10:00:11Z</time><name>PT252</name></trkpt>
<trkpt lat="53.235182" lon="-2.057822"><ele>282</ele><time>2020-10-21T10:00:14Z</time><name>PT253</name></trkpt>
<trkpt lat="53.235152" lon="-2.057795"><ele>281</ele><time>2020-10-21T10:00:17Z</time><name>PT254</name></trkpt>
<trkpt lat="53.235139" lon="-2.057733"><ele>282</ele><time>2020-10-21T10:00:21Z</time><name>PT255</name></trkpt>
<trkpt lat="53.235118" lon="-2.057695"><ele>282</ele><time>2020-10-21T10:00:24Z</time><name>PT256</name></trkpt>
<trkpt lat="53.235105" lon="-2.057658"><ele>281</ele><time>2020-10-21T10:00:27Z</time><name>PT257</name></trkpt>
<trkpt lat="53.235069" lon="-2.057599"><ele>284</ele><time>2020-10-21T10:00:31Z</time><name>PT258</name></trkpt>
<trkpt lat="53.235050" lon="-2.057553"><ele>285</ele><time>2020-10-21T10:00:34Z</time><name>PT259</name></trkpt>
<trkpt lat="53.235031" lon="-2.057489"><ele>284</ele><time>2020-10-21T10:00:37Z</time><name>PT260</name></trkpt>
<trkpt lat="53.235012" lon="-2.057423"><ele>286</ele><time>2020-10-21T10:00:40Z</time><name>PT261</name></trkpt>
<trkpt lat="53.234995" lon="-2.057374"><ele>284</ele><time>2020-10-21T10:00:44Z</time><name>PT262</name></trkpt>
<trkpt lat="53.234985" lon="-2.057343"><ele>282</ele><time>2020-10-21T10:00:47Z</time><name>PT263</name></trkpt>
<trkpt lat="53.234960" lon="-2.057263"><ele>283</ele><time>2020-10-21T10:00:50Z</time><name>PT264</name></trkpt>
<trkpt lat="53.234936" lon="-2.057222"><ele>284</ele><time>2020-10-21T10:00:53Z</time><name>PT265</name></trkpt>
<trkpt lat="53.234919" lon="-2.057192"><ele>283</ele><time>2020-10-21T10:00:56Z</time><name>PT266</name></trkpt>
<trkpt lat="53.234904" lon="-2.057147"><ele>284</ele><time>2020-10-21T10:01:01Z</time><name>PT267</name></trkpt>
<trkpt lat="53.234890" lon="-2.057108"><ele>283</ele><time>2020-10-21T10:01:04Z</time><name>PT268</name></trkpt>
<trkpt lat="53.234867" lon="-2.057059"><ele>287</ele><time>2020-10-21T10:01:07Z</time><name>PT269</name></trkpt>
<trkpt lat="53.234840" lon="-2.057010"><ele>287</ele><time>2020-10-21T10:01:11Z</time><name>PT270</name></trkpt>
<trkpt lat="53.234819" lon="-2.056988"><ele>288</ele><time>2020-10-21T10:01:14Z</time><name>PT271</name></trkpt>
<trkpt lat="53.234801" lon="-2.056932"><ele>288</ele><time>2020-10-21T10:01:19Z</time><name>PT272</name></trkpt>
<trkpt lat="53.234784" lon="-2.056884"><ele>288</ele><time>2020-10-21T10:01:22Z</time><name>PT273</name></trkpt>
<trkpt lat="53.234771" lon="-2.056820"><ele>290</ele><time>2020-10-21T10:01:25Z</time><name>PT274</name></trkpt>
<trkpt lat="53.234743" lon="-2.056743"><ele>294</ele><time>2020-10-21T10:01:29Z</time><name>PT275</name></trkpt>
<trkpt lat="53.234734" lon="-2.056702"><ele>294</ele><time>2020-10-21T10:01:32Z</time><name>PT276</name></trkpt>
<trkpt lat="53.234733" lon="-2.056670"><ele>295</ele><time>2020-10-21T10:01:35Z</time><name>PT277</name></trkpt>
<trkpt lat="53.234726" lon="-2.056615"><ele>296</ele><time>2020-10-21T10:01:38Z</time><name>PT278</name></trkpt>
<trkpt lat="53.234729" lon="-2.056550"><ele>299</ele><time>2020-10-21T10:01:43Z</time><name>PT279</name></trkpt>
<trkpt lat="53.234730" lon="-2.056513"><ele>299</ele><time>2020-10-21T10:01:46Z</time><name>PT280</name></trkpt>
<trkpt lat="53.234725" lon="-2.056466"><ele>300</ele><time>2020-10-21T10:01:49Z</time><name>PT281</name></trkpt>
<trkpt lat="53.234735" lon="-2.056412"><ele>301</ele><time>2020-10-21T10:01:53Z</time><name>PT282</name></trkpt>
<trkpt lat="53.234736" lon="-2.056352"><ele>302</ele><time>2020-10-21T10:01:56Z</time><name>PT283</name></trkpt>
<trkpt lat="53.234738" lon="-2.056293"><ele>302</ele><time>2020-10-21T10:01:59Z</time><name>PT284</name></trkpt>
<trkpt lat="53.234741" lon="-2.056258"><ele>301</ele><time>2020-10-21T10:02:02Z</time><name>PT285</name></trkpt>
<trkpt lat="53.234757" lon="-2.056205"><ele>301</ele><time>2020-10-21T10:02:07Z</time><name>PT286</name></trkpt>
<trkpt lat="53.234779" lon="-2.056145"><ele>303</ele><time>2020-10-21T10:02:11Z</time><name>PT287</name></trkpt>
<trkpt lat="53.234795" lon="-2.056105"><ele>302</ele><time>2020-10-21T10:02:14Z</time><name>PT288</name></trkpt>
<trkpt lat="53.234817" lon="-2.056040"><ele>303</ele><time>2020-10-21T10:02:17Z</time><name>PT289</name></trkpt>
<trkpt lat="53.234837" lon="-2.055984"><ele>302</ele><time>2020-10-21T10:02:22Z</time><name>PT290</name></trkpt>
<trkpt lat="53.234854" lon="-2.055942"><ele>302</ele><time>2020-10-21T10:02:25Z</time><name>PT291</name></trkpt>
<trkpt lat="53.234872" lon="-2.055868"><ele>302</ele><time>2020-10-21T10:02:29Z</time><name>PT292</name></trkpt>
<trkpt lat="53.234899" lon="-2.055816"><ele>303</ele><time>2020-10-21T10:02:32Z</time><name>PT293</name></trkpt>
<trkpt lat="53.234913" lon="-2.055774"><ele>303</ele><time>2020-10-21T10:02:35Z</time><name>PT294</name></trkpt>
<trkpt lat="53.234925" lon="-2.055703"><ele>303</ele><time>2020-10-21T10:02:40Z</time><name>PT295</name></trkpt>
<trkpt lat="53.234934" lon="-2.055641"><ele>303</ele><time>2020-10-21T10:02:43Z</time><name>PT296</name></trkpt>
<trkpt lat="53.234949" lon="-2.055549"><ele>306</ele><time>2020-10-21T10:02:46Z</time><name>PT297</name></trkpt>
<trkpt lat="53.234973" lon="-2.055474"><ele>307</ele><time>2020-10-21T10:02:50Z</time><name>PT298</name></trkpt>
<trkpt lat="53.234993" lon="-2.055412"><ele>307</ele><time>2020-10-21T10:02:53Z</time><name>PT299</name></trkpt>
<trkpt lat="53.235010" lon="-2.055331"><ele>307</ele><time>2020-10-21T10:02:56Z</time><name>PT300</name></trkpt>
<trkpt lat="53.235031" lon="-2.055275"><ele>308</ele><time>2020-10-21T10:02:59Z</time><name>PT301</name></trkpt>
<trkpt lat="53.235046" lon="-2.055223"><ele>307</ele><time>2020-10-21T10:03:02Z</time><name>PT302</name></trkpt>
<trkpt lat="53.235069" lon="-2.055150"><ele>306</ele><time>2020-10-21T10:03:07Z</time><name>PT303</name></trkpt>
<trkpt lat="53.235088" lon="-2.055111"><ele>306</ele><time>2020-10-21T10:03:10Z</time><name>PT304</name></trkpt>
<trkpt lat="53.235097" lon="-2.055055"><ele>304</ele><time>2020-10-21T10:03:13Z</time><name>PT305</name></trkpt>
<trkpt lat="53.235125" lon="-2.054991"><ele>306</ele><time>2020-10-21T10:03:17Z</time><name>PT306</name></trkpt>
<trkpt lat="53.235154" lon="-2.054936"><ele>306</ele><time>2020-10-21T10:03:20Z</time><name>PT307</name></trkpt>
<trkpt lat="53.235164" lon="-2.054906"><ele>307</ele><time>2020-10-21T10:03:23Z</time><name>PT308</name></trkpt>
<trkpt lat="53.235203" lon="-2.054865"><ele>309</ele><time>2020-10-21T10:03:28Z</time><name>PT309</name></trkpt>
<trkpt lat="53.235208" lon="-2.054832"><ele>309</ele><time>2020-10-21T10:03:31Z</time><name>PT310</name></trkpt>
<trkpt lat="53.235195" lon="-2.054803"><ele>309</ele><time>2020-10-21T10:03:35Z</time><name>PT311</name></trkpt>
<trkpt lat="53.235174" lon="-2.054798"><ele>308</ele><time>2020-10-21T10:03:38Z</time><name>PT312</name></trkpt>
<trkpt lat="53.235150" lon="-2.054786"><ele>306</ele><time>2020-10-21T10:03:41Z</time><name>PT313</name></trkpt>
<trkpt lat="53.235127" lon="-2.054788"><ele>304</ele><time>2020-10-21T10:03:44Z</time><name>PT314</name></trkpt>
<trkpt lat="53.235097" lon="-2.054783"><ele>302</ele><time>2020-10-21T10:03:47Z</time><name>PT315</name></trkpt>
<trkpt lat="53.235075" lon="-2.054766"><ele>300</ele><time>2020-10-21T10:03:52Z</time><name>PT316</name></trkpt>
<trkpt lat="53.235050" lon="-2.054750"><ele>300</ele><time>2020-10-21T10:03:55Z</time><name>PT317</name></trkpt>
<trkpt lat="53.235028" lon="-2.054733"><ele>299</ele><time>2020-10-21T10:03:59Z</time><name>PT318</name></trkpt>
<trkpt lat="53.234995" lon="-2.054722"><ele>298</ele><time>2020-10-21T10:04:02Z</time><name>PT319</name></trkpt>
<trkpt lat="53.234969" lon="-2.054713"><ele>298</ele><time>2020-10-21T10:04:05Z</time><name>PT320</name></trkpt>
<trkpt lat="53.234928" lon="-2.054680"><ele>300</ele><time>2020-10-21T10:04:10Z</time><name>PT321</name></trkpt>
<trkpt lat="53.234903" lon="-2.054668"><ele>300</ele><time>2020-10-21T10:04:13Z</time><name>PT322</name></trkpt>
<trkpt lat="53.234855" lon="-2.054637"><ele>303</ele><time>2020-10-21T10:04:17Z</time><name>PT323</name></trkpt>
<trkpt lat="53.234818" lon="-2.054615"><ele>305</ele><time>2020-10-21T10:04:20Z</time><name>PT324</name></trkpt>
<trkpt lat="53.234774" lon="-2.054594"><ele>306</ele><time>2020-10-21T10:04:23Z</time><name>PT325</name></trkpt>
<trkpt lat="53.234754" lon="-2.054586"><ele>304</ele><time>2020-10-21T10:04:26Z</time><name>PT326</name></trkpt>
<trkpt lat="53.234725" lon="-2.054579"><ele>304</ele><time>2020-10-21T10:04:31Z</time><name>PT327</name></trkpt>
<trkpt lat="53.234699" lon="-2.054560"><ele>305</ele><time>2020-10-21T10:04:34Z</time><name>PT328</name></trkpt>
<trkpt lat="53.234666" lon="-2.054535"><ele>305</ele><time>2020-10-21T10:04:38Z</time><name>PT329</name></trkpt>
<trkpt lat="53.234623" lon="-2.054516"><ele>307</ele><time>2020-10-21T10:04:41Z</time><name>PT330</name></trkpt>
<trkpt lat="53.234596" lon="-2.054504"><ele>306</ele><time>2020-10-21T10:04:44Z</time><name>PT331</name></trkpt>
<trkpt lat="53.234562" lon="-2.054490"><ele>307</ele><time>2020-10-21T10:04:49Z</time><name>PT332</name></trkpt>
<trkpt lat="53.234524" lon="-2.054475"><ele>307</ele><time>2020-10-21T10:04:53Z</time><name>PT333</name></trkpt>
<trkpt lat="53.234500" lon="-2.054473"><ele>306</ele><time>2020-10-21T10:04:56Z</time><name>PT334</name></trkpt>
<trkpt lat="53.234468" lon="-2.054433"><ele>309</ele><time>2020-10-21T10:04:59Z</time><name>PT335</name></trkpt>
<trkpt lat="53.234427" lon="-2.054430"><ele>310</ele><time>2020-10-21T10:05:02Z</time><name>PT336</name></trkpt>
<trkpt lat="53.234401" lon="-2.054413"><ele>310</ele><time>2020-10-21T10:05:05Z</time><name>PT337</name></trkpt>
<trkpt lat="53.234369" lon="-2.054385"><ele>313</ele><time>2020-10-21T10:05:08Z</time><name>PT338</name></trkpt>
<trkpt lat="53.234338" lon="-2.054362"><ele>312</ele><time>2020-10-21T10:05:13Z</time><name>PT339</name></trkpt>
<trkpt lat="53.234306" lon="-2.054328"><ele>316</ele><time>2020-10-21T10:05:16Z</time><name>PT340</name></trkpt>
<trkpt lat="53.234274" lon="-2.054315"><ele>317</ele><time>2020-10-21T10:05:19Z</time><name>PT341</name></trkpt>
<trkpt lat="53.234241" lon="-2.054278"><ele>320</ele><time>2020-10-21T10:05:22Z</time><name>PT342</name></trkpt>
<trkpt lat="53.234199" lon="-2.054233"><ele>323</ele><time>2020-10-21T10:05:26Z</time><name>PT343</name></trkpt>
<trkpt lat="53.234166" lon="-2.054187"><ele>327</ele><time>2020-10-21T10:05:29Z</time><name>PT344</name></trkpt>
<trkpt lat="53.234141" lon="-2.054159"><ele>328</ele><time>2020-10-21T10:05:32Z</time><name>PT345</name></trkpt>
<trkpt lat="53.234119" lon="-2.054132"><ele>327</ele><time>2020-10-21T10:05:35Z</time><name>PT346</name></trkpt>
<trkpt lat="53.234087" lon="-2.054101"><ele>328</ele><time>2020-10-21T10:05:38Z</time><name>PT347</name></trkpt>
<trkpt lat="53.234053" lon="-2.054071"><ele>326</ele><time>2020-10-21T10:05:43Z</time><name>PT348</name></trkpt>
<trkpt lat="53.234030" lon="-2.054044"><ele>324</ele><time>2020-10-21T10:05:46Z</time><name>PT349</name></trkpt>
<trkpt lat="53.234015" lon="-2.054016"><ele>327</ele><time>2020-10-21T10:05:50Z</time><name>PT350</name></trkpt>
<trkpt lat="53.233993" lon="-2.053977"><ele>329</ele><time>2020-10-21T10:05:53Z</time><name>PT351</name></trkpt>
<trkpt lat="53.233961" lon="-2.053936"><ele>329</ele><time>2020-10-21T10:05:56Z</time><name>PT352</name></trkpt>
<trkpt lat="53.233934" lon="-2.053901"><ele>329</ele><time>2020-10-21T10:06:01Z</time><name>PT353</name></trkpt>
<trkpt lat="53.233897" lon="-2.053856"><ele>331</ele><time>2020-10-21T10:06:05Z</time><name>PT354</name></trkpt>
<trkpt lat="53.233875" lon="-2.053807"><ele>333</ele><time>2020-10-21T10:06:08Z</time><name>PT355</name></trkpt>
<trkpt lat="53.233855" lon="-2.053762"><ele>334</ele><time>2020-10-21T10:06:11Z</time><name>PT356</name></trkpt>
<trkpt lat="53.233836" lon="-2.053734"><ele>333</ele><time>2020-10-21T10:06:14Z</time><name>PT357</name></trkpt>
<trkpt lat="53.233806" lon="-2.053701"><ele>333</ele><time>2020-10-21T10:06:17Z</time><name>PT358</name></trkpt>
<trkpt lat="53.233784" lon="-2.053692"><ele>331</ele><time>2020-10-21T10:06:20Z</time><name>PT359</name></trkpt>
<trkpt lat="53.233761" lon="-2.053650"><ele>330</ele><time>2020-10-21T10:06:25Z</time><name>PT360</name></trkpt>
<trkpt lat="53.233742" lon="-2.053630"><ele>328</ele><time>2020-10-21T10:06:29Z</time><name>PT361</name></trkpt>
<trkpt lat="53.233718" lon="-2.053574"><ele>329</ele><time>2020-10-21T10:06:32Z</time><name>PT362</name></trkpt>
<trkpt lat="53.233690" lon="-2.053545"><ele>328</ele><time>2020-10-21T10:06:35Z</time><name>PT363</name></trkpt>
<trkpt lat="53.233657" lon="-2.053527"><ele>329</ele><time>2020-10-21T10:06:38Z</time><name>PT364</name></trkpt>
<trkpt lat="53.233636" lon="-2.053506"><ele>332</ele><time>2020-10-21T10:06:41Z</time><name>PT365</name></trkpt>
<trkpt lat="53.233592" lon="-2.053452"><ele>331</ele><time>2020-10-21T10:06:46Z</time><name>PT366</name></trkpt>
<trkpt lat="53.233560" lon="-2.053426"><ele>330</ele><time>2020-10-21T10:06:49Z</time><name>PT367</name></trkpt>
<trkpt lat="53.233532" lon="-2.053372"><ele>331</ele><time>2020-10-21T10:06:52Z</time><name>PT368</name></trkpt>
<trkpt lat="53.233499" lon="-2.053340"><ele>329</ele><time>2020-10-21T10:06:56Z</time><name>PT369</name></trkpt>
<trkpt lat="53.233464" lon="-2.053305"><ele>330</ele><time>2020-10-21T10:06:59Z</time><name>PT370</name></trkpt>
<trkpt lat="53.233441" lon="-2.053278"><ele>329</ele><time>2020-10-21T10:07:02Z</time><name>PT371</name></trkpt>
<trkpt lat="53.233389" lon="-2.053214"><ele>335</ele><time>2020-10-21T10:07:05Z</time><name>PT372</name></trkpt>
<trkpt lat="53.233363" lon="-2.053171"><ele>335</ele><time>2020-10-21T10:07:08Z</time><name>PT373</name></trkpt>
<trkpt lat="53.233324" lon="-2.053102"><ele>340</ele><time>2020-10-21T10:07:13Z</time><name>PT374</name></trkpt>
<trkpt lat="53.233293" lon="-2.053066"><ele>342</ele><time>2020-10-21T10:07:16Z</time><name>PT375</name></trkpt>
<trkpt lat="53.233246" lon="-2.053009"><ele>346</ele><time>2020-10-21T10:07:20Z</time><name>PT376</name></trkpt>
<trkpt lat="53.233218" lon="-2.052980"><ele>350</ele><time>2020-10-21T10:07:23Z</time><name>PT377</name></trkpt>
<trkpt lat="53.233199" lon="-2.052952"><ele>350</ele><time>2020-10-21T10:07:26Z</time><name>PT378</name></trkpt>
<trkpt lat="53.233175" lon="-2.052909"><ele>351</ele><time>2020-10-21T10:07:29Z</time><name>PT379</name></trkpt>
<trkpt lat="53.233143" lon="-2.052873"><ele>350</ele><time>2020-10-21T10:07:34Z</time><name>PT380</name></trkpt>
<trkpt lat="53.233114" lon="-2.052836"><ele>348</ele><time>2020-10-21T10:07:37Z</time><name>PT381</name></trkpt>
<trkpt lat="53.233091" lon="-2.052795"><ele>345</ele><time>2020-10-21T10:07:40Z</time><name>PT382</name></trkpt>
<trkpt lat="53.233057" lon="-2.052749"><ele>344</ele><time>2020-10-21T10:07:44Z</time><name>PT383</name></trkpt>
<trkpt lat="53.233028" lon="-2.052696"><ele>342</ele><time>2020-10-21T10:07:47Z</time><name>PT384</name></trkpt>
<trkpt lat="53.233006" lon="-2.052649"><ele>342</ele><time>2020-10-21T10:07:50Z</time><name>PT385</name></trkpt>
<trkpt lat="53.232977" lon="-2.052606"><ele>341</ele><time>2020-10-21T10:07:53Z</time><name>PT386</name></trkpt>
<trkpt lat="53.232951" lon="-2.052567"><ele>340</ele><time>2020-10-21T10:07:58Z</time><name>PT387</name></trkpt>
<trkpt lat="53.232926" lon="-2.052526"><ele>341</ele><time>2020-10-21T10:08:02Z</time><name>PT388</name></trkpt>
<trkpt lat="53.232906" lon="-2.052467"><ele>340</ele><time>2020-10-21T10:08:05Z</time><name>PT389</name></trkpt>
<trkpt lat="53.232887" lon="-2.052403"><ele>340</ele><time>2020-10-21T10:08:08Z</time><name>PT390</name></trkpt>
<trkpt lat="53.232863" lon="-2.052299"><ele>344</ele><time>2020-10-21T10:08:11Z</time><name>PT391</name></trkpt>
<trkpt lat="53.232856" lon="-2.052245"><ele>344</ele><time>2020-10-21T10:08:14Z</time><name>PT392</name></trkpt>
<trkpt lat="53.232841" lon="-2.052183"><ele>345</ele><time>2020-10-21T10:08:19Z</time><name>PT393</name></trkpt>
<trkpt lat="53.232821" lon="-2.052125"><ele>346</ele><time>2020-10-21T10:08:23Z</time><name>PT394</name></trkpt>
<trkpt lat="53.232803" lon="-2.052092"><ele>347</ele><time>2020-10-21T10:08:26Z</time><name>PT395</name></trkpt>
<trkpt lat="53.232792" lon="-2.052026"><ele>349</ele><time>2020-10-21T10:08:29Z</time><name>PT396</name></trkpt>
<trkpt lat="53.232778" lon="-2.051977"><ele>350</ele><time>2020-10-21T10:08:32Z</time><name>PT397</name></trkpt>
<trkpt lat="53.232757" lon="-2.051891"><ele>352</ele><time>2020-10-21T10:08:35Z</time><name>PT398</name></trkpt>
<trkpt lat="53.232735" lon="-2.051845"><ele>353</ele><time>2020-10-21T10:08:38Z</time><name>PT399</name></trkpt>
<trkpt lat="53.232705" lon="-2.051790"><ele>354</ele><time>2020-10-21T10:08:43Z</time><name>PT400</name></trkpt>
<trkpt lat="53.232688" lon="-2.051749"><ele>356</ele><time>2020-10-21T10:08:46Z</time><name>PT401</name></trkpt>
<trkpt lat="53.232680" lon="-2.051726"><ele>355</ele><time>2020-10-21T10:08:49Z</time><name>PT402</name></trkpt>
<trkpt lat="53.232657" lon="-2.051684"><ele>357</ele><time>2020-10-21T10:08:53Z</time><name>PT403</name></trkpt>
<trkpt lat="53.232628" lon="-2.051649"><ele>358</ele><time>2020-10-21T10:08:56Z</time><name>PT404</name></trkpt>
<trkpt lat="53.232607" lon="-2.051613"><ele>359</ele><time>2020-10-21T10:08:59Z</time><name>PT405</name></trkpt>
<trkpt lat="53.232594" lon="-2.051558"><ele>359</ele><time>2020-10-21T10:09:04Z</time><name>PT406</name></trkpt>
<trkpt lat="53.232584" lon="-2.051506"><ele>361</ele><time>2020-10-21T10:09:07Z</time><name>PT407</name></trkpt>
<trkpt lat="53.232573" lon="-2.051463"><ele>362</ele><time>2020-10-21T10:09:10Z</time><name>PT408</name></trkpt>
<trkpt lat="53.232545" lon="-2.051430"><ele>361</ele><time>2020-10-21T10:09:14Z</time><name>PT409</name></trkpt>
<trkpt lat="53.232531" lon="-2.051391"><ele>361</ele><time>2020-10-21T10:09:17Z</time><name>PT410</name></trkpt>
<trkpt lat="53.232511" lon="-2.051365"><ele>359</ele><time>2020-10-21T10:09:20Z</time><name>PT411</name></trkpt>
<trkpt lat="53.232482" lon="-2.051326"><ele>358</ele><time>2020-10-21T10:09:23Z</time><name>PT412</name></trkpt>
<trkpt lat="53.232458" lon="-2.051302"><ele>357</ele><time>2020-10-21T10:09:26Z</time><name>PT413</name></trkpt>
<trkpt lat="53.232428" lon="-2.051260"><ele>359</ele><time>2020-10-21T10:09:31Z</time><name>PT414</name></trkpt>
<trkpt lat="53.232389" lon="-2.051249"><ele>356</ele><time>2020-10-21T10:09:35Z</time><name>PT415</name></trkpt>
<trkpt lat="53.232354" lon="-2.051196"><ele>356</ele><time>2020-10-21T10:09:38Z</time><name>PT416</name></trkpt>
<trkpt lat="53.232335" lon="-2.051174"><ele>355</ele><time>2020-10-21T10:09:41Z</time><name>PT417</name></trkpt>
<trkpt lat="53.232303" lon="-2.051140"><ele>354</ele><time>2020-10-21T10:09:46Z</time><name>PT418</name></trkpt>
<trkpt lat="53.232282" lon="-2.051116"><ele>354</ele><time>2020-10-21T10:09:49Z</time><name>PT419</name></trkpt>
<trkpt lat="53.232270" lon="-2.051100"><ele>352</ele><time>2020-10-21T10:09:52Z</time><name>PT420</name></trkpt>
<trkpt lat="53.232259" lon="-2.051085"><ele>352</ele><time>2020-10-21T10:09:55Z</time><name>PT421</name></trkpt>
<trkpt lat="53.232230" lon="-2.051054"><ele>353</ele><time>2020-10-21T10:09:58Z</time><name>PT422</name></trkpt>
<trkpt lat="53.232187" lon="-2.051020"><ele>353</ele><time>2020-10-21T10:10:02Z</time><name>PT423</name></trkpt>
<trkpt lat="53.232153" lon="-2.050986"><ele>354</ele><time>2020-10-21T10:10:05Z</time><name>PT424</name></trkpt>
<trkpt lat="53.232129" lon="-2.050960"><ele>353</ele><time>2020-10-21T10:10:08Z</time><name>PT425</name></trkpt>
<trkpt lat="53.232105" lon="-2.050911"><ele>354</ele><time>2020-10-21T10:10:13Z</time><name>PT426</name></trkpt>
<trkpt lat="53.232075" lon="-2.050865"><ele>357</ele><time>2020-10-21T10:10:17Z</time><name>PT427</name></trkpt>
<trkpt lat="53.232050" lon="-2.050828"><ele>360</ele><time>2020-10-21T10:10:20Z</time><name>PT428</name></trkpt>
<trkpt lat="53.232022" lon="-2.050795"><ele>362</ele><time>2020-10-21T10:10:23Z</time><name>PT429</name></trkpt>
<trkpt lat="53.231993" lon="-2.050755"><ele>365</ele><time>2020-10-21T10:10:28Z</time><name>PT430</name></trkpt>
<trkpt lat="53.231979" lon="-2.050728"><ele>364</ele><time>2020-10-21T10:10:31Z</time><name>PT431</name></trkpt>
<trkpt lat="53.231958" lon="-2.050699"><ele>368</ele><time>2020-10-21T10:10:35Z</time><name>PT432</name></trkpt>
<trkpt lat="53.231945" lon="-2.050669"><ele>369</ele><time>2020-10-21T10:10:38Z</time><name>PT433</name></trkpt>
<trkpt lat="53.231924" lon="-2.050636"><ele>369</ele><time>2020-10-21T10:10:41Z</time><name>PT434</name></trkpt>
<trkpt lat="53.231914" lon="-2.050608"><ele>369</ele><time>2020-10-21T10:10:44Z</time><name>PT435</name></trkpt>
<trkpt lat="53.231898" lon="-2.050570"><ele>369</ele><time>2020-10-21T10:10:49Z</time><name>PT436</name></trkpt>
<trkpt lat="53.231887" lon="-2.050528"><ele>370</ele><time>2020-10-21T10:10:53Z</time><name>PT437</name></trkpt>
<trkpt lat="53.231871" lon="-2.050508"><ele>370</ele><time>2020-10-21T10:10:56Z</time><name>PT438</name></trkpt>
<trkpt lat="53.231843" lon="-2.050496"><ele>369</ele><time>2020-10-21T10:10:59Z</time><name>PT439</name></trkpt>
<trkpt lat="53.231830" lon="-2.050510"><ele>366</ele><time>2020-10-21T10:11:02Z</time><name>PT440</name></trkpt>
<trkpt lat="53.231795" lon="-2.050478"><ele>368</ele><time>2020-10-21T10:11:05Z</time><name>PT441</name></trkpt>
<trkpt lat="53.231769" lon="-2.050458"><ele>368</ele><time>2020-10-21T10:11:08Z</time><name>PT442</name></trkpt>
<trkpt lat="53.231729" lon="-2.050417"><ele>369</ele><time>2020-10-21T10:11:13Z</time><name>PT443</name></trkpt>
<trkpt lat="53.231697" lon="-2.050387"><ele>370</ele><time>2020-10-21T10:11:16Z</time><name>PT444</name></trkpt>
<trkpt lat="53.231654" lon="-2.050357"><ele>371</ele><time>2020-10-21T10:11:20Z</time><name>PT445</name></trkpt>
<trkpt lat="53.231627" lon="-2.050336"><ele>371</ele><time>2020-10-21T10:11:23Z</time><name>PT446</name></trkpt>
<trkpt lat="53.231597" lon="-2.050310"><ele>371</ele><time>2020-10-21T10:11:26Z</time><name>PT447</name></trkpt>
<trkpt lat="53.231568" lon="-2.050285"><ele>370</ele><time>2020-10-21T10:11:29Z</time><name>PT448</name></trkpt>
<trkpt lat="53.231526" lon="-2.050252"><ele>370</ele><time>2020-10-21T10:11:32Z</time><name>PT449</name></trkpt>
<trkpt lat="53.231490" lon="-2.050213"><ele>374</ele><time>2020-10-21T10:11:37Z</time><name>PT450</name></trkpt>
<trkpt lat="53.231455" lon="-2.050181"><ele>376</ele><time>2020-10-21T10:11:40Z</time><name>PT451</name></trkpt>
<trkpt lat="53.231418" lon="-2.050160"><ele>377</ele><time>2020-10-21T10:11:44Z</time><name>PT452</name></trkpt>
<trkpt lat="53.231382" lon="-2.050134"><ele>378</ele><time>2020-10-21T10:11:47Z</time><name>PT453</name></trkpt>
<trkpt lat="53.231345" lon="-2.050115"><ele>377</ele><time>2020-10-21T10:11:50Z</time><name>PT454</name></trkpt>
<trkpt lat="53.231302" lon="-2.050092"><ele>372</ele><time>2020-10-21T10:11:55Z</time><name>PT455</name></trkpt>
<trkpt lat="53.231275" lon="-2.050072"><ele>372</ele><time>2020-10-21T10:11:58Z</time><name>PT456</name></trkpt>
<trkpt lat="53.231244" lon="-2.050036"><ele>370</ele><time>2020-10-21T10:12:02Z</time><name>PT457</name></trkpt>
<trkpt lat="53.231208" lon="-2.049990"><ele>371</ele><time>2020-10-21T10:12:05Z</time><name>PT458</name></trkpt>
<trkpt lat="53.231189" lon="-2.049953"><ele>372</ele><time>2020-10-21T10:12:08Z</time><name>PT459</name></trkpt>
<trkpt lat="53.231152" lon="-2.049914"><ele>373</ele><time>2020-10-21T10:12:13Z</time><name>PT460</name></trkpt>
<trkpt lat="53.231122" lon="-2.049893"><ele>373</ele><time>2020-10-21T10:12:16Z</time><name>PT461</name></trkpt>
<trkpt lat="53.231099" lon="-2.049880"><ele>372</ele><time>2020-10-21T10:12:19Z</time><name>PT462</name></trkpt>
<trkpt lat="53.231072" lon="-2.049847"><ele>373</ele><time>2020-10-21T10:12:23Z</time><name>PT463</name></trkpt>
<trkpt lat="53.231041" lon="-2.049822"><ele>374</ele><time>2020-10-21T10:12:26Z</time><name>PT464</name></trkpt>
<trkpt lat="53.231014" lon="-2.049795"><ele>373</ele><time>2020-10-21T10:12:29Z</time><name>PT465</name></trkpt>
<trkpt lat="53.230988" lon="-2.049768"><ele>374</ele><time>2020-10-21T10:12:32Z</time><name>PT466</name></trkpt>
<trkpt lat="53.230958" lon="-2.049731"><ele>374</ele><time>2020-10-21T10:12:35Z</time><name>PT467</name></trkpt>
<trkpt lat="53.230923" lon="-2.049702"><ele>373</ele><time>2020-10-21T10:12:40Z</time><name>PT468</name></trkpt>
<trkpt lat="53.230888" lon="-2.049680"><ele>373</ele><time>2020-10-21T10:12:44Z</time><name>PT469</name></trkpt>
<trkpt lat="53.230846" lon="-2.049653"><ele>373</ele><time>2020-10-21T10:12:47Z</time><name>PT470</name></trkpt>
<trkpt lat="53.230813" lon="-2.049631"><ele>372</ele><time>2020-10-21T10:12:52Z</time><name>PT471</name></trkpt>
<trkpt lat="53.230782" lon="-2.049618"><ele>372</ele><time>2020-10-21T10:12:55Z</time><name>PT472</name></trkpt>
<trkpt lat="53.230735" lon="-2.049581"><ele>374</ele><time>2020-10-21T10:12:59Z</time><name>PT473</name></trkpt>
<trkpt lat="53.230703" lon="-2.049565"><ele>373</ele><time>2020-10-21T10:13:02Z</time><name>PT474</name></trkpt>
<trkpt lat="53.230669" lon="-2.049517"><ele>374</ele><time>2020-10-21T10:13:05Z</time><name>PT475</name></trkpt>
<trkpt lat="53.230638" lon="-2.049473"><ele>377</ele><time>2020-10-21T10:13:08Z</time><name>PT476</name></trkpt>
<trkpt lat="53.230600" lon="-2.049436"><ele>375</ele><time>2020-10-21T10:13:13Z</time><name>PT477</name></trkpt>
<trkpt lat="53.230559" lon="-2.049405"><ele>375</ele><time>2020-10-21T10:13:17Z</time><name>PT478</name></trkpt>
<trkpt lat="53.230528" lon="-2.049358"><ele>375</ele><time>2020-10-21T10:13:20Z</time><name>PT479</name></trkpt>
<trkpt lat="53.230498" lon="-2.049324"><ele>376</ele><time>2020-10-21T10:13:23Z</time><name>PT480</name></trkpt>
<trkpt lat="53.230466" lon="-2.049274"><ele>378</ele><time>2020-10-21T10:13:26Z</time><name>PT481</name></trkpt>
<trkpt lat="53.230441" lon="-2.049215"><ele>379</ele><time>2020-10-21T10:13:31Z</time><name>PT482</name></trkpt>
<trkpt lat="53.230432" lon="-2.049177"><ele>379</ele><time>2020-10-21T10:13:34Z</time><name>PT483</name></trkpt>
<trkpt lat="53.230415" lon="-2.049117"><ele>380</ele><time>2020-10-21T10:13:38Z</time><name>PT484</name></trkpt>
<trkpt lat="53.230403" lon="-2.049058"><ele>380</ele><time>2020-10-21T10:13:41Z</time><name>PT485</name></trkpt>
<trkpt lat="53.230387" lon="-2.048987"><ele>382</ele><time>2020-10-21T10:13:44Z</time><name>PT486</name></trkpt>
<trkpt lat="53.230371" lon="-2.048933"><ele>381</ele><time>2020-10-21T10:13:47Z</time><name>PT487</name></trkpt>
<trkpt lat="53.230353" lon="-2.048884"><ele>382</ele><time>2020-10-21T10:13:50Z</time><name>PT488</name></trkpt>
<trkpt lat="53.230334" lon="-2.048824"><ele>382</ele><time>2020-10-21T10:13:53Z</time><name>PT489</name></trkpt>
<trkpt lat="53.230313" lon="-2.048768"><ele>382</ele><time>2020-10-21T10:13:56Z</time><name>PT490</name></trkpt>
<trkpt lat="53.230294" lon="-2.048695"><ele>382</ele><time>2020-10-21T10:14:01Z</time><name>PT491</name></trkpt>
<trkpt lat="53.230280" lon="-2.048650"><ele>381</ele><time>2020-10-21T10:14:04Z</time><name>PT492</name></trkpt>
<trkpt lat="53.230262" lon="-2.048587"><ele>381</ele><time>2020-10-21T10:14:07Z</time><name>PT493</name></trkpt>
<trkpt lat="53.230247" lon="-2.048511"><ele>381</ele><time>2020-10-21T10:14:11Z</time><name>PT494</name></trkpt>
<trkpt lat="53.230234" lon="-2.048453"><ele>382</ele><time>2020-10-21T10:14:14Z</time><name>PT495</name></trkpt>
<trkpt lat="53.230225" lon="-2.048376"><ele>382</ele><time>2020-10-21T10:14:17Z</time><name>PT496</name></trkpt>
<trkpt lat="53.230214" lon="-2.048298"><ele>382</ele><time>2020-10-21T10:14:22Z</time><name>PT497</name></trkpt>
<trkpt lat="53.230211" lon="-2.048233"><ele>383</ele><time>2020-10-21T10:14:25Z</time><name>PT498</name></trkpt>
<trkpt lat="53.230207" lon="-2.048156"><ele>383</ele><time>2020-10-21T10:14:29Z</time><name>PT499</name></trkpt>
<trkpt lat="53.230201" lon="-2.048102"><ele>383</ele><time>2020-10-21T10:14:32Z</time><name>PT500</name></trkpt>
<trkpt lat="53.230198" lon="-2.048013"><ele>383</ele><time>2020-10-21T10:14:35Z</time><name>PT501</name></trkpt>
<trkpt lat="53.230195" lon="-2.047951"><ele>383</ele><time>2020-10-21T10:14:39Z</time><name>PT502</name></trkpt>
<trkpt lat="53.230182" lon="-2.047894"><ele>382</ele><time>2020-10-21T10:14:42Z</time><name>PT503</name></trkpt>
<trkpt lat="53.230178" lon="-2.047818"><ele>382</ele><time>2020-10-21T10:14:46Z</time><name>PT504</name></trkpt>
<trkpt lat="53.230175" lon="-2.047755"><ele>383</ele><time>2020-10-21T10:14:49Z</time><name>PT505</name></trkpt>
<trkpt lat="53.230177" lon="-2.047702"><ele>384</ele><time>2020-10-21T10:14:52Z</time><name>PT506</name></trkpt>
<trkpt lat="53.230177" lon="-2.047626"><ele>384</ele><time>2020-10-21T10:14:56Z</time><name>PT507</name></trkpt>
<trkpt lat="53.230175" lon="-2.047551"><ele>385</ele><time>2020-10-21T10:14:59Z</time><name>PT508</name></trkpt>
<trkpt lat="53.230176" lon="-2.047493"><ele>386</ele><time>2020-10-21T10:15:02Z</time><name>PT509</name></trkpt>
<trkpt lat="53.230173" lon="-2.047425"><ele>385</ele><time>2020-10-21T10:15:07Z</time><name>PT510</name></trkpt>
<trkpt lat="53.230175" lon="-2.047372"><ele>386</ele><time>2020-10-21T10:15:10Z</time><name>PT511</name></trkpt>
<trkpt lat="53.230175" lon="-2.047292"><ele>387</ele><time>2020-10-21T10:15:14Z</time><name>PT512</name></trkpt>
<trkpt lat="53.230173" lon="-2.047221"><ele>388</ele><time>2020-10-21T10:15:17Z</time><name>PT513</name></trkpt>
<trkpt lat="53.230172" lon="-2.047169"><ele>388</ele><time>2020-10-21T10:15:20Z</time><name>PT514</name></trkpt>
<trkpt lat="53.230171" lon="-2.047116"><ele>388</ele><time>2020-10-21T10:15:23Z</time><name>PT515</name></trkpt>
<trkpt lat="53.230167" lon="-2.047048"><ele>389</ele><time>2020-10-21T10:15:28Z</time><name>PT516</name></trkpt>
<trkpt lat="53.230162" lon="-2.046968"><ele>389</ele><time>2020-10-21T10:15:32Z</time><name>PT517</name></trkpt>
<trkpt lat="53.230164" lon="-2.046918"><ele>390</ele><time>2020-10-21T10:15:35Z</time><name>PT518</name></trkpt>
<trkpt lat="53.230164" lon="-2.046856"><ele>390</ele><time>2020-10-21T10:15:38Z</time><name>PT519</name></trkpt>
<trkpt lat="53.230166" lon="-2.046793"><ele>390</ele><time>2020-10-21T10:15:41Z</time><name>PT520</name></trkpt>
<trkpt lat="53.230169" lon="-2.046709"><ele>391</ele><time>2020-10-21T10:15:44Z</time><name>PT521</name></trkpt>
<trkpt lat="53.230171" lon="-2.046625"><ele>391</ele><time>2020-10-21T10:15:49Z</time><name>PT522</name></trkpt>
<trkpt lat="53.230175" lon="-2.046546"><ele>392</ele><time>2020-10-21T10:15:53Z</time><name>PT523</name></trkpt>
<trkpt lat="53.230180" lon="-2.046464"><ele>393</ele><time>2020-10-21T10:15:56Z</time><name>PT524</name></trkpt>
<trkpt lat="53.230188" lon="-2.046392"><ele>394</ele><time>2020-10-21T10:16:01Z</time><name>PT525</name></trkpt>
<trkpt lat="53.230191" lon="-2.046341"><ele>394</ele><time>2020-10-21T10:16:04Z</time><name>PT526</name></trkpt>
<trkpt lat="53.230202" lon="-2.046275"><ele>394</ele><time>2020-10-21T10:16:08Z</time><name>PT527</name></trkpt>
<trkpt lat="53.230206" lon="-2.046222"><ele>394</ele><time>2020-10-21T10:16:11Z</time><name>PT528</name></trkpt>
<trkpt lat="53.230214" lon="-2.046167"><ele>395</ele><time>2020-10-21T10:16:14Z</time><name>PT529</name></trkpt>
<trkpt lat="53.230215" lon="-2.046120"><ele>395</ele><time>2020-10-21T10:16:17Z</time><name>PT530</name></trkpt>
<trkpt lat="53.230211" lon="-2.046071"><ele>396</ele><time>2020-10-21T10:16:20Z</time><name>PT531</name></trkpt>
<trkpt lat="53.230193" lon="-2.046047"><ele>395</ele><time>2020-10-21T10:16:23Z</time><name>PT532</name></trkpt>
<trkpt lat="53.230172" lon="-2.046000"><ele>395</ele><time>2020-10-21T10:16:28Z</time><name>PT533</name></trkpt>
<trkpt lat="53.230161" lon="-2.045968"><ele>396</ele><time>2020-10-21T10:16:31Z</time><name>PT534</name></trkpt>
<trkpt lat="53.230145" lon="-2.045913"><ele>396</ele><time>2020-10-21T10:16:35Z</time><name>PT535</name></trkpt>
<trkpt lat="53.230137" lon="-2.045868"><ele>397</ele><time>2020-10-21T10:16:38Z</time><name>PT536</name></trkpt>
<trkpt lat="53.230130" lon="-2.045821"><ele>397</ele><time>2020-10-21T10:16:41Z</time><name>PT537</name></trkpt>
<trkpt lat="53.230123" lon="-2.045781"><ele>398</ele><time>2020-10-21T10:16:44Z</time><name>PT538</name></trkpt>
<trkpt lat="53.230116" lon="-2.045744"><ele>397</ele><time>2020-10-21T10:16:47Z</time><name>PT539</name></trkpt>
<trkpt lat="53.230112" lon="-2.045712"><ele>397</ele><time>2020-10-21T10:16:50Z</time><name>PT540</name></trkpt>
<trkpt lat="53.230105" lon="-2.045663"><ele>397</ele><time>2020-10-21T10:16:55Z</time><name>PT541</name></trkpt>
<trkpt lat="53.230102" lon="-2.045619"><ele>399</ele><time>2020-10-21T10:16:58Z</time><name>PT542</name></trkpt>
<trkpt lat="53.230102" lon="-2.045562"><ele>400</ele><time>2020-10-21T10:17:01Z</time><name>PT543</name></trkpt>
<trkpt lat="53.230104" lon="-2.045525"><ele>401</ele><time>2020-10-21T10:17:04Z</time><name>PT544</name></trkpt>
<trkpt lat="53.230103" lon="-2.045476"><ele>400</ele><time>2020-10-21T10:17:08Z</time><name>PT545</name></trkpt>
<trkpt lat="53.230114" lon="-2.045412"><ele>401</ele><time>2020-10-21T10:17:11Z</time><name>PT546</name></trkpt>
<trkpt lat="53.230124" lon="-2.045362"><ele>401</ele><time>2020-10-21T10:17:16Z</time><name>PT547</name></trkpt>
<trkpt lat="53.230129" lon="-2.045324"><ele>401</ele><time>2020-10-21T10:17:19Z</time><name>PT548</name></trkpt>
<trkpt lat="53.230143" lon="-2.045273"><ele>401</ele><time>2020-10-21T10:17:23Z</time><name>PT549</name></trkpt>
<trkpt lat="53.230154" lon="-2.045230"><ele>401</ele><time>2020-10-21T10:17:26Z</time><name>PT550</name></trkpt>
<trkpt lat="53.230169" lon="-2.045178"><ele>402</ele><time>2020-10-21T10:17:29Z</time><name>PT551</name></trkpt>
<trkpt lat="53.230180" lon="-2.045119"><ele>403</ele><time>2020-10-21T10:17:34Z</time><name>PT552</name></trkpt>
<trkpt lat="53.230187" lon="-2.045074"><ele>404</ele><time>2020-10-21T10:17:38Z</time><name>PT553</name></trkpt>
<trkpt lat="53.230191" lon="-2.045033"><ele>404</ele><time>2020-10-21T10:17:41Z</time><name>PT554</name></trkpt>
<trkpt lat="53.230194" lon="-2.045005"><ele>402</ele><time>2020-10-21T10:17:44Z</time><name>PT555</name></trkpt>
<trkpt lat="53.230193" lon="-2.044925"><ele>402</ele><time>2020-10-21T10:17:47Z</time><name>PT556</name></trkpt>
<trkpt lat="53.230182" lon="-2.044852"><ele>402</ele><time>2020-10-21T10:17:50Z</time><name>PT557</name></trkpt>
<trkpt lat="53.230172" lon="-2.044808"><ele>402</ele><time>2020-10-21T10:17:53Z</time><name>PT558</name></trkpt>
<trkpt lat="53.230155" lon="-2.044758"><ele>403</ele><time>2020-10-21T10:17:58Z</time><name>PT559</name></trkpt>
<trkpt lat="53.230140" lon="-2.044723"><ele>404</ele><time>2020-10-21T10:18:01Z</time><name>PT560</name></trkpt>
<trkpt lat="53.230129" lon="-2.044690"><ele>404</ele><time>2020-10-21T10:18:04Z</time><name>PT561</name></trkpt>
<trkpt lat="53.230119" lon="-2.044661"><ele>405</ele><time>2020-10-21T10:18:08Z</time><name>PT562</name></trkpt>
<trkpt lat="53.230117" lon="-2.044660"><ele>406</ele><time>2020-10-21T10:18:11Z</time><name>PT563</name></trkpt>
<trkpt lat="53.230114" lon="-2.044632"><ele>407</ele><time>2020-10-21T10:18:14Z</time><name>PT564</name></trkpt>
<trkpt lat="53.230102" lon="-2.044615"><ele>407</ele><time>2020-10-21T10:18:19Z</time><name>PT565</name></trkpt>
<trkpt lat="53.230102" lon="-2.044616"><ele>406</ele><time>2020-10-21T10:18:23Z</time><name>PT566</name></trkpt>
<trkpt lat="53.230094" lon="-2.044596"><ele>407</ele><time>2020-10-21T10:18:29Z</time><name>PT567</name></trkpt>
<trkpt lat="53.230082" lon="-2.044604"><ele>408</ele><time>2020-10-21T10:18:32Z</time><name>PT568</name></trkpt>
<trkpt lat="53.230070" lon="-2.044583"><ele>409</ele><time>2020-10-21T10:18:37Z</time><name>PT569</name></trkpt>
<trkpt lat="53.230071" lon="-2.044577"><ele>410</ele><time>2020-10-21T10:18:41Z</time><name>PT570</name></trkpt>
<trkpt lat="53.230069" lon="-2.044575"><ele>410</ele><time>2020-10-21T10:18:59Z</time><name>PT571</name></trkpt>
<trkpt lat="53.230073" lon="-2.044564"><ele>410</ele><time>2020-10-21T10:19:02Z</time><name>PT572</name></trkpt>
<trkpt lat="53.230071" lon="-2.044564"><ele>410</ele><time>2020-10-21T10:19:05Z</time><name>PT573</name></trkpt>
<trkpt lat="53.230073" lon="-2.044585"><ele>411</ele><time>2020-10-21T10:19:53Z</time><name>PT574</name></trkpt>
<trkpt lat="53.230075" lon="-2.044587"><ele>412</ele><time>2020-10-21T10:20:01Z</time><name>PT575</name></trkpt>
<trkpt lat="53.230077" lon="-2.044587"><ele>411</ele><time>2020-10-21T10:20:02Z</time><name>PT576</name></trkpt>
<trkpt lat="53.230077" lon="-2.044587"><ele>411</ele><time>2020-10-21T10:20:02Z</time><name>PT577</name></trkpt>
<trkpt lat="53.230075" lon="-2.044585"><ele>412</ele><time>2020-10-21T10:20:04Z</time><name>PT578</name></trkpt>
<trkpt lat="53.230075" lon="-2.044585"><ele>412</ele><time>2020-10-21T10:20:05Z</time><name>PT579</name></trkpt>
<trkpt lat="53.230080" lon="-2.044588"><ele>411</ele><time>2020-10-21T10:21:01Z</time><name>PT580</name></trkpt>
<trkpt lat="53.230082" lon="-2.044575"><ele>411</ele><time>2020-10-21T10:21:02Z</time><name>PT581</name></trkpt>
<trkpt lat="53.230080" lon="-2.044561"><ele>411</ele><time>2020-10-21T10:21:03Z</time><name>PT582</name></trkpt>
<trkpt lat="53.230078" lon="-2.044548"><ele>411</ele><time>2020-10-21T10:21:04Z</time><name>PT583</name></trkpt>
<trkpt lat="53.230071" lon="-2.044537"><ele>411</ele><time>2020-10-21T10:21:05Z</time><name>PT584</name></trkpt>
<trkpt lat="53.230067" lon="-2.044524"><ele>411</ele><time>2020-10-21T10:21:05Z</time><name>PT585</name></trkpt>
<trkpt lat="53.230064" lon="-2.044509"><ele>411</ele><time>2020-10-21T10:21:07Z</time><name>PT586</name></trkpt>
<trkpt lat="53.230061" lon="-2.044497"><ele>411</ele><time>2020-10-21T10:21:08Z</time><name>PT587</name></trkpt>
<trkpt lat="53.230059" lon="-2.044486"><ele>411</ele><time>2020-10-21T10:21:08Z</time><name>PT588</name></trkpt>
<trkpt lat="53.230057" lon="-2.044474"><ele>411</ele><time>2020-10-21T10:21:10Z</time><name>PT589</name></trkpt>
<trkpt lat="53.230055" lon="-2.044457"><ele>411</ele><time>2020-10-21T10:21:11Z</time><name>PT590</name></trkpt>
<trkpt lat="53.230051" lon="-2.044445"><ele>411</ele><time>2020-10-21T10:21:11Z</time><name>PT591</name></trkpt>
<trkpt lat="53.230045" lon="-2.044432"><ele>412</ele><time>2020-10-21T10:21:13Z</time><name>PT592</name></trkpt>
<trkpt lat="53.230039" lon="-2.044417"><ele>412</ele><time>2020-10-21T10:21:14Z</time><name>PT593</name></trkpt>
<trkpt lat="53.230032" lon="-2.044402"><ele>412</ele><time>2020-10-21T10:21:14Z</time><name>PT594</name></trkpt>
<trkpt lat="53.230028" lon="-2.044388"><ele>412</ele><time>2020-10-21T10:21:16Z</time><name>PT595</name></trkpt>
<trkpt lat="53.230025" lon="-2.044373"><ele>412</ele><time>2020-10-21T10:21:17Z</time><name>PT596</name></trkpt>
<trkpt lat="53.230021" lon="-2.044359"><ele>413</ele><time>2020-10-21T10:21:17Z</time><name>PT597</name></trkpt>
<trkpt lat="53.230017" lon="-2.044347"><ele>412</ele><time>2020-10-21T10:21:19Z</time><name>PT598</name></trkpt>
<trkpt lat="53.230012" lon="-2.044337"><ele>413</ele><time>2020-10-21T10:21:20Z</time><name>PT599</name></trkpt>
<trkpt lat="53.230007" lon="-2.044329"><ele>413</ele><time>2020-10-21T10:21:20Z</time><name>PT600</name></trkpt>
<trkpt lat="53.230004" lon="-2.044320"><ele>413</ele><time>2020-10-21T10:21:22Z</time><name>PT601</name></trkpt>
<trkpt lat="53.230000" lon="-2.044310"><ele>413</ele><time>2020-10-21T10:21:23Z</time><name>PT602</name></trkpt>
<trkpt lat="53.229994" lon="-2.044300"><ele>413</ele><time>2020-10-21T10:21:24Z</time><name>PT603</name></trkpt>
<trkpt lat="53.229988" lon="-2.044288"><ele>414</ele><time>2020-10-21T10:21:25Z</time><name>PT604</name></trkpt>
<trkpt lat="53.229983" lon="-2.044275"><ele>414</ele><time>2020-10-21T10:21:26Z</time><name>PT605</name></trkpt>
<trkpt lat="53.229980" lon="-2.044263"><ele>414</ele><time>2020-10-21T10:21:26Z</time><name>PT606</name></trkpt>
<trkpt lat="53.229975" lon="-2.044253"><ele>414</ele><time>2020-10-21T10:21:28Z</time><name>PT607</name></trkpt>
<trkpt lat="53.229971" lon="-2.044238"><ele>414</ele><time>2020-10-21T10:21:29Z</time><name>PT608</name></trkpt>
<trkpt lat="53.229967" lon="-2.044225"><ele>414</ele><time>2020-10-21T10:21:30Z</time><name>PT609</name></trkpt>
<trkpt lat="53.229962" lon="-2.044214"><ele>414</ele><time>2020-10-21T10:21:31Z</time><name>PT610</name></trkpt>
<trkpt lat="53.229959" lon="-2.044204"><ele>414</ele><time>2020-10-21T10:21:32Z</time><name>PT611</name></trkpt>
<trkpt lat="53.229957" lon="-2.044191"><ele>414</ele><time>2020-10-21T10:21:32Z</time><name>PT612</name></trkpt>
<trkpt lat="53.229956" lon="-2.044176"><ele>414</ele><time>2020-10-21T10:21:34Z</time><name>PT613</name></trkpt>
<trkpt lat="53.229952" lon="-2.044161"><ele>414</ele><time>2020-10-21T10:21:35Z</time><name>PT614</name></trkpt>
<trkpt lat="53.229950" lon="-2.044146"><ele>414</ele><time>2020-10-21T10:21:35Z</time><name>PT615</name></trkpt>
<trkpt lat="53.229946" lon="-2.044131"><ele>414</ele><time>2020-10-21T10:21:37Z</time><name>PT616</name></trkpt>
<trkpt lat="53.229943" lon="-2.044114"><ele>414</ele><time>2020-10-21T10:21:38Z</time><name>PT617</name></trkpt>
<trkpt lat="53.229943" lon="-2.044098"><ele>414</ele><time>2020-10-21T10:21:38Z</time><name>PT618</name></trkpt>
<trkpt lat="53.229942" lon="-2.044082"><ele>414</ele><time>2020-10-21T10:21:40Z</time><name>PT619</name></trkpt>
<trkpt lat="53.229941" lon="-2.044067"><ele>414</ele><time>2020-10-21T10:21:41Z</time><name>PT620</name></trkpt>
<trkpt lat="53.229942" lon="-2.044054"><ele>414</ele><time>2020-10-21T10:21:41Z</time><name>PT621</name></trkpt>
<trkpt lat="53.229941" lon="-2.044038"><ele>414</ele><time>2020-10-21T10:21:43Z</time><name>PT622</name></trkpt>
<trkpt lat="53.229939" lon="-2.044022"><ele>414</ele><time>2020-10-21T10:21:44Z</time><name>PT623</name></trkpt>
<trkpt lat="53.229938" lon="-2.044005"><ele>414</ele><time>2020-10-21T10:21:44Z</time><name>PT624</name></trkpt>
<trkpt lat="53.229937" lon="-2.043992"><ele>414</ele><time>2020-10-21T10:21:46Z</time><name>PT625</name></trkpt>
<trkpt lat="53.229936" lon="-2.043978"><ele>414</ele><time>2020-10-21T10:21:47Z</time><name>PT626</name></trkpt>
<trkpt lat="53.229936" lon="-2.043964"><ele>414</ele><time>2020-10-21T10:21:47Z</time><name>PT627</name></trkpt>
<trkpt lat="53.229936" lon="-2.043950"><ele>414</ele><time>2020-10-21T10:21:49Z</time><name>PT628</name></trkpt>
<trkpt lat="53.229935" lon="-2.043934"><ele>415</ele><time>2020-10-21T10:21:50Z</time><name>PT629</name></trkpt>
<trkpt lat="53.229934" lon="-2.043919"><ele>415</ele><time>2020-10-21T10:21:50Z</time><name>PT630</name></trkpt>
<trkpt lat="53.229933" lon="-2.043904"><ele>415</ele><time>2020-10-21T10:21:52Z</time><name>PT631</name></trkpt>
<trkpt lat="53.229930" lon="-2.043887"><ele>415</ele><time>2020-10-21T10:21:53Z</time><name>PT632</name></trkpt>
<trkpt lat="53.229927" lon="-2.043872"><ele>416</ele><time>2020-10-21T10:21:53Z</time><name>PT633</name></trkpt>
<trkpt lat="53.229924" lon="-2.043859"><ele>416</ele><time>2020-10-21T10:21:55Z</time><name>PT634</name></trkpt>
<trkpt lat="53.229920" lon="-2.043845"><ele>416</ele><time>2020-10-21T10:21:56Z</time><name>PT635</name></trkpt>
<trkpt lat="53.229916" lon="-2.043828"><ele>416</ele><time>2020-10-21T10:21:56Z</time><name>PT636</name></trkpt>
<trkpt lat="53.229913" lon="-2.043812"><ele>416</ele><time>2020-10-21T10:21:58Z</time><name>PT637</name></trkpt>
<trkpt lat="53.229911" lon="-2.043798"><ele>416</ele><time>2020-10-21T10:21:59Z</time><name>PT638</name></trkpt>
<trkpt lat="53.229908" lon="-2.043786"><ele>416</ele><time>2020-10-21T10:21:59Z</time><name>PT639</name></trkpt>
<trkpt lat="53.229905" lon="-2.043772"><ele>417</ele><time>2020-10-21T10:22:01Z</time><name>PT640</name></trkpt>
<trkpt lat="53.229902" lon="-2.043760"><ele>417</ele><time>2020-10-21T10:22:02Z</time><name>PT641</name></trkpt>
<trkpt lat="53.229899" lon="-2.043746"><ele>417</ele><time>2020-10-21T10:22:02Z</time><name>PT642</name></trkpt>
<trkpt lat="53.229897" lon="-2.043732"><ele>417</ele><time>2020-10-21T10:22:04Z</time><name>PT643</name></trkpt>
<trkpt lat="53.229894" lon="-2.043719"><ele>417</ele><time>2020-10-21T10:22:05Z</time><name>PT644</name></trkpt>
<trkpt lat="53.229892" lon="-2.043705"><ele>417</ele><time>2020-10-21T10:22:05Z</time><name>PT645</name></trkpt>
<trkpt lat="53.229889" lon="-2.043692"><ele>417</ele><time>2020-10-21T10:22:07Z</time><name>PT646</name></trkpt>
<trkpt lat="53.229885" lon="-2.043678"><ele>417</ele><time>2020-10-21T10:22:08Z</time><name>PT647</name></trkpt>
<trkpt lat="53.229880" lon="-2.043664"><ele>418</ele><time>2020-10-21T10:22:08Z</time><name>PT648</name></trkpt>
<trkpt lat="53.229877" lon="-2.043651"><ele>418</ele><time>2020-10-21T10:22:10Z</time><name>PT649</name></trkpt>
<trkpt lat="53.229876" lon="-2.043640"><ele>418</ele><time>2020-10-21T10:22:11Z</time><name>PT650</name></trkpt>
<trkpt lat="53.229871" lon="-2.043625"><ele>419</ele><time>2020-10-21T10:22:11Z</time><name>PT651</name></trkpt>
<trkpt lat="53.229866" lon="-2.043611"><ele>419</ele><time>2020-10-21T10:22:13Z</time><name>PT652</name></trkpt>
<trkpt lat="53.229860" lon="-2.043595"><ele>419</ele><time>2020-10-21T10:22:14Z</time><name>PT653</name></trkpt>
<trkpt lat="53.229857" lon="-2.043581"><ele>419</ele><time>2020-10-21T10:22:14Z</time><name>PT654</name></trkpt>
<trkpt lat="53.229851" lon="-2.043566"><ele>419</ele><time>2020-10-21T10:22:16Z</time><name>PT655</name></trkpt>
<trkpt lat="53.229846" lon="-2.043551"><ele>419</ele><time>2020-10-21T10:22:17Z</time><name>PT656</name></trkpt>
<trkpt lat="53.229842" lon="-2.043536"><ele>420</ele><time>2020-10-21T10:22:17Z</time><name>PT657</name></trkpt>
<trkpt lat="53.229836" lon="-2.043522"><ele>420</ele><time>2020-10-21T10:22:19Z</time><name>PT658</name></trkpt>
<trkpt lat="53.229828" lon="-2.043510"><ele>420</ele><time>2020-10-21T10:22:20Z</time><name>PT659</name></trkpt>
<trkpt lat="53.229821" lon="-2.043498"><ele>420</ele><time>2020-10-21T10:22:20Z</time><name>PT660</name></trkpt>
<trkpt lat="53.229816" lon="-2.043486"><ele>420</ele><time>2020-10-21T10:22:22Z</time><name>PT661</name></trkpt>
<trkpt lat="53.229810" lon="-2.043478"><ele>420</ele><time>2020-10-21T10:22:23Z</time><name>PT662</name></trkpt>
<trkpt lat="53.229803" lon="-2.043464"><ele>420</ele><time>2020-10-21T10:22:23Z</time><name>PT663</name></trkpt>
<trkpt lat="53.229796" lon="-2.043450"><ele>420</ele><time>2020-10-21T10:22:25Z</time><name>PT664</name></trkpt>
<trkpt lat="53.229789" lon="-2.043437"><ele>421</ele><time>2020-10-21T10:22:26Z</time><name>PT665</name></trkpt>
<trkpt lat="53.229782" lon="-2.043424"><ele>421</ele><time>2020-10-21T10:22:26Z</time><name>PT666</name></trkpt>
<trkpt lat="53.229776" lon="-2.043413"><ele>421</ele><time>2020-10-21T10:22:28Z</time><name>PT667</name></trkpt>
<trkpt lat="53.229770" lon="-2.043401"><ele>422</ele><time>2020-10-21T10:22:29Z</time><name>PT668</name></trkpt>
<trkpt lat="53.229764" lon="-2.043389"><ele>422</ele><time>2020-10-21T10:22:29Z</time><name>PT669</name></trkpt>
<trkpt lat="53.229759" lon="-2.043378"><ele>422</ele><time>2020-10-21T10:22:31Z</time><name>PT670</name></trkpt>
<trkpt lat="53.229754" lon="-2.043365"><ele>422</ele><time>2020-10-21T10:22:32Z</time><name>PT671</name></trkpt>
<trkpt lat="53.229749" lon="-2.043354"><ele>422</ele><time>2020-10-21T10:22:32Z</time><name>PT672</name></trkpt>
<trkpt lat="53.229744" lon="-2.043341"><ele>423</ele><time>2020-10-21T10:22:34Z</time><name>PT673</name></trkpt>
<trkpt lat="53.229740" lon="-2.043330"><ele>423</ele><time>2020-10-21T10:22:35Z</time><name>PT674</name></trkpt>
<trkpt lat="53.229734" lon="-2.043318"><ele>423</ele><time>2020-10-21T10:22:35Z</time><name>PT675</name></trkpt>
<trkpt lat="53.229729" lon="-2.043306"><ele>423</ele><time>2020-10-21T10:22:37Z</time><name>PT676</name></trkpt>
<trkpt lat="53.229722" lon="-2.043295"><ele>423</ele><time>2020-10-21T10:22:38Z</time><name>PT677</name></trkpt>
<trkpt lat="53.229716" lon="-2.043284"><ele>424</ele><time>2020-10-21T10:22:38Z</time><name>PT678</name></trkpt>
<trkpt lat="53.229709" lon="-2.043270"><ele>424</ele><time>2020-10-21T10:22:40Z</time><name>PT679</name></trkpt>
<trkpt lat="53.229703" lon="-2.043258"><ele>424</ele><time>2020-10-21T10:22:41Z</time><name>PT680</name></trkpt>
<trkpt lat="53.229697" lon="-2.043245"><ele>424</ele><time>2020-10-21T10:22:41Z</time><name>PT681</name></trkpt>
<trkpt lat="53.229692" lon="-2.043233"><ele>424</ele><time>2020-10-21T10:22:43Z</time><name>PT682</name></trkpt>
<trkpt lat="53.229688" lon="-2.043218"><ele>424</ele><time>2020-10-21T10:22:44Z</time><name>PT683</name></trkpt>
<trkpt lat="53.229682" lon="-2.043206"><ele>425</ele><time>2020-10-21T10:22:44Z</time><name>PT684</name></trkpt>
<trkpt lat="53.229679" lon="-2.043195"><ele>425</ele><time>2020-10-21T10:22:46Z</time><name>PT685</name></trkpt>
<trkpt lat="53.229676" lon="-2.043184"><ele>425</ele><time>2020-10-21T10:22:47Z</time><name>PT686</name></trkpt>
<trkpt lat="53.229671" lon="-2.043173"><ele>425</ele><time>2020-10-21T10:22:47Z</time><name>PT687</name></trkpt>
<trkpt lat="53.229666" lon="-2.043162"><ele>425</ele><time>2020-10-21T10:22:49Z</time><name>PT688</name></trkpt>
<trkpt lat="53.229661" lon="-2.043147"><ele>425</ele><time>2020-10-21T10:22:50Z</time><name>PT689</name></trkpt>
<trkpt lat="53.229657" lon="-2.043133"><ele>425</ele><time>2020-10-21T10:22:50Z</time><name>PT690</name></trkpt>
<trkpt lat="53.229658" lon="-2.043124"><ele>425</ele><time>2020-10-21T10:22:52Z</time><name>PT691</name></trkpt>
<trkpt lat="53.229653" lon="-2.043116"><ele>426</ele><time>2020-10-21T10:22:53Z</time><name>PT692</name></trkpt>
<trkpt lat="53.229649" lon="-2.043105"><ele>426</ele><time>2020-10-21T10:22:53Z</time><name>PT693</name></trkpt>
<trkpt lat="53.229645" lon="-2.043093"><ele>426</ele><time>2020-10-21T10:22:55Z</time><name>PT694</name></trkpt>
<trkpt lat="53.229628" lon="-2.043048"><ele>427</ele><time>2020-10-21T10:22:58Z</time><name>PT695</name></trkpt>
<trkpt lat="53.229607" lon="-2.042990"><ele>428</ele><time>2020-10-21T10:23:02Z</time><name>PT696</name></trkpt>
<trkpt lat="53.229588" lon="-2.042935"><ele>428</ele><time>2020-10-21T10:23:05Z</time><name>PT697</name></trkpt>
<trkpt lat="53.229567" lon="-2.042886"><ele>429</ele><time>2020-10-21T10:23:10Z</time><name>PT698</name></trkpt>
<trkpt lat="53.229551" lon="-2.042841"><ele>429</ele><time>2020-10-21T10:23:13Z</time><name>PT699</name></trkpt>
<trkpt lat="53.229537" lon="-2.042797"><ele>429</ele><time>2020-10-21T10:23:16Z</time><name>PT700</name></trkpt>
<trkpt lat="53.229518" lon="-2.042739"><ele>428</ele><time>2020-10-21T10:23:20Z</time><name>PT701</name></trkpt>
<trkpt lat="53.229494" lon="-2.042684"><ele>429</ele><time>2020-10-21T10:23:23Z</time><name>PT702</name></trkpt>
<trkpt lat="53.229485" lon="-2.042649"><ele>429</ele><time>2020-10-21T10:23:26Z</time><name>PT703</name></trkpt>
<trkpt lat="53.229465" lon="-2.042590"><ele>429</ele><time>2020-10-21T10:23:31Z</time><name>PT704</name></trkpt>
<trkpt lat="53.229445" lon="-2.042540"><ele>429</ele><time>2020-10-21T10:23:35Z</time><name>PT705</name></trkpt>
<trkpt lat="53.229426" lon="-2.042502"><ele>430</ele><time>2020-10-21T10:23:38Z</time><name>PT706</name></trkpt>
<trkpt lat="53.229403" lon="-2.042464"><ele>430</ele><time>2020-10-21T10:23:41Z</time><name>PT707</name></trkpt>
<trkpt lat="53.229375" lon="-2.042414"><ele>431</ele><time>2020-10-21T10:23:44Z</time><name>PT708</name></trkpt>
<trkpt lat="53.229354" lon="-2.042364"><ele>431</ele><time>2020-10-21T10:23:49Z</time><name>PT709</name></trkpt>
<trkpt lat="53.229338" lon="-2.042335"><ele>432</ele><time>2020-10-21T10:23:52Z</time><name>PT710</name></trkpt>
<trkpt lat="53.229311" lon="-2.042284"><ele>433</ele><time>2020-10-21T10:23:56Z</time><name>PT711</name></trkpt>
<trkpt lat="53.229290" lon="-2.042245"><ele>433</ele><time>2020-10-21T10:23:59Z</time><name>PT712</name></trkpt>
<trkpt lat="53.229263" lon="-2.042189"><ele>434</ele><time>2020-10-21T10:24:02Z</time><name>PT713</name></trkpt>
<trkpt lat="53.229245" lon="-2.042155"><ele>434</ele><time>2020-10-21T10:24:05Z</time><name>PT714</name></trkpt>
<trkpt lat="53.229227" lon="-2.042118"><ele>434</ele><time>2020-10-21T10:24:08Z</time><name>PT715</name></trkpt>
<trkpt lat="53.229202" lon="-2.042067"><ele>434</ele><time>2020-10-21T10:24:13Z</time><name>PT716</name></trkpt>
<trkpt lat="53.229183" lon="-2.042018"><ele>435</ele><time>2020-10-21T10:24:16Z</time><name>PT717</name></trkpt>
<trkpt lat="53.229167" lon="-2.041971"><ele>434</ele><time>2020-10-21T10:24:20Z</time><name>PT718</name></trkpt>
<trkpt lat="53.229156" lon="-2.041929"><ele>435</ele><time>2020-10-21T10:24:23Z</time><name>PT719</name></trkpt>
<trkpt lat="53.229141" lon="-2.041887"><ele>435</ele><time>2020-10-21T10:24:26Z</time><name>PT720</name></trkpt>
<trkpt lat="53.229128" lon="-2.041848"><ele>435</ele><time>2020-10-21T10:24:29Z</time><name>PT721</name></trkpt>
<trkpt lat="53.229110" lon="-2.041797"><ele>435</ele><time>2020-10-21T10:24:32Z</time><name>PT722</name></trkpt>
<trkpt lat="53.229095" lon="-2.041755"><ele>435</ele><time>2020-10-21T10:24:35Z</time><name>PT723</name></trkpt>
<trkpt lat="53.229076" lon="-2.041700"><ele>436</ele><time>2020-10-21T10:24:40Z</time><name>PT724</name></trkpt>
<trkpt lat="53.229066" lon="-2.041663"><ele>436</ele><time>2020-10-21T10:24:43Z</time><name>PT725</name></trkpt>
<trkpt lat="53.229050" lon="-2.041611"><ele>437</ele><time>2020-10-21T10:24:47Z</time><name>PT726</name></trkpt>
<trkpt lat="53.229036" lon="-2.041568"><ele>438</ele><time>2020-10-21T10:24:50Z</time><name>PT727</name></trkpt>
<trkpt lat="53.229019" lon="-2.041512"><ele>438</ele><time>2020-10-21T10:24:53Z</time><name>PT728</name></trkpt>
<trkpt lat="53.229005" lon="-2.041466"><ele>439</ele><time>2020-10-21T10:24:58Z</time><name>PT729</name></trkpt>
<trkpt lat="53.228993" lon="-2.041424"><ele>439</ele><time>2020-10-21T10:25:02Z</time><name>PT730</name></trkpt>
<trkpt lat="53.228972" lon="-2.041381"><ele>440</ele><time>2020-10-21T10:25:05Z</time><name>PT731</name></trkpt>
<trkpt lat="53.228961" lon="-2.041336"><ele>440</ele><time>2020-10-21T10:25:10Z</time><name>PT732</name></trkpt>
<trkpt lat="53.228945" lon="-2.041295"><ele>440</ele><time>2020-10-21T10:25:14Z</time><name>PT733</name></trkpt>
<trkpt lat="53.228919" lon="-2.041266"><ele>441</ele><time>2020-10-21T10:25:17Z</time><name>PT734</name></trkpt>
<trkpt lat="53.228901" lon="-2.041234"><ele>442</ele><time>2020-10-21T10:25:20Z</time><name>PT735</name></trkpt>
<trkpt lat="53.228879" lon="-2.041197"><ele>444</ele><time>2020-10-21T10:25:25Z</time><name>PT736</name></trkpt>
<trkpt lat="53.228857" lon="-2.041166"><ele>445</ele><time>2020-10-21T10:25:29Z</time><name>PT737</name></trkpt>
<trkpt lat="53.228843" lon="-2.041140"><ele>446</ele><time>2020-10-21T10:25:32Z</time><name>PT738</name></trkpt>
<trkpt lat="53.228822" lon="-2.041103"><ele>446</ele><time>2020-10-21T10:25:35Z</time><name>PT739</name></trkpt>
<trkpt lat="53.228802" lon="-2.041083"><ele>448</ele><time>2020-10-21T10:25:38Z</time><name>PT740</name></trkpt>
<trkpt lat="53.228776" lon="-2.041044"><ele>449</ele><time>2020-10-21T10:25:43Z</time><name>PT741</name></trkpt>
<trkpt lat="53.228761" lon="-2.041003"><ele>449</ele><time>2020-10-21T10:25:46Z</time><name>PT742</name></trkpt>
<trkpt lat="53.228735" lon="-2.040962"><ele>449</ele><time>2020-10-21T10:25:50Z</time><name>PT743</name></trkpt>
<trkpt lat="53.228709" lon="-2.040918"><ele>450</ele><time>2020-10-21T10:25:53Z</time><name>PT744</name></trkpt>
<trkpt lat="53.228694" lon="-2.040883"><ele>450</ele><time>2020-10-21T10:25:56Z</time><name>PT745</name></trkpt>
<trkpt lat="53.228680" lon="-2.040855"><ele>451</ele><time>2020-10-21T10:26:01Z</time><name>PT746</name></trkpt>
<trkpt lat="53.228664" lon="-2.040818"><ele>452</ele><time>2020-10-21T10:26:04Z</time><name>PT747</name></trkpt>
<trkpt lat="53.228647" lon="-2.040774"><ele>453</ele><time>2020-10-21T10:26:07Z</time><name>PT748</name></trkpt>
<trkpt lat="53.228635" lon="-2.040729"><ele>454</ele><time>2020-10-21T10:26:10Z</time><name>PT749</name></trkpt>
<trkpt lat="53.228618" lon="-2.040676"><ele>454</ele><time>2020-10-21T10:26:14Z</time><name>PT750</name></trkpt>
<trkpt lat="53.228606" lon="-2.040638"><ele>455</ele><time>2020-10-21T10:26:17Z</time><name>PT751</name></trkpt>
<trkpt lat="53.228588" lon="-2.040595"><ele>456</ele><time>2020-10-21T10:26:21Z</time><name>PT752</name></trkpt>
<trkpt lat="53.228568" lon="-2.040551"><ele>457</ele><time>2020-10-21T10:26:24Z</time><name>PT753</name></trkpt>
<trkpt lat="53.228547" lon="-2.040519"><ele>457</ele><time>2020-10-21T10:26:27Z</time><name>PT754</name></trkpt>
<trkpt lat="53.228523" lon="-2.040488"><ele>457</ele><time>2020-10-21T10:26:30Z</time><name>PT755</name></trkpt>
<trkpt lat="53.228492" lon="-2.040451"><ele>457</ele><time>2020-10-21T10:26:34Z</time><name>PT756</name></trkpt>
<trkpt lat="53.228457" lon="-2.040426"><ele>457</ele><time>2020-10-21T10:26:38Z</time><name>PT757</name></trkpt>
<trkpt lat="53.228424" lon="-2.040402"><ele>457</ele><time>2020-10-21T10:26:41Z</time><name>PT758</name></trkpt>
<trkpt lat="53.228391" lon="-2.040381"><ele>457</ele><time>2020-10-21T10:26:44Z</time><name>PT759</name></trkpt>
<trkpt lat="53.228350" lon="-2.040350"><ele>458</ele><time>2020-10-21T10:26:47Z</time><name>PT760</name></trkpt>
<trkpt lat="53.228319" lon="-2.040327"><ele>458</ele><time>2020-10-21T10:26:50Z</time><name>PT761</name></trkpt>
<trkpt lat="53.228284" lon="-2.040287"><ele>458</ele><time>2020-10-21T10:26:55Z</time><name>PT762</name></trkpt>
<trkpt lat="53.228263" lon="-2.040245"><ele>458</ele><time>2020-10-21T10:26:58Z</time><name>PT763</name></trkpt>
<trkpt lat="53.228240" lon="-2.040206"><ele>457</ele><time>2020-10-21T10:27:01Z</time><name>PT764</name></trkpt>
<trkpt lat="53.228208" lon="-2.040160"><ele>458</ele><time>2020-10-21T10:27:05Z</time><name>PT765</name></trkpt>
<trkpt lat="53.228187" lon="-2.040119"><ele>457</ele><time>2020-10-21T10:27:08Z</time><name>PT766</name></trkpt>
<trkpt lat="53.228151" lon="-2.040086"><ele>457</ele><time>2020-10-21T10:27:12Z</time><name>PT767</name></trkpt>
<trkpt lat="53.228124" lon="-2.040055"><ele>457</ele><time>2020-10-21T10:27:15Z</time><name>PT768</name></trkpt>
<trkpt lat="53.228088" lon="-2.040023"><ele>457</ele><time>2020-10-21T10:27:18Z</time><name>PT769</name></trkpt>
<trkpt lat="53.228042" lon="-2.039992"><ele>458</ele><time>2020-10-21T10:27:23Z</time><name>PT770</name></trkpt>
<trkpt lat="53.228005" lon="-2.039952"><ele>457</ele><time>2020-10-21T10:27:27Z</time><name>PT771</name></trkpt>
<trkpt lat="53.227972" lon="-2.039938"><ele>456</ele><time>2020-10-21T10:27:30Z</time><name>PT772</name></trkpt>
<trkpt lat="53.227935" lon="-2.039901"><ele>456</ele><time>2020-10-21T10:27:33Z</time><name>PT773</name></trkpt>
<trkpt lat="53.227891" lon="-2.039859"><ele>456</ele><time>2020-10-21T10:27:38Z</time><name>PT774</name></trkpt>
<trkpt lat="53.227859" lon="-2.039829"><ele>456</ele><time>2020-10-21T10:27:41Z</time><name>PT775</name></trkpt>
<trkpt lat="53.227817" lon="-2.039786"><ele>456</ele><time>2020-10-21T10:27:45Z</time><name>PT776</name></trkpt>
<trkpt lat="53.227778" lon="-2.039758"><ele>455</ele><time>2020-10-21T10:27:48Z</time><name>PT777</name></trkpt>
<trkpt lat="53.227742" lon="-2.039722"><ele>455</ele><time>2020-10-21T10:27:53Z</time><name>PT778</name></trkpt>
<trkpt lat="53.227702" lon="-2.039692"><ele>455</ele><time>2020-10-21T10:27:57Z</time><name>PT779</name></trkpt>
<trkpt lat="53.227661" lon="-2.039655"><ele>455</ele><time>2020-10-21T10:28:00Z</time><name>PT780</name></trkpt>
<trkpt lat="53.227632" lon="-2.039623"><ele>454</ele><time>2020-10-21T10:28:03Z</time><name>PT781</name></trkpt>
<trkpt lat="53.227593" lon="-2.039588"><ele>453</ele><time>2020-10-21T10:28:08Z</time><name>PT782</name></trkpt>
<trkpt lat="53.227568" lon="-2.039557"><ele>454</ele><time>2020-10-21T10:28:11Z</time><name>PT783</name></trkpt>
<trkpt lat="53.227538" lon="-2.039522"><ele>454</ele><time>2020-10-21T10:28:14Z</time><name>PT784</name></trkpt>
<trkpt lat="53.227512" lon="-2.039489"><ele>454</ele><time>2020-10-21T10:28:17Z</time><name>PT785</name></trkpt>
<trkpt lat="53.227475" lon="-2.039448"><ele>454</ele><time>2020-10-21T10:28:21Z</time><name>PT786</name></trkpt>
<trkpt lat="53.227440" lon="-2.039403"><ele>454</ele><time>2020-10-21T10:28:24Z</time><name>PT787</name></trkpt>
<trkpt lat="53.227414" lon="-2.039367"><ele>454</ele><time>2020-10-21T10:28:27Z</time><name>PT788</name></trkpt>
<trkpt lat="53.227375" lon="-2.039317"><ele>454</ele><time>2020-10-21T10:28:32Z</time><name>PT789</name></trkpt>
<trkpt lat="53.227337" lon="-2.039266"><ele>453</ele><time>2020-10-21T10:28:36Z</time><name>PT790</name></trkpt>
<trkpt lat="53.227310" lon="-2.039228"><ele>453</ele><time>2020-10-21T10:28:39Z</time><name>PT791</name></trkpt>
<trkpt lat="53.227284" lon="-2.039191"><ele>452</ele><time>2020-10-21T10:28:42Z</time><name>PT792</name></trkpt>
<trkpt lat="53.227252" lon="-2.039142"><ele>452</ele><time>2020-10-21T10:28:45Z</time><name>PT793</name></trkpt>
<trkpt lat="53.227228" lon="-2.039106"><ele>452</ele><time>2020-10-21T10:28:48Z</time><name>PT794</name></trkpt>
<trkpt lat="53.227191" lon="-2.039057"><ele>452</ele><time>2020-10-21T10:28:53Z</time><name>PT795</name></trkpt>
<trkpt lat="53.227168" lon="-2.039020"><ele>452</ele><time>2020-10-21T10:28:56Z</time><name>PT796</name></trkpt>
<trkpt lat="53.227130" lon="-2.038964"><ele>452</ele><time>2020-10-21T10:29:00Z</time><name>PT797</name></trkpt>
<trkpt lat="53.227103" lon="-2.038925"><ele>452</ele><time>2020-10-21T10:29:03Z</time><name>PT798</name></trkpt>
<trkpt lat="53.227077" lon="-2.038887"><ele>451</ele><time>2020-10-21T10:29:06Z</time><name>PT799</name></trkpt>
<trkpt lat="53.227043" lon="-2.038836"><ele>451</ele><time>2020-10-21T10:29:09Z</time><name>PT800</name></trkpt>
<trkpt lat="53.227010" lon="-2.038789"><ele>451</ele><time>2020-10-21T10:29:14Z</time><name>PT801</name></trkpt>
<trkpt lat="53.226981" lon="-2.038749"><ele>450</ele><time>2020-10-21T10:29:17Z</time><name>PT802</name></trkpt>
<trkpt lat="53.226957" lon="-2.038716"><ele>450</ele><time>2020-10-21T10:29:20Z</time><name>PT803</name></trkpt>
<trkpt lat="53.226927" lon="-2.038672"><ele>450</ele><time>2020-10-21T10:29:24Z</time><name>PT804</name></trkpt>
<trkpt lat="53.226902" lon="-2.038631"><ele>449</ele><time>2020-10-21T10:29:27Z</time><name>PT805</name></trkpt>
<trkpt lat="53.226875" lon="-2.038574"><ele>449</ele><time>2020-10-21T10:29:30Z</time><name>PT806</name></trkpt>
<trkpt lat="53.226861" lon="-2.038544"><ele>449</ele><time>2020-10-21T10:29:33Z</time><name>PT807</name></trkpt>
<trkpt lat="53.226861" lon="-2.038527"><ele>449</ele><time>2020-10-21T10:29:38Z</time><name>PT808</name></trkpt>
<trkpt lat="53.226853" lon="-2.038517"><ele>448</ele><time>2020-10-21T10:29:41Z</time><name>PT809</name></trkpt>
<trkpt lat="53.226852" lon="-2.038513"><ele>448</ele><time>2020-10-21T10:29:44Z</time><name>PT810</name></trkpt>
<trkpt lat="53.226847" lon="-2.038509"><ele>447</ele><time>2020-10-21T10:29:48Z</time><name>PT811</name></trkpt>
<trkpt lat="53.226814" lon="-2.038500"><ele>448</ele><time>2020-10-21T10:29:51Z</time><name>PT812</name></trkpt>
<trkpt lat="53.226786" lon="-2.038495"><ele>448</ele><time>2020-10-21T10:29:54Z</time><name>PT813</name></trkpt>
<trkpt lat="53.226759" lon="-2.038488"><ele>447</ele><time>2020-10-21T10:29:57Z</time><name>PT814</name></trkpt>
<trkpt lat="53.226720" lon="-2.038481"><ele>447</ele><time>2020-10-21T10:30:00Z</time><name>PT815</name></trkpt>
<trkpt lat="53.226673" lon="-2.038481"><ele>449</ele><time>2020-10-21T10:30:05Z</time><name>PT816</name></trkpt>
<trkpt lat="53.226626" lon="-2.038472"><ele>449</ele><time>2020-10-21T10:30:09Z</time><name>PT817</name></trkpt>
<trkpt lat="53.226593" lon="-2.038467"><ele>450</ele><time>2020-10-21T10:30:12Z</time><name>PT818</name></trkpt>
<trkpt lat="53.226550" lon="-2.038453"><ele>450</ele><time>2020-10-21T10:30:15Z</time><name>PT819</name></trkpt>
<trkpt lat="53.226516" lon="-2.038449"><ele>451</ele><time>2020-10-21T10:30:18Z</time><name>PT820</name></trkpt>
<trkpt lat="53.226483" lon="-2.038436"><ele>450</ele><time>2020-10-21T10:30:21Z</time><name>PT821</name></trkpt>
<trkpt lat="53.226444" lon="-2.038424"><ele>450</ele><time>2020-10-21T10:30:24Z</time><name>PT822</name></trkpt>
<trkpt lat="53.226398" lon="-2.038413"><ele>451</ele><time>2020-10-21T10:30:29Z</time><name>PT823</name></trkpt>
<trkpt lat="53.226353" lon="-2.038406"><ele>451</ele><time>2020-10-21T10:30:33Z</time><name>PT824</name></trkpt>
<trkpt lat="53.226324" lon="-2.038404"><ele>452</ele><time>2020-10-21T10:30:36Z</time><name>PT825</name></trkpt>
<trkpt lat="53.226287" lon="-2.038392"><ele>452</ele><time>2020-10-21T10:30:39Z</time><name>PT826</name></trkpt>
<trkpt lat="53.226240" lon="-2.038375"><ele>452</ele><time>2020-10-21T10:30:44Z</time><name>PT827</name></trkpt>
<trkpt lat="53.226200" lon="-2.038366"><ele>452</ele><time>2020-10-21T10:30:48Z</time><name>PT828</name></trkpt>
<trkpt lat="53.226153" lon="-2.038349"><ele>453</ele><time>2020-10-21T10:30:51Z</time><name>PT829</name></trkpt>
<trkpt lat="53.226121" lon="-2.038334"><ele>453</ele><time>2020-10-21T10:30:54Z</time><name>PT830</name></trkpt>
<trkpt lat="53.226079" lon="-2.038323"><ele>453</ele><time>2020-10-21T10:30:59Z</time><name>PT831</name></trkpt>
<trkpt lat="53.226047" lon="-2.038315"><ele>453</ele><time>2020-10-21T10:31:02Z</time><name>PT832</name></trkpt>
<trkpt lat="53.226013" lon="-2.038305"><ele>453</ele><time>2020-10-21T10:31:05Z</time><name>PT833</name></trkpt>
<trkpt lat="53.225969" lon="-2.038294"><ele>453</ele><time>2020-10-21T10:31:09Z</time><name>PT834</name></trkpt>
<trkpt lat="53.225934" lon="-2.038290"><ele>453</ele><time>2020-10-21T10:31:12Z</time><name>PT835</name></trkpt>
<trkpt lat="53.225900" lon="-2.038280"><ele>453</ele><time>2020-10-21T10:31:15Z</time><name>PT836</name></trkpt>
<trkpt lat="53.225855" lon="-2.038262"><ele>453</ele><time>2020-10-21T10:31:18Z</time><name>PT837</name></trkpt>
<trkpt lat="53.225809" lon="-2.038247"><ele>453</ele><time>2020-10-21T10:31:23Z</time><name>PT838</name></trkpt>
<trkpt lat="53.225782" lon="-2.038241"><ele>453</ele><time>2020-10-21T10:31:26Z</time><name>PT839</name></trkpt>
<trkpt lat="53.225739" lon="-2.038232"><ele>453</ele><time>2020-10-21T10:31:30Z</time><name>PT840</name></trkpt>
<trkpt lat="53.225707" lon="-2.038219"><ele>452</ele><time>2020-10-21T10:31:33Z</time><name>PT841</name></trkpt>
<trkpt lat="53.225661" lon="-2.038202"><ele>452</ele><time>2020-10-21T10:31:36Z</time><name>PT842</name></trkpt>
<trkpt lat="53.225629" lon="-2.038191"><ele>452</ele><time>2020-10-21T10:31:39Z</time><name>PT843</name></trkpt>
<trkpt lat="53.225594" lon="-2.038181"><ele>452</ele><time>2020-10-21T10:31:42Z</time><name>PT844</name></trkpt>
<trkpt lat="53.225548" lon="-2.038169"><ele>452</ele><time>2020-10-21T10:31:47Z</time><name>PT845</name></trkpt>
<trkpt lat="53.225510" lon="-2.038161"><ele>453</ele><time>2020-10-21T10:31:50Z</time><name>PT846</name></trkpt>
<trkpt lat="53.225470" lon="-2.038151"><ele>454</ele><time>2020-10-21T10:31:54Z</time><name>PT847</name></trkpt>
<trkpt lat="53.225440" lon="-2.038136"><ele>454</ele><time>2020-10-21T10:31:57Z</time><name>PT848</name></trkpt>
<trkpt lat="53.225399" lon="-2.038118"><ele>453</ele><time>2020-10-21T10:32:00Z</time><name>PT849</name></trkpt>
<trkpt lat="53.225361" lon="-2.038105"><ele>453</ele><time>2020-10-21T10:32:05Z</time><name>PT850</name></trkpt>
<trkpt lat="53.225328" lon="-2.038089"><ele>454</ele><time>2020-10-21T10:32:08Z</time><name>PT851</name></trkpt>
<trkpt lat="53.225295" lon="-2.038078"><ele>455</ele><time>2020-10-21T10:32:11Z</time><name>PT852</name></trkpt>
<trkpt lat="53.225251" lon="-2.038066"><ele>455</ele><time>2020-10-21T10:32:15Z</time><name>PT853</name></trkpt>
<trkpt lat="53.225216" lon="-2.038050"><ele>455</ele><time>2020-10-21T10:32:18Z</time><name>PT854</name></trkpt>
<trkpt lat="53.225172" lon="-2.038039"><ele>456</ele><time>2020-10-21T10:32:21Z</time><name>PT855</name></trkpt>
<trkpt lat="53.225128" lon="-2.038024"><ele>456</ele><time>2020-10-21T10:32:26Z</time><name>PT856</name></trkpt>
<trkpt lat="53.225098" lon="-2.038012"><ele>456</ele><time>2020-10-21T10:32:29Z</time><name>PT857</name></trkpt>
<trkpt lat="53.225059" lon="-2.037998"><ele>456</ele><time>2020-10-21T10:32:33Z</time><name>PT858</name></trkpt>
<trkpt lat="53.225014" lon="-2.037977"><ele>457</ele><time>2020-10-21T10:32:36Z</time><name>PT859</name></trkpt>
<trkpt lat="53.224984" lon="-2.037966"><ele>457</ele><time>2020-10-21T10:32:39Z</time><name>PT860</name></trkpt>
<trkpt lat="53.224943" lon="-2.037959"><ele>458</ele><time>2020-10-21T10:32:44Z</time><name>PT861</name></trkpt>
<trkpt lat="53.224903" lon="-2.037944"><ele>458</ele><time>2020-10-21T10:32:48Z</time><name>PT862</name></trkpt>
<trkpt lat="53.224874" lon="-2.037932"><ele>458</ele><time>2020-10-21T10:32:51Z</time><name>PT863</name></trkpt>
<trkpt lat="53.224843" lon="-2.037922"><ele>459</ele><time>2020-10-21T10:32:54Z</time><name>PT864</name></trkpt>
<trkpt lat="53.224797" lon="-2.037907"><ele>459</ele><time>2020-10-21T10:32:57Z</time><name>PT865</name></trkpt>
<trkpt lat="53.224767" lon="-2.037897"><ele>459</ele><time>2020-10-21T10:33:00Z</time><name>PT866</name></trkpt>
<trkpt lat="53.224727" lon="-2.037880"><ele>460</ele><time>2020-10-21T10:33:05Z</time><name>PT867</name></trkpt>
<trkpt lat="53.224696" lon="-2.037867"><ele>461</ele><time>2020-10-21T10:33:08Z</time><name>PT868</name></trkpt>
<trkpt lat="53.224667" lon="-2.037851"><ele>460</ele><time>2020-10-21T10:33:11Z</time><name>PT869</name></trkpt>
<trkpt lat="53.224636" lon="-2.037841"><ele>461</ele><time>2020-10-21T10:33:14Z</time><name>PT870</name></trkpt>
<trkpt lat="53.224601" lon="-2.037826"><ele>461</ele><time>2020-10-21T10:33:18Z</time><name>PT871</name></trkpt>
<trkpt lat="53.224574" lon="-2.037811"><ele>460</ele><time>2020-10-21T10:33:21Z</time><name>PT872</name></trkpt>
<trkpt lat="53.224532" lon="-2.037796"><ele>460</ele><time>2020-10-21T10:33:24Z</time><name>PT873</name></trkpt>
<trkpt lat="53.224501" lon="-2.037786"><ele>460</ele><time>2020-10-21T10:33:27Z</time><name>PT874</name></trkpt>
<trkpt lat="53.224463" lon="-2.037769"><ele>460</ele><time>2020-10-21T10:33:32Z</time><name>PT875</name></trkpt>
<trkpt lat="53.224422" lon="-2.037754"><ele>460</ele><time>2020-10-21T10:33:36Z</time><name>PT876</name></trkpt>
<trkpt lat="53.224389" lon="-2.037750"><ele>461</ele><time>2020-10-21T10:33:39Z</time><name>PT877</name></trkpt>
<trkpt lat="53.224361" lon="-2.037736"><ele>462</ele><time>2020-10-21T10:33:42Z</time><name>PT878</name></trkpt>
<trkpt lat="53.224323" lon="-2.037721"><ele>462</ele><time>2020-10-21T10:33:45Z</time><name>PT879</name></trkpt>
<trkpt lat="53.224293" lon="-2.037709"><ele>463</ele><time>2020-10-21T10:33:50Z</time><name>PT880</name></trkpt>
<trkpt lat="53.224256" lon="-2.037690"><ele>463</ele><time>2020-10-21T10:33:54Z</time><name>PT881</name></trkpt>
<trkpt lat="53.224229" lon="-2.037676"><ele>463</ele><time>2020-10-21T10:33:57Z</time><name>PT882</name></trkpt>
<trkpt lat="53.224194" lon="-2.037645"><ele>464</ele><time>2020-10-21T10:34:00Z</time><name>PT883</name></trkpt>
<trkpt lat="53.224170" lon="-2.037616"><ele>464</ele><time>2020-10-21T10:34:05Z</time><name>PT884</name></trkpt>
<trkpt lat="53.224155" lon="-2.037615"><ele>465</ele><time>2020-10-21T10:34:09Z</time><name>PT885</name></trkpt>
<trkpt lat="53.224151" lon="-2.037613"><ele>465</ele><time>2020-10-21T10:34:12Z</time><name>PT886</name></trkpt>
<trkpt lat="53.224146" lon="-2.037609"><ele>465</ele><time>2020-10-21T10:34:15Z</time><name>PT887</name></trkpt>
<trkpt lat="53.224139" lon="-2.037611"><ele>464</ele><time>2020-10-21T10:34:20Z</time><name>PT888</name></trkpt>
<trkpt lat="53.224103" lon="-2.037589"><ele>466</ele><time>2020-10-21T10:34:24Z</time><name>PT889</name></trkpt>
<trkpt lat="53.224072" lon="-2.037571"><ele>466</ele><time>2020-10-21T10:34:27Z</time><name>PT890</name></trkpt>
<trkpt lat="53.224048" lon="-2.037558"><ele>467</ele><time>2020-10-21T10:34:32Z</time><name>PT891</name></trkpt>
<trkpt lat="53.224029" lon="-2.037545"><ele>467</ele><time>2020-10-21T10:34:35Z</time><name>PT892</name></trkpt>
<trkpt lat="53.224007" lon="-2.037528"><ele>468</ele><time>2020-10-21T10:34:39Z</time><name>PT893</name></trkpt>
<trkpt lat="53.223979" lon="-2.037510"><ele>469</ele><time>2020-10-21T10:34:42Z</time><name>PT894</name></trkpt>
<trkpt lat="53.223953" lon="-2.037483"><ele>470</ele><time>2020-10-21T10:34:47Z</time><name>PT895</name></trkpt>
<trkpt lat="53.223940" lon="-2.037464"><ele>470</ele><time>2020-10-21T10:34:50Z</time><name>PT896</name></trkpt>
<trkpt lat="53.223924" lon="-2.037444"><ele>471</ele><time>2020-10-21T10:34:53Z</time><name>PT897</name></trkpt>
<trkpt lat="53.223904" lon="-2.037421"><ele>473</ele><time>2020-10-21T10:34:57Z</time><name>PT898</name></trkpt>
<trkpt lat="53.223892" lon="-2.037398"><ele>474</ele><time>2020-10-21T10:35:00Z</time><name>PT899</name></trkpt>
<trkpt lat="53.223878" lon="-2.037372"><ele>474</ele><time>2020-10-21T10:35:03Z</time><name>PT900</name></trkpt>
<trkpt lat="53.223866" lon="-2.037379"><ele>474</ele><time>2020-10-21T10:35:09Z</time><name>PT901</name></trkpt>
<trkpt lat="53.223827" lon="-2.037384"><ele>474</ele><time>2020-10-21T10:35:14Z</time><name>PT902</name></trkpt>
<trkpt lat="53.223803" lon="-2.037382"><ele>474</ele><time>2020-10-21T10:35:17Z</time><name>PT903</name></trkpt>
<trkpt lat="53.223793" lon="-2.037380"><ele>475</ele><time>2020-10-21T10:35:20Z</time><name>PT904</name></trkpt>
<trkpt lat="53.223786" lon="-2.037349"><ele>475</ele><time>2020-10-21T10:35:24Z</time><name>PT905</name></trkpt>
<trkpt lat="53.223781" lon="-2.037354"><ele>476</ele><time>2020-10-21T10:35:27Z</time><name>PT906</name></trkpt>
<trkpt lat="53.223776" lon="-2.037328"><ele>477</ele><time>2020-10-21T10:35:30Z</time><name>PT907</name></trkpt>
<trkpt lat="53.223760" lon="-2.037324"><ele>477</ele><time>2020-10-21T10:35:35Z</time><name>PT908</name></trkpt>
<trkpt lat="53.223749" lon="-2.037320"><ele>478</ele><time>2020-10-21T10:35:38Z</time><name>PT909</name></trkpt>
<trkpt lat="53.223732" lon="-2.037303"><ele>479</ele><time>2020-10-21T10:35:42Z</time><name>PT910</name></trkpt>
<trkpt lat="53.223715" lon="-2.037301"><ele>480</ele><time>2020-10-21T10:35:45Z</time><name>PT911</name></trkpt>
<trkpt lat="53.223709" lon="-2.037288"><ele>481</ele><time>2020-10-21T10:35:48Z</time><name>PT912</name></trkpt>
<trkpt lat="53.223692" lon="-2.037249"><ele>483</ele><time>2020-10-21T10:35:53Z</time><name>PT913</name></trkpt>
<trkpt lat="53.223679" lon="-2.037249"><ele>483</ele><time>2020-10-21T10:35:56Z</time><name>PT914</name></trkpt>
<trkpt lat="53.223666" lon="-2.037233"><ele>484</ele><time>2020-10-21T10:36:00Z</time><name>PT915</name></trkpt>
<trkpt lat="53.223655" lon="-2.037231"><ele>484</ele><time>2020-10-21T10:36:03Z</time><name>PT916</name></trkpt>
<trkpt lat="53.223638" lon="-2.037205"><ele>485</ele><time>2020-10-21T10:36:06Z</time><name>PT917</name></trkpt>
<trkpt lat="53.223623" lon="-2.037198"><ele>486</ele><time>2020-10-21T10:36:09Z</time><name>PT918</name></trkpt>
<trkpt lat="53.223608" lon="-2.037200"><ele>487</ele><time>2020-10-21T10:36:14Z</time><name>PT919</name></trkpt>
<trkpt lat="53.223596" lon="-2.037194"><ele>489</ele><time>2020-10-21T10:36:17Z</time><name>PT920</name></trkpt>
<trkpt lat="53.223595" lon="-2.037176"><ele>489</ele><time>2020-10-21T10:36:20Z</time><name>PT921</name></trkpt>
<trkpt lat="53.223598" lon="-2.037175"><ele>491</ele><time>2020-10-21T10:36:24Z</time><name>PT922</name></trkpt>
<trkpt lat="53.223595" lon="-2.037173"><ele>491</ele><time>2020-10-21T10:36:27Z</time><name>PT923</name></trkpt>
<trkpt lat="53.223581" lon="-2.037168"><ele>491</ele><time>2020-10-21T10:36:30Z</time><name>PT924</name></trkpt>
<trkpt lat="53.223570" lon="-2.037145"><ele>492</ele><time>2020-10-21T10:36:33Z</time><name>PT925</name></trkpt>
<trkpt lat="53.223570" lon="-2.037131"><ele>493</ele><time>2020-10-21T10:36:36Z</time><name>PT926</name></trkpt>
<trkpt lat="53.223565" lon="-2.037107"><ele>493</ele><time>2020-10-21T10:36:40Z</time><name>PT927</name></trkpt>
<trkpt lat="53.223561" lon="-2.037082"><ele>493</ele><time>2020-10-21T10:36:43Z</time><name>PT928</name></trkpt>
<trkpt lat="53.223551" lon="-2.037058"><ele>494</ele><time>2020-10-21T10:36:47Z</time><name>PT929</name></trkpt>
<trkpt lat="53.223543" lon="-2.037034"><ele>495</ele><time>2020-10-21T10:36:50Z</time><name>PT930</name></trkpt>
<trkpt lat="53.223535" lon="-2.037008"><ele>496</ele><time>2020-10-21T10:36:54Z</time><name>PT931</name></trkpt>
<trkpt lat="53.223525" lon="-2.036981"><ele>496</ele><time>2020-10-21T10:36:57Z</time><name>PT932</name></trkpt>
<trkpt lat="53.223467" lon="-2.036923"><ele>496</ele><time>2020-10-21T10:37:21Z</time><name>PT933</name></trkpt>
<trkpt lat="53.223411" lon="-2.036913"><ele>498</ele><time>2020-10-21T10:37:24Z</time><name>PT934</name></trkpt>
<trkpt lat="53.223378" lon="-2.036909"><ele>498</ele><time>2020-10-21T10:37:29Z</time><name>PT935</name></trkpt>
<trkpt lat="53.223357" lon="-2.036902"><ele>499</ele><time>2020-10-21T10:37:32Z</time><name>PT936</name></trkpt>
<trkpt lat="53.223325" lon="-2.036911"><ele>500</ele><time>2020-10-21T10:37:36Z</time><name>PT937</name></trkpt>
<trkpt lat="53.223304" lon="-2.036915"><ele>500</ele><time>2020-10-21T10:37:39Z</time><name>PT938</name></trkpt>
<trkpt lat="53.223282" lon="-2.036896"><ele>501</ele><time>2020-10-21T10:37:42Z</time><name>PT939</name></trkpt>
<trkpt lat="53.223273" lon="-2.036891"><ele>501</ele><time>2020-10-21T10:37:47Z</time><name>PT940</name></trkpt>
<trkpt lat="53.223241" lon="-2.036881"><ele>502</ele><time>2020-10-21T10:37:54Z</time><name>PT941</name></trkpt>
<trkpt lat="53.223217" lon="-2.036866"><ele>502</ele><time>2020-10-21T10:37:57Z</time><name>PT942</name></trkpt>
<trkpt lat="53.223203" lon="-2.036837"><ele>503</ele><time>2020-10-21T10:38:00Z</time><name>PT943</name></trkpt>
<trkpt lat="53.223214" lon="-2.036803"><ele>504</ele><time>2020-10-21T10:38:05Z</time><name>PT944</name></trkpt>
<trkpt lat="53.223219" lon="-2.036774"><ele>505</ele><time>2020-10-21T10:38:08Z</time><name>PT945</name></trkpt>
<trkpt lat="53.223230" lon="-2.036761"><ele>505</ele><time>2020-10-21T10:38:11Z</time><name>PT946</name></trkpt>
<trkpt lat="53.223232" lon="-2.036749"><ele>505</ele><time>2020-10-21T10:38:14Z</time><name>PT947</name></trkpt>
<trkpt lat="53.223231" lon="-2.036758"><ele>505</ele><time>2020-10-21T10:38:18Z</time><name>PT948</name></trkpt>
<trkpt lat="53.223238" lon="-2.036711"><ele>506</ele><time>2020-10-21T10:38:58Z</time><name>PT949</name></trkpt>
<trkpt lat="53.223234" lon="-2.036720"><ele>506</ele><time>2020-10-21T10:39:01Z</time><name>PT950</name></trkpt>
<trkpt lat="53.223233" lon="-2.036719"><ele>507</ele><time>2020-10-21T10:39:22Z</time><name>PT951</name></trkpt>
<trkpt lat="53.223230" lon="-2.036717"><ele>507</ele><time>2020-10-21T10:39:22Z</time><name>PT952</name></trkpt>
<trkpt lat="53.223228" lon="-2.036715"><ele>507</ele><time>2020-10-21T10:39:24Z</time><name>PT953</name></trkpt>
<trkpt lat="53.223227" lon="-2.036712"><ele>507</ele><time>2020-10-21T10:39:25Z</time><name>PT954</name></trkpt>
<trkpt lat="53.223218" lon="-2.036708"><ele>508</ele><time>2020-10-21T10:39:45Z</time><name>PT955</name></trkpt>
<trkpt lat="53.223214" lon="-2.036703"><ele>508</ele><time>2020-10-21T10:39:46Z</time><name>PT956</name></trkpt>
<trkpt lat="53.223207" lon="-2.036699"><ele>508</ele><time>2020-10-21T10:39:47Z</time><name>PT957</name></trkpt>
<trkpt lat="53.223204" lon="-2.036685"><ele>507</ele><time>2020-10-21T10:39:48Z</time><name>PT958</name></trkpt>
<trkpt lat="53.223205" lon="-2.036672"><ele>507</ele><time>2020-10-21T10:39:49Z</time><name>PT959</name></trkpt>
<trkpt lat="53.223202" lon="-2.036667"><ele>507</ele><time>2020-10-21T10:39:49Z</time><name>PT960</name></trkpt>
<trkpt lat="53.223200" lon="-2.036660"><ele>506</ele><time>2020-10-21T10:39:51Z</time><name>PT961</name></trkpt>
<trkpt lat="53.223198" lon="-2.036650"><ele>506</ele><time>2020-10-21T10:39:52Z</time><name>PT962</name></trkpt>
<trkpt lat="53.223195" lon="-2.036645"><ele>506</ele><time>2020-10-21T10:39:52Z</time><name>PT963</name></trkpt>
<trkpt lat="53.223194" lon="-2.036642"><ele>506</ele><time>2020-10-21T10:39:54Z</time><name>PT964</name></trkpt>
<trkpt lat="53.223190" lon="-2.036638"><ele>505</ele><time>2020-10-21T10:39:55Z</time><name>PT965</name></trkpt>
<trkpt lat="53.223188" lon="-2.036636"><ele>505</ele><time>2020-10-21T10:39:55Z</time><name>PT966</name></trkpt>
<trkpt lat="53.223185" lon="-2.036632"><ele>505</ele><time>2020-10-21T10:39:57Z</time><name>PT967</name></trkpt>
<trkpt lat="53.223182" lon="-2.036622"><ele>505</ele><time>2020-10-21T10:39:58Z</time><name>PT968</name></trkpt>
<trkpt lat="53.223177" lon="-2.036617"><ele>505</ele><time>2020-10-21T10:39:58Z</time><name>PT969</name></trkpt>
<trkpt lat="53.223169" lon="-2.036608"><ele>504</ele><time>2020-10-21T10:40:00Z</time><name>PT970</name></trkpt>
<trkpt lat="53.223161" lon="-2.036605"><ele>504</ele><time>2020-10-21T10:40:01Z</time><name>PT971</name></trkpt>
<trkpt lat="53.223154" lon="-2.036604"><ele>504</ele><time>2020-10-21T10:40:01Z</time><name>PT972</name></trkpt>
<trkpt lat="53.223145" lon="-2.036602"><ele>504</ele><time>2020-10-21T10:40:03Z</time><name>PT973</name></trkpt>
<trkpt lat="53.223136" lon="-2.036605"><ele>504</ele><time>2020-10-21T10:40:04Z</time><name>PT974</name></trkpt>
<trkpt lat="53.223128" lon="-2.036604"><ele>504</ele><time>2020-10-21T10:40:04Z</time><name>PT975</name></trkpt>
<trkpt lat="53.223120" lon="-2.036605"><ele>503</ele><time>2020-10-21T10:40:06Z</time><name>PT976</name></trkpt>
<trkpt lat="53.223113" lon="-2.036605"><ele>503</ele><time>2020-10-21T10:40:07Z</time><name>PT977</name></trkpt>
<trkpt lat="53.223105" lon="-2.036611"><ele>503</ele><time>2020-10-21T10:40:07Z</time><name>PT978</name></trkpt>
<trkpt lat="53.223098" lon="-2.036618"><ele>503</ele><time>2020-10-21T10:40:09Z</time><name>PT979</name></trkpt>
<trkpt lat="53.223092" lon="-2.036624"><ele>504</ele><time>2020-10-21T10:40:10Z</time><name>PT980</name></trkpt>
<trkpt lat="53.223088" lon="-2.036625"><ele>504</ele><time>2020-10-21T10:40:10Z</time><name>PT981</name></trkpt>
<trkpt lat="53.223086" lon="-2.036625"><ele>504</ele><time>2020-10-21T10:40:12Z</time><name>PT982</name></trkpt>
<trkpt lat="53.223083" lon="-2.036631"><ele>504</ele><time>2020-10-21T10:40:13Z</time><name>PT983</name></trkpt>
<trkpt lat="53.223079" lon="-2.036628"><ele>504</ele><time>2020-10-21T10:40:13Z</time><name>PT984</name></trkpt>
<trkpt lat="53.223078" lon="-2.036623"><ele>503</ele><time>2020-10-21T10:40:15Z</time><name>PT985</name></trkpt>
<trkpt lat="53.223076" lon="-2.036628"><ele>504</ele><time>2020-10-21T10:40:16Z</time><name>PT986</name></trkpt>
<trkpt lat="53.223076" lon="-2.036631"><ele>503</ele><time>2020-10-21T10:40:16Z</time><name>PT987</name></trkpt>
<trkpt lat="53.223073" lon="-2.036626"><ele>503</ele><time>2020-10-21T10:40:18Z</time><name>PT988</name></trkpt>
<trkpt lat="53.223067" lon="-2.036624"><ele>504</ele><time>2020-10-21T10:40:19Z</time><name>PT989</name></trkpt>
<trkpt lat="53.223070" lon="-2.036611"><ele>503</ele><time>2020-10-21T10:40:20Z</time><name>PT990</name></trkpt>
<trkpt lat="53.223072" lon="-2.036605"><ele>503</ele><time>2020-10-21T10:40:21Z</time><name>PT991</name></trkpt>
<trkpt lat="53.223070" lon="-2.036601"><ele>502</ele><time>2020-10-21T10:40:22Z</time><name>PT992</name></trkpt>
<trkpt lat="53.223065" lon="-2.036599"><ele>502</ele><time>2020-10-21T10:40:23Z</time><name>PT993</name></trkpt>
<trkpt lat="53.223062" lon="-2.036591"><ele>502</ele><time>2020-10-21T10:40:24Z</time><name>PT994</name></trkpt>
<trkpt lat="53.223060" lon="-2.036588"><ele>502</ele><time>2020-10-21T10:40:25Z</time><name>PT995</name></trkpt>
<trkpt lat="53.223057" lon="-2.036580"><ele>502</ele><time>2020-10-21T10:40:26Z</time><name>PT996</name></trkpt>
<trkpt lat="53.223055" lon="-2.036571"><ele>502</ele><time>2020-10-21T10:40:27Z</time><name>PT997</name></trkpt>
<trkpt lat="53.223053" lon="-2.036567"><ele>502</ele><time>2020-10-21T10:40:28Z</time><name>PT998</name></trkpt>
<trkpt lat="53.223048" lon="-2.036561"><ele>502</ele><time>2020-10-21T10:40:28Z</time><name>PT999</name></trkpt>
<trkpt lat="53.223049" lon="-2.036552"><ele>501</ele><time>2020-10-21T10:40:30Z</time><name>PT1000</name></trkpt>
<trkpt lat="53.223052" lon="-2.036536"><ele>501</ele><time>2020-10-21T10:40:31Z</time><name>PT1001</name></trkpt>
<trkpt lat="53.223056" lon="-2.036526"><ele>502</ele><time>2020-10-21T10:40:31Z</time><name>PT1002</name></trkpt>
<trkpt lat="53.223063" lon="-2.036527"><ele>501</ele><time>2020-10-21T10:40:33Z</time><name>PT1003</name></trkpt>
<trkpt lat="53.223066" lon="-2.036520"><ele>501</ele><time>2020-10-21T10:40:34Z</time><name>PT1004</name></trkpt>
<trkpt lat="53.223068" lon="-2.036516"><ele>501</ele><time>2020-10-21T10:40:34Z</time><name>PT1005</name></trkpt>
<trkpt lat="53.223066" lon="-2.036516"><ele>501</ele><time>2020-10-21T10:40:36Z</time><name>PT1006</name></trkpt>
<trkpt lat="53.223062" lon="-2.036516"><ele>500</ele><time>2020-10-21T10:40:37Z</time><name>PT1007</name></trkpt>
<trkpt lat="53.223059" lon="-2.036514"><ele>500</ele><time>2020-10-21T10:40:37Z</time><name>PT1008</name></trkpt>
<trkpt lat="53.223056" lon="-2.036511"><ele>499</ele><time>2020-10-21T10:40:39Z</time><name>PT1009</name></trkpt>
<trkpt lat="53.223053" lon="-2.036504"><ele>499</ele><time>2020-10-21T10:40:40Z</time><name>PT1010</name></trkpt>
<trkpt lat="53.223049" lon="-2.036499"><ele>500</ele><time>2020-10-21T10:40:40Z</time><name>PT1011</name></trkpt>
<trkpt lat="53.223047" lon="-2.036500"><ele>500</ele><time>2020-10-21T10:40:42Z</time><name>PT1012</name></trkpt>
<trkpt lat="53.223045" lon="-2.036496"><ele>500</ele><time>2020-10-21T10:40:43Z</time><name>PT1013</name></trkpt>
<trkpt lat="53.223045" lon="-2.036490"><ele>499</ele><time>2020-10-21T10:40:43Z</time><name>PT1014</name></trkpt>
<trkpt lat="53.223047" lon="-2.036482"><ele>499</ele><time>2020-10-21T10:40:45Z</time><name>PT1015</name></trkpt>
<trkpt lat="53.223051" lon="-2.036480"><ele>499</ele><time>2020-10-21T10:40:46Z</time><name>PT1016</name></trkpt>
<trkpt lat="53.223055" lon="-2.036479"><ele>498</ele><time>2020-10-21T10:40:46Z</time><name>PT1017</name></trkpt>
<trkpt lat="53.223056" lon="-2.036478"><ele>498</ele><time>2020-10-21T10:40:48Z</time><name>PT1018</name></trkpt>
<trkpt lat="53.223049" lon="-2.036467"><ele>498</ele><time>2020-10-21T10:40:52Z</time><name>PT1019</name></trkpt>
<trkpt lat="53.223043" lon="-2.036462"><ele>497</ele><time>2020-10-21T10:40:54Z</time><name>PT1020</name></trkpt>
<trkpt lat="53.223042" lon="-2.036469"><ele>497</ele><time>2020-10-21T10:40:55Z</time><name>PT1021</name></trkpt>
<trkpt lat="53.223055" lon="-2.036441"><ele>497</ele><time>2020-10-21T10:40:55Z</time><name>PT1022</name></trkpt>
<trkpt lat="53.223055" lon="-2.036445"><ele>497</ele><time>2020-10-21T10:40:57Z</time><name>PT1023</name></trkpt>
<trkpt lat="53.223056" lon="-2.036435"><ele>496</ele><time>2020-10-21T10:40:58Z</time><name>PT1024</name></trkpt>
<trkpt lat="53.223060" lon="-2.036435"><ele>496</ele><time>2020-10-21T10:40:58Z</time><name>PT1025</name></trkpt>
<trkpt lat="53.223062" lon="-2.036437"><ele>496</ele><time>2020-10-21T10:41:00Z</time><name>PT1026</name></trkpt>
<trkpt lat="53.223067" lon="-2.036434"><ele>496</ele><time>2020-10-21T10:41:01Z</time><name>PT1027</name></trkpt>
<trkpt lat="53.223067" lon="-2.036426"><ele>496</ele><time>2020-10-21T10:41:01Z</time><name>PT1028</name></trkpt>
<trkpt lat="53.223065" lon="-2.036411"><ele>496</ele><time>2020-10-21T10:41:03Z</time><name>PT1029</name></trkpt>
<trkpt lat="53.223067" lon="-2.036397"><ele>495</ele><time>2020-10-21T10:41:04Z</time><name>PT1030</name></trkpt>
<trkpt lat="53.223071" lon="-2.036389"><ele>495</ele><time>2020-10-21T10:41:04Z</time><name>PT1031</name></trkpt>
<trkpt lat="53.223079" lon="-2.036389"><ele>494</ele><time>2020-10-21T10:41:06Z</time><name>PT1032</name></trkpt>
<trkpt lat="53.223083" lon="-2.036382"><ele>494</ele><time>2020-10-21T10:41:07Z</time><name>PT1033</name></trkpt>
<trkpt lat="53.223087" lon="-2.036382"><ele>494</ele><time>2020-10-21T10:41:07Z</time><name>PT1034</name></trkpt>
<trkpt lat="53.223091" lon="-2.036379"><ele>494</ele><time>2020-10-21T10:41:09Z</time><name>PT1035</name></trkpt>
<trkpt lat="53.223096" lon="-2.036378"><ele>493</ele><time>2020-10-21T10:41:10Z</time><name>PT1036</name></trkpt>
<trkpt lat="53.223097" lon="-2.036368"><ele>493</ele><time>2020-10-21T10:41:10Z</time><name>PT1037</name></trkpt>
<trkpt lat="53.223098" lon="-2.036362"><ele>493</ele><time>2020-10-21T10:41:12Z</time><name>PT1038</name></trkpt>
<trkpt lat="53.223095" lon="-2.036352"><ele>493</ele><time>2020-10-21T10:41:13Z</time><name>PT1039</name></trkpt>
<trkpt lat="53.223094" lon="-2.036348"><ele>493</ele><time>2020-10-21T10:41:13Z</time><name>PT1040</name></trkpt>
<trkpt lat="53.223094" lon="-2.036342"><ele>493</ele><time>2020-10-21T10:41:15Z</time><name>PT1041</name></trkpt>
<trkpt lat="53.223096" lon="-2.036335"><ele>493</ele><time>2020-10-21T10:41:16Z</time><name>PT1042</name></trkpt>
<trkpt lat="53.223098" lon="-2.036336"><ele>493</ele><time>2020-10-21T10:41:19Z</time><name>PT1043</name></trkpt>
<trkpt lat="53.223100" lon="-2.036325"><ele>493</ele><time>2020-10-21T10:41:19Z</time><name>PT1044</name></trkpt>
<trkpt lat="53.223096" lon="-2.036318"><ele>493</ele><time>2020-10-21T10:41:21Z</time><name>PT1045</name></trkpt>
<trkpt lat="53.223101" lon="-2.036302"><ele>493</ele><time>2020-10-21T10:41:22Z</time><name>PT1046</name></trkpt>
<trkpt lat="53.223104" lon="-2.036299"><ele>492</ele><time>2020-10-21T10:41:22Z</time><name>PT1047</name></trkpt>
<trkpt lat="53.223110" lon="-2.036295"><ele>492</ele><time>2020-10-21T10:41:24Z</time><name>PT1048</name></trkpt>
<trkpt lat="53.223113" lon="-2.036292"><ele>491</ele><time>2020-10-21T10:41:25Z</time><name>PT1049</name></trkpt>
<trkpt lat="53.223113" lon="-2.036282"><ele>491</ele><time>2020-10-21T10:41:25Z</time><name>PT1050</name></trkpt>
<trkpt lat="53.223114" lon="-2.036280"><ele>491</ele><time>2020-10-21T10:41:27Z</time><name>PT1051</name></trkpt>
<trkpt lat="53.223113" lon="-2.036279"><ele>491</ele><time>2020-10-21T10:41:28Z</time><name>PT1052</name></trkpt>
<trkpt lat="53.223110" lon="-2.036275"><ele>490</ele><time>2020-10-21T10:41:28Z</time><name>PT1053</name></trkpt>
<trkpt lat="53.223108" lon="-2.036271"><ele>490</ele><time>2020-10-21T10:41:30Z</time><name>PT1054</name></trkpt>
<trkpt lat="53.223108" lon="-2.036263"><ele>490</ele><time>2020-10-21T10:41:31Z</time><name>PT1055</name></trkpt>
<trkpt lat="53.223108" lon="-2.036252"><ele>490</ele><time>2020-10-21T10:41:31Z</time><name>PT1056</name></trkpt>
<trkpt lat="53.223110" lon="-2.036242"><ele>489</ele><time>2020-10-21T10:41:33Z</time><name>PT1057</name></trkpt>
<trkpt lat="53.223111" lon="-2.036231"><ele>489</ele><time>2020-10-21T10:41:34Z</time><name>PT1058</name></trkpt>
<trkpt lat="53.223112" lon="-2.036224"><ele>489</ele><time>2020-10-21T10:41:34Z</time><name>PT1059</name></trkpt>
<trkpt lat="53.223112" lon="-2.036218"><ele>488</ele><time>2020-10-21T10:41:36Z</time><name>PT1060</name></trkpt>
<trkpt lat="53.223113" lon="-2.036218"><ele>488</ele><time>2020-10-21T10:41:37Z</time><name>PT1061</name></trkpt>
<trkpt lat="53.223112" lon="-2.036215"><ele>488</ele><time>2020-10-21T10:41:37Z</time><name>PT1062</name></trkpt>
<trkpt lat="53.223105" lon="-2.036204"><ele>488</ele><time>2020-10-21T10:41:39Z</time><name>PT1063</name></trkpt>
<trkpt lat="53.223107" lon="-2.036203"><ele>487</ele><time>2020-10-21T10:41:40Z</time><name>PT1064</name></trkpt>
<trkpt lat="53.223108" lon="-2.036201"><ele>487</ele><time>2020-10-21T10:41:40Z</time><name>PT1065</name></trkpt>
<trkpt lat="53.223112" lon="-2.036194"><ele>487</ele><time>2020-10-21T10:41:42Z</time><name>PT1066</name></trkpt>
<trkpt lat="53.223115" lon="-2.036192"><ele>487</ele><time>2020-10-21T10:41:43Z</time><name>PT1067</name></trkpt>
<trkpt lat="53.223117" lon="-2.036188"><ele>487</ele><time>2020-10-21T10:41:43Z</time><name>PT1068</name></trkpt>
<trkpt lat="53.223117" lon="-2.036187"><ele>486</ele><time>2020-10-21T10:41:45Z</time><name>PT1069</name></trkpt>
<trkpt lat="53.223117" lon="-2.036180"><ele>486</ele><time>2020-10-21T10:41:46Z</time><name>PT1070</name></trkpt>
<trkpt lat="53.223117" lon="-2.036174"><ele>486</ele><time>2020-10-21T10:41:46Z</time><name>PT1071</name></trkpt>
<trkpt lat="53.223120" lon="-2.036169"><ele>486</ele><time>2020-10-21T10:41:48Z</time><name>PT1072</name></trkpt>
<trkpt lat="53.223120" lon="-2.036165"><ele>486</ele><time>2020-10-21T10:41:49Z</time><name>PT1073</name></trkpt>
<trkpt lat="53.223116" lon="-2.036164"><ele>486</ele><time>2020-10-21T10:41:49Z</time><name>PT1074</name></trkpt>
<trkpt lat="53.223110" lon="-2.036163"><ele>485</ele><time>2020-10-21T10:41:51Z</time><name>PT1075</name></trkpt>
<trkpt lat="53.223104" lon="-2.036150"><ele>485</ele><time>2020-10-21T10:41:52Z</time><name>PT1076</name></trkpt>
<trkpt lat="53.223102" lon="-2.036136"><ele>485</ele><time>2020-10-21T10:41:52Z</time><name>PT1077</name></trkpt>
<trkpt lat="53.223104" lon="-2.036124"><ele>485</ele><time>2020-10-21T10:41:54Z</time><name>PT1078</name></trkpt>
<trkpt lat="53.223109" lon="-2.036119"><ele>485</ele><time>2020-10-21T10:41:55Z</time><name>PT1079</name></trkpt>
<trkpt lat="53.223112" lon="-2.036117"><ele>485</ele><time>2020-10-21T10:41:56Z</time><name>PT1080</name></trkpt>
<trkpt lat="53.223115" lon="-2.036115"><ele>484</ele><time>2020-10-21T10:41:57Z</time><name>PT1081</name></trkpt>
<trkpt lat="53.223115" lon="-2.036111"><ele>484</ele><time>2020-10-21T10:41:58Z</time><name>PT1082</name></trkpt>
<trkpt lat="53.223115" lon="-2.036108"><ele>484</ele><time>2020-10-21T10:41:59Z</time><name>PT1083</name></trkpt>
<trkpt lat="53.223118" lon="-2.036104"><ele>484</ele><time>2020-10-21T10:42:00Z</time><name>PT1084</name></trkpt>
<trkpt lat="53.223117" lon="-2.036100"><ele>483</ele><time>2020-10-21T10:42:01Z</time><name>PT1085</name></trkpt>
<trkpt lat="53.223114" lon="-2.036092"><ele>483</ele><time>2020-10-21T10:42:02Z</time><name>PT1086</name></trkpt>
<trkpt lat="53.223111" lon="-2.036085"><ele>483</ele><time>2020-10-21T10:42:03Z</time><name>PT1087</name></trkpt>
<trkpt lat="53.223109" lon="-2.036077"><ele>483</ele><time>2020-10-21T10:42:04Z</time><name>PT1088</name></trkpt>
<trkpt lat="53.223107" lon="-2.036068"><ele>483</ele><time>2020-10-21T10:42:04Z</time><name>PT1089</name></trkpt>
<trkpt lat="53.223109" lon="-2.036061"><ele>483</ele><time>2020-10-21T10:42:06Z</time><name>PT1090</name></trkpt>
<trkpt lat="53.223111" lon="-2.036058"><ele>483</ele><time>2020-10-21T10:42:07Z</time><name>PT1091</name></trkpt>
<trkpt lat="53.223115" lon="-2.036060"><ele>483</ele><time>2020-10-21T10:42:07Z</time><name>PT1092</name></trkpt>
<trkpt lat="53.223116" lon="-2.036056"><ele>483</ele><time>2020-10-21T10:42:09Z</time><name>PT1093</name></trkpt>
<trkpt lat="53.223111" lon="-2.036042"><ele>483</ele><time>2020-10-21T10:42:13Z</time><name>PT1094</name></trkpt>
<trkpt lat="53.223111" lon="-2.035971"><ele>482</ele><time>2020-10-21T10:42:36Z</time><name>PT1095</name></trkpt>
<trkpt lat="53.223122" lon="-2.035923"><ele>480</ele><time>2020-10-21T10:42:40Z</time><name>PT1096</name></trkpt>
<trkpt lat="53.223113" lon="-2.035906"><ele>479</ele><time>2020-10-21T10:42:43Z</time><name>PT1097</name></trkpt>
<trkpt lat="53.223092" lon="-2.035888"><ele>479</ele><time>2020-10-21T10:42:46Z</time><name>PT1098</name></trkpt>
<trkpt lat="53.223077" lon="-2.035853"><ele>478</ele><time>2020-10-21T10:42:49Z</time><name>PT1099</name></trkpt>
<trkpt lat="53.223091" lon="-2.035823"><ele>476</ele><time>2020-10-21T10:42:54Z</time><name>PT1100</name></trkpt>
<trkpt lat="53.223100" lon="-2.035808"><ele>475</ele><time>2020-10-21T10:42:57Z</time><name>PT1101</name></trkpt>
<trkpt lat="53.223103" lon="-2.035801"><ele>474</ele><time>2020-10-21T10:43:00Z</time><name>PT1102</name></trkpt>
<trkpt lat="53.223105" lon="-2.035783"><ele>474</ele><time>2020-10-21T10:43:04Z</time><name>PT1103</name></trkpt>
<trkpt lat="53.223093" lon="-2.035745"><ele>473</ele><time>2020-10-21T10:43:07Z</time><name>PT1104</name></trkpt>
<trkpt lat="53.223091" lon="-2.035720"><ele>471</ele><time>2020-10-21T10:43:12Z</time><name>PT1105</name></trkpt>
<trkpt lat="53.223096" lon="-2.035716"><ele>471</ele><time>2020-10-21T10:43:15Z</time><name>PT1106</name></trkpt>
<trkpt lat="53.223119" lon="-2.035695"><ele>470</ele><time>2020-10-21T10:43:25Z</time><name>PT1107</name></trkpt>
<trkpt lat="53.223124" lon="-2.035657"><ele>469</ele><time>2020-10-21T10:43:28Z</time><name>PT1108</name></trkpt>
<trkpt lat="53.223139" lon="-2.035640"><ele>468</ele><time>2020-10-21T10:43:31Z</time><name>PT1109</name></trkpt>
<trkpt lat="53.223144" lon="-2.035602"><ele>467</ele><time>2020-10-21T10:43:36Z</time><name>PT1110</name></trkpt>
<trkpt lat="53.223144" lon="-2.035565"><ele>466</ele><time>2020-10-21T10:43:40Z</time><name>PT1111</name></trkpt>
<trkpt lat="53.223144" lon="-2.035557"><ele>466</ele><time>2020-10-21T10:43:43Z</time><name>PT1112</name></trkpt>
<trkpt lat="53.223152" lon="-2.035514"><ele>466</ele><time>2020-10-21T10:43:52Z</time><name>PT1113</name></trkpt>
<trkpt lat="53.223167" lon="-2.035472"><ele>464</ele><time>2020-10-21T10:43:55Z</time><name>PT1114</name></trkpt>
<trkpt lat="53.223172" lon="-2.035435"><ele>463</ele><time>2020-10-21T10:43:58Z</time><name>PT1115</name></trkpt>
<trkpt lat="53.223172" lon="-2.035393"><ele>462</ele><time>2020-10-21T10:44:03Z</time><name>PT1116</name></trkpt>
<trkpt lat="53.223178" lon="-2.035352"><ele>461</ele><time>2020-10-21T10:44:07Z</time><name>PT1117</name></trkpt>
<trkpt lat="53.223187" lon="-2.035315"><ele>459</ele><time>2020-10-21T10:44:10Z</time><name>PT1118</name></trkpt>
<trkpt lat="53.223181" lon="-2.035293"><ele>459</ele><time>2020-10-21T10:44:13Z</time><name>PT1119</name></trkpt>
<trkpt lat="53.223186" lon="-2.035245"><ele>458</ele><time>2020-10-21T10:44:18Z</time><name>PT1120</name></trkpt>
<trkpt lat="53.223200" lon="-2.035214"><ele>457</ele><time>2020-10-21T10:44:21Z</time><name>PT1121</name></trkpt>
<trkpt lat="53.223209" lon="-2.035172"><ele>456</ele><time>2020-10-21T10:44:25Z</time><name>PT1122</name></trkpt>
<trkpt lat="53.223204" lon="-2.035140"><ele>455</ele><time>2020-10-21T10:44:28Z</time><name>PT1123</name></trkpt>
<trkpt lat="53.223192" lon="-2.035107"><ele>454</ele><time>2020-10-21T10:44:31Z</time><name>PT1124</name></trkpt>
<trkpt lat="53.223177" lon="-2.035064"><ele>452</ele><time>2020-10-21T10:44:36Z</time><name>PT1125</name></trkpt>
<trkpt lat="53.223174" lon="-2.035031"><ele>452</ele><time>2020-10-21T10:44:39Z</time><name>PT1126</name></trkpt>
<trkpt lat="53.223174" lon="-2.034995"><ele>451</ele><time>2020-10-21T10:44:43Z</time><name>PT1127</name></trkpt>
<trkpt lat="53.223163" lon="-2.034977"><ele>452</ele><time>2020-10-21T10:44:46Z</time><name>PT1128</name></trkpt>
<trkpt lat="53.223151" lon="-2.034958"><ele>451</ele><time>2020-10-21T10:44:49Z</time><name>PT1129</name></trkpt>
<trkpt lat="53.223153" lon="-2.034925"><ele>451</ele><time>2020-10-21T10:44:52Z</time><name>PT1130</name></trkpt>
<trkpt lat="53.223155" lon="-2.034895"><ele>449</ele><time>2020-10-21T10:44:55Z</time><name>PT1131</name></trkpt>
<trkpt lat="53.223147" lon="-2.034859"><ele>449</ele><time>2020-10-21T10:44:58Z</time><name>PT1132</name></trkpt>
<trkpt lat="53.223150" lon="-2.034806"><ele>448</ele><time>2020-10-21T10:45:01Z</time><name>PT1133</name></trkpt>
<trkpt lat="53.223154" lon="-2.034765"><ele>448</ele><time>2020-10-21T10:45:04Z</time><name>PT1134</name></trkpt>
<trkpt lat="53.223161" lon="-2.034721"><ele>447</ele><time>2020-10-21T10:45:09Z</time><name>PT1135</name></trkpt>
<trkpt lat="53.223150" lon="-2.034678"><ele>447</ele><time>2020-10-21T10:45:12Z</time><name>PT1136</name></trkpt>
<trkpt lat="53.223152" lon="-2.034640"><ele>446</ele><time>2020-10-21T10:45:16Z</time><name>PT1137</name></trkpt>
<trkpt lat="53.223158" lon="-2.034592"><ele>445</ele><time>2020-10-21T10:45:19Z</time><name>PT1138</name></trkpt>
<trkpt lat="53.223152" lon="-2.034538"><ele>444</ele><time>2020-10-21T10:45:22Z</time><name>PT1139</name></trkpt>
<trkpt lat="53.223143" lon="-2.034470"><ele>443</ele><time>2020-10-21T10:45:27Z</time><name>PT1140</name></trkpt>
<trkpt lat="53.223145" lon="-2.034418"><ele>443</ele><time>2020-10-21T10:45:30Z</time><name>PT1141</name></trkpt>
<trkpt lat="53.223135" lon="-2.034366"><ele>442</ele><time>2020-10-21T10:45:34Z</time><name>PT1142</name></trkpt>
<trkpt lat="53.223126" lon="-2.034305"><ele>441</ele><time>2020-10-21T10:45:37Z</time><name>PT1143</name></trkpt>
<trkpt lat="53.223110" lon="-2.034248"><ele>440</ele><time>2020-10-21T10:45:42Z</time><name>PT1144</name></trkpt>
<trkpt lat="53.223111" lon="-2.034185"><ele>439</ele><time>2020-10-21T10:45:46Z</time><name>PT1145</name></trkpt>
<trkpt lat="53.223104" lon="-2.034131"><ele>438</ele><time>2020-10-21T10:45:49Z</time><name>PT1146</name></trkpt>
<trkpt lat="53.223090" lon="-2.034097"><ele>438</ele><time>2020-10-21T10:45:52Z</time><name>PT1147</name></trkpt>
<trkpt lat="53.223066" lon="-2.034048"><ele>437</ele><time>2020-10-21T10:45:56Z</time><name>PT1148</name></trkpt>
<trkpt lat="53.223050" lon="-2.034008"><ele>437</ele><time>2020-10-21T10:45:59Z</time><name>PT1149</name></trkpt>
<trkpt lat="53.223023" lon="-2.033969"><ele>437</ele><time>2020-10-21T10:46:03Z</time><name>PT1150</name></trkpt>
<trkpt lat="53.223009" lon="-2.033923"><ele>436</ele><time>2020-10-21T10:46:07Z</time><name>PT1151</name></trkpt>
<trkpt lat="53.222995" lon="-2.033888"><ele>435</ele><time>2020-10-21T10:46:10Z</time><name>PT1152</name></trkpt>
<trkpt lat="53.222981" lon="-2.033836"><ele>434</ele><time>2020-10-21T10:46:13Z</time><name>PT1153</name></trkpt>
<trkpt lat="53.222960" lon="-2.033812"><ele>433</ele><time>2020-10-21T10:46:18Z</time><name>PT1154</name></trkpt>
<trkpt lat="53.222936" lon="-2.033796"><ele>432</ele><time>2020-10-21T10:46:21Z</time><name>PT1155</name></trkpt>
<trkpt lat="53.222915" lon="-2.033758"><ele>432</ele><time>2020-10-21T10:46:25Z</time><name>PT1156</name></trkpt>
<trkpt lat="53.222897" lon="-2.033733"><ele>432</ele><time>2020-10-21T10:46:28Z</time><name>PT1157</name></trkpt>
<trkpt lat="53.222868" lon="-2.033717"><ele>432</ele><time>2020-10-21T10:46:31Z</time><name>PT1158</name></trkpt>
<trkpt lat="53.222847" lon="-2.033698"><ele>431</ele><time>2020-10-21T10:46:34Z</time><name>PT1159</name></trkpt>
<trkpt lat="53.222827" lon="-2.033678"><ele>431</ele><time>2020-10-21T10:46:37Z</time><name>PT1160</name></trkpt>
<trkpt lat="53.222813" lon="-2.033653"><ele>430</ele><time>2020-10-21T10:46:40Z</time><name>PT1161</name></trkpt>
<trkpt lat="53.222795" lon="-2.033616"><ele>430</ele><time>2020-10-21T10:46:45Z</time><name>PT1162</name></trkpt>
<trkpt lat="53.222778" lon="-2.033587"><ele>429</ele><time>2020-10-21T10:46:48Z</time><name>PT1163</name></trkpt>
<trkpt lat="53.222766" lon="-2.033562"><ele>429</ele><time>2020-10-21T10:46:51Z</time><name>PT1164</name></trkpt>
<trkpt lat="53.222736" lon="-2.033540"><ele>428</ele><time>2020-10-21T10:46:55Z</time><name>PT1165</name></trkpt>
<trkpt lat="53.222712" lon="-2.033516"><ele>428</ele><time>2020-10-21T10:46:58Z</time><name>PT1166</name></trkpt>
<trkpt lat="53.222692" lon="-2.033496"><ele>427</ele><time>2020-10-21T10:47:03Z</time><name>PT1167</name></trkpt>
<trkpt lat="53.222670" lon="-2.033474"><ele>427</ele><time>2020-10-21T10:47:07Z</time><name>PT1168</name></trkpt>
<trkpt lat="53.222636" lon="-2.033436"><ele>427</ele><time>2020-10-21T10:47:10Z</time><name>PT1169</name></trkpt>
<trkpt lat="53.222602" lon="-2.033403"><ele>427</ele><time>2020-10-21T10:47:15Z</time><name>PT1170</name></trkpt>
<trkpt lat="53.222576" lon="-2.033384"><ele>426</ele><time>2020-10-21T10:47:18Z</time><name>PT1171</name></trkpt>
<trkpt lat="53.222544" lon="-2.033344"><ele>425</ele><time>2020-10-21T10:47:22Z</time><name>PT1172</name></trkpt>
<trkpt lat="53.222522" lon="-2.033309"><ele>424</ele><time>2020-10-21T10:47:25Z</time><name>PT1173</name></trkpt>
<trkpt lat="53.222491" lon="-2.033289"><ele>424</ele><time>2020-10-21T10:47:28Z</time><name>PT1174</name></trkpt>
<trkpt lat="53.222463" lon="-2.033254"><ele>423</ele><time>2020-10-21T10:47:33Z</time><name>PT1175</name></trkpt>
<trkpt lat="53.222444" lon="-2.033231"><ele>422</ele><time>2020-10-21T10:47:36Z</time><name>PT1176</name></trkpt>
<trkpt lat="53.222418" lon="-2.033221"><ele>421</ele><time>2020-10-21T10:47:39Z</time><name>PT1177</name></trkpt>
<trkpt lat="53.222386" lon="-2.033219"><ele>421</ele><time>2020-10-21T10:47:43Z</time><name>PT1178</name></trkpt>
<trkpt lat="53.222359" lon="-2.033203"><ele>420</ele><time>2020-10-21T10:47:46Z</time><name>PT1179</name></trkpt>
<trkpt lat="53.222343" lon="-2.033184"><ele>420</ele><time>2020-10-21T10:47:49Z</time><name>PT1180</name></trkpt>
<trkpt lat="53.222320" lon="-2.033160"><ele>419</ele><time>2020-10-21T10:47:54Z</time><name>PT1181</name></trkpt>
<trkpt lat="53.222305" lon="-2.033126"><ele>418</ele><time>2020-10-21T10:47:57Z</time><name>PT1182</name></trkpt>
<trkpt lat="53.222294" lon="-2.033097"><ele>418</ele><time>2020-10-21T10:48:00Z</time><name>PT1183</name></trkpt>
<trkpt lat="53.222286" lon="-2.033048"><ele>417</ele><time>2020-10-21T10:48:04Z</time><name>PT1184</name></trkpt>
<trkpt lat="53.222265" lon="-2.033022"><ele>416</ele><time>2020-10-21T10:48:07Z</time><name>PT1185</name></trkpt>
<trkpt lat="53.222248" lon="-2.033002"><ele>416</ele><time>2020-10-21T10:48:10Z</time><name>PT1186</name></trkpt>
<trkpt lat="53.222221" lon="-2.032973"><ele>414</ele><time>2020-10-21T10:48:15Z</time><name>PT1187</name></trkpt>
<trkpt lat="53.222196" lon="-2.032945"><ele>412</ele><time>2020-10-21T10:48:19Z</time><name>PT1188</name></trkpt>
<trkpt lat="53.222185" lon="-2.032916"><ele>412</ele><time>2020-10-21T10:48:22Z</time><name>PT1189</name></trkpt>
<trkpt lat="53.222170" lon="-2.032910"><ele>412</ele><time>2020-10-21T10:48:25Z</time><name>PT1190</name></trkpt>
<trkpt lat="53.222152" lon="-2.032895"><ele>411</ele><time>2020-10-21T10:48:28Z</time><name>PT1191</name></trkpt>
<trkpt lat="53.222124" lon="-2.032918"><ele>410</ele><time>2020-10-21T10:48:33Z</time><name>PT1192</name></trkpt>
<trkpt lat="53.222089" lon="-2.032925"><ele>409</ele><time>2020-10-21T10:48:37Z</time><name>PT1193</name></trkpt>
<trkpt lat="53.222062" lon="-2.032919"><ele>410</ele><time>2020-10-21T10:48:40Z</time><name>PT1194</name></trkpt>
<trkpt lat="53.222031" lon="-2.032894"><ele>409</ele><time>2020-10-21T10:48:43Z</time><name>PT1195</name></trkpt>
<trkpt lat="53.222005" lon="-2.032842"><ele>408</ele><time>2020-10-21T10:48:48Z</time><name>PT1196</name></trkpt>
<trkpt lat="53.221977" lon="-2.032810"><ele>406</ele><time>2020-10-21T10:48:52Z</time><name>PT1197</name></trkpt>
<trkpt lat="53.221954" lon="-2.032768"><ele>405</ele><time>2020-10-21T10:48:55Z</time><name>PT1198</name></trkpt>
<trkpt lat="53.221934" lon="-2.032743"><ele>405</ele><time>2020-10-21T10:48:58Z</time><name>PT1199</name></trkpt>
<trkpt lat="53.221910" lon="-2.032718"><ele>405</ele><time>2020-10-21T10:49:01Z</time><name>PT1200</name></trkpt>
<trkpt lat="53.221890" lon="-2.032673"><ele>404</ele><time>2020-10-21T10:49:06Z</time><name>PT1201</name></trkpt>
<trkpt lat="53.221870" lon="-2.032657"><ele>403</ele><time>2020-10-21T10:49:09Z</time><name>PT1202</name></trkpt>
<trkpt lat="53.221837" lon="-2.032630"><ele>402</ele><time>2020-10-21T10:49:13Z</time><name>PT1203</name></trkpt>
<trkpt lat="53.221817" lon="-2.032600"><ele>403</ele><time>2020-10-21T10:49:16Z</time><name>PT1204</name></trkpt>
<trkpt lat="53.221817" lon="-2.032577"><ele>402</ele><time>2020-10-21T10:49:21Z</time><name>PT1205</name></trkpt>
<trkpt lat="53.221816" lon="-2.032576"><ele>401</ele><time>2020-10-21T10:49:24Z</time><name>PT1206</name></trkpt>
<trkpt lat="53.221810" lon="-2.032566"><ele>401</ele><time>2020-10-21T10:49:27Z</time><name>PT1207</name></trkpt>
<trkpt lat="53.221818" lon="-2.032555"><ele>400</ele><time>2020-10-21T10:49:30Z</time><name>PT1208</name></trkpt>
<trkpt lat="53.221808" lon="-2.032546"><ele>399</ele><time>2020-10-21T10:49:34Z</time><name>PT1209</name></trkpt>
<trkpt lat="53.221804" lon="-2.032525"><ele>400</ele><time>2020-10-21T10:49:37Z</time><name>PT1210</name></trkpt>
<trkpt lat="53.221800" lon="-2.032517"><ele>399</ele><time>2020-10-21T10:49:40Z</time><name>PT1211</name></trkpt>
<trkpt lat="53.221801" lon="-2.032516"><ele>399</ele><time>2020-10-21T10:49:45Z</time><name>PT1212</name></trkpt>
<trkpt lat="53.221804" lon="-2.032523"><ele>399</ele><time>2020-10-21T10:49:51Z</time><name>PT1213</name></trkpt>
<trkpt lat="53.221806" lon="-2.032525"><ele>399</ele><time>2020-10-21T10:49:55Z</time><name>PT1214</name></trkpt>
<trkpt lat="53.221805" lon="-2.032534"><ele>399</ele><time>2020-10-21T10:49:58Z</time><name>PT1215</name></trkpt>
<trkpt lat="53.221806" lon="-2.032540"><ele>399</ele><time>2020-10-21T10:50:01Z</time><name>PT1216</name></trkpt>
<trkpt lat="53.221757" lon="-2.032534"><ele>399</ele><time>2020-10-21T10:50:06Z</time><name>PT1217</name></trkpt>
<trkpt lat="53.221729" lon="-2.032489"><ele>398</ele><time>2020-10-21T10:50:10Z</time><name>PT1218</name></trkpt>
<trkpt lat="53.221714" lon="-2.032469"><ele>397</ele><time>2020-10-21T10:50:13Z</time><name>PT1219</name></trkpt>
<trkpt lat="53.221694" lon="-2.032458"><ele>396</ele><time>2020-10-21T10:50:16Z</time><name>PT1220</name></trkpt>
<trkpt lat="53.221660" lon="-2.032423"><ele>396</ele><time>2020-10-21T10:50:19Z</time><name>PT1221</name></trkpt>
<trkpt lat="53.221626" lon="-2.032376"><ele>394</ele><time>2020-10-21T10:50:24Z</time><name>PT1222</name></trkpt>
<trkpt lat="53.221598" lon="-2.032337"><ele>393</ele><time>2020-10-21T10:50:28Z</time><name>PT1223</name></trkpt>
<trkpt lat="53.221578" lon="-2.032311"><ele>392</ele><time>2020-10-21T10:50:31Z</time><name>PT1224</name></trkpt>
<trkpt lat="53.221557" lon="-2.032289"><ele>391</ele><time>2020-10-21T10:50:34Z</time><name>PT1225</name></trkpt>
<trkpt lat="53.221530" lon="-2.032264"><ele>391</ele><time>2020-10-21T10:50:37Z</time><name>PT1226</name></trkpt>
<trkpt lat="53.221507" lon="-2.032264"><ele>390</ele><time>2020-10-21T10:50:40Z</time><name>PT1227</name></trkpt>
<trkpt lat="53.221473" lon="-2.032234"><ele>390</ele><time>2020-10-21T10:50:45Z</time><name>PT1228</name></trkpt>
<trkpt lat="53.221439" lon="-2.032208"><ele>388</ele><time>2020-10-21T10:50:49Z</time><name>PT1229</name></trkpt>
<trkpt lat="53.221417" lon="-2.032189"><ele>388</ele><time>2020-10-21T10:50:52Z</time><name>PT1230</name></trkpt>
<trkpt lat="53.221412" lon="-2.032165"><ele>387</ele><time>2020-10-21T10:50:55Z</time><name>PT1231</name></trkpt>
<trkpt lat="53.221392" lon="-2.032129"><ele>387</ele><time>2020-10-21T10:50:58Z</time><name>PT1232</name></trkpt>
<trkpt lat="53.221370" lon="-2.032072"><ele>386</ele><time>2020-10-21T10:51:01Z</time><name>PT1233</name></trkpt>
<trkpt lat="53.221356" lon="-2.032034"><ele>386</ele><time>2020-10-21T10:51:04Z</time><name>PT1234</name></trkpt>
<trkpt lat="53.221337" lon="-2.031997"><ele>385</ele><time>2020-10-21T10:51:07Z</time><name>PT1235</name></trkpt>
<trkpt lat="53.221322" lon="-2.031947"><ele>384</ele><time>2020-10-21T10:51:12Z</time><name>PT1236</name></trkpt>
<trkpt lat="53.221303" lon="-2.031899"><ele>384</ele><time>2020-10-21T10:51:16Z</time><name>PT1237</name></trkpt>
<trkpt lat="53.221279" lon="-2.031844"><ele>384</ele><time>2020-10-21T10:51:19Z</time><name>PT1238</name></trkpt>
<trkpt lat="53.221257" lon="-2.031781"><ele>382</ele><time>2020-10-21T10:51:24Z</time><name>PT1239</name></trkpt>
<trkpt lat="53.221237" lon="-2.031724"><ele>381</ele><time>2020-10-21T10:51:28Z</time><name>PT1240</name></trkpt>
<trkpt lat="53.221229" lon="-2.031678"><ele>381</ele><time>2020-10-21T10:51:31Z</time><name>PT1241</name></trkpt>
<trkpt lat="53.221219" lon="-2.031613"><ele>380</ele><time>2020-10-21T10:51:34Z</time><name>PT1242</name></trkpt>
<trkpt lat="53.221211" lon="-2.031562"><ele>379</ele><time>2020-10-21T10:51:37Z</time><name>PT1243</name></trkpt>
<trkpt lat="53.221212" lon="-2.031479"><ele>379</ele><time>2020-10-21T10:51:42Z</time><name>PT1244</name></trkpt>
<trkpt lat="53.221216" lon="-2.031430"><ele>378</ele><time>2020-10-21T10:51:45Z</time><name>PT1245</name></trkpt>
<trkpt lat="53.221205" lon="-2.031369"><ele>378</ele><time>2020-10-21T10:51:49Z</time><name>PT1246</name></trkpt>
<trkpt lat="53.221184" lon="-2.031319"><ele>377</ele><time>2020-10-21T10:51:52Z</time><name>PT1247</name></trkpt>
<trkpt lat="53.221166" lon="-2.031267"><ele>376</ele><time>2020-10-21T10:51:57Z</time><name>PT1248</name></trkpt>
<trkpt lat="53.221142" lon="-2.031201"><ele>376</ele><time>2020-10-21T10:52:01Z</time><name>PT1249</name></trkpt>
<trkpt lat="53.221118" lon="-2.031145"><ele>375</ele><time>2020-10-21T10:52:04Z</time><name>PT1250</name></trkpt>
<trkpt lat="53.221089" lon="-2.031084"><ele>375</ele><time>2020-10-21T10:52:09Z</time><name>PT1251</name></trkpt>
<trkpt lat="53.221064" lon="-2.031024"><ele>375</ele><time>2020-10-21T10:52:13Z</time><name>PT1252</name></trkpt>
<trkpt lat="53.221041" lon="-2.030991"><ele>374</ele><time>2020-10-21T10:52:16Z</time><name>PT1253</name></trkpt>
<trkpt lat="53.221025" lon="-2.030952"><ele>373</ele><time>2020-10-21T10:52:19Z</time><name>PT1254</name></trkpt>
<trkpt lat="53.220999" lon="-2.030908"><ele>372</ele><time>2020-10-21T10:52:22Z</time><name>PT1255</name></trkpt>
<trkpt lat="53.220985" lon="-2.030876"><ele>372</ele><time>2020-10-21T10:52:25Z</time><name>PT1256</name></trkpt>
<trkpt lat="53.220966" lon="-2.030833"><ele>371</ele><time>2020-10-21T10:52:30Z</time><name>PT1257</name></trkpt>
<trkpt lat="53.220948" lon="-2.030803"><ele>370</ele><time>2020-10-21T10:52:33Z</time><name>PT1258</name></trkpt>
<trkpt lat="53.220932" lon="-2.030782"><ele>370</ele><time>2020-10-21T10:52:36Z</time><name>PT1259</name></trkpt>
<trkpt lat="53.220915" lon="-2.030768"><ele>369</ele><time>2020-10-21T10:52:39Z</time><name>PT1260</name></trkpt>
<trkpt lat="53.220889" lon="-2.030752"><ele>368</ele><time>2020-10-21T10:52:43Z</time><name>PT1261</name></trkpt>
<trkpt lat="53.220894" lon="-2.030719"><ele>367</ele><time>2020-10-21T10:52:46Z</time><name>PT1262</name></trkpt>
<trkpt lat="53.220902" lon="-2.030698"><ele>366</ele><time>2020-10-21T10:52:49Z</time><name>PT1263</name></trkpt>
<trkpt lat="53.220897" lon="-2.030678"><ele>366</ele><time>2020-10-21T10:52:52Z</time><name>PT1264</name></trkpt>
<trkpt lat="53.220899" lon="-2.030672"><ele>366</ele><time>2020-10-21T10:52:55Z</time><name>PT1265</name></trkpt>
<trkpt lat="53.220890" lon="-2.030647"><ele>365</ele><time>2020-10-21T10:53:00Z</time><name>PT1266</name></trkpt>
<trkpt lat="53.220879" lon="-2.030624"><ele>365</ele><time>2020-10-21T10:53:03Z</time><name>PT1267</name></trkpt>
<trkpt lat="53.220880" lon="-2.030620"><ele>365</ele><time>2020-10-21T10:53:07Z</time><name>PT1268</name></trkpt>
<trkpt lat="53.220860" lon="-2.030587"><ele>366</ele><time>2020-10-21T10:53:10Z</time><name>PT1269</name></trkpt>
<trkpt lat="53.220850" lon="-2.030514"><ele>365</ele><time>2020-10-21T10:53:13Z</time><name>PT1270</name></trkpt>
<trkpt lat="53.220839" lon="-2.030459"><ele>364</ele><time>2020-10-21T10:53:16Z</time><name>PT1271</name></trkpt>
<trkpt lat="53.220831" lon="-2.030417"><ele>364</ele><time>2020-10-21T10:53:19Z</time><name>PT1272</name></trkpt>
<trkpt lat="53.220828" lon="-2.030371"><ele>363</ele><time>2020-10-21T10:53:22Z</time><name>PT1273</name></trkpt>
<trkpt lat="53.220823" lon="-2.030326"><ele>363</ele><time>2020-10-21T10:53:25Z</time><name>PT1274</name></trkpt>
<trkpt lat="53.220797" lon="-2.030263"><ele>362</ele><time>2020-10-21T10:53:30Z</time><name>PT1275</name></trkpt>
<trkpt lat="53.220776" lon="-2.030207"><ele>362</ele><time>2020-10-21T10:53:34Z</time><name>PT1276</name></trkpt>
<trkpt lat="53.220751" lon="-2.030151"><ele>361</ele><time>2020-10-21T10:53:37Z</time><name>PT1277</name></trkpt>
<trkpt lat="53.220742" lon="-2.030091"><ele>360</ele><time>2020-10-21T10:53:42Z</time><name>PT1278</name></trkpt>
<trkpt lat="53.220726" lon="-2.030069"><ele>360</ele><time>2020-10-21T10:53:45Z</time><name>PT1279</name></trkpt>
<trkpt lat="53.220720" lon="-2.030020"><ele>358</ele><time>2020-10-21T10:53:49Z</time><name>PT1280</name></trkpt>
<trkpt lat="53.220709" lon="-2.029965"><ele>357</ele><time>2020-10-21T10:53:52Z</time><name>PT1281</name></trkpt>
<trkpt lat="53.220709" lon="-2.029921"><ele>356</ele><time>2020-10-21T10:53:55Z</time><name>PT1282</name></trkpt>
<trkpt lat="53.220718" lon="-2.029862"><ele>355</ele><time>2020-10-21T10:54:00Z</time><name>PT1283</name></trkpt>
<trkpt lat="53.220718" lon="-2.029790"><ele>355</ele><time>2020-10-21T10:54:04Z</time><name>PT1284</name></trkpt>
<trkpt lat="53.220705" lon="-2.029747"><ele>355</ele><time>2020-10-21T10:54:07Z</time><name>PT1285</name></trkpt>
<trkpt lat="53.220683" lon="-2.029675"><ele>355</ele><time>2020-10-21T10:54:10Z</time><name>PT1286</name></trkpt>
<trkpt lat="53.220671" lon="-2.029626"><ele>354</ele><time>2020-10-21T10:54:13Z</time><name>PT1287</name></trkpt>
<trkpt lat="53.220657" lon="-2.029560"><ele>353</ele><time>2020-10-21T10:54:18Z</time><name>PT1288</name></trkpt>
<trkpt lat="53.220635" lon="-2.029498"><ele>353</ele><time>2020-10-21T10:54:22Z</time><name>PT1289</name></trkpt>
<trkpt lat="53.220622" lon="-2.029440"><ele>352</ele><time>2020-10-21T10:54:25Z</time><name>PT1290</name></trkpt>
<trkpt lat="53.220605" lon="-2.029384"><ele>351</ele><time>2020-10-21T10:54:30Z</time><name>PT1291</name></trkpt>
<trkpt lat="53.220591" lon="-2.029340"><ele>351</ele><time>2020-10-21T10:54:33Z</time><name>PT1292</name></trkpt>
<trkpt lat="53.220568" lon="-2.029307"><ele>350</ele><time>2020-10-21T10:54:37Z</time><name>PT1293</name></trkpt>
<trkpt lat="53.220539" lon="-2.029273"><ele>351</ele><time>2020-10-21T10:54:40Z</time><name>PT1294</name></trkpt>
<trkpt lat="53.220508" lon="-2.029239"><ele>350</ele><time>2020-10-21T10:54:43Z</time><name>PT1295</name></trkpt>
<trkpt lat="53.220480" lon="-2.029207"><ele>351</ele><time>2020-10-21T10:54:46Z</time><name>PT1296</name></trkpt>
<trkpt lat="53.220435" lon="-2.029163"><ele>350</ele><time>2020-10-21T10:54:49Z</time><name>PT1297</name></trkpt>
<trkpt lat="53.220397" lon="-2.029119"><ele>350</ele><time>2020-10-21T10:54:54Z</time><name>PT1298</name></trkpt>
<trkpt lat="53.220369" lon="-2.029089"><ele>350</ele><time>2020-10-21T10:54:57Z</time><name>PT1299</name></trkpt>
<trkpt lat="53.220328" lon="-2.029050"><ele>349</ele><time>2020-10-21T10:55:01Z</time><name>PT1300</name></trkpt>
<trkpt lat="53.220287" lon="-2.029016"><ele>349</ele><time>2020-10-21T10:55:04Z</time><name>PT1301</name></trkpt>
<trkpt lat="53.220244" lon="-2.028986"><ele>348</ele><time>2020-10-21T10:55:09Z</time><name>PT1302</name></trkpt>
<trkpt lat="53.220204" lon="-2.028956"><ele>347</ele><time>2020-10-21T10:55:13Z</time><name>PT1303</name></trkpt>
<trkpt lat="53.220176" lon="-2.028934"><ele>347</ele><time>2020-10-21T10:55:16Z</time><name>PT1304</name></trkpt>
<trkpt lat="53.220146" lon="-2.028917"><ele>346</ele><time>2020-10-21T10:55:19Z</time><name>PT1305</name></trkpt>
<trkpt lat="53.220107" lon="-2.028891"><ele>346</ele><time>2020-10-21T10:55:22Z</time><name>PT1306</name></trkpt>
<trkpt lat="53.220066" lon="-2.028863"><ele>345</ele><time>2020-10-21T10:55:27Z</time><name>PT1307</name></trkpt>
<trkpt lat="53.220022" lon="-2.028841"><ele>345</ele><time>2020-10-21T10:55:31Z</time><name>PT1308</name></trkpt>
<trkpt lat="53.219986" lon="-2.028814"><ele>345</ele><time>2020-10-21T10:55:34Z</time><name>PT1309</name></trkpt>
<trkpt lat="53.219953" lon="-2.028796"><ele>345</ele><time>2020-10-21T10:55:37Z</time><name>PT1310</name></trkpt>
<trkpt lat="53.219917" lon="-2.028762"><ele>344</ele><time>2020-10-21T10:55:40Z</time><name>PT1311</name></trkpt>
<trkpt lat="53.219887" lon="-2.028730"><ele>344</ele><time>2020-10-21T10:55:43Z</time><name>PT1312</name></trkpt>
<trkpt lat="53.219860" lon="-2.028694"><ele>344</ele><time>2020-10-21T10:55:46Z</time><name>PT1313</name></trkpt>
<trkpt lat="53.219824" lon="-2.028652"><ele>343</ele><time>2020-10-21T10:55:51Z</time><name>PT1314</name></trkpt>
<trkpt lat="53.219796" lon="-2.028621"><ele>343</ele><time>2020-10-21T10:55:54Z</time><name>PT1315</name></trkpt>
<trkpt lat="53.219764" lon="-2.028589"><ele>344</ele><time>2020-10-21T10:55:57Z</time><name>PT1316</name></trkpt>
<trkpt lat="53.219727" lon="-2.028547"><ele>343</ele><time>2020-10-21T10:56:01Z</time><name>PT1317</name></trkpt>
<trkpt lat="53.219693" lon="-2.028498"><ele>343</ele><time>2020-10-21T10:56:04Z</time><name>PT1318</name></trkpt>
<trkpt lat="53.219656" lon="-2.028453"><ele>343</ele><time>2020-10-21T10:56:09Z</time><name>PT1319</name></trkpt>
<trkpt lat="53.219631" lon="-2.028419"><ele>342</ele><time>2020-10-21T10:56:12Z</time><name>PT1320</name></trkpt>
<trkpt lat="53.219617" lon="-2.028353"><ele>342</ele><time>2020-10-21T10:56:16Z</time><name>PT1321</name></trkpt>
<trkpt lat="53.219618" lon="-2.028307"><ele>341</ele><time>2020-10-21T10:56:19Z</time><name>PT1322</name></trkpt>
<trkpt lat="53.219621" lon="-2.028258"><ele>340</ele><time>2020-10-21T10:56:22Z</time><name>PT1323</name></trkpt>
<trkpt lat="53.219623" lon="-2.028212"><ele>339</ele><time>2020-10-21T10:56:25Z</time><name>PT1324</name></trkpt>
<trkpt lat="53.219621" lon="-2.028171"><ele>338</ele><time>2020-10-21T10:56:28Z</time><name>PT1325</name></trkpt>
<trkpt lat="53.219623" lon="-2.028128"><ele>337</ele><time>2020-10-21T10:56:31Z</time><name>PT1326</name></trkpt>
<trkpt lat="53.219616" lon="-2.028073"><ele>336</ele><time>2020-10-21T10:56:34Z</time><name>PT1327</name></trkpt>
<trkpt lat="53.219608" lon="-2.028018"><ele>335</ele><time>2020-10-21T10:56:39Z</time><name>PT1328</name></trkpt>
<trkpt lat="53.219598" lon="-2.027956"><ele>334</ele><time>2020-10-21T10:56:43Z</time><name>PT1329</name></trkpt>
<trkpt lat="53.219593" lon="-2.027917"><ele>334</ele><time>2020-10-21T10:56:46Z</time><name>PT1330</name></trkpt>
<trkpt lat="53.219582" lon="-2.027855"><ele>333</ele><time>2020-10-21T10:56:49Z</time><name>PT1331</name></trkpt>
<trkpt lat="53.219567" lon="-2.027799"><ele>332</ele><time>2020-10-21T10:56:54Z</time><name>PT1332</name></trkpt>
<trkpt lat="53.219561" lon="-2.027753"><ele>332</ele><time>2020-10-21T10:56:57Z</time><name>PT1333</name></trkpt>
<trkpt lat="53.219556" lon="-2.027708"><ele>331</ele><time>2020-10-21T10:57:00Z</time><name>PT1334</name></trkpt>
<trkpt lat="53.219547" lon="-2.027643"><ele>330</ele><time>2020-10-21T10:57:04Z</time><name>PT1335</name></trkpt>
<trkpt lat="53.219547" lon="-2.027588"><ele>329</ele><time>2020-10-21T10:57:07Z</time><name>PT1336</name></trkpt>
<trkpt lat="53.219552" lon="-2.027547"><ele>329</ele><time>2020-10-21T10:57:10Z</time><name>PT1337</name></trkpt>
<trkpt lat="53.219561" lon="-2.027498"><ele>328</ele><time>2020-10-21T10:57:15Z</time><name>PT1338</name></trkpt>
<trkpt lat="53.219570" lon="-2.027461"><ele>328</ele><time>2020-10-21T10:57:18Z</time><name>PT1339</name></trkpt>
<trkpt lat="53.219574" lon="-2.027427"><ele>327</ele><time>2020-10-21T10:57:21Z</time><name>PT1340</name></trkpt>
<trkpt lat="53.219587" lon="-2.027392"><ele>326</ele><time>2020-10-21T10:57:25Z</time><name>PT1341</name></trkpt>
<trkpt lat="53.219605" lon="-2.027373"><ele>326</ele><time>2020-10-21T10:57:28Z</time><name>PT1342</name></trkpt>
<trkpt lat="53.219629" lon="-2.027373"><ele>325</ele><time>2020-10-21T10:57:33Z</time><name>PT1343</name></trkpt>
<trkpt lat="53.219655" lon="-2.027357"><ele>325</ele><time>2020-10-21T10:57:37Z</time><name>PT1344</name></trkpt>
<trkpt lat="53.219670" lon="-2.027346"><ele>324</ele><time>2020-10-21T10:57:40Z</time><name>PT1345</name></trkpt>
<trkpt lat="53.219690" lon="-2.027348"><ele>323</ele><time>2020-10-21T10:57:43Z</time><name>PT1346</name></trkpt>
<trkpt lat="53.219725" lon="-2.027354"><ele>322</ele><time>2020-10-21T10:57:46Z</time><name>PT1347</name></trkpt>
<trkpt lat="53.219750" lon="-2.027359"><ele>321</ele><time>2020-10-21T10:57:49Z</time><name>PT1348</name></trkpt>
<trkpt lat="53.219777" lon="-2.027345"><ele>320</ele><time>2020-10-21T10:57:52Z</time><name>PT1349</name></trkpt>
<trkpt lat="53.219805" lon="-2.027310"><ele>321</ele><time>2020-10-21T10:57:57Z</time><name>PT1350</name></trkpt>
<trkpt lat="53.219834" lon="-2.027261"><ele>321</ele><time>2020-10-21T10:58:01Z</time><name>PT1351</name></trkpt>
<trkpt lat="53.219856" lon="-2.027234"><ele>318</ele><time>2020-10-21T10:58:04Z</time><name>PT1352</name></trkpt>
<trkpt lat="53.219871" lon="-2.027200"><ele>318</ele><time>2020-10-21T10:58:07Z</time><name>PT1353</name></trkpt>
<trkpt lat="53.219902" lon="-2.027165"><ele>317</ele><time>2020-10-21T10:58:10Z</time><name>PT1354</name></trkpt>
<trkpt lat="53.219926" lon="-2.027118"><ele>319</ele><time>2020-10-21T10:58:15Z</time><name>PT1355</name></trkpt>
<trkpt lat="53.219944" lon="-2.027067"><ele>318</ele><time>2020-10-21T10:58:18Z</time><name>PT1356</name></trkpt>
<trkpt lat="53.219969" lon="-2.027015"><ele>318</ele><time>2020-10-21T10:58:21Z</time><name>PT1357</name></trkpt>
<trkpt lat="53.219989" lon="-2.026938"><ele>320</ele><time>2020-10-21T10:58:25Z</time><name>PT1358</name></trkpt>
<trkpt lat="53.219997" lon="-2.026892"><ele>321</ele><time>2020-10-21T10:58:28Z</time><name>PT1359</name></trkpt>
<trkpt lat="53.220018" lon="-2.026841"><ele>323</ele><time>2020-10-21T10:58:31Z</time><name>PT1360</name></trkpt>
<trkpt lat="53.220042" lon="-2.026801"><ele>323</ele><time>2020-10-21T10:58:36Z</time><name>PT1361</name></trkpt>
<trkpt lat="53.220069" lon="-2.026770"><ele>322</ele><time>2020-10-21T10:58:39Z</time><name>PT1362</name></trkpt>
<trkpt lat="53.220098" lon="-2.026716"><ele>323</ele><time>2020-10-21T10:58:43Z</time><name>PT1363</name></trkpt>
<trkpt lat="53.220120" lon="-2.026705"><ele>322</ele><time>2020-10-21T10:58:46Z</time><name>PT1364</name></trkpt>
<trkpt lat="53.220149" lon="-2.026634"><ele>323</ele><time>2020-10-21T10:58:49Z</time><name>PT1365</name></trkpt>
<trkpt lat="53.220174" lon="-2.026580"><ele>322</ele><time>2020-10-21T10:58:54Z</time><name>PT1366</name></trkpt>
<trkpt lat="53.220204" lon="-2.026536"><ele>322</ele><time>2020-10-21T10:58:57Z</time><name>PT1367</name></trkpt>
<trkpt lat="53.220233" lon="-2.026480"><ele>322</ele><time>2020-10-21T10:59:01Z</time><name>PT1368</name></trkpt>
<trkpt lat="53.220267" lon="-2.026436"><ele>323</ele><time>2020-10-21T10:59:04Z</time><name>PT1369</name></trkpt>
<trkpt lat="53.220301" lon="-2.026394"><ele>323</ele><time>2020-10-21T10:59:09Z</time><name>PT1370</name></trkpt>
<trkpt lat="53.220332" lon="-2.026369"><ele>323</ele><time>2020-10-21T10:59:13Z</time><name>PT1371</name></trkpt>
<trkpt lat="53.220360" lon="-2.026343"><ele>324</ele><time>2020-10-21T10:59:16Z</time><name>PT1372</name></trkpt>
<trkpt lat="53.220381" lon="-2.026326"><ele>323</ele><time>2020-10-21T10:59:19Z</time><name>PT1373</name></trkpt>
<trkpt lat="53.220403" lon="-2.026304"><ele>321</ele><time>2020-10-21T10:59:22Z</time><name>PT1374</name></trkpt>
<trkpt lat="53.220426" lon="-2.026281"><ele>321</ele><time>2020-10-21T10:59:25Z</time><name>PT1375</name></trkpt>
<trkpt lat="53.220466" lon="-2.026251"><ele>320</ele><time>2020-10-21T10:59:30Z</time><name>PT1376</name></trkpt>
<trkpt lat="53.220496" lon="-2.026236"><ele>321</ele><time>2020-10-21T10:59:33Z</time><name>PT1377</name></trkpt>
<trkpt lat="53.220520" lon="-2.026223"><ele>321</ele><time>2020-10-21T10:59:36Z</time><name>PT1378</name></trkpt>
<trkpt lat="53.220570" lon="-2.026196"><ele>321</ele><time>2020-10-21T10:59:40Z</time><name>PT1379</name></trkpt>
<trkpt lat="53.220603" lon="-2.026177"><ele>320</ele><time>2020-10-21T10:59:43Z</time><name>PT1380</name></trkpt>
<trkpt lat="53.220641" lon="-2.026144"><ele>317</ele><time>2020-10-21T10:59:46Z</time><name>PT1381</name></trkpt>
<trkpt lat="53.220668" lon="-2.026117"><ele>316</ele><time>2020-10-21T10:59:49Z</time><name>PT1382</name></trkpt>
<trkpt lat="53.220708" lon="-2.026062"><ele>318</ele><time>2020-10-21T10:59:54Z</time><name>PT1383</name></trkpt>
<trkpt lat="53.220730" lon="-2.026021"><ele>319</ele><time>2020-10-21T10:59:57Z</time><name>PT1384</name></trkpt>
<trkpt lat="53.220753" lon="-2.025969"><ele>319</ele><time>2020-10-21T11:00:00Z</time><name>PT1385</name></trkpt>
<trkpt lat="53.220792" lon="-2.025898"><ele>321</ele><time>2020-10-21T11:00:04Z</time><name>PT1386</name></trkpt>
<trkpt lat="53.220820" lon="-2.025853"><ele>321</ele><time>2020-10-21T11:00:07Z</time><name>PT1387</name></trkpt>
<trkpt lat="53.220854" lon="-2.025799"><ele>321</ele><time>2020-10-21T11:00:10Z</time><name>PT1388</name></trkpt>
<trkpt lat="53.220888" lon="-2.025743"><ele>320</ele><time>2020-10-21T11:00:15Z</time><name>PT1389</name></trkpt>
<trkpt lat="53.220913" lon="-2.025705"><ele>321</ele><time>2020-10-21T11:00:18Z</time><name>PT1390</name></trkpt>
<trkpt lat="53.220939" lon="-2.025663"><ele>320</ele><time>2020-10-21T11:00:21Z</time><name>PT1391</name></trkpt>
<trkpt lat="53.220973" lon="-2.025605"><ele>319</ele><time>2020-10-21T11:00:25Z</time><name>PT1392</name></trkpt>
<trkpt lat="53.221001" lon="-2.025556"><ele>319</ele><time>2020-10-21T11:00:28Z</time><name>PT1393</name></trkpt>
<trkpt lat="53.221023" lon="-2.025510"><ele>320</ele><time>2020-10-21T11:00:31Z</time><name>PT1394</name></trkpt>
<trkpt lat="53.221056" lon="-2.025456"><ele>319</ele><time>2020-10-21T11:00:36Z</time><name>PT1395</name></trkpt>
<trkpt lat="53.221083" lon="-2.025419"><ele>319</ele><time>2020-10-21T11:00:39Z</time><name>PT1396</name></trkpt>
<trkpt lat="53.221109" lon="-2.025380"><ele>318</ele><time>2020-10-21T11:00:42Z</time><name>PT1397</name></trkpt>
<trkpt lat="53.221142" lon="-2.025322"><ele>318</ele><time>2020-10-21T11:00:46Z</time><name>PT1398</name></trkpt>
<trkpt lat="53.221167" lon="-2.025284"><ele>318</ele><time>2020-10-21T11:00:49Z</time><name>PT1399</name></trkpt>
<trkpt lat="53.221193" lon="-2.025251"><ele>317</ele><time>2020-10-21T11:00:52Z</time><name>PT1400</name></trkpt>
<trkpt lat="53.221227" lon="-2.025192"><ele>317</ele><time>2020-10-21T11:00:55Z</time><name>PT1401</name></trkpt>
<trkpt lat="53.221249" lon="-2.025149"><ele>317</ele><time>2020-10-21T11:00:58Z</time><name>PT1402</name></trkpt>
<trkpt lat="53.221273" lon="-2.025107"><ele>317</ele><time>2020-10-21T11:01:01Z</time><name>PT1403</name></trkpt>
<trkpt lat="53.221296" lon="-2.025067"><ele>317</ele><time>2020-10-21T11:01:04Z</time><name>PT1404</name></trkpt>
<trkpt lat="53.221325" lon="-2.025003"><ele>317</ele><time>2020-10-21T11:01:09Z</time><name>PT1405</name></trkpt>
<trkpt lat="53.221356" lon="-2.024943"><ele>318</ele><time>2020-10-21T11:01:13Z</time><name>PT1406</name></trkpt>
<trkpt lat="53.221381" lon="-2.024901"><ele>316</ele><time>2020-10-21T11:01:16Z</time><name>PT1407</name></trkpt>
<trkpt lat="53.221414" lon="-2.024851"><ele>316</ele><time>2020-10-21T11:01:19Z</time><name>PT1408</name></trkpt>
<trkpt lat="53.221443" lon="-2.024793"><ele>316</ele><time>2020-10-21T11:01:24Z</time><name>PT1409</name></trkpt>
<trkpt lat="53.221467" lon="-2.024755"><ele>316</ele><time>2020-10-21T11:01:27Z</time><name>PT1410</name></trkpt>
<trkpt lat="53.221491" lon="-2.024714"><ele>315</ele><time>2020-10-21T11:01:30Z</time><name>PT1411</name></trkpt>
<trkpt lat="53.221517" lon="-2.024676"><ele>315</ele><time>2020-10-21T11:01:33Z</time><name>PT1412</name></trkpt>
<trkpt lat="53.221539" lon="-2.024624"><ele>315</ele><time>2020-10-21T11:01:36Z</time><name>PT1413</name></trkpt>
<trkpt lat="53.221561" lon="-2.024578"><ele>316</ele><time>2020-10-21T11:01:39Z</time><name>PT1414</name></trkpt>
<trkpt lat="53.221583" lon="-2.024533"><ele>317</ele><time>2020-10-21T11:01:42Z</time><name>PT1415</name></trkpt>
<trkpt lat="53.221608" lon="-2.024500"><ele>317</ele><time>2020-10-21T11:01:45Z</time><name>PT1416</name></trkpt>
<trkpt lat="53.221637" lon="-2.024438"><ele>317</ele><time>2020-10-21T11:01:49Z</time><name>PT1417</name></trkpt>
<trkpt lat="53.221670" lon="-2.024382"><ele>317</ele><time>2020-10-21T11:01:52Z</time><name>PT1418</name></trkpt>
<trkpt lat="53.221693" lon="-2.024344"><ele>317</ele><time>2020-10-21T11:01:55Z</time><name>PT1419</name></trkpt>
<trkpt lat="53.221713" lon="-2.024300"><ele>318</ele><time>2020-10-21T11:01:58Z</time><name>PT1420</name></trkpt>
<trkpt lat="53.221725" lon="-2.024242"><ele>318</ele><time>2020-10-21T11:02:03Z</time><name>PT1421</name></trkpt>
<trkpt lat="53.221731" lon="-2.024212"><ele>317</ele><time>2020-10-21T11:02:06Z</time><name>PT1422</name></trkpt>
<trkpt lat="53.221735" lon="-2.024161"><ele>316</ele><time>2020-10-21T11:02:10Z</time><name>PT1423</name></trkpt>
<trkpt lat="53.221739" lon="-2.024137"><ele>314</ele><time>2020-10-21T11:02:13Z</time><name>PT1424</name></trkpt>
<trkpt lat="53.221755" lon="-2.024089"><ele>314</ele><time>2020-10-21T11:02:16Z</time><name>PT1425</name></trkpt>
<trkpt lat="53.221768" lon="-2.024051"><ele>313</ele><time>2020-10-21T11:02:19Z</time><name>PT1426</name></trkpt>
<trkpt lat="53.221788" lon="-2.023998"><ele>313</ele><time>2020-10-21T11:02:24Z</time><name>PT1427</name></trkpt>
<trkpt lat="53.221803" lon="-2.023965"><ele>313</ele><time>2020-10-21T11:02:27Z</time><name>PT1428</name></trkpt>
<trkpt lat="53.221812" lon="-2.023920"><ele>312</ele><time>2020-10-21T11:02:30Z</time><name>PT1429</name></trkpt>
<trkpt lat="53.221842" lon="-2.023853"><ele>312</ele><time>2020-10-21T11:02:34Z</time><name>PT1430</name></trkpt>
<trkpt lat="53.221864" lon="-2.023816"><ele>312</ele><time>2020-10-21T11:02:37Z</time><name>PT1431</name></trkpt>
<trkpt lat="53.221890" lon="-2.023764"><ele>309</ele><time>2020-10-21T11:02:40Z</time><name>PT1432</name></trkpt>
<trkpt lat="53.221913" lon="-2.023730"><ele>308</ele><time>2020-10-21T11:02:43Z</time><name>PT1433</name></trkpt>
<trkpt lat="53.221933" lon="-2.023703"><ele>307</ele><time>2020-10-21T11:02:46Z</time><name>PT1434</name></trkpt>
<trkpt lat="53.221960" lon="-2.023644"><ele>307</ele><time>2020-10-21T11:02:49Z</time><name>PT1435</name></trkpt>
<trkpt lat="53.221985" lon="-2.023618"><ele>307</ele><time>2020-10-21T11:02:52Z</time><name>PT1436</name></trkpt>
<trkpt lat="53.222027" lon="-2.023566"><ele>308</ele><time>2020-10-21T11:02:57Z</time><name>PT1437</name></trkpt>
<trkpt lat="53.222065" lon="-2.023522"><ele>309</ele><time>2020-10-21T11:03:01Z</time><name>PT1438</name></trkpt>
<trkpt lat="53.222092" lon="-2.023495"><ele>309</ele><time>2020-10-21T11:03:04Z</time><name>PT1439</name></trkpt>
<trkpt lat="53.222115" lon="-2.023449"><ele>308</ele><time>2020-10-21T11:03:07Z</time><name>PT1440</name></trkpt>
<trkpt lat="53.222141" lon="-2.023399"><ele>308</ele><time>2020-10-21T11:03:10Z</time><name>PT1441</name></trkpt>
<trkpt lat="53.222161" lon="-2.023362"><ele>308</ele><time>2020-10-21T11:03:13Z</time><name>PT1442</name></trkpt>
<trkpt lat="53.222208" lon="-2.023340"><ele>306</ele><time>2020-10-21T11:03:18Z</time><name>PT1443</name></trkpt>
<trkpt lat="53.222240" lon="-2.023330"><ele>306</ele><time>2020-10-21T11:03:21Z</time><name>PT1444</name></trkpt>
<trkpt lat="53.222272" lon="-2.023332"><ele>306</ele><time>2020-10-21T11:03:24Z</time><name>PT1445</name></trkpt>
<trkpt lat="53.222305" lon="-2.023324"><ele>305</ele><time>2020-10-21T11:03:28Z</time><name>PT1446</name></trkpt>
<trkpt lat="53.222349" lon="-2.023318"><ele>305</ele><time>2020-10-21T11:03:31Z</time><name>PT1447</name></trkpt>
<trkpt lat="53.222396" lon="-2.023310"><ele>306</ele><time>2020-10-21T11:03:34Z</time><name>PT1448</name></trkpt>
<trkpt lat="53.222436" lon="-2.023321"><ele>304</ele><time>2020-10-21T11:03:37Z</time><name>PT1449</name></trkpt>
<trkpt lat="53.222475" lon="-2.023331"><ele>304</ele><time>2020-10-21T11:03:40Z</time><name>PT1450</name></trkpt>
<trkpt lat="53.222520" lon="-2.023345"><ele>302</ele><time>2020-10-21T11:03:45Z</time><name>PT1451</name></trkpt>
<trkpt lat="53.222566" lon="-2.023360"><ele>302</ele><time>2020-10-21T11:03:49Z</time><name>PT1452</name></trkpt>
<trkpt lat="53.222594" lon="-2.023380"><ele>302</ele><time>2020-10-21T11:03:52Z</time><name>PT1453</name></trkpt>
<trkpt lat="53.222623" lon="-2.023406"><ele>304</ele><time>2020-10-21T11:03:55Z</time><name>PT1454</name></trkpt>
<trkpt lat="53.222657" lon="-2.023425"><ele>304</ele><time>2020-10-21T11:03:58Z</time><name>PT1455</name></trkpt>
<trkpt lat="53.222686" lon="-2.023443"><ele>304</ele><time>2020-10-21T11:04:01Z</time><name>PT1456</name></trkpt>
<trkpt lat="53.222731" lon="-2.023465"><ele>305</ele><time>2020-10-21T11:04:04Z</time><name>PT1457</name></trkpt>
<trkpt lat="53.222761" lon="-2.023479"><ele>304</ele><time>2020-10-21T11:04:07Z</time><name>PT1458</name></trkpt>
<trkpt lat="53.222798" lon="-2.023504"><ele>304</ele><time>2020-10-21T11:04:10Z</time><name>PT1459</name></trkpt>
<trkpt lat="53.222838" lon="-2.023505"><ele>304</ele><time>2020-10-21T11:04:13Z</time><name>PT1460</name></trkpt>
<trkpt lat="53.222848" lon="-2.023516"><ele>304</ele><time>2020-10-21T11:04:16Z</time><name>PT1461</name></trkpt>
<trkpt lat="53.222869" lon="-2.023519"><ele>306</ele><time>2020-10-21T11:04:19Z</time><name>PT1462</name></trkpt>
<trkpt lat="53.222895" lon="-2.023532"><ele>305</ele><time>2020-10-21T11:04:22Z</time><name>PT1463</name></trkpt>
<trkpt lat="53.222930" lon="-2.023550"><ele>304</ele><time>2020-10-21T11:04:27Z</time><name>PT1464</name></trkpt>
<trkpt lat="53.222974" lon="-2.023568"><ele>304</ele><time>2020-10-21T11:04:31Z</time><name>PT1465</name></trkpt>
<trkpt lat="53.223014" lon="-2.023592"><ele>304</ele><time>2020-10-21T11:04:34Z</time><name>PT1466</name></trkpt>
<trkpt lat="53.223052" lon="-2.023602"><ele>304</ele><time>2020-10-21T11:04:37Z</time><name>PT1467</name></trkpt>
<trkpt lat="53.223091" lon="-2.023599"><ele>305</ele><time>2020-10-21T11:04:40Z</time><name>PT1468</name></trkpt>
<trkpt lat="53.223140" lon="-2.023569"><ele>306</ele><time>2020-10-21T11:04:45Z</time><name>PT1469</name></trkpt>
<trkpt lat="53.223170" lon="-2.023547"><ele>306</ele><time>2020-10-21T11:04:49Z</time><name>PT1470</name></trkpt>
<trkpt lat="53.223169" lon="-2.023549"><ele>306</ele><time>2020-10-21T11:04:52Z</time><name>PT1471</name></trkpt>
<trkpt lat="53.223202" lon="-2.023535"><ele>306</ele><time>2020-10-21T11:04:55Z</time><name>PT1472</name></trkpt>
<trkpt lat="53.223255" lon="-2.023515"><ele>305</ele><time>2020-10-21T11:05:00Z</time><name>PT1473</name></trkpt>
<trkpt lat="53.223283" lon="-2.023512"><ele>304</ele><time>2020-10-21T11:05:03Z</time><name>PT1474</name></trkpt>
<trkpt lat="53.223330" lon="-2.023500"><ele>302</ele><time>2020-10-21T11:05:07Z</time><name>PT1475</name></trkpt>
<trkpt lat="53.223357" lon="-2.023487"><ele>301</ele><time>2020-10-21T11:05:10Z</time><name>PT1476</name></trkpt>
<trkpt lat="53.223366" lon="-2.023479"><ele>301</ele><time>2020-10-21T11:05:13Z</time><name>PT1477</name></trkpt>
<trkpt lat="53.223399" lon="-2.023471"><ele>301</ele><time>2020-10-21T11:05:16Z</time><name>PT1478</name></trkpt>
<trkpt lat="53.223436" lon="-2.023471"><ele>301</ele><time>2020-10-21T11:05:19Z</time><name>PT1479</name></trkpt>
<trkpt lat="53.223481" lon="-2.023469"><ele>301</ele><time>2020-10-21T11:05:24Z</time><name>PT1480</name></trkpt>
<trkpt lat="53.223531" lon="-2.023463"><ele>301</ele><time>2020-10-21T11:05:28Z</time><name>PT1481</name></trkpt>
<trkpt lat="53.223582" lon="-2.023451"><ele>301</ele><time>2020-10-21T11:05:31Z</time><name>PT1482</name></trkpt>
<trkpt lat="53.223627" lon="-2.023449"><ele>301</ele><time>2020-10-21T11:05:36Z</time><name>PT1483</name></trkpt>
<trkpt lat="53.223679" lon="-2.023432"><ele>302</ele><time>2020-10-21T11:05:40Z</time><name>PT1484</name></trkpt>
<trkpt lat="53.223731" lon="-2.023414"><ele>302</ele><time>2020-10-21T11:05:43Z</time><name>PT1485</name></trkpt>
<trkpt lat="53.223779" lon="-2.023401"><ele>302</ele><time>2020-10-21T11:05:48Z</time><name>PT1486</name></trkpt>
<trkpt lat="53.223816" lon="-2.023381"><ele>302</ele><time>2020-10-21T11:05:51Z</time><name>PT1487</name></trkpt>
<trkpt lat="53.223842" lon="-2.023378"><ele>302</ele><time>2020-10-21T11:05:55Z</time><name>PT1488</name></trkpt>
<trkpt lat="53.223868" lon="-2.023356"><ele>301</ele><time>2020-10-21T11:05:58Z</time><name>PT1489</name></trkpt>
<trkpt lat="53.223920" lon="-2.023324"><ele>301</ele><time>2020-10-21T11:06:01Z</time><name>PT1490</name></trkpt>
<trkpt lat="53.223961" lon="-2.023300"><ele>301</ele><time>2020-10-21T11:06:04Z</time><name>PT1491</name></trkpt>
<trkpt lat="53.224006" lon="-2.023276"><ele>300</ele><time>2020-10-21T11:06:09Z</time><name>PT1492</name></trkpt>
<trkpt lat="53.224045" lon="-2.023256"><ele>300</ele><time>2020-10-21T11:06:12Z</time><name>PT1493</name></trkpt>
<trkpt lat="53.224086" lon="-2.023232"><ele>300</ele><time>2020-10-21T11:06:16Z</time><name>PT1494</name></trkpt>
<trkpt lat="53.224124" lon="-2.023244"><ele>299</ele><time>2020-10-21T11:06:19Z</time><name>PT1495</name></trkpt>
<trkpt lat="53.224171" lon="-2.023264"><ele>298</ele><time>2020-10-21T11:06:22Z</time><name>PT1496</name></trkpt>
<trkpt lat="53.224201" lon="-2.023285"><ele>296</ele><time>2020-10-21T11:06:25Z</time><name>PT1497</name></trkpt>
<trkpt lat="53.224234" lon="-2.023301"><ele>296</ele><time>2020-10-21T11:06:28Z</time><name>PT1498</name></trkpt>
<trkpt lat="53.224264" lon="-2.023293"><ele>296</ele><time>2020-10-21T11:06:31Z</time><name>PT1499</name></trkpt>
<trkpt lat="53.224278" lon="-2.023253"><ele>297</ele><time>2020-10-21T11:06:34Z</time><name>PT1500</name></trkpt>
<trkpt lat="53.224286" lon="-2.023235"><ele>297</ele><time>2020-10-21T11:06:39Z</time><name>PT1501</name></trkpt>
<trkpt lat="53.224295" lon="-2.023201"><ele>297</ele><time>2020-10-21T11:06:42Z</time><name>PT1502</name></trkpt>
<trkpt lat="53.224302" lon="-2.023181"><ele>298</ele><time>2020-10-21T11:06:45Z</time><name>PT1503</name></trkpt>
<trkpt lat="53.224310" lon="-2.023157"><ele>298</ele><time>2020-10-21T11:06:48Z</time><name>PT1504</name></trkpt>
<trkpt lat="53.224314" lon="-2.023105"><ele>297</ele><time>2020-10-21T11:06:51Z</time><name>PT1505</name></trkpt>
<trkpt lat="53.224332" lon="-2.023033"><ele>296</ele><time>2020-10-21T11:06:55Z</time><name>PT1506</name></trkpt>
<trkpt lat="53.224355" lon="-2.022995"><ele>297</ele><time>2020-10-21T11:06:58Z</time><name>PT1507</name></trkpt>
<trkpt lat="53.224384" lon="-2.022924"><ele>297</ele><time>2020-10-21T11:07:01Z</time><name>PT1508</name></trkpt>
<trkpt lat="53.224406" lon="-2.022868"><ele>297</ele><time>2020-10-21T11:07:04Z</time><name>PT1509</name></trkpt>
<trkpt lat="53.224437" lon="-2.022806"><ele>297</ele><time>2020-10-21T11:07:09Z</time><name>PT1510</name></trkpt>
<trkpt lat="53.224470" lon="-2.022745"><ele>298</ele><time>2020-10-21T11:07:13Z</time><name>PT1511</name></trkpt>
<trkpt lat="53.224487" lon="-2.022708"><ele>297</ele><time>2020-10-21T11:07:16Z</time><name>PT1512</name></trkpt>
<trkpt lat="53.224524" lon="-2.022659"><ele>297</ele><time>2020-10-21T11:07:19Z</time><name>PT1513</name></trkpt>
<trkpt lat="53.224544" lon="-2.022635"><ele>297</ele><time>2020-10-21T11:07:22Z</time><name>PT1514</name></trkpt>
<trkpt lat="53.224576" lon="-2.022607"><ele>298</ele><time>2020-10-21T11:07:27Z</time><name>PT1515</name></trkpt>
<trkpt lat="53.224600" lon="-2.022572"><ele>298</ele><time>2020-10-21T11:07:31Z</time><name>PT1516</name></trkpt>
<trkpt lat="53.224628" lon="-2.022537"><ele>296</ele><time>2020-10-21T11:07:34Z</time><name>PT1517</name></trkpt>
<trkpt lat="53.224657" lon="-2.022492"><ele>294</ele><time>2020-10-21T11:07:37Z</time><name>PT1518</name></trkpt>
<trkpt lat="53.224663" lon="-2.022471"><ele>293</ele><time>2020-10-21T11:07:42Z</time><name>PT1519</name></trkpt>
<trkpt lat="53.224672" lon="-2.022464"><ele>291</ele><time>2020-10-21T11:07:45Z</time><name>PT1520</name></trkpt>
<trkpt lat="53.224683" lon="-2.022468"><ele>290</ele><time>2020-10-21T11:07:48Z</time><name>PT1521</name></trkpt>
<trkpt lat="53.224704" lon="-2.022445"><ele>290</ele><time>2020-10-21T11:07:51Z</time><name>PT1522</name></trkpt>
<trkpt lat="53.224728" lon="-2.022404"><ele>290</ele><time>2020-10-21T11:07:55Z</time><name>PT1523</name></trkpt>
<trkpt lat="53.224754" lon="-2.022360"><ele>291</ele><time>2020-10-21T11:07:58Z</time><name>PT1524</name></trkpt>
<trkpt lat="53.224775" lon="-2.022327"><ele>291</ele><time>2020-10-21T11:08:01Z</time><name>PT1525</name></trkpt>
<trkpt lat="53.224800" lon="-2.022291"><ele>292</ele><time>2020-10-21T11:08:04Z</time><name>PT1526</name></trkpt>
<trkpt lat="53.224834" lon="-2.022267"><ele>292</ele><time>2020-10-21T11:08:09Z</time><name>PT1527</name></trkpt>
<trkpt lat="53.224854" lon="-2.022262"><ele>292</ele><time>2020-10-21T11:08:12Z</time><name>PT1528</name></trkpt>
<trkpt lat="53.224879" lon="-2.022248"><ele>292</ele><time>2020-10-21T11:08:16Z</time><name>PT1529</name></trkpt>
<trkpt lat="53.224910" lon="-2.022233"><ele>292</ele><time>2020-10-21T11:08:19Z</time><name>PT1530</name></trkpt>
<trkpt lat="53.224952" lon="-2.022205"><ele>291</ele><time>2020-10-21T11:08:22Z</time><name>PT1531</name></trkpt>
<trkpt lat="53.224985" lon="-2.022181"><ele>291</ele><time>2020-10-21T11:08:25Z</time><name>PT1532</name></trkpt>
<trkpt lat="53.225024" lon="-2.022131"><ele>291</ele><time>2020-10-21T11:08:30Z</time><name>PT1533</name></trkpt>
<trkpt lat="53.225063" lon="-2.022094"><ele>291</ele><time>2020-10-21T11:08:34Z</time><name>PT1534</name></trkpt>
<trkpt lat="53.225083" lon="-2.022064"><ele>291</ele><time>2020-10-21T11:08:37Z</time><name>PT1535</name></trkpt>
<trkpt lat="53.225115" lon="-2.022030"><ele>289</ele><time>2020-10-21T11:08:40Z</time><name>PT1536</name></trkpt>
<trkpt lat="53.225155" lon="-2.022013"><ele>288</ele><time>2020-10-21T11:08:45Z</time><name>PT1537</name></trkpt>
<trkpt lat="53.225187" lon="-2.021976"><ele>288</ele><time>2020-10-21T11:08:48Z</time><name>PT1538</name></trkpt>
<trkpt lat="53.225218" lon="-2.021940"><ele>288</ele><time>2020-10-21T11:08:51Z</time><name>PT1539</name></trkpt>
<trkpt lat="53.225284" lon="-2.021884"><ele>289</ele><time>2020-10-21T11:08:55Z</time><name>PT1540</name></trkpt>
<trkpt lat="53.225323" lon="-2.021855"><ele>292</ele><time>2020-10-21T11:08:58Z</time><name>PT1541</name></trkpt>
<trkpt lat="53.225363" lon="-2.021805"><ele>293</ele><time>2020-10-21T11:09:01Z</time><name>PT1542</name></trkpt>
<trkpt lat="53.225398" lon="-2.021756"><ele>292</ele><time>2020-10-21T11:09:04Z</time><name>PT1543</name></trkpt>
<trkpt lat="53.225438" lon="-2.021700"><ele>291</ele><time>2020-10-21T11:09:09Z</time><name>PT1544</name></trkpt>
<trkpt lat="53.225464" lon="-2.021659"><ele>291</ele><time>2020-10-21T11:09:12Z</time><name>PT1545</name></trkpt>
<trkpt lat="53.225498" lon="-2.021612"><ele>291</ele><time>2020-10-21T11:09:15Z</time><name>PT1546</name></trkpt>
<trkpt lat="53.225543" lon="-2.021562"><ele>292</ele><time>2020-10-21T11:09:19Z</time><name>PT1547</name></trkpt>
<trkpt lat="53.225591" lon="-2.021500"><ele>293</ele><time>2020-10-21T11:09:22Z</time><name>PT1548</name></trkpt>
<trkpt lat="53.225634" lon="-2.021446"><ele>294</ele><time>2020-10-21T11:09:27Z</time><name>PT1549</name></trkpt>
<trkpt lat="53.225683" lon="-2.021386"><ele>296</ele><time>2020-10-21T11:09:31Z</time><name>PT1550</name></trkpt>
<trkpt lat="53.225728" lon="-2.021340"><ele>297</ele><time>2020-10-21T11:09:34Z</time><name>PT1551</name></trkpt>
<trkpt lat="53.225761" lon="-2.021299"><ele>297</ele><time>2020-10-21T11:09:37Z</time><name>PT1552</name></trkpt>
<trkpt lat="53.225791" lon="-2.021264"><ele>297</ele><time>2020-10-21T11:09:41Z</time><name>PT1553</name></trkpt>
<trkpt lat="53.225836" lon="-2.021216"><ele>297</ele><time>2020-10-21T11:09:45Z</time><name>PT1554</name></trkpt>
<trkpt lat="53.225866" lon="-2.021184"><ele>298</ele><time>2020-10-21T11:09:48Z</time><name>PT1555</name></trkpt>
<trkpt lat="53.225894" lon="-2.021157"><ele>299</ele><time>2020-10-21T11:09:51Z</time><name>PT1556</name></trkpt>
<trkpt lat="53.225937" lon="-2.021117"><ele>298</ele><time>2020-10-21T11:09:55Z</time><name>PT1557</name></trkpt>
<trkpt lat="53.225966" lon="-2.021080"><ele>298</ele><time>2020-10-21T11:09:58Z</time><name>PT1558</name></trkpt>
<trkpt lat="53.225997" lon="-2.021049"><ele>298</ele><time>2020-10-21T11:10:01Z</time><name>PT1559</name></trkpt>
<trkpt lat="53.226029" lon="-2.021034"><ele>298</ele><time>2020-10-21T11:10:04Z</time><name>PT1560</name></trkpt>
<trkpt lat="53.226068" lon="-2.020980"><ele>298</ele><time>2020-10-21T11:10:07Z</time><name>PT1561</name></trkpt>
<trkpt lat="53.226100" lon="-2.020937"><ele>299</ele><time>2020-10-21T11:10:10Z</time><name>PT1562</name></trkpt>
<trkpt lat="53.226140" lon="-2.020878"><ele>300</ele><time>2020-10-21T11:10:15Z</time><name>PT1563</name></trkpt>
<trkpt lat="53.226170" lon="-2.020837"><ele>300</ele><time>2020-10-21T11:10:18Z</time><name>PT1564</name></trkpt>
<trkpt lat="53.226209" lon="-2.020790"><ele>300</ele><time>2020-10-21T11:10:22Z</time><name>PT1565</name></trkpt>
<trkpt lat="53.226259" lon="-2.020742"><ele>299</ele><time>2020-10-21T11:10:25Z</time><name>PT1566</name></trkpt>
<trkpt lat="53.226293" lon="-2.020709"><ele>298</ele><time>2020-10-21T11:10:30Z</time><name>PT1567</name></trkpt>
<trkpt lat="53.226321" lon="-2.020679"><ele>299</ele><time>2020-10-21T11:10:33Z</time><name>PT1568</name></trkpt>
<trkpt lat="53.226357" lon="-2.020633"><ele>299</ele><time>2020-10-21T11:10:37Z</time><name>PT1569</name></trkpt>
<trkpt lat="53.226387" lon="-2.020606"><ele>299</ele><time>2020-10-21T11:10:40Z</time><name>PT1570</name></trkpt>
<trkpt lat="53.226414" lon="-2.020565"><ele>298</ele><time>2020-10-21T11:10:43Z</time><name>PT1571</name></trkpt>
<trkpt lat="53.226449" lon="-2.020544"><ele>299</ele><time>2020-10-21T11:10:46Z</time><name>PT1572</name></trkpt>
<trkpt lat="53.226476" lon="-2.020521"><ele>298</ele><time>2020-10-21T11:10:49Z</time><name>PT1573</name></trkpt>
<trkpt lat="53.226508" lon="-2.020500"><ele>296</ele><time>2020-10-21T11:10:54Z</time><name>PT1574</name></trkpt>
<trkpt lat="53.226540" lon="-2.020482"><ele>295</ele><time>2020-10-21T11:10:57Z</time><name>PT1575</name></trkpt>
<trkpt lat="53.226589" lon="-2.020463"><ele>295</ele><time>2020-10-21T11:11:01Z</time><name>PT1576</name></trkpt>
<trkpt lat="53.226622" lon="-2.020466"><ele>294</ele><time>2020-10-21T11:11:04Z</time><name>PT1577</name></trkpt>
<trkpt lat="53.226670" lon="-2.020467"><ele>293</ele><time>2020-10-21T11:11:07Z</time><name>PT1578</name></trkpt>
<trkpt lat="53.226709" lon="-2.020495"><ele>293</ele><time>2020-10-21T11:11:12Z</time><name>PT1579</name></trkpt>
<trkpt lat="53.226754" lon="-2.020514"><ele>293</ele><time>2020-10-21T11:11:16Z</time><name>PT1580</name></trkpt>
<trkpt lat="53.226794" lon="-2.020529"><ele>293</ele><time>2020-10-21T11:11:19Z</time><name>PT1581</name></trkpt>
<trkpt lat="53.226835" lon="-2.020550"><ele>294</ele><time>2020-10-21T11:11:22Z</time><name>PT1582</name></trkpt>
<trkpt lat="53.226889" lon="-2.020575"><ele>295</ele><time>2020-10-21T11:11:25Z</time><name>PT1583</name></trkpt>
<trkpt lat="53.226950" lon="-2.020583"><ele>295</ele><time>2020-10-21T11:11:30Z</time><name>PT1584</name></trkpt>
<trkpt lat="53.227005" lon="-2.020589"><ele>297</ele><time>2020-10-21T11:11:33Z</time><name>PT1585</name></trkpt>
<trkpt lat="53.227052" lon="-2.020611"><ele>296</ele><time>2020-10-21T11:11:37Z</time><name>PT1586</name></trkpt>
<trkpt lat="53.227091" lon="-2.020625"><ele>296</ele><time>2020-10-21T11:11:40Z</time><name>PT1587</name></trkpt>
<trkpt lat="53.227124" lon="-2.020625"><ele>295</ele><time>2020-10-21T11:11:43Z</time><name>PT1588</name></trkpt>
<trkpt lat="53.227155" lon="-2.020636"><ele>294</ele><time>2020-10-21T11:11:46Z</time><name>PT1589</name></trkpt>
<trkpt lat="53.227202" lon="-2.020657"><ele>294</ele><time>2020-10-21T11:11:49Z</time><name>PT1590</name></trkpt>
<trkpt lat="53.227237" lon="-2.020666"><ele>293</ele><time>2020-10-21T11:11:52Z</time><name>PT1591</name></trkpt>
<trkpt lat="53.227283" lon="-2.020677"><ele>291</ele><time>2020-10-21T11:11:57Z</time><name>PT1592</name></trkpt>
<trkpt lat="53.227341" lon="-2.020700"><ele>292</ele><time>2020-10-21T11:12:01Z</time><name>PT1593</name></trkpt>
<trkpt lat="53.227372" lon="-2.020718"><ele>291</ele><time>2020-10-21T11:12:04Z</time><name>PT1594</name></trkpt>
<trkpt lat="53.227418" lon="-2.020739"><ele>290</ele><time>2020-10-21T11:12:07Z</time><name>PT1595</name></trkpt>
<trkpt lat="53.227487" lon="-2.020747"><ele>292</ele><time>2020-10-21T11:12:12Z</time><name>PT1596</name></trkpt>
<trkpt lat="53.227536" lon="-2.020775"><ele>291</ele><time>2020-10-21T11:12:16Z</time><name>PT1597</name></trkpt>
<trkpt lat="53.227577" lon="-2.020797"><ele>292</ele><time>2020-10-21T11:12:19Z</time><name>PT1598</name></trkpt>
<trkpt lat="53.227622" lon="-2.020824"><ele>291</ele><time>2020-10-21T11:12:22Z</time><name>PT1599</name></trkpt>
<trkpt lat="53.227662" lon="-2.020844"><ele>290</ele><time>2020-10-21T11:12:27Z</time><name>PT1600</name></trkpt>
<trkpt lat="53.227705" lon="-2.020887"><ele>290</ele><time>2020-10-21T11:12:31Z</time><name>PT1601</name></trkpt>
<trkpt lat="53.227758" lon="-2.020910"><ele>290</ele><time>2020-10-21T11:12:34Z</time><name>PT1602</name></trkpt>
<trkpt lat="53.227792" lon="-2.020919"><ele>290</ele><time>2020-10-21T11:12:37Z</time><name>PT1603</name></trkpt>
<trkpt lat="53.227837" lon="-2.020938"><ele>289</ele><time>2020-10-21T11:12:42Z</time><name>PT1604</name></trkpt>
<trkpt lat="53.227875" lon="-2.020953"><ele>289</ele><time>2020-10-21T11:12:45Z</time><name>PT1605</name></trkpt>
<trkpt lat="53.227931" lon="-2.021005"><ele>290</ele><time>2020-10-21T11:12:49Z</time><name>PT1606</name></trkpt>
<trkpt lat="53.227988" lon="-2.021042"><ele>291</ele><time>2020-10-21T11:12:52Z</time><name>PT1607</name></trkpt>
<trkpt lat="53.228026" lon="-2.021058"><ele>291</ele><time>2020-10-21T11:12:55Z</time><name>PT1608</name></trkpt>
<trkpt lat="53.228079" lon="-2.021083"><ele>292</ele><time>2020-10-21T11:13:00Z</time><name>PT1609</name></trkpt>
<trkpt lat="53.228118" lon="-2.021133"><ele>293</ele><time>2020-10-21T11:13:03Z</time><name>PT1610</name></trkpt>
<trkpt lat="53.228166" lon="-2.021169"><ele>293</ele><time>2020-10-21T11:13:07Z</time><name>PT1611</name></trkpt>
<trkpt lat="53.228209" lon="-2.021237"><ele>292</ele><time>2020-10-21T11:13:10Z</time><name>PT1612</name></trkpt>
<trkpt lat="53.228248" lon="-2.021305"><ele>294</ele><time>2020-10-21T11:13:13Z</time><name>PT1613</name></trkpt>
<trkpt lat="53.228289" lon="-2.021367"><ele>293</ele><time>2020-10-21T11:13:18Z</time><name>PT1614</name></trkpt>
<trkpt lat="53.228322" lon="-2.021404"><ele>293</ele><time>2020-10-21T11:13:21Z</time><name>PT1615</name></trkpt>
<trkpt lat="53.228372" lon="-2.021457"><ele>295</ele><time>2020-10-21T11:13:25Z</time><name>PT1616</name></trkpt>
<trkpt lat="53.228403" lon="-2.021501"><ele>296</ele><time>2020-10-21T11:13:28Z</time><name>PT1617</name></trkpt>
<trkpt lat="53.228438" lon="-2.021553"><ele>295</ele><time>2020-10-21T11:13:31Z</time><name>PT1618</name></trkpt>
<trkpt lat="53.228470" lon="-2.021593"><ele>296</ele><time>2020-10-21T11:13:34Z</time><name>PT1619</name></trkpt>
<trkpt lat="53.228498" lon="-2.021626"><ele>297</ele><time>2020-10-21T11:13:38Z</time><name>PT1620</name></trkpt>
<trkpt lat="53.228533" lon="-2.021679"><ele>298</ele><time>2020-10-21T11:13:42Z</time><name>PT1621</name></trkpt>
<trkpt lat="53.228562" lon="-2.021716"><ele>299</ele><time>2020-10-21T11:13:45Z</time><name>PT1622</name></trkpt>
<trkpt lat="53.228602" lon="-2.021767"><ele>300</ele><time>2020-10-21T11:13:49Z</time><name>PT1623</name></trkpt>
<trkpt lat="53.228633" lon="-2.021806"><ele>300</ele><time>2020-10-21T11:13:52Z</time><name>PT1624</name></trkpt>
<trkpt lat="53.228676" lon="-2.021854"><ele>299</ele><time>2020-10-21T11:13:55Z</time><name>PT1625</name></trkpt>
<trkpt lat="53.228724" lon="-2.021898"><ele>300</ele><time>2020-10-21T11:14:00Z</time><name>PT1626</name></trkpt>
<trkpt lat="53.228758" lon="-2.021936"><ele>301</ele><time>2020-10-21T11:14:03Z</time><name>PT1627</name></trkpt>
<trkpt lat="53.228799" lon="-2.021982"><ele>300</ele><time>2020-10-21T11:14:07Z</time><name>PT1628</name></trkpt>
<trkpt lat="53.228849" lon="-2.022025"><ele>303</ele><time>2020-10-21T11:14:10Z</time><name>PT1629</name></trkpt>
<trkpt lat="53.228893" lon="-2.022073"><ele>302</ele><time>2020-10-21T11:14:15Z</time><name>PT1630</name></trkpt>
<trkpt lat="53.228930" lon="-2.022119"><ele>303</ele><time>2020-10-21T11:14:19Z</time><name>PT1631</name></trkpt>
<trkpt lat="53.228942" lon="-2.022173"><ele>302</ele><time>2020-10-21T11:14:22Z</time><name>PT1632</name></trkpt>
<trkpt lat="53.228964" lon="-2.022215"><ele>301</ele><time>2020-10-21T11:14:25Z</time><name>PT1633</name></trkpt>
<trkpt lat="53.228999" lon="-2.022262"><ele>303</ele><time>2020-10-21T11:14:28Z</time><name>PT1634</name></trkpt>
<trkpt lat="53.229031" lon="-2.022296"><ele>302</ele><time>2020-10-21T11:14:31Z</time><name>PT1635</name></trkpt>
<trkpt lat="53.229056" lon="-2.022328"><ele>302</ele><time>2020-10-21T11:14:34Z</time><name>PT1636</name></trkpt>
<trkpt lat="53.229091" lon="-2.022371"><ele>303</ele><time>2020-10-21T11:14:37Z</time><name>PT1637</name></trkpt>
<trkpt lat="53.229126" lon="-2.022430"><ele>303</ele><time>2020-10-21T11:14:42Z</time><name>PT1638</name></trkpt>
<trkpt lat="53.229159" lon="-2.022486"><ele>303</ele><time>2020-10-21T11:14:46Z</time><name>PT1639</name></trkpt>
<trkpt lat="53.229184" lon="-2.022531"><ele>303</ele><time>2020-10-21T11:14:49Z</time><name>PT1640</name></trkpt>
<trkpt lat="53.229222" lon="-2.022586"><ele>301</ele><time>2020-10-21T11:14:52Z</time><name>PT1641</name></trkpt>
<trkpt lat="53.229274" lon="-2.022635"><ele>302</ele><time>2020-10-21T11:14:57Z</time><name>PT1642</name></trkpt>
<trkpt lat="53.229320" lon="-2.022680"><ele>302</ele><time>2020-10-21T11:15:01Z</time><name>PT1643</name></trkpt>
<trkpt lat="53.229356" lon="-2.022713"><ele>302</ele><time>2020-10-21T11:15:04Z</time><name>PT1644</name></trkpt>
<trkpt lat="53.229390" lon="-2.022739"><ele>302</ele><time>2020-10-21T11:15:07Z</time><name>PT1645</name></trkpt>
<trkpt lat="53.229426" lon="-2.022764"><ele>302</ele><time>2020-10-21T11:15:10Z</time><name>PT1646</name></trkpt>
<trkpt lat="53.229485" lon="-2.022798"><ele>303</ele><time>2020-10-21T11:15:13Z</time><name>PT1647</name></trkpt>
<trkpt lat="53.229536" lon="-2.022828"><ele>302</ele><time>2020-10-21T11:15:18Z</time><name>PT1648</name></trkpt>
<trkpt lat="53.229593" lon="-2.022846"><ele>303</ele><time>2020-10-21T11:15:22Z</time><name>PT1649</name></trkpt>
<trkpt lat="53.229625" lon="-2.022869"><ele>302</ele><time>2020-10-21T11:15:25Z</time><name>PT1650</name></trkpt>
<trkpt lat="53.229675" lon="-2.022882"><ele>304</ele><time>2020-10-21T11:15:28Z</time><name>PT1651</name></trkpt>
<trkpt lat="53.229725" lon="-2.022889"><ele>304</ele><time>2020-10-21T11:15:31Z</time><name>PT1652</name></trkpt>
<trkpt lat="53.229767" lon="-2.022899"><ele>304</ele><time>2020-10-21T11:15:36Z</time><name>PT1653</name></trkpt>
<trkpt lat="53.229795" lon="-2.022890"><ele>304</ele><time>2020-10-21T11:15:39Z</time><name>PT1654</name></trkpt>
<trkpt lat="53.229827" lon="-2.022885"><ele>304</ele><time>2020-10-21T11:15:42Z</time><name>PT1655</name></trkpt>
<trkpt lat="53.229869" lon="-2.022876"><ele>305</ele><time>2020-10-21T11:15:45Z</time><name>PT1656</name></trkpt>
<trkpt lat="53.229912" lon="-2.022897"><ele>304</ele><time>2020-10-21T11:15:49Z</time><name>PT1657</name></trkpt>
<trkpt lat="53.229967" lon="-2.022911"><ele>305</ele><time>2020-10-21T11:15:52Z</time><name>PT1658</name></trkpt>
<trkpt lat="53.230013" lon="-2.022911"><ele>306</ele><time>2020-10-21T11:15:55Z</time><name>PT1659</name></trkpt>
<trkpt lat="53.230051" lon="-2.022912"><ele>307</ele><time>2020-10-21T11:15:58Z</time><name>PT1660</name></trkpt>
<trkpt lat="53.230085" lon="-2.022899"><ele>308</ele><time>2020-10-21T11:16:03Z</time><name>PT1661</name></trkpt>
<trkpt lat="53.230116" lon="-2.022890"><ele>308</ele><time>2020-10-21T11:16:06Z</time><name>PT1662</name></trkpt>
<trkpt lat="53.230157" lon="-2.022875"><ele>307</ele><time>2020-10-21T11:16:10Z</time><name>PT1663</name></trkpt>
<trkpt lat="53.230201" lon="-2.022852"><ele>307</ele><time>2020-10-21T11:16:13Z</time><name>PT1664</name></trkpt>
<trkpt lat="53.230239" lon="-2.022843"><ele>308</ele><time>2020-10-21T11:16:18Z</time><name>PT1665</name></trkpt>
<trkpt lat="53.230279" lon="-2.022830"><ele>309</ele><time>2020-10-21T11:16:21Z</time><name>PT1666</name></trkpt>
<trkpt lat="53.230316" lon="-2.022818"><ele>311</ele><time>2020-10-21T11:16:24Z</time><name>PT1667</name></trkpt>
<trkpt lat="53.230357" lon="-2.022808"><ele>310</ele><time>2020-10-21T11:16:28Z</time><name>PT1668</name></trkpt>
<trkpt lat="53.230410" lon="-2.022799"><ele>309</ele><time>2020-10-21T11:16:31Z</time><name>PT1669</name></trkpt>
<trkpt lat="53.230467" lon="-2.022779"><ele>311</ele><time>2020-10-21T11:16:34Z</time><name>PT1670</name></trkpt>
<trkpt lat="53.230503" lon="-2.022776"><ele>311</ele><time>2020-10-21T11:16:37Z</time><name>PT1671</name></trkpt>
<trkpt lat="53.230530" lon="-2.022772"><ele>312</ele><time>2020-10-21T11:16:40Z</time><name>PT1672</name></trkpt>
<trkpt lat="53.230572" lon="-2.022755"><ele>312</ele><time>2020-10-21T11:16:44Z</time><name>PT1673</name></trkpt>
<trkpt lat="53.230613" lon="-2.022749"><ele>313</ele><time>2020-10-21T11:16:48Z</time><name>PT1674</name></trkpt>
<trkpt lat="53.230647" lon="-2.022769"><ele>315</ele><time>2020-10-21T11:16:52Z</time><name>PT1675</name></trkpt>
<trkpt lat="53.230692" lon="-2.022756"><ele>315</ele><time>2020-10-21T11:16:55Z</time><name>PT1676</name></trkpt>
<trkpt lat="53.230742" lon="-2.022781"><ele>315</ele><time>2020-10-21T11:16:58Z</time><name>PT1677</name></trkpt>
<trkpt lat="53.230775" lon="-2.022784"><ele>315</ele><time>2020-10-21T11:17:01Z</time><name>PT1678</name></trkpt>
<trkpt lat="53.230829" lon="-2.022800"><ele>312</ele><time>2020-10-21T11:17:06Z</time><name>PT1679</name></trkpt>
<trkpt lat="53.230865" lon="-2.022819"><ele>312</ele><time>2020-10-21T11:17:09Z</time><name>PT1680</name></trkpt>
<trkpt lat="53.230907" lon="-2.022849"><ele>313</ele><time>2020-10-21T11:17:12Z</time><name>PT1681</name></trkpt>
<trkpt lat="53.230947" lon="-2.022900"><ele>315</ele><time>2020-10-21T11:17:16Z</time><name>PT1682</name></trkpt>
<trkpt lat="53.230983" lon="-2.022927"><ele>313</ele><time>2020-10-21T11:17:19Z</time><name>PT1683</name></trkpt>
<trkpt lat="53.231015" lon="-2.022989"><ele>316</ele><time>2020-10-21T11:17:22Z</time><name>PT1684</name></trkpt>
<trkpt lat="53.231046" lon="-2.022989"><ele>319</ele><time>2020-10-21T11:17:25Z</time><name>PT1685</name></trkpt>
<trkpt lat="53.231103" lon="-2.023018"><ele>314</ele><time>2020-10-21T11:17:30Z</time><name>PT1686</name></trkpt>
<trkpt lat="53.231150" lon="-2.023044"><ele>312</ele><time>2020-10-21T11:17:34Z</time><name>PT1687</name></trkpt>
<trkpt lat="53.231204" lon="-2.023071"><ele>310</ele><time>2020-10-21T11:17:37Z</time><name>PT1688</name></trkpt>
<trkpt lat="53.231256" lon="-2.023086"><ele>311</ele><time>2020-10-21T11:17:40Z</time><name>PT1689</name></trkpt>
<trkpt lat="53.231305" lon="-2.023100"><ele>309</ele><time>2020-10-21T11:17:43Z</time><name>PT1690</name></trkpt>
<trkpt lat="53.231353" lon="-2.023133"><ele>307</ele><time>2020-10-21T11:17:48Z</time><name>PT1691</name></trkpt>
<trkpt lat="53.231394" lon="-2.023157"><ele>307</ele><time>2020-10-21T11:17:51Z</time><name>PT1692</name></trkpt>
<trkpt lat="53.231441" lon="-2.023199"><ele>307</ele><time>2020-10-21T11:17:55Z</time><name>PT1693</name></trkpt>
<trkpt lat="53.231469" lon="-2.023249"><ele>310</ele><time>2020-10-21T11:17:58Z</time><name>PT1694</name></trkpt>
<trkpt lat="53.231493" lon="-2.023295"><ele>313</ele><time>2020-10-21T11:18:01Z</time><name>PT1695</name></trkpt>
<trkpt lat="53.231526" lon="-2.023357"><ele>315</ele><time>2020-10-21T11:18:04Z</time><name>PT1696</name></trkpt>
<trkpt lat="53.231566" lon="-2.023399"><ele>311</ele><time>2020-10-21T11:18:07Z</time><name>PT1697</name></trkpt>
<trkpt lat="53.231612" lon="-2.023436"><ele>308</ele><time>2020-10-21T11:18:12Z</time><name>PT1698</name></trkpt>
<trkpt lat="53.231643" lon="-2.023468"><ele>310</ele><time>2020-10-21T11:18:15Z</time><name>PT1699</name></trkpt>
<trkpt lat="53.231677" lon="-2.023524"><ele>311</ele><time>2020-10-21T11:18:19Z</time><name>PT1700</name></trkpt>
<trkpt lat="53.231697" lon="-2.023587"><ele>313</ele><time>2020-10-21T11:18:22Z</time><name>PT1701</name></trkpt>
<trkpt lat="53.231726" lon="-2.023633"><ele>312</ele><time>2020-10-21T11:18:25Z</time><name>PT1702</name></trkpt>
<trkpt lat="53.231763" lon="-2.023685"><ele>311</ele><time>2020-10-21T11:18:30Z</time><name>PT1703</name></trkpt>
<trkpt lat="53.231811" lon="-2.023722"><ele>309</ele><time>2020-10-21T11:18:34Z</time><name>PT1704</name></trkpt>
<trkpt lat="53.231852" lon="-2.023748"><ele>310</ele><time>2020-10-21T11:18:37Z</time><name>PT1705</name></trkpt>
<trkpt lat="53.231892" lon="-2.023799"><ele>310</ele><time>2020-10-21T11:18:40Z</time><name>PT1706</name></trkpt>
<trkpt lat="53.231925" lon="-2.023862"><ele>307</ele><time>2020-10-21T11:18:45Z</time><name>PT1707</name></trkpt>
<trkpt lat="53.231944" lon="-2.023907"><ele>307</ele><time>2020-10-21T11:18:48Z</time><name>PT1708</name></trkpt>
<trkpt lat="53.231959" lon="-2.023971"><ele>307</ele><time>2020-10-21T11:18:52Z</time><name>PT1709</name></trkpt>
<trkpt lat="53.231982" lon="-2.024009"><ele>305</ele><time>2020-10-21T11:18:55Z</time><name>PT1710</name></trkpt>
<trkpt lat="53.232020" lon="-2.024073"><ele>307</ele><time>2020-10-21T11:18:58Z</time><name>PT1711</name></trkpt>
<trkpt lat="53.232053" lon="-2.024134"><ele>310</ele><time>2020-10-21T11:19:03Z</time><name>PT1712</name></trkpt>
<trkpt lat="53.232081" lon="-2.024210"><ele>311</ele><time>2020-10-21T11:19:07Z</time><name>PT1713</name></trkpt>
<trkpt lat="53.232114" lon="-2.024279"><ele>311</ele><time>2020-10-21T11:19:10Z</time><name>PT1714</name></trkpt>
<trkpt lat="53.232123" lon="-2.024345"><ele>312</ele><time>2020-10-21T11:19:13Z</time><name>PT1715</name></trkpt>
<trkpt lat="53.232163" lon="-2.024407"><ele>310</ele><time>2020-10-21T11:19:18Z</time><name>PT1716</name></trkpt>
<trkpt lat="53.232176" lon="-2.024468"><ele>310</ele><time>2020-10-21T11:19:21Z</time><name>PT1717</name></trkpt>
<trkpt lat="53.232196" lon="-2.024542"><ele>310</ele><time>2020-10-21T11:19:25Z</time><name>PT1718</name></trkpt>
<trkpt lat="53.232216" lon="-2.024603"><ele>309</ele><time>2020-10-21T11:19:28Z</time><name>PT1719</name></trkpt>
<trkpt lat="53.232230" lon="-2.024656"><ele>308</ele><time>2020-10-21T11:19:31Z</time><name>PT1720</name></trkpt>
<trkpt lat="53.232251" lon="-2.024723"><ele>307</ele><time>2020-10-21T11:19:34Z</time><name>PT1721</name></trkpt>
<trkpt lat="53.232281" lon="-2.024803"><ele>307</ele><time>2020-10-21T11:19:39Z</time><name>PT1722</name></trkpt>
<trkpt lat="53.232305" lon="-2.024886"><ele>307</ele><time>2020-10-21T11:19:43Z</time><name>PT1723</name></trkpt>
<trkpt lat="53.232326" lon="-2.024944"><ele>308</ele><time>2020-10-21T11:19:46Z</time><name>PT1724</name></trkpt>
<trkpt lat="53.232369" lon="-2.025004"><ele>309</ele><time>2020-10-21T11:19:50Z</time><name>PT1725</name></trkpt>
<trkpt lat="53.232388" lon="-2.025049"><ele>308</ele><time>2020-10-21T11:19:53Z</time><name>PT1726</name></trkpt>
<trkpt lat="53.232426" lon="-2.025109"><ele>311</ele><time>2020-10-21T11:19:57Z</time><name>PT1727</name></trkpt>
<trkpt lat="53.232460" lon="-2.025170"><ele>311</ele><time>2020-10-21T11:20:00Z</time><name>PT1728</name></trkpt>
<trkpt lat="53.232495" lon="-2.025219"><ele>311</ele><time>2020-10-21T11:20:05Z</time><name>PT1729</name></trkpt>
<trkpt lat="53.232530" lon="-2.025274"><ele>310</ele><time>2020-10-21T11:20:09Z</time><name>PT1730</name></trkpt>
<trkpt lat="53.232558" lon="-2.025322"><ele>311</ele><time>2020-10-21T11:20:12Z</time><name>PT1731</name></trkpt>
<trkpt lat="53.232588" lon="-2.025355"><ele>311</ele><time>2020-10-21T11:20:15Z</time><name>PT1732</name></trkpt>
<trkpt lat="53.232622" lon="-2.025395"><ele>311</ele><time>2020-10-21T11:20:18Z</time><name>PT1733</name></trkpt>
<trkpt lat="53.232660" lon="-2.025448"><ele>312</ele><time>2020-10-21T11:20:21Z</time><name>PT1734</name></trkpt>
<trkpt lat="53.232698" lon="-2.025477"><ele>312</ele><time>2020-10-21T11:20:24Z</time><name>PT1735</name></trkpt>
<trkpt lat="53.232743" lon="-2.025521"><ele>312</ele><time>2020-10-21T11:20:28Z</time><name>PT1736</name></trkpt>
<trkpt lat="53.232775" lon="-2.025556"><ele>312</ele><time>2020-10-21T11:20:32Z</time><name>PT1737</name></trkpt>
<trkpt lat="53.232810" lon="-2.025592"><ele>313</ele><time>2020-10-21T11:20:35Z</time><name>PT1738</name></trkpt>
<trkpt lat="53.232849" lon="-2.025624"><ele>315</ele><time>2020-10-21T11:20:39Z</time><name>PT1739</name></trkpt>
<trkpt lat="53.232891" lon="-2.025658"><ele>315</ele><time>2020-10-21T11:20:42Z</time><name>PT1740</name></trkpt>
<trkpt lat="53.232936" lon="-2.025675"><ele>316</ele><time>2020-10-21T11:20:47Z</time><name>PT1741</name></trkpt>
<trkpt lat="53.232975" lon="-2.025689"><ele>315</ele><time>2020-10-21T11:20:50Z</time><name>PT1742</name></trkpt>
<trkpt lat="53.233010" lon="-2.025693"><ele>315</ele><time>2020-10-21T11:20:53Z</time><name>PT1743</name></trkpt>
<trkpt lat="53.233064" lon="-2.025691"><ele>315</ele><time>2020-10-21T11:20:57Z</time><name>PT1744</name></trkpt>
<trkpt lat="53.233100" lon="-2.025679"><ele>316</ele><time>2020-10-21T11:21:00Z</time><name>PT1745</name></trkpt>
<trkpt lat="53.233143" lon="-2.025672"><ele>317</ele><time>2020-10-21T11:21:03Z</time><name>PT1746</name></trkpt>
<trkpt lat="53.233190" lon="-2.025655"><ele>318</ele><time>2020-10-21T11:21:08Z</time><name>PT1747</name></trkpt>
<trkpt lat="53.233230" lon="-2.025650"><ele>318</ele><time>2020-10-21T11:21:11Z</time><name>PT1748</name></trkpt>
<trkpt lat="53.233269" lon="-2.025650"><ele>319</ele><time>2020-10-21T11:21:14Z</time><name>PT1749</name></trkpt>
<trkpt lat="53.233306" lon="-2.025681"><ele>319</ele><time>2020-10-21T11:21:17Z</time><name>PT1750</name></trkpt>
<trkpt lat="53.233343" lon="-2.025694"><ele>318</ele><time>2020-10-21T11:21:20Z</time><name>PT1751</name></trkpt>
<trkpt lat="53.233391" lon="-2.025740"><ele>318</ele><time>2020-10-21T11:21:24Z</time><name>PT1752</name></trkpt>
<trkpt lat="53.233421" lon="-2.025776"><ele>318</ele><time>2020-10-21T11:21:27Z</time><name>PT1753</name></trkpt>
<trkpt lat="53.233461" lon="-2.025826"><ele>318</ele><time>2020-10-21T11:21:30Z</time><name>PT1754</name></trkpt>
<trkpt lat="53.233509" lon="-2.025865"><ele>319</ele><time>2020-10-21T11:21:35Z</time><name>PT1755</name></trkpt>
<trkpt lat="53.233540" lon="-2.025906"><ele>319</ele><time>2020-10-21T11:21:38Z</time><name>PT1756</name></trkpt>
<trkpt lat="53.233582" lon="-2.025957"><ele>318</ele><time>2020-10-21T11:21:42Z</time><name>PT1757</name></trkpt>
<trkpt lat="53.233621" lon="-2.025994"><ele>318</ele><time>2020-10-21T11:21:45Z</time><name>PT1758</name></trkpt>
<trkpt lat="53.233654" lon="-2.026015"><ele>319</ele><time>2020-10-21T11:21:48Z</time><name>PT1759</name></trkpt>
<trkpt lat="53.233703" lon="-2.026055"><ele>319</ele><time>2020-10-21T11:21:53Z</time><name>PT1760</name></trkpt>
<trkpt lat="53.233739" lon="-2.026074"><ele>319</ele><time>2020-10-21T11:21:56Z</time><name>PT1761</name></trkpt>
<trkpt lat="53.233787" lon="-2.026101"><ele>319</ele><time>2020-10-21T11:22:00Z</time><name>PT1762</name></trkpt>
<trkpt lat="53.233825" lon="-2.026120"><ele>319</ele><time>2020-10-21T11:22:03Z</time><name>PT1763</name></trkpt>
<trkpt lat="53.233864" lon="-2.026139"><ele>317</ele><time>2020-10-21T11:22:06Z</time><name>PT1764</name></trkpt>
<trkpt lat="53.233900" lon="-2.026160"><ele>317</ele><time>2020-10-21T11:22:09Z</time><name>PT1765</name></trkpt>
<trkpt lat="53.233953" lon="-2.026181"><ele>317</ele><time>2020-10-21T11:22:14Z</time><name>PT1766</name></trkpt>
<trkpt lat="53.233989" lon="-2.026202"><ele>317</ele><time>2020-10-21T11:22:17Z</time><name>PT1767</name></trkpt>
<trkpt lat="53.234036" lon="-2.026229"><ele>318</ele><time>2020-10-21T11:22:21Z</time><name>PT1768</name></trkpt>
<trkpt lat="53.234084" lon="-2.026254"><ele>318</ele><time>2020-10-21T11:22:24Z</time><name>PT1769</name></trkpt>
<trkpt lat="53.234124" lon="-2.026270"><ele>318</ele><time>2020-10-21T11:22:27Z</time><name>PT1770</name></trkpt>
<trkpt lat="53.234156" lon="-2.026296"><ele>317</ele><time>2020-10-21T11:22:30Z</time><name>PT1771</name></trkpt>
<trkpt lat="53.234189" lon="-2.026312"><ele>316</ele><time>2020-10-21T11:22:33Z</time><name>PT1772</name></trkpt>
<trkpt lat="53.234224" lon="-2.026335"><ele>316</ele><time>2020-10-21T11:22:36Z</time><name>PT1773</name></trkpt>
<trkpt lat="53.234270" lon="-2.026351"><ele>314</ele><time>2020-10-21T11:22:41Z</time><name>PT1774</name></trkpt>
<trkpt lat="53.234314" lon="-2.026372"><ele>315</ele><time>2020-10-21T11:22:45Z</time><name>PT1775</name></trkpt>
<trkpt lat="53.234349" lon="-2.026400"><ele>315</ele><time>2020-10-21T11:22:48Z</time><name>PT1776</name></trkpt>
<trkpt lat="53.234395" lon="-2.026445"><ele>316</ele><time>2020-10-21T11:22:51Z</time><name>PT1777</name></trkpt>
<trkpt lat="53.234443" lon="-2.026463"><ele>316</ele><time>2020-10-21T11:22:56Z</time><name>PT1778</name></trkpt>
<trkpt lat="53.234487" lon="-2.026492"><ele>316</ele><time>2020-10-21T11:23:00Z</time><name>PT1779</name></trkpt>
<trkpt lat="53.234520" lon="-2.026505"><ele>317</ele><time>2020-10-21T11:23:03Z</time><name>PT1780</name></trkpt>
<trkpt lat="53.234553" lon="-2.026544"><ele>316</ele><time>2020-10-21T11:23:06Z</time><name>PT1781</name></trkpt>
<trkpt lat="53.234597" lon="-2.026593"><ele>319</ele><time>2020-10-21T11:23:09Z</time><name>PT1782</name></trkpt>
<trkpt lat="53.234632" lon="-2.026627"><ele>319</ele><time>2020-10-21T11:23:12Z</time><name>PT1783</name></trkpt>
<trkpt lat="53.234688" lon="-2.026681"><ele>320</ele><time>2020-10-21T11:23:17Z</time><name>PT1784</name></trkpt>
<trkpt lat="53.234717" lon="-2.026720"><ele>319</ele><time>2020-10-21T11:23:20Z</time><name>PT1785</name></trkpt>
<trkpt lat="53.234761" lon="-2.026763"><ele>319</ele><time>2020-10-21T11:23:24Z</time><name>PT1786</name></trkpt>
<trkpt lat="53.234797" lon="-2.026792"><ele>320</ele><time>2020-10-21T11:23:27Z</time><name>PT1787</name></trkpt>
<trkpt lat="53.234847" lon="-2.026818"><ele>320</ele><time>2020-10-21T11:23:30Z</time><name>PT1788</name></trkpt>
<trkpt lat="53.234887" lon="-2.026834"><ele>321</ele><time>2020-10-21T11:23:35Z</time><name>PT1789</name></trkpt>
<trkpt lat="53.234924" lon="-2.026855"><ele>319</ele><time>2020-10-21T11:23:38Z</time><name>PT1790</name></trkpt>
<trkpt lat="53.234958" lon="-2.026872"><ele>318</ele><time>2020-10-21T11:23:41Z</time><name>PT1791</name></trkpt>
<trkpt lat="53.235001" lon="-2.026896"><ele>319</ele><time>2020-10-21T11:23:44Z</time><name>PT1792</name></trkpt>
<trkpt lat="53.235058" lon="-2.026908"><ele>320</ele><time>2020-10-21T11:23:48Z</time><name>PT1793</name></trkpt>
<trkpt lat="53.235091" lon="-2.026910"><ele>320</ele><time>2020-10-21T11:23:51Z</time><name>PT1794</name></trkpt>
<trkpt lat="53.235129" lon="-2.026925"><ele>321</ele><time>2020-10-21T11:23:54Z</time><name>PT1795</name></trkpt>
<trkpt lat="53.235180" lon="-2.026934"><ele>320</ele><time>2020-10-21T11:23:59Z</time><name>PT1796</name></trkpt>
<trkpt lat="53.235218" lon="-2.026943"><ele>320</ele><time>2020-10-21T11:24:02Z</time><name>PT1797</name></trkpt>
<trkpt lat="53.235278" lon="-2.026954"><ele>320</ele><time>2020-10-21T11:24:06Z</time><name>PT1798</name></trkpt>
<trkpt lat="53.235315" lon="-2.026968"><ele>321</ele><time>2020-10-21T11:24:09Z</time><name>PT1799</name></trkpt>
<trkpt lat="53.235362" lon="-2.026981"><ele>321</ele><time>2020-10-21T11:24:12Z</time><name>PT1800</name></trkpt>
<trkpt lat="53.235411" lon="-2.027011"><ele>321</ele><time>2020-10-21T11:24:17Z</time><name>PT1801</name></trkpt>
<trkpt lat="53.235459" lon="-2.027034"><ele>322</ele><time>2020-10-21T11:24:21Z</time><name>PT1802</name></trkpt>
<trkpt lat="53.235511" lon="-2.027055"><ele>320</ele><time>2020-10-21T11:24:24Z</time><name>PT1803</name></trkpt>
<trkpt lat="53.235545" lon="-2.027070"><ele>321</ele><time>2020-10-21T11:24:27Z</time><name>PT1804</name></trkpt>
<trkpt lat="53.235589" lon="-2.027081"><ele>320</ele><time>2020-10-21T11:24:32Z</time><name>PT1805</name></trkpt>
<trkpt lat="53.235624" lon="-2.027083"><ele>321</ele><time>2020-10-21T11:24:35Z</time><name>PT1806</name></trkpt>
<trkpt lat="53.235671" lon="-2.027096"><ele>321</ele><time>2020-10-21T11:24:39Z</time><name>PT1807</name></trkpt>
<trkpt lat="53.235720" lon="-2.027092"><ele>321</ele><time>2020-10-21T11:24:42Z</time><name>PT1808</name></trkpt>
<trkpt lat="53.235767" lon="-2.027085"><ele>321</ele><time>2020-10-21T11:24:45Z</time><name>PT1809</name></trkpt>
<trkpt lat="53.235809" lon="-2.027055"><ele>320</ele><time>2020-10-21T11:24:50Z</time><name>PT1810</name></trkpt>
<trkpt lat="53.235849" lon="-2.027044"><ele>321</ele><time>2020-10-21T11:24:53Z</time><name>PT1811</name></trkpt>
<trkpt lat="53.235897" lon="-2.027026"><ele>321</ele><time>2020-10-21T11:24:57Z</time><name>PT1812</name></trkpt>
<trkpt lat="53.235932" lon="-2.027021"><ele>320</ele><time>2020-10-21T11:25:00Z</time><name>PT1813</name></trkpt>
<trkpt lat="53.235978" lon="-2.027001"><ele>319</ele><time>2020-10-21T11:25:03Z</time><name>PT1814</name></trkpt>
<trkpt lat="53.236023" lon="-2.026985"><ele>319</ele><time>2020-10-21T11:25:08Z</time><name>PT1815</name></trkpt>
<trkpt lat="53.236058" lon="-2.026960"><ele>319</ele><time>2020-10-21T11:25:11Z</time><name>PT1816</name></trkpt>
<trkpt lat="53.236090" lon="-2.026943"><ele>321</ele><time>2020-10-21T11:25:14Z</time><name>PT1817</name></trkpt>
<trkpt lat="53.236140" lon="-2.026933"><ele>320</ele><time>2020-10-21T11:25:18Z</time><name>PT1818</name></trkpt>
<trkpt lat="53.236175" lon="-2.026925"><ele>321</ele><time>2020-10-21T11:25:21Z</time><name>PT1819</name></trkpt>
<trkpt lat="53.236208" lon="-2.026906"><ele>321</ele><time>2020-10-21T11:25:24Z</time><name>PT1820</name></trkpt>
<trkpt lat="53.236256" lon="-2.026893"><ele>321</ele><time>2020-10-21T11:25:27Z</time><name>PT1821</name></trkpt>
<trkpt lat="53.236288" lon="-2.026906"><ele>321</ele><time>2020-10-21T11:25:30Z</time><name>PT1822</name></trkpt>
<trkpt lat="53.236301" lon="-2.026930"><ele>321</ele><time>2020-10-21T11:25:35Z</time><name>PT1823</name></trkpt>
<trkpt lat="53.236309" lon="-2.026933"><ele>320</ele><time>2020-10-21T11:25:38Z</time><name>PT1824</name></trkpt>
<trkpt lat="53.236330" lon="-2.026961"><ele>320</ele><time>2020-10-21T11:25:42Z</time><name>PT1825</name></trkpt>
<trkpt lat="53.236339" lon="-2.027013"><ele>320</ele><time>2020-10-21T11:25:45Z</time><name>PT1826</name></trkpt>
<trkpt lat="53.236332" lon="-2.027070"><ele>319</ele><time>2020-10-21T11:25:48Z</time><name>PT1827</name></trkpt>
<trkpt lat="53.236329" lon="-2.027116"><ele>319</ele><time>2020-10-21T11:25:51Z</time><name>PT1828</name></trkpt>
<trkpt lat="53.236338" lon="-2.027192"><ele>319</ele><time>2020-10-21T11:25:54Z</time><name>PT1829</name></trkpt>
<trkpt lat="53.236332" lon="-2.027280"><ele>320</ele><time>2020-10-21T11:25:59Z</time><name>PT1830</name></trkpt>
<trkpt lat="53.236327" lon="-2.027337"><ele>320</ele><time>2020-10-21T11:26:02Z</time><name>PT1831</name></trkpt>
<trkpt lat="53.236317" lon="-2.027399"><ele>319</ele><time>2020-10-21T11:26:05Z</time><name>PT1832</name></trkpt>
<trkpt lat="53.236308" lon="-2.027476"><ele>320</ele><time>2020-10-21T11:26:09Z</time><name>PT1833</name></trkpt>
<trkpt lat="53.236295" lon="-2.027549"><ele>320</ele><time>2020-10-21T11:26:12Z</time><name>PT1834</name></trkpt>
<trkpt lat="53.236287" lon="-2.027634"><ele>320</ele><time>2020-10-21T11:26:17Z</time><name>PT1835</name></trkpt>
<trkpt lat="53.236278" lon="-2.027699"><ele>321</ele><time>2020-10-21T11:26:21Z</time><name>PT1836</name></trkpt>
<trkpt lat="53.236264" lon="-2.027720"><ele>320</ele><time>2020-10-21T11:26:24Z</time><name>PT1837</name></trkpt>
<trkpt lat="53.236263" lon="-2.027731"><ele>321</ele><time>2020-10-21T11:26:29Z</time><name>PT1838</name></trkpt>
<trkpt lat="53.236261" lon="-2.027743"><ele>321</ele><time>2020-10-21T11:26:33Z</time><name>PT1839</name></trkpt>
<trkpt lat="53.236272" lon="-2.027800"><ele>322</ele><time>2020-10-21T11:26:36Z</time><name>PT1840</name></trkpt>
<trkpt lat="53.236261" lon="-2.027851"><ele>324</ele><time>2020-10-21T11:26:41Z</time><name>PT1841</name></trkpt>
<trkpt lat="53.236260" lon="-2.027895"><ele>324</ele><time>2020-10-21T11:26:45Z</time><name>PT1842</name></trkpt>
<trkpt lat="53.236265" lon="-2.027908"><ele>325</ele><time>2020-10-21T11:26:48Z</time><name>PT1843</name></trkpt>
<trkpt lat="53.236254" lon="-2.027904"><ele>325</ele><time>2020-10-21T11:26:57Z</time><name>PT1844</name></trkpt>
<trkpt lat="53.236255" lon="-2.027936"><ele>325</ele><time>2020-10-21T11:27:00Z</time><name>PT1845</name></trkpt>
<trkpt lat="53.236264" lon="-2.027938"><ele>325</ele><time>2020-10-21T11:27:03Z</time><name>PT1846</name></trkpt>
<trkpt lat="53.236277" lon="-2.027925"><ele>325</ele><time>2020-10-21T11:27:06Z</time><name>PT1847</name></trkpt>
<trkpt lat="53.236279" lon="-2.027921"><ele>325</ele><time>2020-10-21T11:27:09Z</time><name>PT1848</name></trkpt>
<trkpt lat="53.236295" lon="-2.027912"><ele>326</ele><time>2020-10-21T11:27:17Z</time><name>PT1849</name></trkpt>
<trkpt lat="53.236332" lon="-2.027920"><ele>326</ele><time>2020-10-21T11:27:21Z</time><name>PT1850</name></trkpt>
<trkpt lat="53.236359" lon="-2.027942"><ele>327</ele><time>2020-10-21T11:27:24Z</time><name>PT1851</name></trkpt>
<trkpt lat="53.236388" lon="-2.027952"><ele>327</ele><time>2020-10-21T11:27:27Z</time><name>PT1852</name></trkpt>
<trkpt lat="53.236425" lon="-2.027977"><ele>328</ele><time>2020-10-21T11:27:30Z</time><name>PT1853</name></trkpt>
<trkpt lat="53.236460" lon="-2.028014"><ele>328</ele><time>2020-10-21T11:27:35Z</time><name>PT1854</name></trkpt>
<trkpt lat="53.236481" lon="-2.028042"><ele>328</ele><time>2020-10-21T11:27:38Z</time><name>PT1855</name></trkpt>
<trkpt lat="53.236504" lon="-2.028070"><ele>329</ele><time>2020-10-21T11:27:41Z</time><name>PT1856</name></trkpt>
<trkpt lat="53.236532" lon="-2.028092"><ele>329</ele><time>2020-10-21T11:27:44Z</time><name>PT1857</name></trkpt>
<trkpt lat="53.236567" lon="-2.028115"><ele>329</ele><time>2020-10-21T11:27:48Z</time><name>PT1858</name></trkpt>
<trkpt lat="53.236597" lon="-2.028142"><ele>329</ele><time>2020-10-21T11:27:51Z</time><name>PT1859</name></trkpt>
<trkpt lat="53.236618" lon="-2.028163"><ele>328</ele><time>2020-10-21T11:27:54Z</time><name>PT1860</name></trkpt>
<trkpt lat="53.236641" lon="-2.028186"><ele>328</ele><time>2020-10-21T11:27:57Z</time><name>PT1861</name></trkpt>
<trkpt lat="53.236651" lon="-2.028209"><ele>328</ele><time>2020-10-21T11:28:02Z</time><name>PT1862</name></trkpt>
<trkpt lat="53.236669" lon="-2.028248"><ele>328</ele><time>2020-10-21T11:28:05Z</time><name>PT1863</name></trkpt>
<trkpt lat="53.236688" lon="-2.028269"><ele>328</ele><time>2020-10-21T11:28:08Z</time><name>PT1864</name></trkpt>
<trkpt lat="53.236710" lon="-2.028290"><ele>327</ele><time>2020-10-21T11:28:12Z</time><name>PT1865</name></trkpt>
<trkpt lat="53.236744" lon="-2.028320"><ele>328</ele><time>2020-10-21T11:28:15Z</time><name>PT1866</name></trkpt>
<trkpt lat="53.236783" lon="-2.028349"><ele>327</ele><time>2020-10-21T11:28:20Z</time><name>PT1867</name></trkpt>
<trkpt lat="53.236810" lon="-2.028363"><ele>328</ele><time>2020-10-21T11:28:23Z</time><name>PT1868</name></trkpt>
<trkpt lat="53.236840" lon="-2.028376"><ele>329</ele><time>2020-10-21T11:28:26Z</time><name>PT1869</name></trkpt>
<trkpt lat="53.236881" lon="-2.028397"><ele>329</ele><time>2020-10-21T11:28:30Z</time><name>PT1870</name></trkpt>
<trkpt lat="53.236924" lon="-2.028424"><ele>329</ele><time>2020-10-21T11:28:33Z</time><name>PT1871</name></trkpt>
<trkpt lat="53.236952" lon="-2.028434"><ele>329</ele><time>2020-10-21T11:28:36Z</time><name>PT1872</name></trkpt>
<trkpt lat="53.236987" lon="-2.028440"><ele>330</ele><time>2020-10-21T11:28:39Z</time><name>PT1873</name></trkpt>
<trkpt lat="53.237029" lon="-2.028466"><ele>330</ele><time>2020-10-21T11:28:44Z</time><name>PT1874</name></trkpt>
<trkpt lat="53.237061" lon="-2.028483"><ele>329</ele><time>2020-10-21T11:28:47Z</time><name>PT1875</name></trkpt>
<trkpt lat="53.237104" lon="-2.028508"><ele>329</ele><time>2020-10-21T11:28:51Z</time><name>PT1876</name></trkpt>
<trkpt lat="53.237141" lon="-2.028522"><ele>329</ele><time>2020-10-21T11:28:54Z</time><name>PT1877</name></trkpt>
<trkpt lat="53.237189" lon="-2.028550"><ele>330</ele><time>2020-10-21T11:28:57Z</time><name>PT1878</name></trkpt>
<trkpt lat="53.237222" lon="-2.028571"><ele>331</ele><time>2020-10-21T11:29:00Z</time><name>PT1879</name></trkpt>
<trkpt lat="53.237266" lon="-2.028588"><ele>331</ele><time>2020-10-21T11:29:05Z</time><name>PT1880</name></trkpt>
<trkpt lat="53.237314" lon="-2.028609"><ele>331</ele><time>2020-10-21T11:29:09Z</time><name>PT1881</name></trkpt>
<trkpt lat="53.237352" lon="-2.028623"><ele>331</ele><time>2020-10-21T11:29:12Z</time><name>PT1882</name></trkpt>
<trkpt lat="53.237403" lon="-2.028644"><ele>331</ele><time>2020-10-21T11:29:15Z</time><name>PT1883</name></trkpt>
<trkpt lat="53.237436" lon="-2.028648"><ele>331</ele><time>2020-10-21T11:29:18Z</time><name>PT1884</name></trkpt>
<trkpt lat="53.237479" lon="-2.028661"><ele>331</ele><time>2020-10-21T11:29:23Z</time><name>PT1885</name></trkpt>
<trkpt lat="53.237506" lon="-2.028677"><ele>332</ele><time>2020-10-21T11:29:26Z</time><name>PT1886</name></trkpt>
<trkpt lat="53.237534" lon="-2.028697"><ele>331</ele><time>2020-10-21T11:29:29Z</time><name>PT1887</name></trkpt>
<trkpt lat="53.237565" lon="-2.028727"><ele>332</ele><time>2020-10-21T11:29:33Z</time><name>PT1888</name></trkpt>
<trkpt lat="53.237597" lon="-2.028768"><ele>332</ele><time>2020-10-21T11:29:36Z</time><name>PT1889</name></trkpt>
<trkpt lat="53.237630" lon="-2.028784"><ele>332</ele><time>2020-10-21T11:29:39Z</time><name>PT1890</name></trkpt>
<trkpt lat="53.237654" lon="-2.028801"><ele>331</ele><time>2020-10-21T11:29:42Z</time><name>PT1891</name></trkpt>
<trkpt lat="53.237684" lon="-2.028824"><ele>331</ele><time>2020-10-21T11:29:45Z</time><name>PT1892</name></trkpt>
<trkpt lat="53.237724" lon="-2.028841"><ele>331</ele><time>2020-10-21T11:29:50Z</time><name>PT1893</name></trkpt>
<trkpt lat="53.237772" lon="-2.028857"><ele>331</ele><time>2020-10-21T11:29:54Z</time><name>PT1894</name></trkpt>
<trkpt lat="53.237805" lon="-2.028882"><ele>332</ele><time>2020-10-21T11:29:57Z</time><name>PT1895</name></trkpt>
<trkpt lat="53.237841" lon="-2.028903"><ele>332</ele><time>2020-10-21T11:30:00Z</time><name>PT1896</name></trkpt>
<trkpt lat="53.237871" lon="-2.028925"><ele>332</ele><time>2020-10-21T11:30:03Z</time><name>PT1897</name></trkpt>
<trkpt lat="53.237919" lon="-2.028943"><ele>333</ele><time>2020-10-21T11:30:06Z</time><name>PT1898</name></trkpt>
<trkpt lat="53.237954" lon="-2.028958"><ele>333</ele><time>2020-10-21T11:30:09Z</time><name>PT1899</name></trkpt>
<trkpt lat="53.237987" lon="-2.028976"><ele>333</ele><time>2020-10-21T11:30:12Z</time><name>PT1900</name></trkpt>
<trkpt lat="53.238027" lon="-2.029000"><ele>333</ele><time>2020-10-21T11:30:17Z</time><name>PT1901</name></trkpt>
<trkpt lat="53.238059" lon="-2.029015"><ele>333</ele><time>2020-10-21T11:30:20Z</time><name>PT1902</name></trkpt>
<trkpt lat="53.238105" lon="-2.029032"><ele>333</ele><time>2020-10-21T11:30:24Z</time><name>PT1903</name></trkpt>
<trkpt lat="53.238134" lon="-2.029053"><ele>333</ele><time>2020-10-21T11:30:27Z</time><name>PT1904</name></trkpt>
<trkpt lat="53.238185" lon="-2.029083"><ele>334</ele><time>2020-10-21T11:30:30Z</time><name>PT1905</name></trkpt>
<trkpt lat="53.238218" lon="-2.029115"><ele>334</ele><time>2020-10-21T11:30:33Z</time><name>PT1906</name></trkpt>
<trkpt lat="53.238263" lon="-2.029137"><ele>334</ele><time>2020-10-21T11:30:38Z</time><name>PT1907</name></trkpt>
<trkpt lat="53.238307" lon="-2.029154"><ele>334</ele><time>2020-10-21T11:30:42Z</time><name>PT1908</name></trkpt>
<trkpt lat="53.238338" lon="-2.029190"><ele>335</ele><time>2020-10-21T11:30:45Z</time><name>PT1909</name></trkpt>
<trkpt lat="53.238384" lon="-2.029229"><ele>335</ele><time>2020-10-21T11:30:48Z</time><name>PT1910</name></trkpt>
<trkpt lat="53.238409" lon="-2.029249"><ele>335</ele><time>2020-10-21T11:30:51Z</time><name>PT1911</name></trkpt>
<trkpt lat="53.238441" lon="-2.029275"><ele>336</ele><time>2020-10-21T11:30:54Z</time><name>PT1912</name></trkpt>
<trkpt lat="53.238481" lon="-2.029305"><ele>335</ele><time>2020-10-21T11:30:59Z</time><name>PT1913</name></trkpt>
<trkpt lat="53.238522" lon="-2.029331"><ele>335</ele><time>2020-10-21T11:31:03Z</time><name>PT1914</name></trkpt>
<trkpt lat="53.238569" lon="-2.029355"><ele>335</ele><time>2020-10-21T11:31:06Z</time><name>PT1915</name></trkpt>
<trkpt lat="53.238592" lon="-2.029397"><ele>335</ele><time>2020-10-21T11:31:09Z</time><name>PT1916</name></trkpt>
<trkpt lat="53.238620" lon="-2.029433"><ele>335</ele><time>2020-10-21T11:31:14Z</time><name>PT1917</name></trkpt>
<trkpt lat="53.238655" lon="-2.029493"><ele>334</ele><time>2020-10-21T11:31:18Z</time><name>PT1918</name></trkpt>
<trkpt lat="53.238690" lon="-2.029536"><ele>333</ele><time>2020-10-21T11:31:21Z</time><name>PT1919</name></trkpt>
<trkpt lat="53.238716" lon="-2.029555"><ele>333</ele><time>2020-10-21T11:31:24Z</time><name>PT1920</name></trkpt>
<trkpt lat="53.238726" lon="-2.029618"><ele>333</ele><time>2020-10-21T11:31:29Z</time><name>PT1921</name></trkpt>
<trkpt lat="53.238747" lon="-2.029677"><ele>333</ele><time>2020-10-21T11:31:33Z</time><name>PT1922</name></trkpt>
<trkpt lat="53.238745" lon="-2.029728"><ele>333</ele><time>2020-10-21T11:31:36Z</time><name>PT1923</name></trkpt>
<trkpt lat="53.238739" lon="-2.029761"><ele>332</ele><time>2020-10-21T11:31:41Z</time><name>PT1924</name></trkpt>
<trkpt lat="53.238740" lon="-2.029782"><ele>331</ele><time>2020-10-21T11:31:45Z</time><name>PT1925</name></trkpt>
<trkpt lat="53.238768" lon="-2.029807"><ele>330</ele><time>2020-10-21T11:31:48Z</time><name>PT1926</name></trkpt>
<trkpt lat="53.238789" lon="-2.029829"><ele>330</ele><time>2020-10-21T11:31:51Z</time><name>PT1927</name></trkpt>
<trkpt lat="53.238791" lon="-2.029830"><ele>330</ele><time>2020-10-21T11:31:54Z</time><name>PT1928</name></trkpt>
<trkpt lat="53.238794" lon="-2.029833"><ele>330</ele><time>2020-10-21T11:31:57Z</time><name>PT1929</name></trkpt>
<trkpt lat="53.238809" lon="-2.029829"><ele>330</ele><time>2020-10-21T11:32:00Z</time><name>PT1930</name></trkpt>
<trkpt lat="53.238833" lon="-2.029852"><ele>330</ele><time>2020-10-21T11:32:03Z</time><name>PT1931</name></trkpt>
<trkpt lat="53.238870" lon="-2.029911"><ele>330</ele><time>2020-10-21T11:32:08Z</time><name>PT1932</name></trkpt>
<trkpt lat="53.238903" lon="-2.029968"><ele>331</ele><time>2020-10-21T11:32:12Z</time><name>PT1933</name></trkpt>
<trkpt lat="53.238921" lon="-2.030017"><ele>332</ele><time>2020-10-21T11:32:15Z</time><name>PT1934</name></trkpt>
<trkpt lat="53.238946" lon="-2.030059"><ele>333</ele><time>2020-10-21T11:32:18Z</time><name>PT1935</name></trkpt>
<trkpt lat="53.238975" lon="-2.030089"><ele>333</ele><time>2020-10-21T11:32:21Z</time><name>PT1936</name></trkpt>
<trkpt lat="53.239016" lon="-2.030150"><ele>335</ele><time>2020-10-21T11:32:24Z</time><name>PT1937</name></trkpt>
<trkpt lat="53.239042" lon="-2.030200"><ele>335</ele><time>2020-10-21T11:32:29Z</time><name>PT1938</name></trkpt>
<trkpt lat="53.239081" lon="-2.030249"><ele>336</ele><time>2020-10-21T11:32:33Z</time><name>PT1939</name></trkpt>
<trkpt lat="53.239124" lon="-2.030309"><ele>335</ele><time>2020-10-21T11:32:36Z</time><name>PT1940</name></trkpt>
<trkpt lat="53.239164" lon="-2.030332"><ele>336</ele><time>2020-10-21T11:32:39Z</time><name>PT1941</name></trkpt>
<trkpt lat="53.239200" lon="-2.030357"><ele>336</ele><time>2020-10-21T11:32:44Z</time><name>PT1942</name></trkpt>
<trkpt lat="53.239225" lon="-2.030382"><ele>336</ele><time>2020-10-21T11:32:47Z</time><name>PT1943</name></trkpt>
<trkpt lat="53.239257" lon="-2.030404"><ele>337</ele><time>2020-10-21T11:32:51Z</time><name>PT1944</name></trkpt>
<trkpt lat="53.239283" lon="-2.030420"><ele>336</ele><time>2020-10-21T11:32:54Z</time><name>PT1945</name></trkpt>
<trkpt lat="53.239291" lon="-2.030430"><ele>336</ele><time>2020-10-21T11:32:57Z</time><name>PT1946</name></trkpt>
<trkpt lat="53.239299" lon="-2.030419"><ele>337</ele><time>2020-10-21T11:33:00Z</time><name>PT1947</name></trkpt>
<trkpt lat="53.239311" lon="-2.030414"><ele>336</ele><time>2020-10-21T11:33:03Z</time><name>PT1948</name></trkpt>
<trkpt lat="53.239333" lon="-2.030449"><ele>337</ele><time>2020-10-21T11:33:06Z</time><name>PT1949</name></trkpt>
<trkpt lat="53.239357" lon="-2.030529"><ele>338</ele><time>2020-10-21T11:33:11Z</time><name>PT1950</name></trkpt>
<trkpt lat="53.239368" lon="-2.030589"><ele>338</ele><time>2020-10-21T11:33:15Z</time><name>PT1951</name></trkpt>
<trkpt lat="53.239372" lon="-2.030609"><ele>339</ele><time>2020-10-21T11:33:18Z</time><name>PT1952</name></trkpt>
<trkpt lat="53.239375" lon="-2.030609"><ele>339</ele><time>2020-10-21T11:33:21Z</time><name>PT1953</name></trkpt>
<trkpt lat="53.239378" lon="-2.030609"><ele>339</ele><time>2020-10-21T11:33:24Z</time><name>PT1954</name></trkpt>
<trkpt lat="53.239376" lon="-2.030611"><ele>339</ele><time>2020-10-21T11:33:29Z</time><name>PT1955</name></trkpt>
<trkpt lat="53.239375" lon="-2.030608"><ele>339</ele><time>2020-10-21T11:33:32Z</time><name>PT1956</name></trkpt>
<trkpt lat="53.239386" lon="-2.030601"><ele>339</ele><time>2020-10-21T11:33:36Z</time><name>PT1957</name></trkpt>
<trkpt lat="53.239401" lon="-2.030640"><ele>338</ele><time>2020-10-21T11:33:39Z</time><name>PT1958</name></trkpt>
<trkpt lat="53.239448" lon="-2.030681"><ele>337</ele><time>2020-10-21T11:33:44Z</time><name>PT1959</name></trkpt>
<trkpt lat="53.239475" lon="-2.030720"><ele>337</ele><time>2020-10-21T11:33:47Z</time><name>PT1960</name></trkpt>
<trkpt lat="53.239500" lon="-2.030754"><ele>338</ele><time>2020-10-21T11:33:50Z</time><name>PT1961</name></trkpt>
<trkpt lat="53.239531" lon="-2.030798"><ele>338</ele><time>2020-10-21T11:33:54Z</time><name>PT1962</name></trkpt>
<trkpt lat="53.239551" lon="-2.030849"><ele>339</ele><time>2020-10-21T11:33:57Z</time><name>PT1963</name></trkpt>
<trkpt lat="53.239565" lon="-2.030887"><ele>339</ele><time>2020-10-21T11:34:00Z</time><name>PT1964</name></trkpt>
<trkpt lat="53.239580" lon="-2.030932"><ele>339</ele><time>2020-10-21T11:34:03Z</time><name>PT1965</name></trkpt>
<trkpt lat="53.239593" lon="-2.030973"><ele>340</ele><time>2020-10-21T11:34:06Z</time><name>PT1966</name></trkpt>
<trkpt lat="53.239611" lon="-2.031012"><ele>340</ele><time>2020-10-21T11:34:10Z</time><name>PT1967</name></trkpt>
<trkpt lat="53.239637" lon="-2.031053"><ele>340</ele><time>2020-10-21T11:34:13Z</time><name>PT1968</name></trkpt>
<trkpt lat="53.239657" lon="-2.031103"><ele>340</ele><time>2020-10-21T11:34:17Z</time><name>PT1969</name></trkpt>
<trkpt lat="53.239678" lon="-2.031140"><ele>341</ele><time>2020-10-21T11:34:20Z</time><name>PT1970</name></trkpt>
<trkpt lat="53.239698" lon="-2.031178"><ele>341</ele><time>2020-10-21T11:34:23Z</time><name>PT1971</name></trkpt>
<trkpt lat="53.239729" lon="-2.031233"><ele>341</ele><time>2020-10-21T11:34:26Z</time><name>PT1972</name></trkpt>
<trkpt lat="53.239753" lon="-2.031278"><ele>341</ele><time>2020-10-21T11:34:29Z</time><name>PT1973</name></trkpt>
<trkpt lat="53.239771" lon="-2.031318"><ele>341</ele><time>2020-10-21T11:34:32Z</time><name>PT1974</name></trkpt>
<trkpt lat="53.239796" lon="-2.031346"><ele>342</ele><time>2020-10-21T11:34:35Z</time><name>PT1975</name></trkpt>
<trkpt lat="53.239828" lon="-2.031372"><ele>342</ele><time>2020-10-21T11:34:38Z</time><name>PT1976</name></trkpt>
<trkpt lat="53.239851" lon="-2.031399"><ele>343</ele><time>2020-10-21T11:34:43Z</time><name>PT1977</name></trkpt>
<trkpt lat="53.239877" lon="-2.031440"><ele>343</ele><time>2020-10-21T11:34:47Z</time><name>PT1978</name></trkpt>
<trkpt lat="53.239901" lon="-2.031475"><ele>343</ele><time>2020-10-21T11:34:50Z</time><name>PT1979</name></trkpt>
<trkpt lat="53.239932" lon="-2.031498"><ele>343</ele><time>2020-10-21T11:34:53Z</time><name>PT1980</name></trkpt>
<trkpt lat="53.239963" lon="-2.031533"><ele>342</ele><time>2020-10-21T11:34:56Z</time><name>PT1981</name></trkpt>
<trkpt lat="53.239993" lon="-2.031564"><ele>341</ele><time>2020-10-21T11:34:59Z</time><name>PT1982</name></trkpt>
<trkpt lat="53.240018" lon="-2.031605"><ele>341</ele><time>2020-10-21T11:35:02Z</time><name>PT1983</name></trkpt>
<trkpt lat="53.240047" lon="-2.031640"><ele>341</ele><time>2020-10-21T11:35:07Z</time><name>PT1984</name></trkpt>
<trkpt lat="53.240076" lon="-2.031692"><ele>341</ele><time>2020-10-21T11:35:11Z</time><name>PT1985</name></trkpt>
<trkpt lat="53.240111" lon="-2.031729"><ele>342</ele><time>2020-10-21T11:35:14Z</time><name>PT1986</name></trkpt>
<trkpt lat="53.240149" lon="-2.031773"><ele>342</ele><time>2020-10-21T11:35:18Z</time><name>PT1987</name></trkpt>
<trkpt lat="53.240175" lon="-2.031812"><ele>342</ele><time>2020-10-21T11:35:22Z</time><name>PT1988</name></trkpt>
<trkpt lat="53.240210" lon="-2.031863"><ele>342</ele><time>2020-10-21T11:35:26Z</time><name>PT1989</name></trkpt>
<trkpt lat="53.240237" lon="-2.031902"><ele>342</ele><time>2020-10-21T11:35:29Z</time><name>PT1990</name></trkpt>
<trkpt lat="53.240272" lon="-2.031946"><ele>343</ele><time>2020-10-21T11:35:32Z</time><name>PT1991</name></trkpt>
<trkpt lat="53.240300" lon="-2.031990"><ele>344</ele><time>2020-10-21T11:35:37Z</time><name>PT1992</name></trkpt>
<trkpt lat="53.240311" lon="-2.032031"><ele>344</ele><time>2020-10-21T11:35:40Z</time><name>PT1993</name></trkpt>
<trkpt lat="53.240329" lon="-2.032073"><ele>344</ele><time>2020-10-21T11:35:43Z</time><name>PT1994</name></trkpt>
<trkpt lat="53.240360" lon="-2.032120"><ele>345</ele><time>2020-10-21T11:35:47Z</time><name>PT1995</name></trkpt>
<trkpt lat="53.240379" lon="-2.032150"><ele>345</ele><time>2020-10-21T11:35:50Z</time><name>PT1996</name></trkpt>
<trkpt lat="53.240409" lon="-2.032192"><ele>345</ele><time>2020-10-21T11:35:53Z</time><name>PT1997</name></trkpt>
<trkpt lat="53.240436" lon="-2.032223"><ele>346</ele><time>2020-10-21T11:35:56Z</time><name>PT1998</name></trkpt>
<trkpt lat="53.240473" lon="-2.032266"><ele>346</ele><time>2020-10-21T11:36:00Z</time><name>PT1999</name></trkpt>
<trkpt lat="53.240498" lon="-2.032300"><ele>347</ele><time>2020-10-21T11:36:04Z</time><name>PT2000</name></trkpt>
<trkpt lat="53.240525" lon="-2.032332"><ele>347</ele><time>2020-10-21T11:36:07Z</time><name>PT2001</name></trkpt>
<trkpt lat="53.240564" lon="-2.032371"><ele>347</ele><time>2020-10-21T11:36:11Z</time><name>PT2002</name></trkpt>
<trkpt lat="53.240593" lon="-2.032395"><ele>348</ele><time>2020-10-21T11:36:14Z</time><name>PT2003</name></trkpt>
<trkpt lat="53.240630" lon="-2.032424"><ele>348</ele><time>2020-10-21T11:36:17Z</time><name>PT2004</name></trkpt>
<trkpt lat="53.240652" lon="-2.032446"><ele>349</ele><time>2020-10-21T11:36:20Z</time><name>PT2005</name></trkpt>
<trkpt lat="53.240679" lon="-2.032470"><ele>351</ele><time>2020-10-21T11:36:23Z</time><name>PT2006</name></trkpt>
<trkpt lat="53.240711" lon="-2.032485"><ele>350</ele><time>2020-10-21T11:36:26Z</time><name>PT2007</name></trkpt>
<trkpt lat="53.240745" lon="-2.032538"><ele>350</ele><time>2020-10-21T11:36:30Z</time><name>PT2008</name></trkpt>
<trkpt lat="53.240771" lon="-2.032584"><ele>350</ele><time>2020-10-21T11:36:33Z</time><name>PT2009</name></trkpt>
<trkpt lat="53.240800" lon="-2.032620"><ele>350</ele><time>2020-10-21T11:36:38Z</time><name>PT2010</name></trkpt>
<trkpt lat="53.240821" lon="-2.032667"><ele>349</ele><time>2020-10-21T11:36:41Z</time><name>PT2011</name></trkpt>
<trkpt lat="53.240850" lon="-2.032723"><ele>349</ele><time>2020-10-21T11:36:44Z</time><name>PT2012</name></trkpt>
<trkpt lat="53.240871" lon="-2.032759"><ele>349</ele><time>2020-10-21T11:36:47Z</time><name>PT2013</name></trkpt>
<trkpt lat="53.240896" lon="-2.032819"><ele>350</ele><time>2020-10-21T11:36:51Z</time><name>PT2014</name></trkpt>
<trkpt lat="53.240909" lon="-2.032858"><ele>351</ele><time>2020-10-21T11:36:55Z</time><name>PT2015</name></trkpt>
<trkpt lat="53.240918" lon="-2.032903"><ele>352</ele><time>2020-10-21T11:36:58Z</time><name>PT2016</name></trkpt>
<trkpt lat="53.240927" lon="-2.032959"><ele>352</ele><time>2020-10-21T11:37:02Z</time><name>PT2017</name></trkpt>
<trkpt lat="53.240939" lon="-2.033014"><ele>353</ele><time>2020-10-21T11:37:05Z</time><name>PT2018</name></trkpt>
<trkpt lat="53.240949" lon="-2.033071"><ele>354</ele><time>2020-10-21T11:37:09Z</time><name>PT2019</name></trkpt>
<trkpt lat="53.240955" lon="-2.033101"><ele>355</ele><time>2020-10-21T11:37:13Z</time><name>PT2020</name></trkpt>
<trkpt lat="53.240965" lon="-2.033143"><ele>356</ele><time>2020-10-21T11:37:17Z</time><name>PT2021</name></trkpt>
<trkpt lat="53.240969" lon="-2.033178"><ele>356</ele><time>2020-10-21T11:37:20Z</time><name>PT2022</name></trkpt>
<trkpt lat="53.240973" lon="-2.033216"><ele>356</ele><time>2020-10-21T11:37:23Z</time><name>PT2023</name></trkpt>
<trkpt lat="53.240987" lon="-2.033265"><ele>357</ele><time>2020-10-21T11:37:26Z</time><name>PT2024</name></trkpt>
<trkpt lat="53.240995" lon="-2.033299"><ele>358</ele><time>2020-10-21T11:37:29Z</time><name>PT2025</name></trkpt>
<trkpt lat="53.241006" lon="-2.033341"><ele>358</ele><time>2020-10-21T11:37:34Z</time><name>PT2026</name></trkpt>
<trkpt lat="53.241015" lon="-2.033380"><ele>358</ele><time>2020-10-21T11:37:38Z</time><name>PT2027</name></trkpt>
<trkpt lat="53.241025" lon="-2.033416"><ele>357</ele><time>2020-10-21T11:37:41Z</time><name>PT2028</name></trkpt>
<trkpt lat="53.241029" lon="-2.033460"><ele>357</ele><time>2020-10-21T11:37:44Z</time><name>PT2029</name></trkpt>
<trkpt lat="53.241046" lon="-2.033503"><ele>357</ele><time>2020-10-21T11:37:48Z</time><name>PT2030</name></trkpt>
<trkpt lat="53.241058" lon="-2.033531"><ele>357</ele><time>2020-10-21T11:37:52Z</time><name>PT2031</name></trkpt>
<trkpt lat="53.241068" lon="-2.033579"><ele>358</ele><time>2020-10-21T11:37:56Z</time><name>PT2032</name></trkpt>
<trkpt lat="53.241075" lon="-2.033610"><ele>359</ele><time>2020-10-21T11:37:59Z</time><name>PT2033</name></trkpt>
<trkpt lat="53.241086" lon="-2.033638"><ele>361</ele><time>2020-10-21T11:38:02Z</time><name>PT2034</name></trkpt>
<trkpt lat="53.241098" lon="-2.033682"><ele>362</ele><time>2020-10-21T11:38:05Z</time><name>PT2035</name></trkpt>
<trkpt lat="53.241107" lon="-2.033717"><ele>362</ele><time>2020-10-21T11:38:08Z</time><name>PT2036</name></trkpt>
<trkpt lat="53.241114" lon="-2.033757"><ele>363</ele><time>2020-10-21T11:38:11Z</time><name>PT2037</name></trkpt>
<trkpt lat="53.241122" lon="-2.033797"><ele>363</ele><time>2020-10-21T11:38:14Z</time><name>PT2038</name></trkpt>
<trkpt lat="53.241132" lon="-2.033833"><ele>364</ele><time>2020-10-21T11:38:17Z</time><name>PT2039</name></trkpt>
<trkpt lat="53.241141" lon="-2.033875"><ele>364</ele><time>2020-10-21T11:38:20Z</time><name>PT2040</name></trkpt>
<trkpt lat="53.241147" lon="-2.033911"><ele>364</ele><time>2020-10-21T11:38:23Z</time><name>PT2041</name></trkpt>
<trkpt lat="53.241156" lon="-2.033959"><ele>364</ele><time>2020-10-21T11:38:28Z</time><name>PT2042</name></trkpt>
<trkpt lat="53.241166" lon="-2.033989"><ele>365</ele><time>2020-10-21T11:38:31Z</time><name>PT2043</name></trkpt>
<trkpt lat="53.241173" lon="-2.034042"><ele>365</ele><time>2020-10-21T11:38:35Z</time><name>PT2044</name></trkpt>
<trkpt lat="53.241183" lon="-2.034078"><ele>366</ele><time>2020-10-21T11:38:38Z</time><name>PT2045</name></trkpt>
<trkpt lat="53.241192" lon="-2.034122"><ele>367</ele><time>2020-10-21T11:38:41Z</time><name>PT2046</name></trkpt>
<trkpt lat="53.241207" lon="-2.034163"><ele>368</ele><time>2020-10-21T11:38:45Z</time><name>PT2047</name></trkpt>
<trkpt lat="53.241219" lon="-2.034194"><ele>369</ele><time>2020-10-21T11:38:49Z</time><name>PT2048</name></trkpt>
<trkpt lat="53.241231" lon="-2.034224"><ele>369</ele><time>2020-10-21T11:38:52Z</time><name>PT2049</name></trkpt>
<trkpt lat="53.241245" lon="-2.034267"><ele>370</ele><time>2020-10-21T11:38:56Z</time><name>PT2050</name></trkpt>
<trkpt lat="53.241255" lon="-2.034302"><ele>371</ele><time>2020-10-21T11:38:59Z</time><name>PT2051</name></trkpt>
<trkpt lat="53.241262" lon="-2.034350"><ele>372</ele><time>2020-10-21T11:39:02Z</time><name>PT2052</name></trkpt>
<trkpt lat="53.241270" lon="-2.034384"><ele>372</ele><time>2020-10-21T11:39:05Z</time><name>PT2053</name></trkpt>
<trkpt lat="53.241279" lon="-2.034414"><ele>373</ele><time>2020-10-21T11:39:08Z</time><name>PT2054</name></trkpt>
<trkpt lat="53.241292" lon="-2.034447"><ele>373</ele><time>2020-10-21T11:39:12Z</time><name>PT2055</name></trkpt>
<trkpt lat="53.241300" lon="-2.034480"><ele>374</ele><time>2020-10-21T11:39:15Z</time><name>PT2056</name></trkpt>
<trkpt lat="53.241311" lon="-2.034508"><ele>374</ele><time>2020-10-21T11:39:18Z</time><name>PT2057</name></trkpt>
<trkpt lat="53.241323" lon="-2.034542"><ele>375</ele><time>2020-10-21T11:39:22Z</time><name>PT2058</name></trkpt>
<trkpt lat="53.241336" lon="-2.034592"><ele>375</ele><time>2020-10-21T11:39:26Z</time><name>PT2059</name></trkpt>
<trkpt lat="53.241349" lon="-2.034625"><ele>376</ele><time>2020-10-21T11:39:29Z</time><name>PT2060</name></trkpt>
<trkpt lat="53.241364" lon="-2.034673"><ele>377</ele><time>2020-10-21T11:39:32Z</time><name>PT2061</name></trkpt>
<trkpt lat="53.241375" lon="-2.034711"><ele>377</ele><time>2020-10-21T11:39:35Z</time><name>PT2062</name></trkpt>
<trkpt lat="53.241394" lon="-2.034745"><ele>378</ele><time>2020-10-21T11:39:38Z</time><name>PT2063</name></trkpt>
<trkpt lat="53.241411" lon="-2.034781"><ele>378</ele><time>2020-10-21T11:39:41Z</time><name>PT2064</name></trkpt>
<trkpt lat="53.241437" lon="-2.034831"><ele>379</ele><time>2020-10-21T11:39:45Z</time><name>PT2065</name></trkpt>
<trkpt lat="53.241460" lon="-2.034863"><ele>379</ele><time>2020-10-21T11:39:48Z</time><name>PT2066</name></trkpt>
<trkpt lat="53.241483" lon="-2.034918"><ele>379</ele><time>2020-10-21T11:39:53Z</time><name>PT2067</name></trkpt>
<trkpt lat="53.241501" lon="-2.034958"><ele>379</ele><time>2020-10-21T11:39:56Z</time><name>PT2068</name></trkpt>
<trkpt lat="53.241531" lon="-2.035013"><ele>379</ele><time>2020-10-21T11:39:59Z</time><name>PT2069</name></trkpt>
<trkpt lat="53.241569" lon="-2.035050"><ele>379</ele><time>2020-10-21T11:40:03Z</time><name>PT2070</name></trkpt>
<trkpt lat="53.241599" lon="-2.035068"><ele>379</ele><time>2020-10-21T11:40:07Z</time><name>PT2071</name></trkpt>
<trkpt lat="53.241636" lon="-2.035107"><ele>379</ele><time>2020-10-21T11:40:11Z</time><name>PT2072</name></trkpt>
<trkpt lat="53.241672" lon="-2.035151"><ele>378</ele><time>2020-10-21T11:40:14Z</time><name>PT2073</name></trkpt>
<trkpt lat="53.241700" lon="-2.035192"><ele>377</ele><time>2020-10-21T11:40:17Z</time><name>PT2074</name></trkpt>
<trkpt lat="53.241726" lon="-2.035244"><ele>376</ele><time>2020-10-21T11:40:21Z</time><name>PT2075</name></trkpt>
<trkpt lat="53.241762" lon="-2.035286"><ele>376</ele><time>2020-10-21T11:40:26Z</time><name>PT2076</name></trkpt>
<trkpt lat="53.241790" lon="-2.035307"><ele>375</ele><time>2020-10-21T11:40:29Z</time><name>PT2077</name></trkpt>
<trkpt lat="53.241821" lon="-2.035315"><ele>374</ele><time>2020-10-21T11:40:32Z</time><name>PT2078</name></trkpt>
<trkpt lat="53.241872" lon="-2.035299"><ele>374</ele><time>2020-10-21T11:40:35Z</time><name>PT2079</name></trkpt>
<trkpt lat="53.241901" lon="-2.035309"><ele>374</ele><time>2020-10-21T11:40:38Z</time><name>PT2080</name></trkpt>
<trkpt lat="53.241932" lon="-2.035309"><ele>374</ele><time>2020-10-21T11:40:41Z</time><name>PT2081</name></trkpt>
<trkpt lat="53.241972" lon="-2.035309"><ele>375</ele><time>2020-10-21T11:40:46Z</time><name>PT2082</name></trkpt>
<trkpt lat="53.242025" lon="-2.035315"><ele>376</ele><time>2020-10-21T11:40:50Z</time><name>PT2083</name></trkpt>
<trkpt lat="53.242058" lon="-2.035323"><ele>377</ele><time>2020-10-21T11:40:53Z</time><name>PT2084</name></trkpt>
<trkpt lat="53.242091" lon="-2.035314"><ele>377</ele><time>2020-10-21T11:40:56Z</time><name>PT2085</name></trkpt>
<trkpt lat="53.242127" lon="-2.035307"><ele>376</ele><time>2020-10-21T11:40:59Z</time><name>PT2086</name></trkpt>
<trkpt lat="53.242169" lon="-2.035319"><ele>376</ele><time>2020-10-21T11:41:02Z</time><name>PT2087</name></trkpt>
<trkpt lat="53.242207" lon="-2.035323"><ele>377</ele><time>2020-10-21T11:41:05Z</time><name>PT2088</name></trkpt>
<trkpt lat="53.242256" lon="-2.035324"><ele>377</ele><time>2020-10-21T11:41:10Z</time><name>PT2089</name></trkpt>
<trkpt lat="53.242305" lon="-2.035333"><ele>378</ele><time>2020-10-21T11:41:14Z</time><name>PT2090</name></trkpt>
<trkpt lat="53.242355" lon="-2.035339"><ele>377</ele><time>2020-10-21T11:41:17Z</time><name>PT2091</name></trkpt>
<trkpt lat="53.242394" lon="-2.035336"><ele>377</ele><time>2020-10-21T11:41:20Z</time><name>PT2092</name></trkpt>
<trkpt lat="53.242433" lon="-2.035349"><ele>379</ele><time>2020-10-21T11:41:24Z</time><name>PT2093</name></trkpt>
<trkpt lat="53.242451" lon="-2.035380"><ele>377</ele><time>2020-10-21T11:41:28Z</time><name>PT2094</name></trkpt>
<trkpt lat="53.242453" lon="-2.035397"><ele>377</ele><time>2020-10-21T11:41:31Z</time><name>PT2095</name></trkpt>
<trkpt lat="53.242455" lon="-2.035412"><ele>378</ele><time>2020-10-21T11:41:35Z</time><name>PT2096</name></trkpt>
<trkpt lat="53.242462" lon="-2.035426"><ele>378</ele><time>2020-10-21T11:41:38Z</time><name>PT2097</name></trkpt>
<trkpt lat="53.242475" lon="-2.035472"><ele>377</ele><time>2020-10-21T11:41:42Z</time><name>PT2098</name></trkpt>
<trkpt lat="53.242511" lon="-2.035498"><ele>377</ele><time>2020-10-21T11:41:45Z</time><name>PT2099</name></trkpt>
<trkpt lat="53.242563" lon="-2.035506"><ele>376</ele><time>2020-10-21T11:41:50Z</time><name>PT2100</name></trkpt>
<trkpt lat="53.242601" lon="-2.035523"><ele>376</ele><time>2020-10-21T11:41:53Z</time><name>PT2101</name></trkpt>
<trkpt lat="53.242649" lon="-2.035541"><ele>375</ele><time>2020-10-21T11:41:56Z</time><name>PT2102</name></trkpt>
<trkpt lat="53.242697" lon="-2.035580"><ele>374</ele><time>2020-10-21T11:42:01Z</time><name>PT2103</name></trkpt>
<trkpt lat="53.242726" lon="-2.035632"><ele>373</ele><time>2020-10-21T11:42:05Z</time><name>PT2104</name></trkpt>
<trkpt lat="53.242747" lon="-2.035673"><ele>373</ele><time>2020-10-21T11:42:08Z</time><name>PT2105</name></trkpt>
<trkpt lat="53.242791" lon="-2.035698"><ele>372</ele><time>2020-10-21T11:42:11Z</time><name>PT2106</name></trkpt>
<trkpt lat="53.242839" lon="-2.035712"><ele>372</ele><time>2020-10-21T11:42:15Z</time><name>PT2107</name></trkpt>
<trkpt lat="53.242881" lon="-2.035712"><ele>372</ele><time>2020-10-21T11:42:18Z</time><name>PT2108</name></trkpt>
<trkpt lat="53.242933" lon="-2.035707"><ele>371</ele><time>2020-10-21T11:42:23Z</time><name>PT2109</name></trkpt>
<trkpt lat="53.242973" lon="-2.035678"><ele>371</ele><time>2020-10-21T11:42:26Z</time><name>PT2110</name></trkpt>
<trkpt lat="53.243020" lon="-2.035644"><ele>372</ele><time>2020-10-21T11:42:29Z</time><name>PT2111</name></trkpt>
<trkpt lat="53.243061" lon="-2.035603"><ele>373</ele><time>2020-10-21T11:42:33Z</time><name>PT2112</name></trkpt>
<trkpt lat="53.243098" lon="-2.035567"><ele>372</ele><time>2020-10-21T11:42:37Z</time><name>PT2113</name></trkpt>
<trkpt lat="53.243138" lon="-2.035505"><ele>372</ele><time>2020-10-21T11:42:41Z</time><name>PT2114</name></trkpt>
<trkpt lat="53.243173" lon="-2.035443"><ele>372</ele><time>2020-10-21T11:42:44Z</time><name>PT2115</name></trkpt>
<trkpt lat="53.243200" lon="-2.035398"><ele>372</ele><time>2020-10-21T11:42:47Z</time><name>PT2116</name></trkpt>
<trkpt lat="53.243233" lon="-2.035338"><ele>372</ele><time>2020-10-21T11:42:51Z</time><name>PT2117</name></trkpt>
<trkpt lat="53.243268" lon="-2.035280"><ele>373</ele><time>2020-10-21T11:42:56Z</time><name>PT2118</name></trkpt>
<trkpt lat="53.243296" lon="-2.035238"><ele>373</ele><time>2020-10-21T11:42:59Z</time><name>PT2119</name></trkpt>
<trkpt lat="53.243337" lon="-2.035190"><ele>374</ele><time>2020-10-21T11:43:02Z</time><name>PT2120</name></trkpt>
<trkpt lat="53.243392" lon="-2.035170"><ele>375</ele><time>2020-10-21T11:43:06Z</time><name>PT2121</name></trkpt>
<trkpt lat="53.243427" lon="-2.035173"><ele>375</ele><time>2020-10-21T11:43:09Z</time><name>PT2122</name></trkpt>
<trkpt lat="53.243455" lon="-2.035199"><ele>376</ele><time>2020-10-21T11:43:12Z</time><name>PT2123</name></trkpt>
<trkpt lat="53.243484" lon="-2.035232"><ele>376</ele><time>2020-10-21T11:43:16Z</time><name>PT2124</name></trkpt>
<trkpt lat="53.243519" lon="-2.035286"><ele>378</ele><time>2020-10-21T11:43:20Z</time><name>PT2125</name></trkpt>
<trkpt lat="53.243553" lon="-2.035343"><ele>379</ele><time>2020-10-21T11:43:23Z</time><name>PT2126</name></trkpt>
<trkpt lat="53.243590" lon="-2.035401"><ele>380</ele><time>2020-10-21T11:43:28Z</time><name>PT2127</name></trkpt>
<trkpt lat="53.243620" lon="-2.035457"><ele>381</ele><time>2020-10-21T11:43:32Z</time><name>PT2128</name></trkpt>
<trkpt lat="53.243649" lon="-2.035501"><ele>381</ele><time>2020-10-21T11:43:35Z</time><name>PT2129</name></trkpt>
<trkpt lat="53.243672" lon="-2.035536"><ele>383</ele><time>2020-10-21T11:43:38Z</time><name>PT2130</name></trkpt>
<trkpt lat="53.243695" lon="-2.035578"><ele>383</ele><time>2020-10-21T11:43:43Z</time><name>PT2131</name></trkpt>
<trkpt lat="53.243723" lon="-2.035624"><ele>384</ele><time>2020-10-21T11:43:47Z</time><name>PT2132</name></trkpt>
<trkpt lat="53.243758" lon="-2.035675"><ele>385</ele><time>2020-10-21T11:43:50Z</time><name>PT2133</name></trkpt>
<trkpt lat="53.243781" lon="-2.035715"><ele>385</ele><time>2020-10-21T11:43:53Z</time><name>PT2134</name></trkpt>
<trkpt lat="53.243804" lon="-2.035755"><ele>386</ele><time>2020-10-21T11:43:56Z</time><name>PT2135</name></trkpt>
<trkpt lat="53.243826" lon="-2.035796"><ele>386</ele><time>2020-10-21T11:43:59Z</time><name>PT2136</name></trkpt>
<trkpt lat="53.243862" lon="-2.035854"><ele>386</ele><time>2020-10-21T11:44:04Z</time><name>PT2137</name></trkpt>
<trkpt lat="53.243885" lon="-2.035894"><ele>386</ele><time>2020-10-21T11:44:07Z</time><name>PT2138</name></trkpt>
<trkpt lat="53.243913" lon="-2.035936"><ele>387</ele><time>2020-10-21T11:44:11Z</time><name>PT2139</name></trkpt>
<trkpt lat="53.243943" lon="-2.035973"><ele>388</ele><time>2020-10-21T11:44:14Z</time><name>PT2140</name></trkpt>
<trkpt lat="53.243973" lon="-2.036032"><ele>388</ele><time>2020-10-21T11:44:17Z</time><name>PT2141</name></trkpt>
<trkpt lat="53.244008" lon="-2.036087"><ele>388</ele><time>2020-10-21T11:44:22Z</time><name>PT2142</name></trkpt>
<trkpt lat="53.244041" lon="-2.036134"><ele>389</ele><time>2020-10-21T11:44:26Z</time><name>PT2143</name></trkpt>
<trkpt lat="53.244063" lon="-2.036169"><ele>389</ele><time>2020-10-21T11:44:29Z</time><name>PT2144</name></trkpt>
<trkpt lat="53.244087" lon="-2.036206"><ele>390</ele><time>2020-10-21T11:44:32Z</time><name>PT2145</name></trkpt>
<trkpt lat="53.244125" lon="-2.036258"><ele>391</ele><time>2020-10-21T11:44:35Z</time><name>PT2146</name></trkpt>
<trkpt lat="53.244150" lon="-2.036296"><ele>391</ele><time>2020-10-21T11:44:38Z</time><name>PT2147</name></trkpt>
<trkpt lat="53.244174" lon="-2.036334"><ele>393</ele><time>2020-10-21T11:44:41Z</time><name>PT2148</name></trkpt>
<trkpt lat="53.244197" lon="-2.036370"><ele>393</ele><time>2020-10-21T11:44:44Z</time><name>PT2149</name></trkpt>
<trkpt lat="53.244228" lon="-2.036421"><ele>393</ele><time>2020-10-21T11:44:49Z</time><name>PT2150</name></trkpt>
<trkpt lat="53.244260" lon="-2.036476"><ele>394</ele><time>2020-10-21T11:44:53Z</time><name>PT2151</name></trkpt>
<trkpt lat="53.244293" lon="-2.036521"><ele>394</ele><time>2020-10-21T11:44:56Z</time><name>PT2152</name></trkpt>
<trkpt lat="53.244319" lon="-2.036556"><ele>395</ele><time>2020-10-21T11:44:59Z</time><name>PT2153</name></trkpt>
<trkpt lat="53.244352" lon="-2.036605"><ele>397</ele><time>2020-10-21T11:45:03Z</time><name>PT2154</name></trkpt>
<trkpt lat="53.244375" lon="-2.036644"><ele>396</ele><time>2020-10-21T11:45:06Z</time><name>PT2155</name></trkpt>
<trkpt lat="53.244395" lon="-2.036681"><ele>396</ele><time>2020-10-21T11:45:10Z</time><name>PT2156</name></trkpt>
<trkpt lat="53.244428" lon="-2.036733"><ele>397</ele><time>2020-10-21T11:45:14Z</time><name>PT2157</name></trkpt>
<trkpt lat="53.244450" lon="-2.036777"><ele>397</ele><time>2020-10-21T11:45:17Z</time><name>PT2158</name></trkpt>
<trkpt lat="53.244474" lon="-2.036815"><ele>397</ele><time>2020-10-21T11:45:20Z</time><name>PT2159</name></trkpt>
<trkpt lat="53.244497" lon="-2.036860"><ele>397</ele><time>2020-10-21T11:45:23Z</time><name>PT2160</name></trkpt>
<trkpt lat="53.244528" lon="-2.036916"><ele>397</ele><time>2020-10-21T11:45:26Z</time><name>PT2161</name></trkpt>
<trkpt lat="53.244555" lon="-2.036983"><ele>397</ele><time>2020-10-21T11:45:30Z</time><name>PT2162</name></trkpt>
<trkpt lat="53.244572" lon="-2.037045"><ele>397</ele><time>2020-10-21T11:45:34Z</time><name>PT2163</name></trkpt>
<trkpt lat="53.244591" lon="-2.037130"><ele>397</ele><time>2020-10-21T11:45:38Z</time><name>PT2164</name></trkpt>
<trkpt lat="53.244598" lon="-2.037197"><ele>396</ele><time>2020-10-21T11:45:41Z</time><name>PT2165</name></trkpt>
<trkpt lat="53.244605" lon="-2.037288"><ele>397</ele><time>2020-10-21T11:45:44Z</time><name>PT2166</name></trkpt>
<trkpt lat="53.244610" lon="-2.037345"><ele>397</ele><time>2020-10-21T11:45:47Z</time><name>PT2167</name></trkpt>
<trkpt lat="53.244613" lon="-2.037429"><ele>398</ele><time>2020-10-21T11:45:51Z</time><name>PT2168</name></trkpt>
<trkpt lat="53.244613" lon="-2.037489"><ele>398</ele><time>2020-10-21T11:45:55Z</time><name>PT2169</name></trkpt>
<trkpt lat="53.244623" lon="-2.037575"><ele>398</ele><time>2020-10-21T11:45:59Z</time><name>PT2170</name></trkpt>
<trkpt lat="53.244635" lon="-2.037629"><ele>398</ele><time>2020-10-21T11:46:02Z</time><name>PT2171</name></trkpt>
<trkpt lat="53.244651" lon="-2.037683"><ele>398</ele><time>2020-10-21T11:46:05Z</time><name>PT2172</name></trkpt>
<trkpt lat="53.244675" lon="-2.037727"><ele>398</ele><time>2020-10-21T11:46:08Z</time><name>PT2173</name></trkpt>
<trkpt lat="53.244706" lon="-2.037785"><ele>399</ele><time>2020-10-21T11:46:11Z</time><name>PT2174</name></trkpt>
<trkpt lat="53.244744" lon="-2.037843"><ele>400</ele><time>2020-10-21T11:46:15Z</time><name>PT2175</name></trkpt>
<trkpt lat="53.244764" lon="-2.037881"><ele>400</ele><time>2020-10-21T11:46:18Z</time><name>PT2176</name></trkpt>
<trkpt lat="53.244789" lon="-2.037920"><ele>400</ele><time>2020-10-21T11:46:21Z</time><name>PT2177</name></trkpt>
<trkpt lat="53.244819" lon="-2.037958"><ele>400</ele><time>2020-10-21T11:46:25Z</time><name>PT2178</name></trkpt>
<trkpt lat="53.244858" lon="-2.038010"><ele>400</ele><time>2020-10-21T11:46:29Z</time><name>PT2179</name></trkpt>
<trkpt lat="53.244885" lon="-2.038047"><ele>400</ele><time>2020-10-21T11:46:32Z</time><name>PT2180</name></trkpt>
<trkpt lat="53.244915" lon="-2.038096"><ele>401</ele><time>2020-10-21T11:46:35Z</time><name>PT2181</name></trkpt>
<trkpt lat="53.244946" lon="-2.038134"><ele>402</ele><time>2020-10-21T11:46:38Z</time><name>PT2182</name></trkpt>
<trkpt lat="53.244983" lon="-2.038191"><ele>402</ele><time>2020-10-21T11:46:41Z</time><name>PT2183</name></trkpt>
<trkpt lat="53.245011" lon="-2.038231"><ele>402</ele><time>2020-10-21T11:46:44Z</time><name>PT2184</name></trkpt>
<trkpt lat="53.245044" lon="-2.038274"><ele>402</ele><time>2020-10-21T11:46:47Z</time><name>PT2185</name></trkpt>
<trkpt lat="53.245080" lon="-2.038322"><ele>402</ele><time>2020-10-21T11:46:51Z</time><name>PT2186</name></trkpt>
<trkpt lat="53.245107" lon="-2.038359"><ele>402</ele><time>2020-10-21T11:46:54Z</time><name>PT2187</name></trkpt>
<trkpt lat="53.245135" lon="-2.038403"><ele>403</ele><time>2020-10-21T11:46:57Z</time><name>PT2188</name></trkpt>
<trkpt lat="53.245166" lon="-2.038435"><ele>404</ele><time>2020-10-21T11:47:00Z</time><name>PT2189</name></trkpt>
<trkpt lat="53.245204" lon="-2.038487"><ele>403</ele><time>2020-10-21T11:47:05Z</time><name>PT2190</name></trkpt>
<trkpt lat="53.245240" lon="-2.038540"><ele>404</ele><time>2020-10-21T11:47:08Z</time><name>PT2191</name></trkpt>
<trkpt lat="53.245277" lon="-2.038596"><ele>403</ele><time>2020-10-21T11:47:12Z</time><name>PT2192</name></trkpt>
<trkpt lat="53.245305" lon="-2.038641"><ele>403</ele><time>2020-10-21T11:47:16Z</time><name>PT2193</name></trkpt>
<trkpt lat="53.245346" lon="-2.038695"><ele>403</ele><time>2020-10-21T11:47:20Z</time><name>PT2194</name></trkpt>
<trkpt lat="53.245388" lon="-2.038746"><ele>403</ele><time>2020-10-21T11:47:23Z</time><name>PT2195</name></trkpt>
<trkpt lat="53.245427" lon="-2.038806"><ele>403</ele><time>2020-10-21T11:47:28Z</time><name>PT2196</name></trkpt>
<trkpt lat="53.245459" lon="-2.038871"><ele>402</ele><time>2020-10-21T11:47:32Z</time><name>PT2197</name></trkpt>
<trkpt lat="53.245487" lon="-2.038927"><ele>401</ele><time>2020-10-21T11:47:35Z</time><name>PT2198</name></trkpt>
<trkpt lat="53.245515" lon="-2.038980"><ele>401</ele><time>2020-10-21T11:47:39Z</time><name>PT2199</name></trkpt>
<trkpt lat="53.245539" lon="-2.039039"><ele>400</ele><time>2020-10-21T11:47:44Z</time><name>PT2200</name></trkpt>
<trkpt lat="53.245563" lon="-2.039099"><ele>398</ele><time>2020-10-21T11:47:47Z</time><name>PT2201</name></trkpt>
<trkpt lat="53.245585" lon="-2.039147"><ele>398</ele><time>2020-10-21T11:47:50Z</time><name>PT2202</name></trkpt>
<trkpt lat="53.245606" lon="-2.039222"><ele>396</ele><time>2020-10-21T11:47:54Z</time><name>PT2203</name></trkpt>
<trkpt lat="53.245625" lon="-2.039273"><ele>396</ele><time>2020-10-21T11:47:57Z</time><name>PT2204</name></trkpt>
<trkpt lat="53.245649" lon="-2.039324"><ele>395</ele><time>2020-10-21T11:48:00Z</time><name>PT2205</name></trkpt>
<trkpt lat="53.245661" lon="-2.039377"><ele>394</ele><time>2020-10-21T11:48:03Z</time><name>PT2206</name></trkpt>
<trkpt lat="53.245685" lon="-2.039441"><ele>394</ele><time>2020-10-21T11:48:08Z</time><name>PT2207</name></trkpt>
<trkpt lat="53.245707" lon="-2.039516"><ele>394</ele><time>2020-10-21T11:48:11Z</time><name>PT2208</name></trkpt>
<trkpt lat="53.245722" lon="-2.039572"><ele>393</ele><time>2020-10-21T11:48:14Z</time><name>PT2209</name></trkpt>
<trkpt lat="53.245748" lon="-2.039643"><ele>394</ele><time>2020-10-21T11:48:19Z</time><name>PT2210</name></trkpt>
<trkpt lat="53.245768" lon="-2.039719"><ele>394</ele><time>2020-10-21T11:48:23Z</time><name>PT2211</name></trkpt>
<trkpt lat="53.245785" lon="-2.039789"><ele>395</ele><time>2020-10-21T11:48:26Z</time><name>PT2212</name></trkpt>
<trkpt lat="53.245784" lon="-2.039864"><ele>395</ele><time>2020-10-21T11:48:31Z</time><name>PT2213</name></trkpt>
<trkpt lat="53.245781" lon="-2.039923"><ele>396</ele><time>2020-10-21T11:48:35Z</time><name>PT2214</name></trkpt>
<trkpt lat="53.245778" lon="-2.039968"><ele>395</ele><time>2020-10-21T11:48:38Z</time><name>PT2215</name></trkpt>
<trkpt lat="53.245776" lon="-2.040061"><ele>394</ele><time>2020-10-21T11:48:41Z</time><name>PT2216</name></trkpt>
<trkpt lat="53.245766" lon="-2.040145"><ele>394</ele><time>2020-10-21T11:48:46Z</time><name>PT2217</name></trkpt>
<trkpt lat="53.245762" lon="-2.040227"><ele>391</ele><time>2020-10-21T11:48:50Z</time><name>PT2218</name></trkpt>
<trkpt lat="53.245777" lon="-2.040284"><ele>391</ele><time>2020-10-21T11:48:53Z</time><name>PT2219</name></trkpt>
<trkpt lat="53.245793" lon="-2.040309"><ele>390</ele><time>2020-10-21T11:48:56Z</time><name>PT2220</name></trkpt>
<trkpt lat="53.245833" lon="-2.040311"><ele>391</ele><time>2020-10-21T11:49:00Z</time><name>PT2221</name></trkpt>
<trkpt lat="53.245867" lon="-2.040298"><ele>392</ele><time>2020-10-21T11:49:03Z</time><name>PT2222</name></trkpt>
<trkpt lat="53.245908" lon="-2.040251"><ele>392</ele><time>2020-10-21T11:49:08Z</time><name>PT2223</name></trkpt>
<trkpt lat="53.245940" lon="-2.040221"><ele>393</ele><time>2020-10-21T11:49:11Z</time><name>PT2224</name></trkpt>
<trkpt lat="53.245965" lon="-2.040192"><ele>393</ele><time>2020-10-21T11:49:14Z</time><name>PT2225</name></trkpt>
<trkpt lat="53.246001" lon="-2.040159"><ele>393</ele><time>2020-10-21T11:49:17Z</time><name>PT2226</name></trkpt>
<trkpt lat="53.246021" lon="-2.040150"><ele>391</ele><time>2020-10-21T11:49:20Z</time><name>PT2227</name></trkpt>
<trkpt lat="53.246051" lon="-2.040124"><ele>391</ele><time>2020-10-21T11:49:23Z</time><name>PT2228</name></trkpt>
<trkpt lat="53.246087" lon="-2.040085"><ele>391</ele><time>2020-10-21T11:49:27Z</time><name>PT2229</name></trkpt>
<trkpt lat="53.246117" lon="-2.040045"><ele>390</ele><time>2020-10-21T11:49:32Z</time><name>PT2230</name></trkpt>
<trkpt lat="53.246153" lon="-2.040002"><ele>392</ele><time>2020-10-21T11:49:35Z</time><name>PT2231</name></trkpt>
<trkpt lat="53.246186" lon="-2.039973"><ele>391</ele><time>2020-10-21T11:49:38Z</time><name>PT2232</name></trkpt>
<trkpt lat="53.246200" lon="-2.039961"><ele>392</ele><time>2020-10-21T11:49:41Z</time><name>PT2233</name></trkpt>
<trkpt lat="53.246220" lon="-2.039963"><ele>393</ele><time>2020-10-21T11:49:44Z</time><name>PT2234</name></trkpt>
<trkpt lat="53.246235" lon="-2.039956"><ele>394</ele><time>2020-10-21T11:49:48Z</time><name>PT2235</name></trkpt>
<trkpt lat="53.246254" lon="-2.039954"><ele>395</ele><time>2020-10-21T11:49:53Z</time><name>PT2236</name></trkpt>
<trkpt lat="53.246252" lon="-2.039942"><ele>395</ele><time>2020-10-21T11:49:56Z</time><name>PT2237</name></trkpt>
<trkpt lat="53.246258" lon="-2.039931"><ele>395</ele><time>2020-10-21T11:49:59Z</time><name>PT2238</name></trkpt>
<trkpt lat="53.246268" lon="-2.039961"><ele>396</ele><time>2020-10-21T11:50:02Z</time><name>PT2239</name></trkpt>
<trkpt lat="53.246268" lon="-2.039966"><ele>397</ele><time>2020-10-21T11:50:06Z</time><name>PT2240</name></trkpt>
<trkpt lat="53.246266" lon="-2.039990"><ele>394</ele><time>2020-10-21T11:50:11Z</time><name>PT2241</name></trkpt>
<trkpt lat="53.246283" lon="-2.039966"><ele>394</ele><time>2020-10-21T11:50:14Z</time><name>PT2242</name></trkpt>
<trkpt lat="53.246281" lon="-2.039976"><ele>391</ele><time>2020-10-21T11:50:18Z</time><name>PT2243</name></trkpt>
<trkpt lat="53.246291" lon="-2.039984"><ele>388</ele><time>2020-10-21T11:50:23Z</time><name>PT2244</name></trkpt>
<trkpt lat="53.246294" lon="-2.039988"><ele>387</ele><time>2020-10-21T11:50:26Z</time><name>PT2245</name></trkpt>
<trkpt lat="53.246299" lon="-2.039982"><ele>387</ele><time>2020-10-21T11:50:29Z</time><name>PT2246</name></trkpt>
<trkpt lat="53.246314" lon="-2.039952"><ele>387</ele><time>2020-10-21T11:50:32Z</time><name>PT2247</name></trkpt>
<trkpt lat="53.246317" lon="-2.039939"><ele>388</ele><time>2020-10-21T11:50:35Z</time><name>PT2248</name></trkpt>
<trkpt lat="53.246343" lon="-2.039941"><ele>388</ele><time>2020-10-21T11:50:38Z</time><name>PT2249</name></trkpt>
<trkpt lat="53.246349" lon="-2.039929"><ele>389</ele><time>2020-10-21T11:50:42Z</time><name>PT2250</name></trkpt>
<trkpt lat="53.246327" lon="-2.039933"><ele>390</ele><time>2020-10-21T11:51:14Z</time><name>PT2251</name></trkpt>
<trkpt lat="53.246322" lon="-2.039935"><ele>390</ele><time>2020-10-21T11:51:44Z</time><name>PT2252</name></trkpt>
<trkpt lat="53.246306" lon="-2.039902"><ele>391</ele><time>2020-10-21T11:51:47Z</time><name>PT2253</name></trkpt>
<trkpt lat="53.246308" lon="-2.039898"><ele>391</ele><time>2020-10-21T11:52:05Z</time><name>PT2254</name></trkpt>
<trkpt lat="53.246305" lon="-2.039895"><ele>392</ele><time>2020-10-21T11:52:12Z</time><name>PT2255</name></trkpt>
<trkpt lat="53.246296" lon="-2.039900"><ele>392</ele><time>2020-10-21T11:52:35Z</time><name>PT2256</name></trkpt>
<trkpt lat="53.246294" lon="-2.039890"><ele>392</ele><time>2020-10-21T11:52:38Z</time><name>PT2257</name></trkpt>
<trkpt lat="53.246264" lon="-2.039891"><ele>392</ele><time>2020-10-21T11:52:43Z</time><name>PT2258</name></trkpt>
<trkpt lat="53.246260" lon="-2.039905"><ele>392</ele><time>2020-10-21T11:52:47Z</time><name>PT2259</name></trkpt>
<trkpt lat="53.246269" lon="-2.039913"><ele>392</ele><time>2020-10-21T11:52:50Z</time><name>PT2260</name></trkpt>
<trkpt lat="53.246274" lon="-2.039929"><ele>392</ele><time>2020-10-21T11:52:53Z</time><name>PT2261</name></trkpt>
<trkpt lat="53.246264" lon="-2.039954"><ele>394</ele><time>2020-10-21T11:54:14Z</time><name>PT2262</name></trkpt>
<trkpt lat="53.246265" lon="-2.039948"><ele>394</ele><time>2020-10-21T11:54:29Z</time><name>PT2263</name></trkpt>
<trkpt lat="53.246259" lon="-2.039958"><ele>394</ele><time>2020-10-21T11:54:38Z</time><name>PT2264</name></trkpt>
<trkpt lat="53.246261" lon="-2.039978"><ele>395</ele><time>2020-10-21T11:54:49Z</time><name>PT2265</name></trkpt>
<trkpt lat="53.246275" lon="-2.039962"><ele>395</ele><time>2020-10-21T11:54:53Z</time><name>PT2266</name></trkpt>
<trkpt lat="53.246274" lon="-2.039965"><ele>395</ele><time>2020-10-21T11:54:56Z</time><name>PT2267</name></trkpt>
<trkpt lat="53.246287" lon="-2.039993"><ele>395</ele><time>2020-10-21T11:55:09Z</time><name>PT2268</name></trkpt>
<trkpt lat="53.246291" lon="-2.039998"><ele>396</ele><time>2020-10-21T11:55:14Z</time><name>PT2269</name></trkpt>
<trkpt lat="53.246291" lon="-2.039993"><ele>395</ele><time>2020-10-21T11:55:24Z</time><name>PT2270</name></trkpt>
<trkpt lat="53.246293" lon="-2.039992"><ele>395</ele><time>2020-10-21T11:55:29Z</time><name>PT2271</name></trkpt>
<trkpt lat="53.246290" lon="-2.039983"><ele>395</ele><time>2020-10-21T11:56:23Z</time><name>PT2272</name></trkpt>
<trkpt lat="53.246286" lon="-2.039989"><ele>395</ele><time>2020-10-21T11:57:12Z</time><name>PT2273</name></trkpt>
<trkpt lat="53.246293" lon="-2.039939"><ele>394</ele><time>2020-10-21T11:57:17Z</time><name>PT2274</name></trkpt>
<trkpt lat="53.246293" lon="-2.039935"><ele>393</ele><time>2020-10-21T11:57:41Z</time><name>PT2275</name></trkpt>
<trkpt lat="53.246294" lon="-2.039912"><ele>393</ele><time>2020-10-21T11:57:44Z</time><name>PT2276</name></trkpt>
<trkpt lat="53.246291" lon="-2.039899"><ele>393</ele><time>2020-10-21T11:57:47Z</time><name>PT2277</name></trkpt>
<trkpt lat="53.246320" lon="-2.039895"><ele>392</ele><time>2020-10-21T11:57:51Z</time><name>PT2278</name></trkpt>
<trkpt lat="53.246319" lon="-2.039897"><ele>393</ele><time>2020-10-21T11:57:56Z</time><name>PT2279</name></trkpt>
<trkpt lat="53.246322" lon="-2.039893"><ele>391</ele><time>2020-10-21T11:58:15Z</time><name>PT2280</name></trkpt>
<trkpt lat="53.246333" lon="-2.039889"><ele>390</ele><time>2020-10-21T11:58:20Z</time><name>PT2281</name></trkpt>
<trkpt lat="53.246323" lon="-2.039915"><ele>388</ele><time>2020-10-21T11:58:30Z</time><name>PT2282</name></trkpt>
<trkpt lat="53.246313" lon="-2.039921"><ele>388</ele><time>2020-10-21T11:59:01Z</time><name>PT2283</name></trkpt>
<trkpt lat="53.246305" lon="-2.039928"><ele>388</ele><time>2020-10-21T11:59:05Z</time><name>PT2284</name></trkpt>
<trkpt lat="53.246296" lon="-2.039936"><ele>389</ele><time>2020-10-21T11:59:08Z</time><name>PT2285</name></trkpt>
<trkpt lat="53.246282" lon="-2.039963"><ele>389</ele><time>2020-10-21T11:59:11Z</time><name>PT2286</name></trkpt>
<trkpt lat="53.246296" lon="-2.039953"><ele>388</ele><time>2020-10-21T11:59:44Z</time><name>PT2287</name></trkpt>
<trkpt lat="53.246298" lon="-2.039946"><ele>388</ele><time>2020-10-21T11:59:47Z</time><name>PT2288</name></trkpt>
<trkpt lat="53.246294" lon="-2.039955"><ele>389</ele><time>2020-10-21T11:59:56Z</time><name>PT2289</name></trkpt>
<trkpt lat="53.246293" lon="-2.039954"><ele>389</ele><time>2020-10-21T11:59:59Z</time><name>PT2290</name></trkpt>
<trkpt lat="53.246279" lon="-2.039950"><ele>389</ele><time>2020-10-21T12:00:20Z</time><name>PT2291</name></trkpt>
<trkpt lat="53.246253" lon="-2.039945"><ele>389</ele><time>2020-10-21T12:00:23Z</time><name>PT2292</name></trkpt>
<trkpt lat="53.246195" lon="-2.039941"><ele>389</ele><time>2020-10-21T12:00:26Z</time><name>PT2293</name></trkpt>
<trkpt lat="53.246165" lon="-2.039945"><ele>389</ele><time>2020-10-21T12:00:29Z</time><name>PT2294</name></trkpt>
<trkpt lat="53.246183" lon="-2.039934"><ele>391</ele><time>2020-10-21T12:00:32Z</time><name>PT2295</name></trkpt>
<trkpt lat="53.246189" lon="-2.039931"><ele>391</ele><time>2020-10-21T12:00:35Z</time><name>PT2296</name></trkpt>
<trkpt lat="53.246205" lon="-2.039889"><ele>395</ele><time>2020-10-21T12:01:11Z</time><name>PT2297</name></trkpt>
<trkpt lat="53.246218" lon="-2.039886"><ele>398</ele><time>2020-10-21T12:01:17Z</time><name>PT2298</name></trkpt>
<trkpt lat="53.246234" lon="-2.039858"><ele>398</ele><time>2020-10-21T12:01:44Z</time><name>PT2299</name></trkpt>
<trkpt lat="53.246238" lon="-2.039874"><ele>399</ele><time>2020-10-21T12:01:48Z</time><name>PT2300</name></trkpt>
<trkpt lat="53.246252" lon="-2.039901"><ele>399</ele><time>2020-10-21T12:01:51Z</time><name>PT2301</name></trkpt>
<trkpt lat="53.246252" lon="-2.039921"><ele>400</ele><time>2020-10-21T12:01:56Z</time><name>PT2302</name></trkpt>
<trkpt lat="53.246252" lon="-2.039926"><ele>400</ele><time>2020-10-21T12:02:08Z</time><name>PT2303</name></trkpt>
<trkpt lat="53.246252" lon="-2.039934"><ele>400</ele><time>2020-10-21T12:02:12Z</time><name>PT2304</name></trkpt>
<trkpt lat="53.246260" lon="-2.039925"><ele>400</ele><time>2020-10-21T12:02:15Z</time><name>PT2305</name></trkpt>
<trkpt lat="53.246277" lon="-2.039924"><ele>400</ele><time>2020-10-21T12:02:26Z</time><name>PT2306</name></trkpt>
<trkpt lat="53.246272" lon="-2.039919"><ele>400</ele><time>2020-10-21T12:02:29Z</time><name>PT2307</name></trkpt>
<trkpt lat="53.246276" lon="-2.039935"><ele>400</ele><time>2020-10-21T12:02:32Z</time><name>PT2308</name></trkpt>
<trkpt lat="53.246279" lon="-2.039935"><ele>399</ele><time>2020-10-21T12:03:05Z</time><name>PT2309</name></trkpt>
<trkpt lat="53.246275" lon="-2.039926"><ele>400</ele><time>2020-10-21T12:04:27Z</time><name>PT2310</name></trkpt>
<trkpt lat="53.246285" lon="-2.039931"><ele>399</ele><time>2020-10-21T12:04:49Z</time><name>PT2311</name></trkpt>
<trkpt lat="53.246285" lon="-2.039962"><ele>399</ele><time>2020-10-21T12:05:02Z</time><name>PT2312</name></trkpt>
<trkpt lat="53.246285" lon="-2.039953"><ele>400</ele><time>2020-10-21T12:05:11Z</time><name>PT2313</name></trkpt>
<trkpt lat="53.246269" lon="-2.039946"><ele>401</ele><time>2020-10-21T12:05:14Z</time><name>PT2314</name></trkpt>
<trkpt lat="53.246261" lon="-2.039951"><ele>401</ele><time>2020-10-21T12:05:17Z</time><name>PT2315</name></trkpt>
<trkpt lat="53.246245" lon="-2.039919"><ele>401</ele><time>2020-10-21T12:05:21Z</time><name>PT2316</name></trkpt>
<trkpt lat="53.246245" lon="-2.039929"><ele>402</ele><time>2020-10-21T12:05:26Z</time><name>PT2317</name></trkpt>
<trkpt lat="53.246258" lon="-2.039911"><ele>402</ele><time>2020-10-21T12:05:35Z</time><name>PT2318</name></trkpt>
<trkpt lat="53.246263" lon="-2.039905"><ele>402</ele><time>2020-10-21T12:05:39Z</time><name>PT2319</name></trkpt>
<trkpt lat="53.246257" lon="-2.039912"><ele>402</ele><time>2020-10-21T12:05:53Z</time><name>PT2320</name></trkpt>
<trkpt lat="53.246254" lon="-2.039913"><ele>402</ele><time>2020-10-21T12:05:56Z</time><name>PT2321</name></trkpt>
<trkpt lat="53.246238" lon="-2.039939"><ele>402</ele><time>2020-10-21T12:06:08Z</time><name>PT2322</name></trkpt>
<trkpt lat="53.246231" lon="-2.039950"><ele>403</ele><time>2020-10-21T12:06:12Z</time><name>PT2323</name></trkpt>
<trkpt lat="53.246241" lon="-2.039942"><ele>402</ele><time>2020-10-21T12:06:26Z</time><name>PT2324</name></trkpt>
<trkpt lat="53.246250" lon="-2.039955"><ele>401</ele><time>2020-10-21T12:06:29Z</time><name>PT2325</name></trkpt>
<trkpt lat="53.246251" lon="-2.039948"><ele>402</ele><time>2020-10-21T12:06:39Z</time><name>PT2326</name></trkpt>
<trkpt lat="53.246245" lon="-2.039953"><ele>402</ele><time>2020-10-21T12:06:44Z</time><name>PT2327</name></trkpt>
<trkpt lat="53.246235" lon="-2.039986"><ele>401</ele><time>2020-10-21T12:06:47Z</time><name>PT2328</name></trkpt>
<trkpt lat="53.246239" lon="-2.039993"><ele>403</ele><time>2020-10-21T12:06:50Z</time><name>PT2329</name></trkpt>
<trkpt lat="53.246263" lon="-2.039974"><ele>401</ele><time>2020-10-21T12:07:38Z</time><name>PT2330</name></trkpt>
<trkpt lat="53.246245" lon="-2.039980"><ele>401</ele><time>2020-10-21T12:07:41Z</time><name>PT2331</name></trkpt>
<trkpt lat="53.246247" lon="-2.039997"><ele>399</ele><time>2020-10-21T12:07:59Z</time><name>PT2332</name></trkpt>
<trkpt lat="53.246265" lon="-2.039974"><ele>397</ele><time>2020-10-21T12:08:02Z</time><name>PT2333</name></trkpt>
<trkpt lat="53.246250" lon="-2.039947"><ele>396</ele><time>2020-10-21T12:08:11Z</time><name>PT2334</name></trkpt>
<trkpt lat="53.246212" lon="-2.039904"><ele>395</ele><time>2020-10-21T12:08:14Z</time><name>PT2335</name></trkpt>
<trkpt lat="53.246208" lon="-2.039903"><ele>396</ele><time>2020-10-21T12:08:17Z</time><name>PT2336</name></trkpt>
<trkpt lat="53.246212" lon="-2.039900"><ele>396</ele><time>2020-10-21T12:08:20Z</time><name>PT2337</name></trkpt>
<trkpt lat="53.246201" lon="-2.039938"><ele>396</ele><time>2020-10-21T12:08:24Z</time><name>PT2338</name></trkpt>
<trkpt lat="53.246171" lon="-2.039993"><ele>396</ele><time>2020-10-21T12:08:28Z</time><name>PT2339</name></trkpt>
<trkpt lat="53.246124" lon="-2.040040"><ele>396</ele><time>2020-10-21T12:08:32Z</time><name>PT2340</name></trkpt>
<trkpt lat="53.246092" lon="-2.040086"><ele>397</ele><time>2020-10-21T12:08:35Z</time><name>PT2341</name></trkpt>
<trkpt lat="53.246048" lon="-2.040128"><ele>396</ele><time>2020-10-21T12:08:38Z</time><name>PT2342</name></trkpt>
<trkpt lat="53.246009" lon="-2.040162"><ele>396</ele><time>2020-10-21T12:08:42Z</time><name>PT2343</name></trkpt>
<trkpt lat="53.245976" lon="-2.040189"><ele>393</ele><time>2020-10-21T12:08:47Z</time><name>PT2344</name></trkpt>
<trkpt lat="53.245942" lon="-2.040212"><ele>393</ele><time>2020-10-21T12:08:50Z</time><name>PT2345</name></trkpt>
<trkpt lat="53.245915" lon="-2.040228"><ele>393</ele><time>2020-10-21T12:08:53Z</time><name>PT2346</name></trkpt>
<trkpt lat="53.245886" lon="-2.040254"><ele>393</ele><time>2020-10-21T12:08:56Z</time><name>PT2347</name></trkpt>
<trkpt lat="53.245851" lon="-2.040285"><ele>392</ele><time>2020-10-21T12:09:00Z</time><name>PT2348</name></trkpt>
<trkpt lat="53.245836" lon="-2.040325"><ele>391</ele><time>2020-10-21T12:09:03Z</time><name>PT2349</name></trkpt>
<trkpt lat="53.245844" lon="-2.040396"><ele>391</ele><time>2020-10-21T12:09:08Z</time><name>PT2350</name></trkpt>
<trkpt lat="53.245867" lon="-2.040458"><ele>392</ele><time>2020-10-21T12:09:11Z</time><name>PT2351</name></trkpt>
<trkpt lat="53.245878" lon="-2.040487"><ele>392</ele><time>2020-10-21T12:09:14Z</time><name>PT2352</name></trkpt>
<trkpt lat="53.245893" lon="-2.040556"><ele>392</ele><time>2020-10-21T12:09:19Z</time><name>PT2353</name></trkpt>
<trkpt lat="53.245916" lon="-2.040598"><ele>393</ele><time>2020-10-21T12:09:22Z</time><name>PT2354</name></trkpt>
<trkpt lat="53.245937" lon="-2.040646"><ele>393</ele><time>2020-10-21T12:09:25Z</time><name>PT2355</name></trkpt>
<trkpt lat="53.245961" lon="-2.040714"><ele>397</ele><time>2020-10-21T12:09:28Z</time><name>PT2356</name></trkpt>
<trkpt lat="53.245973" lon="-2.040722"><ele>400</ele><time>2020-10-21T12:09:32Z</time><name>PT2357</name></trkpt>
<trkpt lat="53.245974" lon="-2.040727"><ele>400</ele><time>2020-10-21T12:09:39Z</time><name>PT2358</name></trkpt>
<trkpt lat="53.245972" lon="-2.040725"><ele>400</ele><time>2020-10-21T12:09:42Z</time><name>PT2359</name></trkpt>
<trkpt lat="53.245990" lon="-2.040764"><ele>400</ele><time>2020-10-21T12:09:53Z</time><name>PT2360</name></trkpt>
<trkpt lat="53.246017" lon="-2.040809"><ele>400</ele><time>2020-10-21T12:09:56Z</time><name>PT2361</name></trkpt>
<trkpt lat="53.246053" lon="-2.040854"><ele>398</ele><time>2020-10-21T12:09:59Z</time><name>PT2362</name></trkpt>
<trkpt lat="53.246087" lon="-2.040887"><ele>399</ele><time>2020-10-21T12:10:02Z</time><name>PT2363</name></trkpt>
<trkpt lat="53.246146" lon="-2.040917"><ele>401</ele><time>2020-10-21T12:10:06Z</time><name>PT2364</name></trkpt>
<trkpt lat="53.246194" lon="-2.040947"><ele>401</ele><time>2020-10-21T12:10:11Z</time><name>PT2365</name></trkpt>
<trkpt lat="53.246236" lon="-2.040979"><ele>402</ele><time>2020-10-21T12:10:14Z</time><name>PT2366</name></trkpt>
<trkpt lat="53.246273" lon="-2.040996"><ele>403</ele><time>2020-10-21T12:10:17Z</time><name>PT2367</name></trkpt>
<trkpt lat="53.246326" lon="-2.041033"><ele>403</ele><time>2020-10-21T12:10:20Z</time><name>PT2368</name></trkpt>
<trkpt lat="53.246357" lon="-2.041053"><ele>403</ele><time>2020-10-21T12:10:23Z</time><name>PT2369</name></trkpt>
<trkpt lat="53.246398" lon="-2.041084"><ele>404</ele><time>2020-10-21T12:10:27Z</time><name>PT2370</name></trkpt>
<trkpt lat="53.246426" lon="-2.041116"><ele>404</ele><time>2020-10-21T12:10:30Z</time><name>PT2371</name></trkpt>
<trkpt lat="53.246452" lon="-2.041153"><ele>405</ele><time>2020-10-21T12:10:33Z</time><name>PT2372</name></trkpt>
<trkpt lat="53.246474" lon="-2.041197"><ele>405</ele><time>2020-10-21T12:10:38Z</time><name>PT2373</name></trkpt>
<trkpt lat="53.246495" lon="-2.041245"><ele>406</ele><time>2020-10-21T12:10:41Z</time><name>PT2374</name></trkpt>
<trkpt lat="53.246511" lon="-2.041260"><ele>405</ele><time>2020-10-21T12:10:45Z</time><name>PT2375</name></trkpt>
<trkpt lat="53.246522" lon="-2.041291"><ele>405</ele><time>2020-10-21T12:10:48Z</time><name>PT2376</name></trkpt>
<trkpt lat="53.246544" lon="-2.041335"><ele>406</ele><time>2020-10-21T12:10:53Z</time><name>PT2377</name></trkpt>
<trkpt lat="53.246567" lon="-2.041374"><ele>404</ele><time>2020-10-21T12:10:56Z</time><name>PT2378</name></trkpt>
<trkpt lat="53.246591" lon="-2.041426"><ele>406</ele><time>2020-10-21T12:11:00Z</time><name>PT2379</name></trkpt>
<trkpt lat="53.246616" lon="-2.041459"><ele>407</ele><time>2020-10-21T12:11:03Z</time><name>PT2380</name></trkpt>
<trkpt lat="53.246633" lon="-2.041492"><ele>407</ele><time>2020-10-21T12:11:06Z</time><name>PT2381</name></trkpt>
<trkpt lat="53.246652" lon="-2.041543"><ele>407</ele><time>2020-10-21T12:11:11Z</time><name>PT2382</name></trkpt>
<trkpt lat="53.246672" lon="-2.041571"><ele>409</ele><time>2020-10-21T12:11:14Z</time><name>PT2383</name></trkpt>
<trkpt lat="53.246696" lon="-2.041617"><ele>410</ele><time>2020-10-21T12:11:17Z</time><name>PT2384</name></trkpt>
<trkpt lat="53.246715" lon="-2.041656"><ele>410</ele><time>2020-10-21T12:11:20Z</time><name>PT2385</name></trkpt>
<trkpt lat="53.246735" lon="-2.041706"><ele>412</ele><time>2020-10-21T12:11:23Z</time><name>PT2386</name></trkpt>
<trkpt lat="53.246749" lon="-2.041751"><ele>413</ele><time>2020-10-21T12:11:26Z</time><name>PT2387</name></trkpt>
<trkpt lat="53.246769" lon="-2.041818"><ele>414</ele><time>2020-10-21T12:11:29Z</time><name>PT2388</name></trkpt>
<trkpt lat="53.246789" lon="-2.041871"><ele>415</ele><time>2020-10-21T12:11:33Z</time><name>PT2389</name></trkpt>
<trkpt lat="53.246804" lon="-2.041916"><ele>416</ele><time>2020-10-21T12:11:36Z</time><name>PT2390</name></trkpt>
<trkpt lat="53.246819" lon="-2.041973"><ele>417</ele><time>2020-10-21T12:11:41Z</time><name>PT2391</name></trkpt>
<trkpt lat="53.246839" lon="-2.042031"><ele>417</ele><time>2020-10-21T12:11:44Z</time><name>PT2392</name></trkpt>
<trkpt lat="53.246856" lon="-2.042072"><ele>418</ele><time>2020-10-21T12:11:47Z</time><name>PT2393</name></trkpt>
<trkpt lat="53.246866" lon="-2.042113"><ele>418</ele><time>2020-10-21T12:11:50Z</time><name>PT2394</name></trkpt>
<trkpt lat="53.246880" lon="-2.042146"><ele>418</ele><time>2020-10-21T12:11:53Z</time><name>PT2395</name></trkpt>
<trkpt lat="53.246898" lon="-2.042206"><ele>419</ele><time>2020-10-21T12:11:57Z</time><name>PT2396</name></trkpt>
<trkpt lat="53.246918" lon="-2.042270"><ele>419</ele><time>2020-10-21T12:12:02Z</time><name>PT2397</name></trkpt>
<trkpt lat="53.246934" lon="-2.042324"><ele>420</ele><time>2020-10-21T12:12:05Z</time><name>PT2398</name></trkpt>
<trkpt lat="53.246945" lon="-2.042365"><ele>420</ele><time>2020-10-21T12:12:08Z</time><name>PT2399</name></trkpt>
<trkpt lat="53.246963" lon="-2.042418"><ele>420</ele><time>2020-10-21T12:12:12Z</time><name>PT2400</name></trkpt>
<trkpt lat="53.246981" lon="-2.042466"><ele>420</ele><time>2020-10-21T12:12:17Z</time><name>PT2401</name></trkpt>
<trkpt lat="53.246997" lon="-2.042522"><ele>421</ele><time>2020-10-21T12:12:20Z</time><name>PT2402</name></trkpt>
<trkpt lat="53.247010" lon="-2.042552"><ele>421</ele><time>2020-10-21T12:12:23Z</time><name>PT2403</name></trkpt>
<trkpt lat="53.247027" lon="-2.042612"><ele>422</ele><time>2020-10-21T12:12:27Z</time><name>PT2404</name></trkpt>
<trkpt lat="53.247045" lon="-2.042661"><ele>422</ele><time>2020-10-21T12:12:32Z</time><name>PT2405</name></trkpt>
<trkpt lat="53.247060" lon="-2.042711"><ele>422</ele><time>2020-10-21T12:12:35Z</time><name>PT2406</name></trkpt>
<trkpt lat="53.247071" lon="-2.042750"><ele>422</ele><time>2020-10-21T12:12:38Z</time><name>PT2407</name></trkpt>
<trkpt lat="53.247082" lon="-2.042785"><ele>421</ele><time>2020-10-21T12:12:41Z</time><name>PT2408</name></trkpt>
<trkpt lat="53.247098" lon="-2.042836"><ele>421</ele><time>2020-10-21T12:12:45Z</time><name>PT2409</name></trkpt>
<trkpt lat="53.247108" lon="-2.042879"><ele>421</ele><time>2020-10-21T12:12:50Z</time><name>PT2410</name></trkpt>
<trkpt lat="53.247122" lon="-2.042920"><ele>421</ele><time>2020-10-21T12:12:53Z</time><name>PT2411</name></trkpt>
<trkpt lat="53.247134" lon="-2.042972"><ele>421</ele><time>2020-10-21T12:12:56Z</time><name>PT2412</name></trkpt>
<trkpt lat="53.247155" lon="-2.043027"><ele>422</ele><time>2020-10-21T12:13:00Z</time><name>PT2413</name></trkpt>
<trkpt lat="53.247168" lon="-2.043078"><ele>423</ele><time>2020-10-21T12:13:03Z</time><name>PT2414</name></trkpt>
<trkpt lat="53.247187" lon="-2.043131"><ele>423</ele><time>2020-10-21T12:13:08Z</time><name>PT2415</name></trkpt>
<trkpt lat="53.247199" lon="-2.043174"><ele>424</ele><time>2020-10-21T12:13:11Z</time><name>PT2416</name></trkpt>
<trkpt lat="53.247214" lon="-2.043216"><ele>425</ele><time>2020-10-21T12:13:14Z</time><name>PT2417</name></trkpt>
<trkpt lat="53.247226" lon="-2.043257"><ele>425</ele><time>2020-10-21T12:13:17Z</time><name>PT2418</name></trkpt>
<trkpt lat="53.247245" lon="-2.043311"><ele>425</ele><time>2020-10-21T12:13:20Z</time><name>PT2419</name></trkpt>
<trkpt lat="53.247268" lon="-2.043370"><ele>426</ele><time>2020-10-21T12:13:24Z</time><name>PT2420</name></trkpt>
<trkpt lat="53.247283" lon="-2.043421"><ele>426</ele><time>2020-10-21T12:13:27Z</time><name>PT2421</name></trkpt>
<trkpt lat="53.247293" lon="-2.043460"><ele>426</ele><time>2020-10-21T12:13:31Z</time><name>PT2422</name></trkpt>
<trkpt lat="53.247316" lon="-2.043520"><ele>426</ele><time>2020-10-21T12:13:35Z</time><name>PT2423</name></trkpt>
<trkpt lat="53.247332" lon="-2.043571"><ele>427</ele><time>2020-10-21T12:13:38Z</time><name>PT2424</name></trkpt>
<trkpt lat="53.247347" lon="-2.043623"><ele>427</ele><time>2020-10-21T12:13:41Z</time><name>PT2425</name></trkpt>
<trkpt lat="53.247366" lon="-2.043667"><ele>427</ele><time>2020-10-21T12:13:44Z</time><name>PT2426</name></trkpt>
<trkpt lat="53.247386" lon="-2.043734"><ele>427</ele><time>2020-10-21T12:13:47Z</time><name>PT2427</name></trkpt>
<trkpt lat="53.247401" lon="-2.043784"><ele>427</ele><time>2020-10-21T12:13:50Z</time><name>PT2428</name></trkpt>
<trkpt lat="53.247422" lon="-2.043838"><ele>428</ele><time>2020-10-21T12:13:54Z</time><name>PT2429</name></trkpt>
<trkpt lat="53.247437" lon="-2.043887"><ele>429</ele><time>2020-10-21T12:13:57Z</time><name>PT2430</name></trkpt>
<trkpt lat="53.247440" lon="-2.043931"><ele>430</ele><time>2020-10-21T12:14:00Z</time><name>PT2431</name></trkpt>
<trkpt lat="53.247445" lon="-2.043986"><ele>430</ele><time>2020-10-21T12:14:03Z</time><name>PT2432</name></trkpt>
<trkpt lat="53.247441" lon="-2.044038"><ele>429</ele><time>2020-10-21T12:14:06Z</time><name>PT2433</name></trkpt>
<trkpt lat="53.247438" lon="-2.044114"><ele>429</ele><time>2020-10-21T12:14:11Z</time><name>PT2434</name></trkpt>
<trkpt lat="53.247451" lon="-2.044185"><ele>430</ele><time>2020-10-21T12:14:14Z</time><name>PT2435</name></trkpt>
<trkpt lat="53.247462" lon="-2.044256"><ele>430</ele><time>2020-10-21T12:14:18Z</time><name>PT2436</name></trkpt>
<trkpt lat="53.247466" lon="-2.044288"><ele>429</ele><time>2020-10-21T12:14:21Z</time><name>PT2437</name></trkpt>
<trkpt lat="53.247478" lon="-2.044318"><ele>429</ele><time>2020-10-21T12:14:26Z</time><name>PT2438</name></trkpt>
<trkpt lat="53.247468" lon="-2.044376"><ele>428</ele><time>2020-10-21T12:14:29Z</time><name>PT2439</name></trkpt>
<trkpt lat="53.247471" lon="-2.044427"><ele>429</ele><time>2020-10-21T12:14:32Z</time><name>PT2440</name></trkpt>
<trkpt lat="53.247479" lon="-2.044467"><ele>432</ele><time>2020-10-21T12:14:36Z</time><name>PT2441</name></trkpt>
<trkpt lat="53.247484" lon="-2.044506"><ele>433</ele><time>2020-10-21T12:14:40Z</time><name>PT2442</name></trkpt>
<trkpt lat="53.247496" lon="-2.044563"><ele>435</ele><time>2020-10-21T12:14:44Z</time><name>PT2443</name></trkpt>
<trkpt lat="53.247512" lon="-2.044598"><ele>436</ele><time>2020-10-21T12:14:47Z</time><name>PT2444</name></trkpt>
<trkpt lat="53.247517" lon="-2.044648"><ele>435</ele><time>2020-10-21T12:14:50Z</time><name>PT2445</name></trkpt>
<trkpt lat="53.247515" lon="-2.044698"><ele>434</ele><time>2020-10-21T12:14:53Z</time><name>PT2446</name></trkpt>
<trkpt lat="53.247523" lon="-2.044765"><ele>435</ele><time>2020-10-21T12:14:56Z</time><name>PT2447</name></trkpt>
<trkpt lat="53.247544" lon="-2.044821"><ele>436</ele><time>2020-10-21T12:15:00Z</time><name>PT2448</name></trkpt>
<trkpt lat="53.247540" lon="-2.044876"><ele>435</ele><time>2020-10-21T12:15:04Z</time><name>PT2449</name></trkpt>
<trkpt lat="53.247547" lon="-2.044957"><ele>434</ele><time>2020-10-21T12:15:08Z</time><name>PT2450</name></trkpt>
<trkpt lat="53.247561" lon="-2.045037"><ele>432</ele><time>2020-10-21T12:15:11Z</time><name>PT2451</name></trkpt>
<trkpt lat="53.247566" lon="-2.045107"><ele>432</ele><time>2020-10-21T12:15:14Z</time><name>PT2452</name></trkpt>
<trkpt lat="53.247581" lon="-2.045159"><ele>432</ele><time>2020-10-21T12:15:17Z</time><name>PT2453</name></trkpt>
<trkpt lat="53.247599" lon="-2.045230"><ele>431</ele><time>2020-10-21T12:15:21Z</time><name>PT2454</name></trkpt>
<trkpt lat="53.247607" lon="-2.045267"><ele>432</ele><time>2020-10-21T12:15:24Z</time><name>PT2455</name></trkpt>
<trkpt lat="53.247618" lon="-2.045316"><ele>429</ele><time>2020-10-21T12:15:29Z</time><name>PT2456</name></trkpt>
<trkpt lat="53.247629" lon="-2.045364"><ele>430</ele><time>2020-10-21T12:15:32Z</time><name>PT2457</name></trkpt>
<trkpt lat="53.247655" lon="-2.045418"><ele>428</ele><time>2020-10-21T12:15:36Z</time><name>PT2458</name></trkpt>
<trkpt lat="53.247679" lon="-2.045480"><ele>427</ele><time>2020-10-21T12:15:41Z</time><name>PT2459</name></trkpt>
<trkpt lat="53.247705" lon="-2.045531"><ele>428</ele><time>2020-10-21T12:15:44Z</time><name>PT2460</name></trkpt>
<trkpt lat="53.247717" lon="-2.045606"><ele>427</ele><time>2020-10-21T12:15:48Z</time><name>PT2461</name></trkpt>
<trkpt lat="53.247722" lon="-2.045686"><ele>426</ele><time>2020-10-21T12:15:53Z</time><name>PT2462</name></trkpt>
<trkpt lat="53.247761" lon="-2.045763"><ele>426</ele><time>2020-10-21T12:15:56Z</time><name>PT2463</name></trkpt>
<trkpt lat="53.247791" lon="-2.045823"><ele>429</ele><time>2020-10-21T12:15:59Z</time><name>PT2464</name></trkpt>
<trkpt lat="53.247822" lon="-2.045878"><ele>433</ele><time>2020-10-21T12:16:03Z</time><name>PT2465</name></trkpt>
<trkpt lat="53.247841" lon="-2.045927"><ele>435</ele><time>2020-10-21T12:16:08Z</time><name>PT2466</name></trkpt>
<trkpt lat="53.247861" lon="-2.045970"><ele>436</ele><time>2020-10-21T12:16:11Z</time><name>PT2467</name></trkpt>
<trkpt lat="53.247877" lon="-2.046019"><ele>436</ele><time>2020-10-21T12:16:14Z</time><name>PT2468</name></trkpt>
<trkpt lat="53.247887" lon="-2.046083"><ele>436</ele><time>2020-10-21T12:16:17Z</time><name>PT2469</name></trkpt>
<trkpt lat="53.247897" lon="-2.046131"><ele>437</ele><time>2020-10-21T12:16:20Z</time><name>PT2470</name></trkpt>
<trkpt lat="53.247923" lon="-2.046186"><ele>440</ele><time>2020-10-21T12:16:24Z</time><name>PT2471</name></trkpt>
<trkpt lat="53.247946" lon="-2.046231"><ele>442</ele><time>2020-10-21T12:16:27Z</time><name>PT2472</name></trkpt>
<trkpt lat="53.247964" lon="-2.046272"><ele>445</ele><time>2020-10-21T12:16:30Z</time><name>PT2473</name></trkpt>
<trkpt lat="53.247981" lon="-2.046337"><ele>446</ele><time>2020-10-21T12:16:35Z</time><name>PT2474</name></trkpt>
<trkpt lat="53.247985" lon="-2.046405"><ele>443</ele><time>2020-10-21T12:16:38Z</time><name>PT2475</name></trkpt>
<trkpt lat="53.247992" lon="-2.046445"><ele>440</ele><time>2020-10-21T12:16:41Z</time><name>PT2476</name></trkpt>
<trkpt lat="53.247998" lon="-2.046494"><ele>438</ele><time>2020-10-21T12:16:44Z</time><name>PT2477</name></trkpt>
<trkpt lat="53.248007" lon="-2.046543"><ele>436</ele><time>2020-10-21T12:16:48Z</time><name>PT2478</name></trkpt>
<trkpt lat="53.248020" lon="-2.046607"><ele>434</ele><time>2020-10-21T12:16:51Z</time><name>PT2479</name></trkpt>
<trkpt lat="53.248035" lon="-2.046672"><ele>436</ele><time>2020-10-21T12:16:56Z</time><name>PT2480</name></trkpt>
<trkpt lat="53.248050" lon="-2.046717"><ele>438</ele><time>2020-10-21T12:16:59Z</time><name>PT2481</name></trkpt>
<trkpt lat="53.248060" lon="-2.046803"><ele>439</ele><time>2020-10-21T12:17:03Z</time><name>PT2482</name></trkpt>
<trkpt lat="53.248071" lon="-2.046870"><ele>439</ele><time>2020-10-21T12:17:06Z</time><name>PT2483</name></trkpt>
<trkpt lat="53.248084" lon="-2.046958"><ele>438</ele><time>2020-10-21T12:17:11Z</time><name>PT2484</name></trkpt>
<trkpt lat="53.248093" lon="-2.047019"><ele>438</ele><time>2020-10-21T12:17:14Z</time><name>PT2485</name></trkpt>
<trkpt lat="53.248102" lon="-2.047083"><ele>438</ele><time>2020-10-21T12:17:17Z</time><name>PT2486</name></trkpt>
<trkpt lat="53.248120" lon="-2.047165"><ele>438</ele><time>2020-10-21T12:17:20Z</time><name>PT2487</name></trkpt>
<trkpt lat="53.248136" lon="-2.047226"><ele>438</ele><time>2020-10-21T12:17:23Z</time><name>PT2488</name></trkpt>
<trkpt lat="53.248149" lon="-2.047278"><ele>438</ele><time>2020-10-21T12:17:26Z</time><name>PT2489</name></trkpt>
<trkpt lat="53.248166" lon="-2.047368"><ele>439</ele><time>2020-10-21T12:17:30Z</time><name>PT2490</name></trkpt>
<trkpt lat="53.248175" lon="-2.047422"><ele>438</ele><time>2020-10-21T12:17:33Z</time><name>PT2491</name></trkpt>
<trkpt lat="53.248189" lon="-2.047494"><ele>437</ele><time>2020-10-21T12:17:38Z</time><name>PT2492</name></trkpt>
<trkpt lat="53.248200" lon="-2.047544"><ele>437</ele><time>2020-10-21T12:17:41Z</time><name>PT2493</name></trkpt>
<trkpt lat="53.248215" lon="-2.047594"><ele>435</ele><time>2020-10-21T12:17:44Z</time><name>PT2494</name></trkpt>
<trkpt lat="53.248235" lon="-2.047656"><ele>435</ele><time>2020-10-21T12:17:47Z</time><name>PT2495</name></trkpt>
<trkpt lat="53.248250" lon="-2.047695"><ele>434</ele><time>2020-10-21T12:17:50Z</time><name>PT2496</name></trkpt>
<trkpt lat="53.248272" lon="-2.047715"><ele>433</ele><time>2020-10-21T12:17:54Z</time><name>PT2497</name></trkpt>
<trkpt lat="53.248291" lon="-2.047776"><ele>432</ele><time>2020-10-21T12:17:59Z</time><name>PT2498</name></trkpt>
<trkpt lat="53.248306" lon="-2.047823"><ele>432</ele><time>2020-10-21T12:18:02Z</time><name>PT2499</name></trkpt>
<trkpt lat="53.248331" lon="-2.047900"><ele>434</ele><time>2020-10-21T12:18:05Z</time><name>PT2500</name></trkpt>
<trkpt lat="53.248345" lon="-2.047960"><ele>434</ele><time>2020-10-21T12:18:08Z</time><name>PT2501</name></trkpt>
<trkpt lat="53.248369" lon="-2.048042"><ele>437</ele><time>2020-10-21T12:18:12Z</time><name>PT2502</name></trkpt>
<trkpt lat="53.248379" lon="-2.048086"><ele>436</ele><time>2020-10-21T12:18:15Z</time><name>PT2503</name></trkpt>
<trkpt lat="53.248381" lon="-2.048111"><ele>437</ele><time>2020-10-21T12:18:18Z</time><name>PT2504</name></trkpt>
<trkpt lat="53.248409" lon="-2.048163"><ele>438</ele><time>2020-10-21T12:18:23Z</time><name>PT2505</name></trkpt>
<trkpt lat="53.248429" lon="-2.048215"><ele>439</ele><time>2020-10-21T12:18:26Z</time><name>PT2506</name></trkpt>
<trkpt lat="53.248450" lon="-2.048251"><ele>439</ele><time>2020-10-21T12:18:30Z</time><name>PT2507</name></trkpt>
<trkpt lat="53.248470" lon="-2.048298"><ele>439</ele><time>2020-10-21T12:18:35Z</time><name>PT2508</name></trkpt>
<trkpt lat="53.248500" lon="-2.048392"><ele>442</ele><time>2020-10-21T12:18:38Z</time><name>PT2509</name></trkpt>
<trkpt lat="53.248528" lon="-2.048467"><ele>442</ele><time>2020-10-21T12:18:42Z</time><name>PT2510</name></trkpt>
<trkpt lat="53.248555" lon="-2.048518"><ele>441</ele><time>2020-10-21T12:18:45Z</time><name>PT2511</name></trkpt>
<trkpt lat="53.248581" lon="-2.048575"><ele>439</ele><time>2020-10-21T12:18:50Z</time><name>PT2512</name></trkpt>
<trkpt lat="53.248590" lon="-2.048641"><ele>435</ele><time>2020-10-21T12:18:53Z</time><name>PT2513</name></trkpt>
<trkpt lat="53.248607" lon="-2.048689"><ele>434</ele><time>2020-10-21T12:18:56Z</time><name>PT2514</name></trkpt>
<trkpt lat="53.248634" lon="-2.048758"><ele>435</ele><time>2020-10-21T12:19:00Z</time><name>PT2515</name></trkpt>
<trkpt lat="53.248649" lon="-2.048798"><ele>433</ele><time>2020-10-21T12:19:03Z</time><name>PT2516</name></trkpt>
<trkpt lat="53.248656" lon="-2.048836"><ele>433</ele><time>2020-10-21T12:19:06Z</time><name>PT2517</name></trkpt>
<trkpt lat="53.248678" lon="-2.048906"><ele>432</ele><time>2020-10-21T12:19:11Z</time><name>PT2518</name></trkpt>
<trkpt lat="53.248693" lon="-2.048955"><ele>434</ele><time>2020-10-21T12:19:14Z</time><name>PT2519</name></trkpt>
<trkpt lat="53.248717" lon="-2.049012"><ele>431</ele><time>2020-10-21T12:19:18Z</time><name>PT2520</name></trkpt>
<trkpt lat="53.248741" lon="-2.049073"><ele>428</ele><time>2020-10-21T12:19:23Z</time><name>PT2521</name></trkpt>
<trkpt lat="53.248751" lon="-2.049130"><ele>427</ele><time>2020-10-21T12:19:26Z</time><name>PT2522</name></trkpt>
<trkpt lat="53.248762" lon="-2.049154"><ele>426</ele><time>2020-10-21T12:19:29Z</time><name>PT2523</name></trkpt>
<trkpt lat="53.248780" lon="-2.049189"><ele>424</ele><time>2020-10-21T12:19:32Z</time><name>PT2524</name></trkpt>
<trkpt lat="53.248811" lon="-2.049255"><ele>426</ele><time>2020-10-21T12:19:36Z</time><name>PT2525</name></trkpt>
<trkpt lat="53.248818" lon="-2.049360"><ele>426</ele><time>2020-10-21T12:19:41Z</time><name>PT2526</name></trkpt>
<trkpt lat="53.248827" lon="-2.049415"><ele>424</ele><time>2020-10-21T12:19:44Z</time><name>PT2527</name></trkpt>
<trkpt lat="53.248839" lon="-2.049471"><ele>424</ele><time>2020-10-21T12:19:48Z</time><name>PT2528</name></trkpt>
<trkpt lat="53.248885" lon="-2.049542"><ele>425</ele><time>2020-10-21T12:19:53Z</time><name>PT2529</name></trkpt>
<trkpt lat="53.248920" lon="-2.049605"><ele>428</ele><time>2020-10-21T12:19:56Z</time><name>PT2530</name></trkpt>
<trkpt lat="53.248939" lon="-2.049682"><ele>429</ele><time>2020-10-21T12:19:59Z</time><name>PT2531</name></trkpt>
<trkpt lat="53.248957" lon="-2.049746"><ele>423</ele><time>2020-10-21T12:20:03Z</time><name>PT2532</name></trkpt>
<trkpt lat="53.248981" lon="-2.049804"><ele>424</ele><time>2020-10-21T12:20:06Z</time><name>PT2533</name></trkpt>
<trkpt lat="53.248999" lon="-2.049870"><ele>424</ele><time>2020-10-21T12:20:11Z</time><name>PT2534</name></trkpt>
<trkpt lat="53.249044" lon="-2.049933"><ele>422</ele><time>2020-10-21T12:20:14Z</time><name>PT2535</name></trkpt>
<trkpt lat="53.249067" lon="-2.049977"><ele>417</ele><time>2020-10-21T12:20:17Z</time><name>PT2536</name></trkpt>
<trkpt lat="53.249084" lon="-2.050067"><ele>421</ele><time>2020-10-21T12:20:21Z</time><name>PT2537</name></trkpt>
<trkpt lat="53.249105" lon="-2.050147"><ele>427</ele><time>2020-10-21T12:20:26Z</time><name>PT2538</name></trkpt>
<trkpt lat="53.249135" lon="-2.050218"><ele>424</ele><time>2020-10-21T12:20:29Z</time><name>PT2539</name></trkpt>
<trkpt lat="53.249155" lon="-2.050277"><ele>422</ele><time>2020-10-21T12:20:32Z</time><name>PT2540</name></trkpt>
<trkpt lat="53.249184" lon="-2.050357"><ele>427</ele><time>2020-10-21T12:20:36Z</time><name>PT2541</name></trkpt>
<trkpt lat="53.249202" lon="-2.050388"><ele>429</ele><time>2020-10-21T12:20:39Z</time><name>PT2542</name></trkpt>
<trkpt lat="53.249220" lon="-2.050429"><ele>432</ele><time>2020-10-21T12:20:44Z</time><name>PT2543</name></trkpt>
<trkpt lat="53.249234" lon="-2.050483"><ele>430</ele><time>2020-10-21T12:20:47Z</time><name>PT2544</name></trkpt>
<trkpt lat="53.249236" lon="-2.050521"><ele>428</ele><time>2020-10-21T12:20:50Z</time><name>PT2545</name></trkpt>
<trkpt lat="53.249216" lon="-2.050598"><ele>433</ele><time>2020-10-21T12:20:53Z</time><name>PT2546</name></trkpt>
<trkpt lat="53.249204" lon="-2.050610"><ele>433</ele><time>2020-10-21T12:20:56Z</time><name>PT2547</name></trkpt>
<trkpt lat="53.249223" lon="-2.050635"><ele>432</ele><time>2020-10-21T12:21:24Z</time><name>PT2548</name></trkpt>
<trkpt lat="53.249246" lon="-2.050700"><ele>431</ele><time>2020-10-21T12:21:29Z</time><name>PT2549</name></trkpt>
<trkpt lat="53.249241" lon="-2.050713"><ele>431</ele><time>2020-10-21T12:21:32Z</time><name>PT2550</name></trkpt>
<trkpt lat="53.249245" lon="-2.050727"><ele>431</ele><time>2020-10-21T12:21:44Z</time><name>PT2551</name></trkpt>
<trkpt lat="53.249257" lon="-2.050752"><ele>431</ele><time>2020-10-21T12:21:47Z</time><name>PT2552</name></trkpt>
<trkpt lat="53.249220" lon="-2.050799"><ele>430</ele><time>2020-10-21T12:21:50Z</time><name>PT2553</name></trkpt>
<trkpt lat="53.249213" lon="-2.050750"><ele>429</ele><time>2020-10-21T12:21:56Z</time><name>PT2554</name></trkpt>
<trkpt lat="53.249220" lon="-2.050697"><ele>429</ele><time>2020-10-21T12:22:00Z</time><name>PT2555</name></trkpt>
<trkpt lat="53.249224" lon="-2.050722"><ele>428</ele><time>2020-10-21T12:22:03Z</time><name>PT2556</name></trkpt>
<trkpt lat="53.249233" lon="-2.050759"><ele>429</ele><time>2020-10-21T12:22:06Z</time><name>PT2557</name></trkpt>
<trkpt lat="53.249236" lon="-2.050809"><ele>431</ele><time>2020-10-21T12:22:11Z</time><name>PT2558</name></trkpt>
<trkpt lat="53.249245" lon="-2.050841"><ele>432</ele><time>2020-10-21T12:22:14Z</time><name>PT2559</name></trkpt>
<trkpt lat="53.249263" lon="-2.050876"><ele>432</ele><time>2020-10-21T12:22:17Z</time><name>PT2560</name></trkpt>
<trkpt lat="53.249278" lon="-2.050931"><ele>432</ele><time>2020-10-21T12:22:20Z</time><name>PT2561</name></trkpt>
<trkpt lat="53.249275" lon="-2.051013"><ele>432</ele><time>2020-10-21T12:22:23Z</time><name>PT2562</name></trkpt>
<trkpt lat="53.249295" lon="-2.051056"><ele>434</ele><time>2020-10-21T12:22:26Z</time><name>PT2563</name></trkpt>
<trkpt lat="53.249300" lon="-2.051100"><ele>434</ele><time>2020-10-21T12:22:29Z</time><name>PT2564</name></trkpt>
<trkpt lat="53.249301" lon="-2.051145"><ele>434</ele><time>2020-10-21T12:22:33Z</time><name>PT2565</name></trkpt>
<trkpt lat="53.249305" lon="-2.051188"><ele>434</ele><time>2020-10-21T12:22:38Z</time><name>PT2566</name></trkpt>
<trkpt lat="53.249306" lon="-2.051244"><ele>432</ele><time>2020-10-21T12:22:41Z</time><name>PT2567</name></trkpt>
<trkpt lat="53.249310" lon="-2.051273"><ele>432</ele><time>2020-10-21T12:22:45Z</time><name>PT2568</name></trkpt>
<trkpt lat="53.249311" lon="-2.051307"><ele>430</ele><time>2020-10-21T12:22:53Z</time><name>PT2569</name></trkpt>
<trkpt lat="53.249338" lon="-2.051383"><ele>431</ele><time>2020-10-21T12:22:56Z</time><name>PT2570</name></trkpt>
<trkpt lat="53.249344" lon="-2.051453"><ele>431</ele><time>2020-10-21T12:22:59Z</time><name>PT2571</name></trkpt>
<trkpt lat="53.249337" lon="-2.051502"><ele>430</ele><time>2020-10-21T12:23:03Z</time><name>PT2572</name></trkpt>
<trkpt lat="53.249344" lon="-2.051550"><ele>433</ele><time>2020-10-21T12:23:06Z</time><name>PT2573</name></trkpt>
<trkpt lat="53.249340" lon="-2.051599"><ele>432</ele><time>2020-10-21T12:23:09Z</time><name>PT2574</name></trkpt>
<trkpt lat="53.249323" lon="-2.051668"><ele>434</ele><time>2020-10-21T12:23:14Z</time><name>PT2575</name></trkpt>
<trkpt lat="53.249343" lon="-2.051728"><ele>436</ele><time>2020-10-21T12:23:17Z</time><name>PT2576</name></trkpt>
<trkpt lat="53.249351" lon="-2.051784"><ele>437</ele><time>2020-10-21T12:23:20Z</time><name>PT2577</name></trkpt>
<trkpt lat="53.249371" lon="-2.051827"><ele>437</ele><time>2020-10-21T12:23:23Z</time><name>PT2578</name></trkpt>
<trkpt lat="53.249378" lon="-2.051894"><ele>436</ele><time>2020-10-21T12:23:26Z</time><name>PT2579</name></trkpt>
<trkpt lat="53.249391" lon="-2.051948"><ele>431</ele><time>2020-10-21T12:23:29Z</time><name>PT2580</name></trkpt>
<trkpt lat="53.249381" lon="-2.051988"><ele>428</ele><time>2020-10-21T12:23:33Z</time><name>PT2581</name></trkpt>
<trkpt lat="53.249380" lon="-2.052057"><ele>425</ele><time>2020-10-21T12:23:38Z</time><name>PT2582</name></trkpt>
<trkpt lat="53.249378" lon="-2.052112"><ele>421</ele><time>2020-10-21T12:23:41Z</time><name>PT2583</name></trkpt>
<trkpt lat="53.249365" lon="-2.052154"><ele>421</ele><time>2020-10-21T12:23:44Z</time><name>PT2584</name></trkpt>
<trkpt lat="53.249361" lon="-2.052162"><ele>421</ele><time>2020-10-21T12:23:48Z</time><name>PT2585</name></trkpt>
<trkpt lat="53.249338" lon="-2.052239"><ele>420</ele><time>2020-10-21T12:24:05Z</time><name>PT2586</name></trkpt>
<trkpt lat="53.249330" lon="-2.052313"><ele>420</ele><time>2020-10-21T12:24:09Z</time><name>PT2587</name></trkpt>
<trkpt lat="53.249325" lon="-2.052364"><ele>422</ele><time>2020-10-21T12:24:33Z</time><name>PT2588</name></trkpt>
<trkpt lat="53.249304" lon="-2.052448"><ele>422</ele><time>2020-10-21T12:24:38Z</time><name>PT2589</name></trkpt>
<trkpt lat="53.249267" lon="-2.052497"><ele>419</ele><time>2020-10-21T12:24:41Z</time><name>PT2590</name></trkpt>
<trkpt lat="53.249257" lon="-2.052542"><ele>415</ele><time>2020-10-21T12:24:45Z</time><name>PT2591</name></trkpt>
<trkpt lat="53.249270" lon="-2.052574"><ele>412</ele><time>2020-10-21T12:24:48Z</time><name>PT2592</name></trkpt>
<trkpt lat="53.249298" lon="-2.052618"><ele>411</ele><time>2020-10-21T12:24:51Z</time><name>PT2593</name></trkpt>
<trkpt lat="53.249301" lon="-2.052669"><ele>411</ele><time>2020-10-21T12:24:56Z</time><name>PT2594</name></trkpt>
<trkpt lat="53.249311" lon="-2.052732"><ele>412</ele><time>2020-10-21T12:24:59Z</time><name>PT2595</name></trkpt>
<trkpt lat="53.249325" lon="-2.052764"><ele>412</ele><time>2020-10-21T12:25:02Z</time><name>PT2596</name></trkpt>
<trkpt lat="53.249331" lon="-2.052803"><ele>416</ele><time>2020-10-21T12:25:06Z</time><name>PT2597</name></trkpt>
<trkpt lat="53.249348" lon="-2.052847"><ele>417</ele><time>2020-10-21T12:25:11Z</time><name>PT2598</name></trkpt>
<trkpt lat="53.249365" lon="-2.052889"><ele>419</ele><time>2020-10-21T12:25:14Z</time><name>PT2599</name></trkpt>
<trkpt lat="53.249376" lon="-2.052923"><ele>421</ele><time>2020-10-21T12:25:17Z</time><name>PT2600</name></trkpt>
<trkpt lat="53.249390" lon="-2.052941"><ele>420</ele><time>2020-10-21T12:25:20Z</time><name>PT2601</name></trkpt>
<trkpt lat="53.249380" lon="-2.052967"><ele>419</ele><time>2020-10-21T12:25:24Z</time><name>PT2602</name></trkpt>
<trkpt lat="53.249398" lon="-2.053037"><ele>422</ele><time>2020-10-21T12:25:29Z</time><name>PT2603</name></trkpt>
<trkpt lat="53.249422" lon="-2.053089"><ele>421</ele><time>2020-10-21T12:25:32Z</time><name>PT2604</name></trkpt>
<trkpt lat="53.249451" lon="-2.053201"><ele>424</ele><time>2020-10-21T12:25:36Z</time><name>PT2605</name></trkpt>
<trkpt lat="53.249464" lon="-2.053261"><ele>426</ele><time>2020-10-21T12:25:39Z</time><name>PT2606</name></trkpt>
<trkpt lat="53.249457" lon="-2.053299"><ele>422</ele><time>2020-10-21T12:25:44Z</time><name>PT2607</name></trkpt>
<trkpt lat="53.249478" lon="-2.053343"><ele>420</ele><time>2020-10-21T12:25:47Z</time><name>PT2608</name></trkpt>
<trkpt lat="53.249490" lon="-2.053393"><ele>423</ele><time>2020-10-21T12:25:50Z</time><name>PT2609</name></trkpt>
<trkpt lat="53.249515" lon="-2.053476"><ele>427</ele><time>2020-10-21T12:25:54Z</time><name>PT2610</name></trkpt>
<trkpt lat="53.249528" lon="-2.053499"><ele>430</ele><time>2020-10-21T12:25:57Z</time><name>PT2611</name></trkpt>
<trkpt lat="53.249531" lon="-2.053504"><ele>430</ele><time>2020-10-21T12:26:00Z</time><name>PT2612</name></trkpt>
<trkpt lat="53.249549" lon="-2.053537"><ele>430</ele><time>2020-10-21T12:26:23Z</time><name>PT2613</name></trkpt>
<trkpt lat="53.249565" lon="-2.053588"><ele>431</ele><time>2020-10-21T12:26:26Z</time><name>PT2614</name></trkpt>
<trkpt lat="53.249575" lon="-2.053628"><ele>432</ele><time>2020-10-21T12:26:29Z</time><name>PT2615</name></trkpt>
<trkpt lat="53.249587" lon="-2.053665"><ele>431</ele><time>2020-10-21T12:26:35Z</time><name>PT2616</name></trkpt>
<trkpt lat="53.249588" lon="-2.053754"><ele>431</ele><time>2020-10-21T12:26:38Z</time><name>PT2617</name></trkpt>
<trkpt lat="53.249607" lon="-2.053837"><ele>430</ele><time>2020-10-21T12:26:41Z</time><name>PT2618</name></trkpt>
<trkpt lat="53.249625" lon="-2.053899"><ele>430</ele><time>2020-10-21T12:26:44Z</time><name>PT2619</name></trkpt>
<trkpt lat="53.249637" lon="-2.053975"><ele>430</ele><time>2020-10-21T12:26:48Z</time><name>PT2620</name></trkpt>
<trkpt lat="53.249663" lon="-2.054047"><ele>431</ele><time>2020-10-21T12:26:51Z</time><name>PT2621</name></trkpt>
<trkpt lat="53.249677" lon="-2.054111"><ele>430</ele><time>2020-10-21T12:26:56Z</time><name>PT2622</name></trkpt>
<trkpt lat="53.249690" lon="-2.054143"><ele>429</ele><time>2020-10-21T12:26:59Z</time><name>PT2623</name></trkpt>
<trkpt lat="53.249705" lon="-2.054203"><ele>428</ele><time>2020-10-21T12:27:02Z</time><name>PT2624</name></trkpt>
<trkpt lat="53.249724" lon="-2.054273"><ele>427</ele><time>2020-10-21T12:27:06Z</time><name>PT2625</name></trkpt>
<trkpt lat="53.249748" lon="-2.054322"><ele>424</ele><time>2020-10-21T12:27:09Z</time><name>PT2626</name></trkpt>
<trkpt lat="53.249781" lon="-2.054387"><ele>422</ele><time>2020-10-21T12:27:14Z</time><name>PT2627</name></trkpt>
<trkpt lat="53.249816" lon="-2.054434"><ele>422</ele><time>2020-10-21T12:27:17Z</time><name>PT2628</name></trkpt>
<trkpt lat="53.249840" lon="-2.054479"><ele>423</ele><time>2020-10-21T12:27:21Z</time><name>PT2629</name></trkpt>
<trkpt lat="53.249876" lon="-2.054525"><ele>422</ele><time>2020-10-21T12:27:26Z</time><name>PT2630</name></trkpt>
<trkpt lat="53.249897" lon="-2.054597"><ele>424</ele><time>2020-10-21T12:27:29Z</time><name>PT2631</name></trkpt>
<trkpt lat="53.249919" lon="-2.054649"><ele>423</ele><time>2020-10-21T12:27:32Z</time><name>PT2632</name></trkpt>
<trkpt lat="53.249941" lon="-2.054672"><ele>420</ele><time>2020-10-21T12:27:35Z</time><name>PT2633</name></trkpt>
<trkpt lat="53.249971" lon="-2.054723"><ele>416</ele><time>2020-10-21T12:27:39Z</time><name>PT2634</name></trkpt>
<trkpt lat="53.250005" lon="-2.054770"><ele>416</ele><time>2020-10-21T12:27:44Z</time><name>PT2635</name></trkpt>
<trkpt lat="53.250024" lon="-2.054794"><ele>414</ele><time>2020-10-21T12:27:47Z</time><name>PT2636</name></trkpt>
<trkpt lat="53.250039" lon="-2.054827"><ele>413</ele><time>2020-10-21T12:27:50Z</time><name>PT2637</name></trkpt>
<trkpt lat="53.250096" lon="-2.054892"><ele>409</ele><time>2020-10-21T12:27:54Z</time><name>PT2638</name></trkpt>
<trkpt lat="53.250117" lon="-2.054957"><ele>408</ele><time>2020-10-21T12:27:57Z</time><name>PT2639</name></trkpt>
<trkpt lat="53.250147" lon="-2.055026"><ele>406</ele><time>2020-10-21T12:28:02Z</time><name>PT2640</name></trkpt>
<trkpt lat="53.250157" lon="-2.055091"><ele>405</ele><time>2020-10-21T12:28:05Z</time><name>PT2641</name></trkpt>
<trkpt lat="53.250165" lon="-2.055125"><ele>405</ele><time>2020-10-21T12:28:08Z</time><name>PT2642</name></trkpt>
<trkpt lat="53.250183" lon="-2.055171"><ele>403</ele><time>2020-10-21T12:28:11Z</time><name>PT2643</name></trkpt>
<trkpt lat="53.250200" lon="-2.055225"><ele>402</ele><time>2020-10-21T12:28:15Z</time><name>PT2644</name></trkpt>
<trkpt lat="53.250213" lon="-2.055270"><ele>400</ele><time>2020-10-21T12:28:18Z</time><name>PT2645</name></trkpt>
<trkpt lat="53.250222" lon="-2.055309"><ele>399</ele><time>2020-10-21T12:28:22Z</time><name>PT2646</name></trkpt>
<trkpt lat="53.250231" lon="-2.055351"><ele>398</ele><time>2020-10-21T12:28:26Z</time><name>PT2647</name></trkpt>
<trkpt lat="53.250227" lon="-2.055386"><ele>395</ele><time>2020-10-21T12:28:29Z</time><name>PT2648</name></trkpt>
<trkpt lat="53.250222" lon="-2.055427"><ele>395</ele><time>2020-10-21T12:28:33Z</time><name>PT2649</name></trkpt>
<trkpt lat="53.250210" lon="-2.055466"><ele>393</ele><time>2020-10-21T12:28:41Z</time><name>PT2650</name></trkpt>
<trkpt lat="53.250217" lon="-2.055506"><ele>392</ele><time>2020-10-21T12:28:45Z</time><name>PT2651</name></trkpt>
<trkpt lat="53.250227" lon="-2.055536"><ele>391</ele><time>2020-10-21T12:28:51Z</time><name>PT2652</name></trkpt>
<trkpt lat="53.250263" lon="-2.055614"><ele>387</ele><time>2020-10-21T12:28:56Z</time><name>PT2653</name></trkpt>
<trkpt lat="53.250296" lon="-2.055684"><ele>385</ele><time>2020-10-21T12:28:59Z</time><name>PT2654</name></trkpt>
<trkpt lat="53.250314" lon="-2.055792"><ele>384</ele><time>2020-10-21T12:29:03Z</time><name>PT2655</name></trkpt>
<trkpt lat="53.250330" lon="-2.055849"><ele>383</ele><time>2020-10-21T12:29:06Z</time><name>PT2656</name></trkpt>
<trkpt lat="53.250358" lon="-2.055921"><ele>383</ele><time>2020-10-21T12:29:11Z</time><name>PT2657</name></trkpt>
<trkpt lat="53.250374" lon="-2.055984"><ele>384</ele><time>2020-10-21T12:29:14Z</time><name>PT2658</name></trkpt>
<trkpt lat="53.250369" lon="-2.056057"><ele>382</ele><time>2020-10-21T12:29:17Z</time><name>PT2659</name></trkpt>
<trkpt lat="53.250366" lon="-2.056106"><ele>378</ele><time>2020-10-21T12:29:20Z</time><name>PT2660</name></trkpt>
<trkpt lat="53.250377" lon="-2.056178"><ele>376</ele><time>2020-10-21T12:29:24Z</time><name>PT2661</name></trkpt>
<trkpt lat="53.250377" lon="-2.056216"><ele>374</ele><time>2020-10-21T12:29:27Z</time><name>PT2662</name></trkpt>
<trkpt lat="53.250376" lon="-2.056262"><ele>372</ele><time>2020-10-21T12:29:32Z</time><name>PT2663</name></trkpt>
<trkpt lat="53.250388" lon="-2.056321"><ele>370</ele><time>2020-10-21T12:29:35Z</time><name>PT2664</name></trkpt>
<trkpt lat="53.250398" lon="-2.056372"><ele>370</ele><time>2020-10-21T12:29:39Z</time><name>PT2665</name></trkpt>
<trkpt lat="53.250403" lon="-2.056389"><ele>371</ele><time>2020-10-21T12:29:42Z</time><name>PT2666</name></trkpt>
<trkpt lat="53.250411" lon="-2.056409"><ele>370</ele><time>2020-10-21T12:29:47Z</time><name>PT2667</name></trkpt>
<trkpt lat="53.250423" lon="-2.056402"><ele>367</ele><time>2020-10-21T12:29:50Z</time><name>PT2668</name></trkpt>
<trkpt lat="53.250434" lon="-2.056418"><ele>366</ele><time>2020-10-21T12:29:53Z</time><name>PT2669</name></trkpt>
<trkpt lat="53.250444" lon="-2.056443"><ele>364</ele><time>2020-10-21T12:29:56Z</time><name>PT2670</name></trkpt>
<trkpt lat="53.250452" lon="-2.056491"><ele>363</ele><time>2020-10-21T12:29:59Z</time><name>PT2671</name></trkpt>
<trkpt lat="53.250457" lon="-2.056545"><ele>362</ele><time>2020-10-21T12:30:02Z</time><name>PT2672</name></trkpt>
<trkpt lat="53.250463" lon="-2.056588"><ele>360</ele><time>2020-10-21T12:30:06Z</time><name>PT2673</name></trkpt>
<trkpt lat="53.250485" lon="-2.056664"><ele>362</ele><time>2020-10-21T12:30:11Z</time><name>PT2674</name></trkpt>
<trkpt lat="53.250488" lon="-2.056701"><ele>360</ele><time>2020-10-21T12:30:14Z</time><name>PT2675</name></trkpt>
<trkpt lat="53.250501" lon="-2.056761"><ele>360</ele><time>2020-10-21T12:30:17Z</time><name>PT2676</name></trkpt>
<trkpt lat="53.250503" lon="-2.056798"><ele>358</ele><time>2020-10-21T12:30:20Z</time><name>PT2677</name></trkpt>
<trkpt lat="53.250517" lon="-2.056878"><ele>357</ele><time>2020-10-21T12:30:23Z</time><name>PT2678</name></trkpt>
<trkpt lat="53.250517" lon="-2.056923"><ele>357</ele><time>2020-10-21T12:30:26Z</time><name>PT2679</name></trkpt>
<trkpt lat="53.250525" lon="-2.056986"><ele>356</ele><time>2020-10-21T12:30:29Z</time><name>PT2680</name></trkpt>
<trkpt lat="53.250513" lon="-2.057045"><ele>358</ele><time>2020-10-21T12:30:32Z</time><name>PT2681</name></trkpt>
<trkpt lat="53.250510" lon="-2.057100"><ele>358</ele><time>2020-10-21T12:30:35Z</time><name>PT2682</name></trkpt>
<trkpt lat="53.250498" lon="-2.057156"><ele>359</ele><time>2020-10-21T12:30:38Z</time><name>PT2683</name></trkpt>
<trkpt lat="53.250494" lon="-2.057199"><ele>354</ele><time>2020-10-21T12:30:42Z</time><name>PT2684</name></trkpt>
<trkpt lat="53.250504" lon="-2.057271"><ele>350</ele><time>2020-10-21T12:30:47Z</time><name>PT2685</name></trkpt>
<trkpt lat="53.250508" lon="-2.057305"><ele>348</ele><time>2020-10-21T12:30:50Z</time><name>PT2686</name></trkpt>
<trkpt lat="53.250523" lon="-2.057390"><ele>347</ele><time>2020-10-21T12:30:53Z</time><name>PT2687</name></trkpt>
<trkpt lat="53.250519" lon="-2.057474"><ele>349</ele><time>2020-10-21T12:30:56Z</time><name>PT2688</name></trkpt>
<trkpt lat="53.250518" lon="-2.057565"><ele>346</ele><time>2020-10-21T12:31:00Z</time><name>PT2689</name></trkpt>
<trkpt lat="53.250521" lon="-2.057615"><ele>345</ele><time>2020-10-21T12:31:03Z</time><name>PT2690</name></trkpt>
<trkpt lat="53.250559" lon="-2.057737"><ele>346</ele><time>2020-10-21T12:31:08Z</time><name>PT2691</name></trkpt>
<trkpt lat="53.250566" lon="-2.057817"><ele>346</ele><time>2020-10-21T12:31:11Z</time><name>PT2692</name></trkpt>
<trkpt lat="53.250573" lon="-2.057883"><ele>346</ele><time>2020-10-21T12:31:14Z</time><name>PT2693</name></trkpt>
<trkpt lat="53.250572" lon="-2.057987"><ele>349</ele><time>2020-10-21T12:31:18Z</time><name>PT2694</name></trkpt>
<trkpt lat="53.250566" lon="-2.058060"><ele>350</ele><time>2020-10-21T12:31:21Z</time><name>PT2695</name></trkpt>
<trkpt lat="53.250552" lon="-2.058190"><ele>355</ele><time>2020-10-21T12:31:26Z</time><name>PT2696</name></trkpt>
<trkpt lat="53.250541" lon="-2.058227"><ele>356</ele><time>2020-10-21T12:31:29Z</time><name>PT2697</name></trkpt>
<trkpt lat="53.250515" lon="-2.058260"><ele>355</ele><time>2020-10-21T12:31:32Z</time><name>PT2698</name></trkpt>
<trkpt lat="53.250509" lon="-2.058338"><ele>354</ele><time>2020-10-21T12:31:36Z</time><name>PT2699</name></trkpt>
<trkpt lat="53.250517" lon="-2.058403"><ele>353</ele><time>2020-10-21T12:31:41Z</time><name>PT2700</name></trkpt>
<trkpt lat="53.250525" lon="-2.058446"><ele>353</ele><time>2020-10-21T12:31:44Z</time><name>PT2701</name></trkpt>
<trkpt lat="53.250531" lon="-2.058452"><ele>353</ele><time>2020-10-21T12:31:47Z</time><name>PT2702</name></trkpt>
<trkpt lat="53.250539" lon="-2.058446"><ele>356</ele><time>2020-10-21T12:31:51Z</time><name>PT2703</name></trkpt>
<trkpt lat="53.250541" lon="-2.058441"><ele>356</ele><time>2020-10-21T12:31:56Z</time><name>PT2704</name></trkpt>
<trkpt lat="53.250537" lon="-2.058442"><ele>357</ele><time>2020-10-21T12:32:15Z</time><name>PT2705</name></trkpt>
<trkpt lat="53.250546" lon="-2.058448"><ele>357</ele><time>2020-10-21T12:32:18Z</time><name>PT2706</name></trkpt>
<trkpt lat="53.250549" lon="-2.058439"><ele>357</ele><time>2020-10-21T12:32:21Z</time><name>PT2707</name></trkpt>
<trkpt lat="53.250560" lon="-2.058423"><ele>359</ele><time>2020-10-21T12:32:24Z</time><name>PT2708</name></trkpt>
<trkpt lat="53.250566" lon="-2.058442"><ele>360</ele><time>2020-10-21T12:32:29Z</time><name>PT2709</name></trkpt>
<trkpt lat="53.250556" lon="-2.058473"><ele>363</ele><time>2020-10-21T12:32:32Z</time><name>PT2710</name></trkpt>
<trkpt lat="53.250556" lon="-2.058485"><ele>364</ele><time>2020-10-21T12:32:35Z</time><name>PT2711</name></trkpt>
<trkpt lat="53.250557" lon="-2.058486"><ele>364</ele><time>2020-10-21T12:32:39Z</time><name>PT2712</name></trkpt>
<trkpt lat="53.250530" lon="-2.058492"><ele>363</ele><time>2020-10-21T12:32:56Z</time><name>PT2713</name></trkpt>
<trkpt lat="53.250494" lon="-2.058526"><ele>361</ele><time>2020-10-21T12:32:59Z</time><name>PT2714</name></trkpt>
<trkpt lat="53.250487" lon="-2.058585"><ele>359</ele><time>2020-10-21T12:33:03Z</time><name>PT2715</name></trkpt>
<trkpt lat="53.250488" lon="-2.058597"><ele>359</ele><time>2020-10-21T12:33:08Z</time><name>PT2716</name></trkpt>
<trkpt lat="53.250494" lon="-2.058619"><ele>360</ele><time>2020-10-21T12:33:11Z</time><name>PT2717</name></trkpt>
<trkpt lat="53.250504" lon="-2.058657"><ele>360</ele><time>2020-10-21T12:33:14Z</time><name>PT2718</name></trkpt>
<trkpt lat="53.250522" lon="-2.058713"><ele>361</ele><time>2020-10-21T12:33:18Z</time><name>PT2719</name></trkpt>
<trkpt lat="53.250541" lon="-2.058767"><ele>362</ele><time>2020-10-21T12:33:23Z</time><name>PT2720</name></trkpt>
<trkpt lat="53.250562" lon="-2.058819"><ele>362</ele><time>2020-10-21T12:33:26Z</time><name>PT2721</name></trkpt>
<trkpt lat="53.250573" lon="-2.058854"><ele>363</ele><time>2020-10-21T12:33:29Z</time><name>PT2722</name></trkpt>
<trkpt lat="53.250600" lon="-2.058902"><ele>363</ele><time>2020-10-21T12:33:33Z</time><name>PT2723</name></trkpt>
<trkpt lat="53.250626" lon="-2.058945"><ele>364</ele><time>2020-10-21T12:33:36Z</time><name>PT2724</name></trkpt>
<trkpt lat="53.250650" lon="-2.058993"><ele>364</ele><time>2020-10-21T12:33:39Z</time><name>PT2725</name></trkpt>
<trkpt lat="53.250677" lon="-2.059052"><ele>365</ele><time>2020-10-21T12:33:44Z</time><name>PT2726</name></trkpt>
<trkpt lat="53.250681" lon="-2.059090"><ele>365</ele><time>2020-10-21T12:33:47Z</time><name>PT2727</name></trkpt>
<trkpt lat="53.250694" lon="-2.059131"><ele>365</ele><time>2020-10-21T12:33:50Z</time><name>PT2728</name></trkpt>
<trkpt lat="53.250701" lon="-2.059191"><ele>366</ele><time>2020-10-21T12:33:53Z</time><name>PT2729</name></trkpt>
<trkpt lat="53.250717" lon="-2.059268"><ele>366</ele><time>2020-10-21T12:33:56Z</time><name>PT2730</name></trkpt>
<trkpt lat="53.250716" lon="-2.059312"><ele>364</ele><time>2020-10-21T12:33:59Z</time><name>PT2731</name></trkpt>
<trkpt lat="53.250709" lon="-2.059365"><ele>362</ele><time>2020-10-21T12:34:03Z</time><name>PT2732</name></trkpt>
<trkpt lat="53.250714" lon="-2.059412"><ele>361</ele><time>2020-10-21T12:34:06Z</time><name>PT2733</name></trkpt>
<trkpt lat="53.250696" lon="-2.059477"><ele>359</ele><time>2020-10-21T12:34:11Z</time><name>PT2734</name></trkpt>
<trkpt lat="53.250692" lon="-2.059538"><ele>358</ele><time>2020-10-21T12:34:14Z</time><name>PT2735</name></trkpt>
<trkpt lat="53.250702" lon="-2.059556"><ele>356</ele><time>2020-10-21T12:34:18Z</time><name>PT2736</name></trkpt>
<trkpt lat="53.250702" lon="-2.059579"><ele>356</ele><time>2020-10-21T12:34:23Z</time><name>PT2737</name></trkpt>
<trkpt lat="53.250691" lon="-2.059635"><ele>357</ele><time>2020-10-21T12:34:47Z</time><name>PT2738</name></trkpt>
<trkpt lat="53.250677" lon="-2.059693"><ele>353</ele><time>2020-10-21T12:34:50Z</time><name>PT2739</name></trkpt>
<trkpt lat="53.250678" lon="-2.059734"><ele>351</ele><time>2020-10-21T12:34:53Z</time><name>PT2740</name></trkpt>
<trkpt lat="53.250684" lon="-2.059760"><ele>348</ele><time>2020-10-21T12:34:57Z</time><name>PT2741</name></trkpt>
<trkpt lat="53.250677" lon="-2.059784"><ele>345</ele><time>2020-10-21T12:35:02Z</time><name>PT2742</name></trkpt>
<trkpt lat="53.250688" lon="-2.059847"><ele>344</ele><time>2020-10-21T12:35:05Z</time><name>PT2743</name></trkpt>
<trkpt lat="53.250688" lon="-2.059901"><ele>343</ele><time>2020-10-21T12:35:09Z</time><name>PT2744</name></trkpt>
<trkpt lat="53.250683" lon="-2.059977"><ele>344</ele><time>2020-10-21T12:35:14Z</time><name>PT2745</name></trkpt>
<trkpt lat="53.250689" lon="-2.060049"><ele>346</ele><time>2020-10-21T12:35:17Z</time><name>PT2746</name></trkpt>
<trkpt lat="53.250675" lon="-2.060126"><ele>346</ele><time>2020-10-21T12:35:20Z</time><name>PT2747</name></trkpt>
<trkpt lat="53.250655" lon="-2.060203"><ele>347</ele><time>2020-10-21T12:35:23Z</time><name>PT2748</name></trkpt>
<trkpt lat="53.250623" lon="-2.060306"><ele>349</ele><time>2020-10-21T12:35:27Z</time><name>PT2749</name></trkpt>
<trkpt lat="53.250587" lon="-2.060371"><ele>351</ele><time>2020-10-21T12:35:30Z</time><name>PT2750</name></trkpt>
<trkpt lat="53.250558" lon="-2.060402"><ele>351</ele><time>2020-10-21T12:35:33Z</time><name>PT2751</name></trkpt>
<trkpt lat="53.250525" lon="-2.060449"><ele>350</ele><time>2020-10-21T12:35:38Z</time><name>PT2752</name></trkpt>
<trkpt lat="53.250487" lon="-2.060516"><ele>352</ele><time>2020-10-21T12:35:41Z</time><name>PT2753</name></trkpt>
<trkpt lat="53.250448" lon="-2.060551"><ele>354</ele><time>2020-10-21T12:35:44Z</time><name>PT2754</name></trkpt>
<trkpt lat="53.250437" lon="-2.060600"><ele>352</ele><time>2020-10-21T12:35:47Z</time><name>PT2755</name></trkpt>
<trkpt lat="53.250415" lon="-2.060642"><ele>349</ele><time>2020-10-21T12:35:51Z</time><name>PT2756</name></trkpt>
<trkpt lat="53.250399" lon="-2.060686"><ele>348</ele><time>2020-10-21T12:35:54Z</time><name>PT2757</name></trkpt>
<trkpt lat="53.250382" lon="-2.060742"><ele>347</ele><time>2020-10-21T12:35:59Z</time><name>PT2758</name></trkpt>
<trkpt lat="53.250367" lon="-2.060794"><ele>346</ele><time>2020-10-21T12:36:02Z</time><name>PT2759</name></trkpt>
<trkpt lat="53.250360" lon="-2.060853"><ele>344</ele><time>2020-10-21T12:36:06Z</time><name>PT2760</name></trkpt>
<trkpt lat="53.250338" lon="-2.060908"><ele>344</ele><time>2020-10-21T12:36:09Z</time><name>PT2761</name></trkpt>
<trkpt lat="53.250327" lon="-2.060962"><ele>343</ele><time>2020-10-21T12:36:14Z</time><name>PT2762</name></trkpt>
<trkpt lat="53.250312" lon="-2.061014"><ele>342</ele><time>2020-10-21T12:36:17Z</time><name>PT2763</name></trkpt>
<trkpt lat="53.250309" lon="-2.061061"><ele>341</ele><time>2020-10-21T12:36:20Z</time><name>PT2764</name></trkpt>
<trkpt lat="53.250293" lon="-2.061112"><ele>340</ele><time>2020-10-21T12:36:23Z</time><name>PT2765</name></trkpt>
<trkpt lat="53.250278" lon="-2.061173"><ele>339</ele><time>2020-10-21T12:36:27Z</time><name>PT2766</name></trkpt>
<trkpt lat="53.250257" lon="-2.061227"><ele>338</ele><time>2020-10-21T12:36:30Z</time><name>PT2767</name></trkpt>
<trkpt lat="53.250224" lon="-2.061279"><ele>336</ele><time>2020-10-21T12:36:35Z</time><name>PT2768</name></trkpt>
<trkpt lat="53.250211" lon="-2.061360"><ele>337</ele><time>2020-10-21T12:36:38Z</time><name>PT2769</name></trkpt>
<trkpt lat="53.250171" lon="-2.061453"><ele>339</ele><time>2020-10-21T12:36:41Z</time><name>PT2770</name></trkpt>
<trkpt lat="53.250156" lon="-2.061520"><ele>339</ele><time>2020-10-21T12:36:44Z</time><name>PT2771</name></trkpt>
<trkpt lat="53.250136" lon="-2.061591"><ele>338</ele><time>2020-10-21T12:36:48Z</time><name>PT2772</name></trkpt>
<trkpt lat="53.250129" lon="-2.061654"><ele>336</ele><time>2020-10-21T12:36:53Z</time><name>PT2773</name></trkpt>
<trkpt lat="53.250122" lon="-2.061726"><ele>337</ele><time>2020-10-21T12:36:56Z</time><name>PT2774</name></trkpt>
<trkpt lat="53.250109" lon="-2.061795"><ele>336</ele><time>2020-10-21T12:36:59Z</time><name>PT2775</name></trkpt>
<trkpt lat="53.250099" lon="-2.061852"><ele>340</ele><time>2020-10-21T12:37:02Z</time><name>PT2776</name></trkpt>
<trkpt lat="53.250084" lon="-2.061886"><ele>340</ele><time>2020-10-21T12:37:05Z</time><name>PT2777</name></trkpt>
<trkpt lat="53.250069" lon="-2.061941"><ele>339</ele><time>2020-10-21T12:37:08Z</time><name>PT2778</name></trkpt>
<trkpt lat="53.250059" lon="-2.062015"><ele>338</ele><time>2020-10-21T12:37:12Z</time><name>PT2779</name></trkpt>
<trkpt lat="53.250041" lon="-2.062052"><ele>336</ele><time>2020-10-21T12:37:15Z</time><name>PT2780</name></trkpt>
<trkpt lat="53.250013" lon="-2.062093"><ele>335</ele><time>2020-10-21T12:37:18Z</time><name>PT2781</name></trkpt>
<trkpt lat="53.250004" lon="-2.062147"><ele>334</ele><time>2020-10-21T12:37:21Z</time><name>PT2782</name></trkpt>
<trkpt lat="53.249990" lon="-2.062222"><ele>335</ele><time>2020-10-21T12:37:24Z</time><name>PT2783</name></trkpt>
<trkpt lat="53.249975" lon="-2.062307"><ele>336</ele><time>2020-10-21T12:37:29Z</time><name>PT2784</name></trkpt>
<trkpt lat="53.249952" lon="-2.062392"><ele>336</ele><time>2020-10-21T12:37:32Z</time><name>PT2785</name></trkpt>
<trkpt lat="53.249934" lon="-2.062453"><ele>337</ele><time>2020-10-21T12:37:35Z</time><name>PT2786</name></trkpt>
<trkpt lat="53.249914" lon="-2.062526"><ele>336</ele><time>2020-10-21T12:37:39Z</time><name>PT2787</name></trkpt>
<trkpt lat="53.249902" lon="-2.062612"><ele>336</ele><time>2020-10-21T12:37:44Z</time><name>PT2788</name></trkpt>
<trkpt lat="53.249905" lon="-2.062657"><ele>337</ele><time>2020-10-21T12:37:47Z</time><name>PT2789</name></trkpt>
<trkpt lat="53.249898" lon="-2.062715"><ele>337</ele><time>2020-10-21T12:37:51Z</time><name>PT2790</name></trkpt>
<trkpt lat="53.249892" lon="-2.062778"><ele>339</ele><time>2020-10-21T12:37:56Z</time><name>PT2791</name></trkpt>
<trkpt lat="53.249892" lon="-2.062823"><ele>339</ele><time>2020-10-21T12:37:59Z</time><name>PT2792</name></trkpt>
<trkpt lat="53.249878" lon="-2.062897"><ele>339</ele><time>2020-10-21T12:38:02Z</time><name>PT2793</name></trkpt>
<trkpt lat="53.249860" lon="-2.062955"><ele>339</ele><time>2020-10-21T12:38:05Z</time><name>PT2794</name></trkpt>
<trkpt lat="53.249842" lon="-2.063011"><ele>339</ele><time>2020-10-21T12:38:08Z</time><name>PT2795</name></trkpt>
<trkpt lat="53.249830" lon="-2.063091"><ele>339</ele><time>2020-10-21T12:38:12Z</time><name>PT2796</name></trkpt>
<trkpt lat="53.249833" lon="-2.063176"><ele>339</ele><time>2020-10-21T12:38:17Z</time><name>PT2797</name></trkpt>
<trkpt lat="53.249842" lon="-2.063272"><ele>340</ele><time>2020-10-21T12:38:20Z</time><name>PT2798</name></trkpt>
<trkpt lat="53.249856" lon="-2.063358"><ele>340</ele><time>2020-10-21T12:38:24Z</time><name>PT2799</name></trkpt>
<trkpt lat="53.249868" lon="-2.063424"><ele>340</ele><time>2020-10-21T12:38:29Z</time><name>PT2800</name></trkpt>
<trkpt lat="53.249875" lon="-2.063475"><ele>340</ele><time>2020-10-21T12:38:32Z</time><name>PT2801</name></trkpt>
<trkpt lat="53.249885" lon="-2.063552"><ele>339</ele><time>2020-10-21T12:38:35Z</time><name>PT2802</name></trkpt>
<trkpt lat="53.249897" lon="-2.063615"><ele>338</ele><time>2020-10-21T12:38:39Z</time><name>PT2803</name></trkpt>
<trkpt lat="53.249905" lon="-2.063663"><ele>336</ele><time>2020-10-21T12:38:42Z</time><name>PT2804</name></trkpt>
<trkpt lat="53.249912" lon="-2.063719"><ele>333</ele><time>2020-10-21T12:38:47Z</time><name>PT2805</name></trkpt>
<trkpt lat="53.249919" lon="-2.063780"><ele>333</ele><time>2020-10-21T12:38:50Z</time><name>PT2806</name></trkpt>
<trkpt lat="53.249925" lon="-2.063842"><ele>333</ele><time>2020-10-21T12:38:53Z</time><name>PT2807</name></trkpt>
<trkpt lat="53.249933" lon="-2.063898"><ele>332</ele><time>2020-10-21T12:38:56Z</time><name>PT2808</name></trkpt>
<trkpt lat="53.249936" lon="-2.063976"><ele>331</ele><time>2020-10-21T12:38:59Z</time><name>PT2809</name></trkpt>
<trkpt lat="53.249938" lon="-2.064031"><ele>330</ele><time>2020-10-21T12:39:02Z</time><name>PT2810</name></trkpt>
<trkpt lat="53.249939" lon="-2.064108"><ele>329</ele><time>2020-10-21T12:39:07Z</time><name>PT2811</name></trkpt>
<trkpt lat="53.249942" lon="-2.064195"><ele>329</ele><time>2020-10-21T12:39:11Z</time><name>PT2812</name></trkpt>
<trkpt lat="53.249928" lon="-2.064284"><ele>329</ele><time>2020-10-21T12:39:14Z</time><name>PT2813</name></trkpt>
<trkpt lat="53.249913" lon="-2.064358"><ele>329</ele><time>2020-10-21T12:39:17Z</time><name>PT2814</name></trkpt>
<trkpt lat="53.249887" lon="-2.064433"><ele>329</ele><time>2020-10-21T12:39:21Z</time><name>PT2815</name></trkpt>
<trkpt lat="53.249865" lon="-2.064490"><ele>328</ele><time>2020-10-21T12:39:24Z</time><name>PT2816</name></trkpt>
<trkpt lat="53.249843" lon="-2.064538"><ele>328</ele><time>2020-10-21T12:39:27Z</time><name>PT2817</name></trkpt>
<trkpt lat="53.249813" lon="-2.064608"><ele>328</ele><time>2020-10-21T12:39:32Z</time><name>PT2818</name></trkpt>
<trkpt lat="53.249791" lon="-2.064646"><ele>328</ele><time>2020-10-21T12:39:35Z</time><name>PT2819</name></trkpt>
<trkpt lat="53.249772" lon="-2.064693"><ele>328</ele><time>2020-10-21T12:39:38Z</time><name>PT2820</name></trkpt>
<trkpt lat="53.249760" lon="-2.064719"><ele>328</ele><time>2020-10-21T12:39:41Z</time><name>PT2821</name></trkpt>
<trkpt lat="53.249764" lon="-2.064749"><ele>329</ele><time>2020-10-21T12:39:44Z</time><name>PT2822</name></trkpt>
<trkpt lat="53.249775" lon="-2.064771"><ele>329</ele><time>2020-10-21T12:39:48Z</time><name>PT2823</name></trkpt>
<trkpt lat="53.249768" lon="-2.064846"><ele>328</ele><time>2020-10-21T12:39:53Z</time><name>PT2824</name></trkpt>
<trkpt lat="53.249755" lon="-2.064916"><ele>327</ele><time>2020-10-21T12:39:56Z</time><name>PT2825</name></trkpt>
<trkpt lat="53.249747" lon="-2.064969"><ele>326</ele><time>2020-10-21T12:39:59Z</time><name>PT2826</name></trkpt>
<trkpt lat="53.249740" lon="-2.065043"><ele>326</ele><time>2020-10-21T12:40:03Z</time><name>PT2827</name></trkpt>
<trkpt lat="53.249738" lon="-2.065100"><ele>326</ele><time>2020-10-21T12:40:06Z</time><name>PT2828</name></trkpt>
<trkpt lat="53.249727" lon="-2.065168"><ele>325</ele><time>2020-10-21T12:40:11Z</time><name>PT2829</name></trkpt>
<trkpt lat="53.249720" lon="-2.065241"><ele>324</ele><time>2020-10-21T12:40:14Z</time><name>PT2830</name></trkpt>
<trkpt lat="53.249708" lon="-2.065323"><ele>324</ele><time>2020-10-21T12:40:18Z</time><name>PT2831</name></trkpt>
<trkpt lat="53.249695" lon="-2.065377"><ele>324</ele><time>2020-10-21T12:40:21Z</time><name>PT2832</name></trkpt>
<trkpt lat="53.249677" lon="-2.065424"><ele>324</ele><time>2020-10-21T12:40:24Z</time><name>PT2833</name></trkpt>
<trkpt lat="53.249672" lon="-2.065483"><ele>324</ele><time>2020-10-21T12:40:27Z</time><name>PT2834</name></trkpt>
<trkpt lat="53.249670" lon="-2.065541"><ele>324</ele><time>2020-10-21T12:40:30Z</time><name>PT2835</name></trkpt>
<trkpt lat="53.249661" lon="-2.065614"><ele>323</ele><time>2020-10-21T12:40:35Z</time><name>PT2836</name></trkpt>
<trkpt lat="53.249659" lon="-2.065692"><ele>323</ele><time>2020-10-21T12:40:38Z</time><name>PT2837</name></trkpt>
<trkpt lat="53.249652" lon="-2.065768"><ele>323</ele><time>2020-10-21T12:40:42Z</time><name>PT2838</name></trkpt>
<trkpt lat="53.249644" lon="-2.065826"><ele>322</ele><time>2020-10-21T12:40:45Z</time><name>PT2839</name></trkpt>
<trkpt lat="53.249638" lon="-2.065886"><ele>321</ele><time>2020-10-21T12:40:48Z</time><name>PT2840</name></trkpt>
<trkpt lat="53.249625" lon="-2.065957"><ele>320</ele><time>2020-10-21T12:40:53Z</time><name>PT2841</name></trkpt>
<trkpt lat="53.249610" lon="-2.066008"><ele>320</ele><time>2020-10-21T12:40:56Z</time><name>PT2842</name></trkpt>
<trkpt lat="53.249608" lon="-2.066091"><ele>319</ele><time>2020-10-21T12:40:59Z</time><name>PT2843</name></trkpt>
<trkpt lat="53.249595" lon="-2.066151"><ele>318</ele><time>2020-10-21T12:41:03Z</time><name>PT2844</name></trkpt>
<trkpt lat="53.249583" lon="-2.066232"><ele>318</ele><time>2020-10-21T12:41:08Z</time><name>PT2845</name></trkpt>
<trkpt lat="53.249566" lon="-2.066304"><ele>317</ele><time>2020-10-21T12:41:11Z</time><name>PT2846</name></trkpt>
<trkpt lat="53.249565" lon="-2.066358"><ele>316</ele><time>2020-10-21T12:41:14Z</time><name>PT2847</name></trkpt>
<trkpt lat="53.249565" lon="-2.066414"><ele>315</ele><time>2020-10-21T12:41:17Z</time><name>PT2848</name></trkpt>
<trkpt lat="53.249558" lon="-2.066485"><ele>314</ele><time>2020-10-21T12:41:21Z</time><name>PT2849</name></trkpt>
<trkpt lat="53.249549" lon="-2.066566"><ele>314</ele><time>2020-10-21T12:41:26Z</time><name>PT2850</name></trkpt>
<trkpt lat="53.249533" lon="-2.066641"><ele>313</ele><time>2020-10-21T12:41:29Z</time><name>PT2851</name></trkpt>
<trkpt lat="53.249525" lon="-2.066704"><ele>313</ele><time>2020-10-21T12:41:32Z</time><name>PT2852</name></trkpt>
<trkpt lat="53.249514" lon="-2.066759"><ele>312</ele><time>2020-10-21T12:41:35Z</time><name>PT2853</name></trkpt>
<trkpt lat="53.249502" lon="-2.066828"><ele>311</ele><time>2020-10-21T12:41:39Z</time><name>PT2854</name></trkpt>
<trkpt lat="53.249496" lon="-2.066889"><ele>310</ele><time>2020-10-21T12:41:44Z</time><name>PT2855</name></trkpt>
<trkpt lat="53.249493" lon="-2.066899"><ele>309</ele><time>2020-10-21T12:41:47Z</time><name>PT2856</name></trkpt>
<trkpt lat="53.249489" lon="-2.066901"><ele>309</ele><time>2020-10-21T12:41:50Z</time><name>PT2857</name></trkpt>
<trkpt lat="53.249486" lon="-2.066908"><ele>309</ele><time>2020-10-21T12:41:59Z</time><name>PT2858</name></trkpt>
<trkpt lat="53.249467" lon="-2.066911"><ele>309</ele><time>2020-10-21T12:42:03Z</time><name>PT2859</name></trkpt>
<trkpt lat="53.249465" lon="-2.066912"><ele>309</ele><time>2020-10-21T12:42:08Z</time><name>PT2860</name></trkpt>
<trkpt lat="53.249459" lon="-2.066931"><ele>308</ele><time>2020-10-21T12:42:47Z</time><name>PT2861</name></trkpt>
<trkpt lat="53.249466" lon="-2.066952"><ele>308</ele><time>2020-10-21T12:42:50Z</time><name>PT2862</name></trkpt>
<trkpt lat="53.249481" lon="-2.066970"><ele>308</ele><time>2020-10-21T12:42:53Z</time><name>PT2863</name></trkpt>
<trkpt lat="53.249514" lon="-2.067017"><ele>307</ele><time>2020-10-21T12:42:57Z</time><name>PT2864</name></trkpt>
<trkpt lat="53.249537" lon="-2.067046"><ele>307</ele><time>2020-10-21T12:43:00Z</time><name>PT2865</name></trkpt>
<trkpt lat="53.249569" lon="-2.067096"><ele>308</ele><time>2020-10-21T12:43:05Z</time><name>PT2866</name></trkpt>
<trkpt lat="53.249589" lon="-2.067129"><ele>307</ele><time>2020-10-21T12:43:08Z</time><name>PT2867</name></trkpt>
<trkpt lat="53.249616" lon="-2.067173"><ele>307</ele><time>2020-10-21T12:43:11Z</time><name>PT2868</name></trkpt>
<trkpt lat="53.249632" lon="-2.067218"><ele>307</ele><time>2020-10-21T12:43:15Z</time><name>PT2869</name></trkpt>
<trkpt lat="53.249631" lon="-2.067238"><ele>306</ele><time>2020-10-21T12:43:18Z</time><name>PT2870</name></trkpt>
<trkpt lat="53.249623" lon="-2.067284"><ele>307</ele><time>2020-10-21T12:43:23Z</time><name>PT2871</name></trkpt>
<trkpt lat="53.249613" lon="-2.067337"><ele>307</ele><time>2020-10-21T12:43:26Z</time><name>PT2872</name></trkpt>
<trkpt lat="53.249599" lon="-2.067385"><ele>306</ele><time>2020-10-21T12:43:29Z</time><name>PT2873</name></trkpt>
<trkpt lat="53.249589" lon="-2.067418"><ele>306</ele><time>2020-10-21T12:43:32Z</time><name>PT2874</name></trkpt>
<trkpt lat="53.249582" lon="-2.067456"><ele>306</ele><time>2020-10-21T12:43:35Z</time><name>PT2875</name></trkpt>
<trkpt lat="53.249572" lon="-2.067495"><ele>305</ele><time>2020-10-21T12:43:38Z</time><name>PT2876</name></trkpt>
<trkpt lat="53.249570" lon="-2.067579"><ele>303</ele><time>2020-10-21T12:43:42Z</time><name>PT2877</name></trkpt>
<trkpt lat="53.249559" lon="-2.067648"><ele>303</ele><time>2020-10-21T12:43:47Z</time><name>PT2878</name></trkpt>
<trkpt lat="53.249555" lon="-2.067709"><ele>303</ele><time>2020-10-21T12:43:50Z</time><name>PT2879</name></trkpt>
<trkpt lat="53.249544" lon="-2.067792"><ele>302</ele><time>2020-10-21T12:43:53Z</time><name>PT2880</name></trkpt>
<trkpt lat="53.249538" lon="-2.067862"><ele>301</ele><time>2020-10-21T12:43:56Z</time><name>PT2881</name></trkpt>
<trkpt lat="53.249530" lon="-2.067931"><ele>300</ele><time>2020-10-21T12:43:59Z</time><name>PT2882</name></trkpt>
<trkpt lat="53.249522" lon="-2.068005"><ele>299</ele><time>2020-10-21T12:44:03Z</time><name>PT2883</name></trkpt>
<trkpt lat="53.249519" lon="-2.068083"><ele>298</ele><time>2020-10-21T12:44:08Z</time><name>PT2884</name></trkpt>
<trkpt lat="53.249509" lon="-2.068134"><ele>297</ele><time>2020-10-21T12:44:11Z</time><name>PT2885</name></trkpt>
<trkpt lat="53.249492" lon="-2.068202"><ele>296</ele><time>2020-10-21T12:44:14Z</time><name>PT2886</name></trkpt>
<trkpt lat="53.249487" lon="-2.068262"><ele>295</ele><time>2020-10-21T12:44:17Z</time><name>PT2887</name></trkpt>
<trkpt lat="53.249482" lon="-2.068340"><ele>294</ele><time>2020-10-21T12:44:21Z</time><name>PT2888</name></trkpt>
<trkpt lat="53.249483" lon="-2.068399"><ele>294</ele><time>2020-10-21T12:44:24Z</time><name>PT2889</name></trkpt>
<trkpt lat="53.249476" lon="-2.068473"><ele>293</ele><time>2020-10-21T12:44:29Z</time><name>PT2890</name></trkpt>
<trkpt lat="53.249473" lon="-2.068526"><ele>293</ele><time>2020-10-21T12:44:32Z</time><name>PT2891</name></trkpt>
<trkpt lat="53.249466" lon="-2.068576"><ele>293</ele><time>2020-10-21T12:44:35Z</time><name>PT2892</name></trkpt>
<trkpt lat="53.249460" lon="-2.068646"><ele>293</ele><time>2020-10-21T12:44:38Z</time><name>PT2893</name></trkpt>
<trkpt lat="53.249455" lon="-2.068710"><ele>293</ele><time>2020-10-21T12:44:41Z</time><name>PT2894</name></trkpt>
<trkpt lat="53.249447" lon="-2.068784"><ele>293</ele><time>2020-10-21T12:44:45Z</time><name>PT2895</name></trkpt>
<trkpt lat="53.249439" lon="-2.068841"><ele>293</ele><time>2020-10-21T12:44:48Z</time><name>PT2896</name></trkpt>
<trkpt lat="53.249434" lon="-2.068916"><ele>292</ele><time>2020-10-21T12:44:53Z</time><name>PT2897</name></trkpt>
<trkpt lat="53.249428" lon="-2.068969"><ele>290</ele><time>2020-10-21T12:44:56Z</time><name>PT2898</name></trkpt>
<trkpt lat="53.249423" lon="-2.069041"><ele>290</ele><time>2020-10-21T12:44:59Z</time><name>PT2899</name></trkpt>
<trkpt lat="53.249413" lon="-2.069100"><ele>289</ele><time>2020-10-21T12:45:02Z</time><name>PT2900</name></trkpt>
<trkpt lat="53.249405" lon="-2.069165"><ele>289</ele><time>2020-10-21T12:45:06Z</time><name>PT2901</name></trkpt>
<trkpt lat="53.249404" lon="-2.069222"><ele>288</ele><time>2020-10-21T12:45:09Z</time><name>PT2902</name></trkpt>
<trkpt lat="53.249403" lon="-2.069275"><ele>287</ele><time>2020-10-21T12:45:12Z</time><name>PT2903</name></trkpt>
<trkpt lat="53.249402" lon="-2.069335"><ele>286</ele><time>2020-10-21T12:45:17Z</time><name>PT2904</name></trkpt>
<trkpt lat="53.249398" lon="-2.069366"><ele>286</ele><time>2020-10-21T12:45:20Z</time><name>PT2905</name></trkpt>
<trkpt lat="53.249396" lon="-2.069427"><ele>286</ele><time>2020-10-21T12:45:23Z</time><name>PT2906</name></trkpt>
<trkpt lat="53.249395" lon="-2.069464"><ele>285</ele><time>2020-10-21T12:45:26Z</time><name>PT2907</name></trkpt>
<trkpt lat="53.249395" lon="-2.069493"><ele>284</ele><time>2020-10-21T12:45:29Z</time><name>PT2908</name></trkpt>
<trkpt lat="53.249394" lon="-2.069511"><ele>284</ele><time>2020-10-21T12:45:33Z</time><name>PT2909</name></trkpt>
<trkpt lat="53.249393" lon="-2.069517"><ele>284</ele><time>2020-10-21T12:45:36Z</time><name>PT2910</name></trkpt>
<trkpt lat="53.249393" lon="-2.069535"><ele>285</ele><time>2020-10-21T12:45:41Z</time><name>PT2911</name></trkpt>
<trkpt lat="53.249391" lon="-2.069540"><ele>285</ele><time>2020-10-21T12:45:44Z</time><name>PT2912</name></trkpt>
<trkpt lat="53.249368" lon="-2.069612"><ele>285</ele><time>2020-10-21T12:45:48Z</time><name>PT2913</name></trkpt>
<trkpt lat="53.249361" lon="-2.069686"><ele>284</ele><time>2020-10-21T12:45:51Z</time><name>PT2914</name></trkpt>
<trkpt lat="53.249351" lon="-2.069765"><ele>283</ele><time>2020-10-21T12:45:56Z</time><name>PT2915</name></trkpt>
<trkpt lat="53.249345" lon="-2.069828"><ele>283</ele><time>2020-10-21T12:45:59Z</time><name>PT2916</name></trkpt>
<trkpt lat="53.249331" lon="-2.069880"><ele>282</ele><time>2020-10-21T12:46:02Z</time><name>PT2917</name></trkpt>
<trkpt lat="53.249328" lon="-2.069940"><ele>282</ele><time>2020-10-21T12:46:05Z</time><name>PT2918</name></trkpt>
<trkpt lat="53.249314" lon="-2.070013"><ele>281</ele><time>2020-10-21T12:46:08Z</time><name>PT2919</name></trkpt>
<trkpt lat="53.249307" lon="-2.070083"><ele>281</ele><time>2020-10-21T12:46:12Z</time><name>PT2920</name></trkpt>
<trkpt lat="53.249304" lon="-2.070135"><ele>280</ele><time>2020-10-21T12:46:15Z</time><name>PT2921</name></trkpt>
<trkpt lat="53.249298" lon="-2.070209"><ele>279</ele><time>2020-10-21T12:46:20Z</time><name>PT2922</name></trkpt>
<trkpt lat="53.249293" lon="-2.070265"><ele>279</ele><time>2020-10-21T12:46:23Z</time><name>PT2923</name></trkpt>
<trkpt lat="53.249285" lon="-2.070336"><ele>278</ele><time>2020-10-21T12:46:26Z</time><name>PT2924</name></trkpt>
<trkpt lat="53.249279" lon="-2.070381"><ele>278</ele><time>2020-10-21T12:46:29Z</time><name>PT2925</name></trkpt>
<trkpt lat="53.249277" lon="-2.070452"><ele>277</ele><time>2020-10-21T12:46:33Z</time><name>PT2926</name></trkpt>
<trkpt lat="53.249269" lon="-2.070496"><ele>276</ele><time>2020-10-21T12:46:36Z</time><name>PT2927</name></trkpt>
<trkpt lat="53.249263" lon="-2.070551"><ele>274</ele><time>2020-10-21T12:46:39Z</time><name>PT2928</name></trkpt>
<trkpt lat="53.249260" lon="-2.070620"><ele>274</ele><time>2020-10-21T12:46:44Z</time><name>PT2929</name></trkpt>
<trkpt lat="53.249250" lon="-2.070665"><ele>272</ele><time>2020-10-21T12:46:47Z</time><name>PT2930</name></trkpt>
<trkpt lat="53.249243" lon="-2.070723"><ele>272</ele><time>2020-10-21T12:46:50Z</time><name>PT2931</name></trkpt>
<trkpt lat="53.249240" lon="-2.070775"><ele>271</ele><time>2020-10-21T12:46:53Z</time><name>PT2932</name></trkpt>
<trkpt lat="53.249239" lon="-2.070845"><ele>271</ele><time>2020-10-21T12:46:56Z</time><name>PT2933</name></trkpt>
<trkpt lat="53.249241" lon="-2.070919"><ele>270</ele><time>2020-10-21T12:47:00Z</time><name>PT2934</name></trkpt>
<trkpt lat="53.249233" lon="-2.070993"><ele>270</ele><time>2020-10-21T12:47:05Z</time><name>PT2935</name></trkpt>
<trkpt lat="53.249224" lon="-2.071048"><ele>269</ele><time>2020-10-21T12:47:08Z</time><name>PT2936</name></trkpt>
<trkpt lat="53.249212" lon="-2.071113"><ele>270</ele><time>2020-10-21T12:47:11Z</time><name>PT2937</name></trkpt>
<trkpt lat="53.249206" lon="-2.071163"><ele>269</ele><time>2020-10-21T12:47:14Z</time><name>PT2938</name></trkpt>
<trkpt lat="53.249203" lon="-2.071213"><ele>269</ele><time>2020-10-21T12:47:17Z</time><name>PT2939</name></trkpt>
<trkpt lat="53.249196" lon="-2.071279"><ele>268</ele><time>2020-10-21T12:47:21Z</time><name>PT2940</name></trkpt>
<trkpt lat="53.249193" lon="-2.071319"><ele>267</ele><time>2020-10-21T12:47:24Z</time><name>PT2941</name></trkpt>
<trkpt lat="53.249185" lon="-2.071382"><ele>266</ele><time>2020-10-21T12:47:29Z</time><name>PT2942</name></trkpt>
<trkpt lat="53.249187" lon="-2.071419"><ele>266</ele><time>2020-10-21T12:47:32Z</time><name>PT2943</name></trkpt>
<trkpt lat="53.249195" lon="-2.071455"><ele>267</ele><time>2020-10-21T12:47:35Z</time><name>PT2944</name></trkpt>
<trkpt lat="53.249196" lon="-2.071466"><ele>267</ele><time>2020-10-21T12:47:38Z</time><name>PT2945</name></trkpt>
<trkpt lat="53.249194" lon="-2.071522"><ele>266</ele><time>2020-10-21T12:47:41Z</time><name>PT2946</name></trkpt>
<trkpt lat="53.249191" lon="-2.071592"><ele>264</ele><time>2020-10-21T12:47:45Z</time><name>PT2947</name></trkpt>
<trkpt lat="53.249191" lon="-2.071641"><ele>263</ele><time>2020-10-21T12:47:48Z</time><name>PT2948</name></trkpt>
<trkpt lat="53.249190" lon="-2.071705"><ele>261</ele><time>2020-10-21T12:47:53Z</time><name>PT2949</name></trkpt>
<trkpt lat="53.249186" lon="-2.071751"><ele>261</ele><time>2020-10-21T12:47:56Z</time><name>PT2950</name></trkpt>
<trkpt lat="53.249183" lon="-2.071787"><ele>260</ele><time>2020-10-21T12:47:59Z</time><name>PT2951</name></trkpt>
<trkpt lat="53.249209" lon="-2.071833"><ele>260</ele><time>2020-10-21T12:48:02Z</time><name>PT2952</name></trkpt>
<trkpt lat="53.249241" lon="-2.071889"><ele>259</ele><time>2020-10-21T12:48:06Z</time><name>PT2953</name></trkpt>
<trkpt lat="53.249258" lon="-2.071940"><ele>260</ele><time>2020-10-21T12:48:09Z</time><name>PT2954</name></trkpt>
<trkpt lat="53.249282" lon="-2.072002"><ele>260</ele><time>2020-10-21T12:48:14Z</time><name>PT2955</name></trkpt>
<trkpt lat="53.249304" lon="-2.072050"><ele>260</ele><time>2020-10-21T12:48:17Z</time><name>PT2956</name></trkpt>
<trkpt lat="53.249328" lon="-2.072082"><ele>259</ele><time>2020-10-21T12:48:20Z</time><name>PT2957</name></trkpt>
<trkpt lat="53.249351" lon="-2.072117"><ele>259</ele><time>2020-10-21T12:48:23Z</time><name>PT2958</name></trkpt>
<trkpt lat="53.249383" lon="-2.072172"><ele>259</ele><time>2020-10-21T12:48:26Z</time><name>PT2959</name></trkpt>
<trkpt lat="53.249412" lon="-2.072229"><ele>259</ele><time>2020-10-21T12:48:30Z</time><name>PT2960</name></trkpt>
<trkpt lat="53.249444" lon="-2.072288"><ele>258</ele><time>2020-10-21T12:48:35Z</time><name>PT2961</name></trkpt>
<trkpt lat="53.249481" lon="-2.072343"><ele>257</ele><time>2020-10-21T12:48:38Z</time><name>PT2962</name></trkpt>
<trkpt lat="53.249508" lon="-2.072380"><ele>257</ele><time>2020-10-21T12:48:41Z</time><name>PT2963</name></trkpt>
<trkpt lat="53.249531" lon="-2.072422"><ele>257</ele><time>2020-10-21T12:48:44Z</time><name>PT2964</name></trkpt>
<trkpt lat="53.249553" lon="-2.072459"><ele>257</ele><time>2020-10-21T12:48:47Z</time><name>PT2965</name></trkpt>
<trkpt lat="53.249585" lon="-2.072525"><ele>257</ele><time>2020-10-21T12:48:51Z</time><name>PT2966</name></trkpt>
<trkpt lat="53.249613" lon="-2.072579"><ele>256</ele><time>2020-10-21T12:48:56Z</time><name>PT2967</name></trkpt>
<trkpt lat="53.249638" lon="-2.072620"><ele>255</ele><time>2020-10-21T12:48:59Z</time><name>PT2968</name></trkpt>
<trkpt lat="53.249673" lon="-2.072674"><ele>255</ele><time>2020-10-21T12:49:02Z</time><name>PT2969</name></trkpt>
<trkpt lat="53.249694" lon="-2.072712"><ele>255</ele><time>2020-10-21T12:49:05Z</time><name>PT2970</name></trkpt>
<trkpt lat="53.249719" lon="-2.072749"><ele>255</ele><time>2020-10-21T12:49:08Z</time><name>PT2971</name></trkpt>
<trkpt lat="53.249737" lon="-2.072774"><ele>255</ele><time>2020-10-21T12:49:11Z</time><name>PT2972</name></trkpt>
<trkpt lat="53.249751" lon="-2.072805"><ele>255</ele><time>2020-10-21T12:49:14Z</time><name>PT2973</name></trkpt>
<trkpt lat="53.249755" lon="-2.072824"><ele>256</ele><time>2020-10-21T12:49:17Z</time><name>PT2974</name></trkpt>
<trkpt lat="53.249756" lon="-2.072826"><ele>256</ele><time>2020-10-21T12:49:21Z</time><name>PT2975</name></trkpt>
<trkpt lat="53.249764" lon="-2.072851"><ele>255</ele><time>2020-10-21T12:49:41Z</time><name>PT2976</name></trkpt>
<trkpt lat="53.249791" lon="-2.072911"><ele>255</ele><time>2020-10-21T12:49:44Z</time><name>PT2977</name></trkpt>
<trkpt lat="53.249828" lon="-2.072966"><ele>253</ele><time>2020-10-21T12:49:48Z</time><name>PT2978</name></trkpt>
<trkpt lat="53.249843" lon="-2.073003"><ele>252</ele><time>2020-10-21T12:49:51Z</time><name>PT2979</name></trkpt>
<trkpt lat="53.249888" lon="-2.073035"><ele>252</ele><time>2020-10-21T12:49:56Z</time><name>PT2980</name></trkpt>
<trkpt lat="53.249927" lon="-2.073087"><ele>251</ele><time>2020-10-21T12:49:59Z</time><name>PT2981</name></trkpt>
<trkpt lat="53.249946" lon="-2.073120"><ele>250</ele><time>2020-10-21T12:50:02Z</time><name>PT2982</name></trkpt>
<trkpt lat="53.249955" lon="-2.073147"><ele>249</ele><time>2020-10-21T12:50:05Z</time><name>PT2983</name></trkpt>
<trkpt lat="53.249980" lon="-2.073188"><ele>249</ele><time>2020-10-21T12:50:09Z</time><name>PT2984</name></trkpt>
<trkpt lat="53.250004" lon="-2.073241"><ele>248</ele><time>2020-10-21T12:50:14Z</time><name>PT2985</name></trkpt>
<trkpt lat="53.250026" lon="-2.073285"><ele>247</ele><time>2020-10-21T12:50:17Z</time><name>PT2986</name></trkpt>
<trkpt lat="53.250047" lon="-2.073328"><ele>246</ele><time>2020-10-21T12:50:20Z</time><name>PT2987</name></trkpt>
<trkpt lat="53.250062" lon="-2.073362"><ele>245</ele><time>2020-10-21T12:50:24Z</time><name>PT2988</name></trkpt>
<trkpt lat="53.250078" lon="-2.073392"><ele>245</ele><time>2020-10-21T12:50:27Z</time><name>PT2989</name></trkpt>
<trkpt lat="53.250092" lon="-2.073414"><ele>244</ele><time>2020-10-21T12:50:32Z</time><name>PT2990</name></trkpt>
<trkpt lat="53.250100" lon="-2.073423"><ele>242</ele><time>2020-10-21T12:50:35Z</time><name>PT2991</name></trkpt>
<trkpt lat="53.250060" lon="-2.073419"><ele>241</ele><time>2020-10-21T12:50:38Z</time><name>PT2992</name></trkpt>
<trkpt lat="53.250023" lon="-2.073447"><ele>242</ele><time>2020-10-21T12:50:42Z</time><name>PT2993</name></trkpt>
<trkpt lat="53.249988" lon="-2.073464"><ele>241</ele><time>2020-10-21T12:50:45Z</time><name>PT2994</name></trkpt>
<trkpt lat="53.249956" lon="-2.073471"><ele>241</ele><time>2020-10-21T12:50:48Z</time><name>PT2995</name></trkpt>
<trkpt lat="53.249911" lon="-2.073493"><ele>241</ele><time>2020-10-21T12:50:53Z</time><name>PT2996</name></trkpt>
<trkpt lat="53.249867" lon="-2.073506"><ele>242</ele><time>2020-10-21T12:50:56Z</time><name>PT2997</name></trkpt>
<trkpt lat="53.249833" lon="-2.073497"><ele>243</ele><time>2020-10-21T12:50:59Z</time><name>PT2998</name></trkpt>
<trkpt lat="53.249801" lon="-2.073482"><ele>244</ele><time>2020-10-21T12:51:02Z</time><name>PT2999</name></trkpt>
<trkpt lat="53.249757" lon="-2.073473"><ele>246</ele><time>2020-10-21T12:51:06Z</time><name>PT3000</name></trkpt>
<trkpt lat="53.249733" lon="-2.073466"><ele>247</ele><time>2020-10-21T12:51:09Z</time><name>PT3001</name></trkpt>
<trkpt lat="53.249727" lon="-2.073471"><ele>247</ele><time>2020-10-21T12:51:12Z</time><name>PT3002</name></trkpt>
<trkpt lat="53.249724" lon="-2.073486"><ele>247</ele><time>2020-10-21T12:51:23Z</time><name>PT3003</name></trkpt>
<trkpt lat="53.249688" lon="-2.073508"><ele>247</ele><time>2020-10-21T12:51:26Z</time><name>PT3004</name></trkpt>
<trkpt lat="53.249638" lon="-2.073515"><ele>247</ele><time>2020-10-21T12:51:29Z</time><name>PT3005</name></trkpt>
<trkpt lat="53.249610" lon="-2.073511"><ele>246</ele><time>2020-10-21T12:51:32Z</time><name>PT3006</name></trkpt>
<trkpt lat="53.249583" lon="-2.073499"><ele>246</ele><time>2020-10-21T12:51:35Z</time><name>PT3007</name></trkpt>
<trkpt lat="53.249543" lon="-2.073493"><ele>246</ele><time>2020-10-21T12:51:39Z</time><name>PT3008</name></trkpt>
<trkpt lat="53.249526" lon="-2.073490"><ele>246</ele><time>2020-10-21T12:51:42Z</time><name>PT3009</name></trkpt>
<trkpt lat="53.249490" lon="-2.073487"><ele>245</ele><time>2020-10-21T12:51:47Z</time><name>PT3010</name></trkpt>
<trkpt lat="53.249463" lon="-2.073487"><ele>245</ele><time>2020-10-21T12:51:50Z</time><name>PT3011</name></trkpt>
<trkpt lat="53.249432" lon="-2.073481"><ele>245</ele><time>2020-10-21T12:51:53Z</time><name>PT3012</name></trkpt>
<trkpt lat="53.249410" lon="-2.073479"><ele>246</ele><time>2020-10-21T12:51:56Z</time><name>PT3013</name></trkpt>
<trkpt lat="53.249386" lon="-2.073497"><ele>246</ele><time>2020-10-21T12:51:59Z</time><name>PT3014</name></trkpt>
<trkpt lat="53.249359" lon="-2.073517"><ele>246</ele><time>2020-10-21T12:52:03Z</time><name>PT3015</name></trkpt>
<trkpt lat="53.249324" lon="-2.073510"><ele>247</ele><time>2020-10-21T12:52:08Z</time><name>PT3016</name></trkpt>
<trkpt lat="53.249290" lon="-2.073491"><ele>247</ele><time>2020-10-21T12:52:11Z</time><name>PT3017</name></trkpt>
<trkpt lat="53.249268" lon="-2.073484"><ele>247</ele><time>2020-10-21T12:52:14Z</time><name>PT3018</name></trkpt>
<trkpt lat="53.249245" lon="-2.073500"><ele>247</ele><time>2020-10-21T12:52:17Z</time><name>PT3019</name></trkpt>
<trkpt lat="53.249219" lon="-2.073542"><ele>247</ele><time>2020-10-21T12:52:20Z</time><name>PT3020</name></trkpt>
<trkpt lat="53.249184" lon="-2.073580"><ele>249</ele><time>2020-10-21T12:52:24Z</time><name>PT3021</name></trkpt>
<trkpt lat="53.249165" lon="-2.073605"><ele>248</ele><time>2020-10-21T12:52:27Z</time><name>PT3022</name></trkpt>
<trkpt lat="53.249151" lon="-2.073652"><ele>249</ele><time>2020-10-21T12:52:30Z</time><name>PT3023</name></trkpt>
<trkpt lat="53.249128" lon="-2.073698"><ele>249</ele><time>2020-10-21T12:52:33Z</time><name>PT3024</name></trkpt>
<trkpt lat="53.249088" lon="-2.073733"><ele>248</ele><time>2020-10-21T12:52:38Z</time><name>PT3025</name></trkpt>
<trkpt lat="53.249066" lon="-2.073739"><ele>248</ele><time>2020-10-21T12:52:41Z</time><name>PT3026</name></trkpt>
<trkpt lat="53.249022" lon="-2.073757"><ele>247</ele><time>2020-10-21T12:52:44Z</time><name>PT3027</name></trkpt>
<trkpt lat="53.248989" lon="-2.073771"><ele>245</ele><time>2020-10-21T12:52:47Z</time><name>PT3028</name></trkpt>
<trkpt lat="53.248943" lon="-2.073787"><ele>244</ele><time>2020-10-21T12:52:51Z</time><name>PT3029</name></trkpt>
<trkpt lat="53.248908" lon="-2.073805"><ele>245</ele><time>2020-10-21T12:52:54Z</time><name>PT3030</name></trkpt>
<trkpt lat="53.248861" lon="-2.073811"><ele>245</ele><time>2020-10-21T12:52:59Z</time><name>PT3031</name></trkpt>
<trkpt lat="53.248819" lon="-2.073818"><ele>244</ele><time>2020-10-21T12:53:02Z</time><name>PT3032</name></trkpt>
<trkpt lat="53.248782" lon="-2.073839"><ele>244</ele><time>2020-10-21T12:53:05Z</time><name>PT3033</name></trkpt>
<trkpt lat="53.248747" lon="-2.073852"><ele>245</ele><time>2020-10-21T12:53:08Z</time><name>PT3034</name></trkpt>
<trkpt lat="53.248715" lon="-2.073862"><ele>243</ele><time>2020-10-21T12:53:11Z</time><name>PT3035</name></trkpt>
<trkpt lat="53.248669" lon="-2.073860"><ele>242</ele><time>2020-10-21T12:53:15Z</time><name>PT3036</name></trkpt>
<trkpt lat="53.248637" lon="-2.073868"><ele>242</ele><time>2020-10-21T12:53:18Z</time><name>PT3037</name></trkpt>
<trkpt lat="53.248604" lon="-2.073857"><ele>243</ele><time>2020-10-21T12:53:21Z</time><name>PT3038</name></trkpt>
<trkpt lat="53.248582" lon="-2.073859"><ele>243</ele><time>2020-10-21T12:53:24Z</time><name>PT3039</name></trkpt>
<trkpt lat="53.248544" lon="-2.073861"><ele>244</ele><time>2020-10-21T12:53:29Z</time><name>PT3040</name></trkpt>
<trkpt lat="53.248526" lon="-2.073865"><ele>243</ele><time>2020-10-21T12:53:32Z</time><name>PT3041</name></trkpt>
<trkpt lat="53.248510" lon="-2.073873"><ele>243</ele><time>2020-10-21T12:53:36Z</time><name>PT3042</name></trkpt>
<trkpt lat="53.248500" lon="-2.073867"><ele>244</ele><time>2020-10-21T12:53:41Z</time><name>PT3043</name></trkpt>
<trkpt lat="53.248489" lon="-2.073869"><ele>243</ele><time>2020-10-21T12:53:44Z</time><name>PT3044</name></trkpt>
<trkpt lat="53.248473" lon="-2.073856"><ele>242</ele><time>2020-10-21T12:53:47Z</time><name>PT3045</name></trkpt>
<trkpt lat="53.248430" lon="-2.073846"><ele>240</ele><time>2020-10-21T12:53:51Z</time><name>PT3046</name></trkpt>
<trkpt lat="53.248382" lon="-2.073821"><ele>238</ele><time>2020-10-21T12:53:54Z</time><name>PT3047</name></trkpt>
<trkpt lat="53.248336" lon="-2.073810"><ele>238</ele><time>2020-10-21T12:53:57Z</time><name>PT3048</name></trkpt>
<trkpt lat="53.248297" lon="-2.073819"><ele>237</ele><time>2020-10-21T12:54:02Z</time><name>PT3049</name></trkpt>
<trkpt lat="53.248257" lon="-2.073810"><ele>237</ele><time>2020-10-21T12:54:05Z</time><name>PT3050</name></trkpt>
<trkpt lat="53.248219" lon="-2.073806"><ele>236</ele><time>2020-10-21T12:54:08Z</time><name>PT3051</name></trkpt>
<trkpt lat="53.248184" lon="-2.073797"><ele>236</ele><time>2020-10-21T12:54:11Z</time><name>PT3052</name></trkpt>
<trkpt lat="53.248113" lon="-2.073799"><ele>239</ele><time>2020-10-21T12:54:15Z</time><name>PT3053</name></trkpt>
<trkpt lat="53.248078" lon="-2.073799"><ele>238</ele><time>2020-10-21T12:54:18Z</time><name>PT3054</name></trkpt>
<trkpt lat="53.248033" lon="-2.073809"><ele>239</ele><time>2020-10-21T12:54:23Z</time><name>PT3055</name></trkpt>
<trkpt lat="53.248005" lon="-2.073812"><ele>238</ele><time>2020-10-21T12:54:26Z</time><name>PT3056</name></trkpt>
<trkpt lat="53.247974" lon="-2.073804"><ele>237</ele><time>2020-10-21T12:54:30Z</time><name>PT3057</name></trkpt>
<trkpt lat="53.247942" lon="-2.073805"><ele>237</ele><time>2020-10-21T12:54:33Z</time><name>PT3058</name></trkpt>
<trkpt lat="53.247929" lon="-2.073795"><ele>236</ele><time>2020-10-21T12:54:36Z</time><name>PT3059</name></trkpt>
<trkpt lat="53.247902" lon="-2.073782"><ele>236</ele><time>2020-10-21T12:54:39Z</time><name>PT3060</name></trkpt>
<trkpt lat="53.247871" lon="-2.073779"><ele>236</ele><time>2020-10-21T12:54:44Z</time><name>PT3061</name></trkpt>
<trkpt lat="53.247846" lon="-2.073785"><ele>236</ele><time>2020-10-21T12:54:47Z</time><name>PT3062</name></trkpt>
<trkpt lat="53.247821" lon="-2.073789"><ele>235</ele><time>2020-10-21T12:54:50Z</time><name>PT3063</name></trkpt>
<trkpt lat="53.247793" lon="-2.073800"><ele>233</ele><time>2020-10-21T12:54:54Z</time><name>PT3064</name></trkpt>
<trkpt lat="53.247772" lon="-2.073804"><ele>232</ele><time>2020-10-21T12:54:59Z</time><name>PT3065</name></trkpt>
<trkpt lat="53.247747" lon="-2.073815"><ele>231</ele><time>2020-10-21T12:55:02Z</time><name>PT3066</name></trkpt>
<trkpt lat="53.247704" lon="-2.073816"><ele>231</ele><time>2020-10-21T12:55:06Z</time><name>PT3067</name></trkpt>
<trkpt lat="53.247671" lon="-2.073820"><ele>231</ele><time>2020-10-21T12:55:11Z</time><name>PT3068</name></trkpt>
<trkpt lat="53.247627" lon="-2.073839"><ele>232</ele><time>2020-10-21T12:55:14Z</time><name>PT3069</name></trkpt>
<trkpt lat="53.247608" lon="-2.073864"><ele>231</ele><time>2020-10-21T12:55:17Z</time><name>PT3070</name></trkpt>
<trkpt lat="53.247582" lon="-2.073902"><ele>230</ele><time>2020-10-21T12:55:21Z</time><name>PT3071</name></trkpt>
<trkpt lat="53.247546" lon="-2.073942"><ele>230</ele><time>2020-10-21T12:55:24Z</time><name>PT3072</name></trkpt>
<trkpt lat="53.247523" lon="-2.073984"><ele>230</ele><time>2020-10-21T12:55:27Z</time><name>PT3073</name></trkpt>
<trkpt lat="53.247493" lon="-2.074021"><ele>231</ele><time>2020-10-21T12:55:30Z</time><name>PT3074</name></trkpt>
<trkpt lat="53.247455" lon="-2.074063"><ele>231</ele><time>2020-10-21T12:55:35Z</time><name>PT3075</name></trkpt>
<trkpt lat="53.247416" lon="-2.074102"><ele>231</ele><time>2020-10-21T12:55:38Z</time><name>PT3076</name></trkpt>
<trkpt lat="53.247385" lon="-2.074130"><ele>230</ele><time>2020-10-21T12:55:42Z</time><name>PT3077</name></trkpt>
<trkpt lat="53.247361" lon="-2.074170"><ele>231</ele><time>2020-10-21T12:55:47Z</time><name>PT3078</name></trkpt>
<trkpt lat="53.247335" lon="-2.074182"><ele>230</ele><time>2020-10-21T12:55:50Z</time><name>PT3079</name></trkpt>
<trkpt lat="53.247312" lon="-2.074221"><ele>230</ele><time>2020-10-21T12:55:53Z</time><name>PT3080</name></trkpt>
<trkpt lat="53.247290" lon="-2.074260"><ele>230</ele><time>2020-10-21T12:55:57Z</time><name>PT3081</name></trkpt>
<trkpt lat="53.247280" lon="-2.074288"><ele>231</ele><time>2020-10-21T12:56:02Z</time><name>PT3082</name></trkpt>
<trkpt lat="53.247270" lon="-2.074286"><ele>229</ele><time>2020-10-21T12:56:05Z</time><name>PT3083</name></trkpt>
<trkpt lat="53.247259" lon="-2.074292"><ele>229</ele><time>2020-10-21T12:56:08Z</time><name>PT3084</name></trkpt>
<trkpt lat="53.247240" lon="-2.074312"><ele>231</ele><time>2020-10-21T12:56:11Z</time><name>PT3085</name></trkpt>
<trkpt lat="53.247221" lon="-2.074352"><ele>232</ele><time>2020-10-21T12:56:21Z</time><name>PT3086</name></trkpt>
<trkpt lat="53.247209" lon="-2.074377"><ele>231</ele><time>2020-10-21T12:56:26Z</time><name>PT3087</name></trkpt>
<trkpt lat="53.247208" lon="-2.074394"><ele>232</ele><time>2020-10-21T12:56:29Z</time><name>PT3088</name></trkpt>
<trkpt lat="53.247204" lon="-2.074419"><ele>230</ele><time>2020-10-21T12:56:32Z</time><name>PT3089</name></trkpt>
<trkpt lat="53.247209" lon="-2.074451"><ele>229</ele><time>2020-10-21T12:56:35Z</time><name>PT3090</name></trkpt>
<trkpt lat="53.247218" lon="-2.074481"><ele>229</ele><time>2020-10-21T12:56:38Z</time><name>PT3091</name></trkpt>
<trkpt lat="53.247219" lon="-2.074517"><ele>229</ele><time>2020-10-21T12:56:42Z</time><name>PT3092</name></trkpt>
<trkpt lat="53.247217" lon="-2.074522"><ele>229</ele><time>2020-10-21T12:56:45Z</time><name>PT3093</name></trkpt>
<trkpt lat="53.247215" lon="-2.074524"><ele>229</ele><time>2020-10-21T12:56:53Z</time><name>PT3094</name></trkpt>
<trkpt lat="53.247239" lon="-2.074540"><ele>229</ele><time>2020-10-21T12:56:56Z</time><name>PT3095</name></trkpt>
<trkpt lat="53.247258" lon="-2.074538"><ele>228</ele><time>2020-10-21T12:56:59Z</time><name>PT3096</name></trkpt>
<trkpt lat="53.247271" lon="-2.074553"><ele>229</ele><time>2020-10-21T12:57:02Z</time><name>PT3097</name></trkpt>
<trkpt lat="53.247293" lon="-2.074571"><ele>228</ele><time>2020-10-21T12:57:05Z</time><name>PT3098</name></trkpt>
<trkpt lat="53.247314" lon="-2.074590"><ele>229</ele><time>2020-10-21T12:57:08Z</time><name>PT3099</name></trkpt>
<trkpt lat="53.247339" lon="-2.074608"><ele>228</ele><time>2020-10-21T12:57:11Z</time><name>PT3100</name></trkpt>
<trkpt lat="53.247355" lon="-2.074626"><ele>229</ele><time>2020-10-21T12:57:14Z</time><name>PT3101</name></trkpt>
<trkpt lat="53.247358" lon="-2.074654"><ele>230</ele><time>2020-10-21T12:57:18Z</time><name>PT3102</name></trkpt>
<trkpt lat="53.247371" lon="-2.074672"><ele>231</ele><time>2020-10-21T12:57:21Z</time><name>PT3103</name></trkpt>
<trkpt lat="53.247387" lon="-2.074696"><ele>232</ele><time>2020-10-21T12:57:26Z</time><name>PT3104</name></trkpt>
<trkpt lat="53.247395" lon="-2.074712"><ele>232</ele><time>2020-10-21T12:57:29Z</time><name>PT3105</name></trkpt>
<trkpt lat="53.247408" lon="-2.074729"><ele>233</ele><time>2020-10-21T12:57:32Z</time><name>PT3106</name></trkpt>
<trkpt lat="53.247438" lon="-2.074760"><ele>234</ele><time>2020-10-21T12:57:35Z</time><name>PT3107</name></trkpt>
<trkpt lat="53.247464" lon="-2.074785"><ele>237</ele><time>2020-10-21T12:57:39Z</time><name>PT3108</name></trkpt>
<trkpt lat="53.247475" lon="-2.074792"><ele>237</ele><time>2020-10-21T12:57:42Z</time><name>PT3109</name></trkpt>
<trkpt lat="53.247489" lon="-2.074808"><ele>239</ele><time>2020-10-21T12:57:47Z</time><name>PT3110</name></trkpt>
<trkpt lat="53.247500" lon="-2.074809"><ele>241</ele><time>2020-10-21T12:57:50Z</time><name>PT3111</name></trkpt>
<trkpt lat="53.247487" lon="-2.074837"><ele>239</ele><time>2020-10-21T12:57:53Z</time><name>PT3112</name></trkpt>
<trkpt lat="53.247468" lon="-2.074860"><ele>235</ele><time>2020-10-21T12:57:56Z</time><name>PT3113</name></trkpt>
<trkpt lat="53.247458" lon="-2.074866"><ele>234</ele><time>2020-10-21T12:57:59Z</time><name>PT3114</name></trkpt>
<trkpt lat="53.247446" lon="-2.074892"><ele>232</ele><time>2020-10-21T12:58:03Z</time><name>PT3115</name></trkpt>
<trkpt lat="53.247435" lon="-2.074926"><ele>233</ele><time>2020-10-21T12:58:06Z</time><name>PT3116</name></trkpt>
<trkpt lat="53.247424" lon="-2.074951"><ele>233</ele><time>2020-10-21T12:58:09Z</time><name>PT3117</name></trkpt>
<trkpt lat="53.247399" lon="-2.074988"><ele>232</ele><time>2020-10-21T12:58:14Z</time><name>PT3118</name></trkpt>
<trkpt lat="53.247392" lon="-2.075051"><ele>234</ele><time>2020-10-21T12:58:17Z</time><name>PT3119</name></trkpt>
<trkpt lat="53.247381" lon="-2.075091"><ele>234</ele><time>2020-10-21T12:58:20Z</time><name>PT3120</name></trkpt>
<trkpt lat="53.247382" lon="-2.075116"><ele>235</ele><time>2020-10-21T12:58:23Z</time><name>PT3121</name></trkpt>
<trkpt lat="53.247382" lon="-2.075173"><ele>235</ele><time>2020-10-21T12:58:26Z</time><name>PT3122</name></trkpt>
<trkpt lat="53.247371" lon="-2.075246"><ele>236</ele><time>2020-10-21T12:58:30Z</time><name>PT3123</name></trkpt>
<trkpt lat="53.247369" lon="-2.075284"><ele>236</ele><time>2020-10-21T12:58:33Z</time><name>PT3124</name></trkpt>
<trkpt lat="53.247346" lon="-2.075338"><ele>238</ele><time>2020-10-21T12:58:38Z</time><name>PT3125</name></trkpt>
<trkpt lat="53.247320" lon="-2.075360"><ele>237</ele><time>2020-10-21T12:58:41Z</time><name>PT3126</name></trkpt>
<trkpt lat="53.247303" lon="-2.075394"><ele>238</ele><time>2020-10-21T12:58:44Z</time><name>PT3127</name></trkpt>
<trkpt lat="53.247286" lon="-2.075421"><ele>239</ele><time>2020-10-21T12:58:47Z</time><name>PT3128</name></trkpt>
<trkpt lat="53.247267" lon="-2.075478"><ele>241</ele><time>2020-10-21T12:58:51Z</time><name>PT3129</name></trkpt>
<trkpt lat="53.247243" lon="-2.075516"><ele>243</ele><time>2020-10-21T12:58:56Z</time><name>PT3130</name></trkpt>
<trkpt lat="53.247218" lon="-2.075549"><ele>244</ele><time>2020-10-21T12:58:59Z</time><name>PT3131</name></trkpt>
<trkpt lat="53.247193" lon="-2.075576"><ele>242</ele><time>2020-10-21T12:59:03Z</time><name>PT3132</name></trkpt>
<trkpt lat="53.247176" lon="-2.075603"><ele>243</ele><time>2020-10-21T12:59:06Z</time><name>PT3133</name></trkpt>
<trkpt lat="53.247153" lon="-2.075644"><ele>243</ele><time>2020-10-21T12:59:09Z</time><name>PT3134</name></trkpt>
<trkpt lat="53.247131" lon="-2.075664"><ele>243</ele><time>2020-10-21T12:59:12Z</time><name>PT3135</name></trkpt>
<trkpt lat="53.247101" lon="-2.075687"><ele>245</ele><time>2020-10-21T12:59:15Z</time><name>PT3136</name></trkpt>
<trkpt lat="53.247087" lon="-2.075733"><ele>244</ele><time>2020-10-21T12:59:20Z</time><name>PT3137</name></trkpt>
<trkpt lat="53.247064" lon="-2.075740"><ele>244</ele><time>2020-10-21T12:59:23Z</time><name>PT3138</name></trkpt>
<trkpt lat="53.247023" lon="-2.075764"><ele>243</ele><time>2020-10-21T12:59:26Z</time><name>PT3139</name></trkpt>
<trkpt lat="53.247005" lon="-2.075801"><ele>241</ele><time>2020-10-21T12:59:30Z</time><name>PT3140</name></trkpt>
<trkpt lat="53.246980" lon="-2.075837"><ele>240</ele><time>2020-10-21T12:59:35Z</time><name>PT3141</name></trkpt>
<trkpt lat="53.246953" lon="-2.075856"><ele>239</ele><time>2020-10-21T12:59:38Z</time><name>PT3142</name></trkpt>
<trkpt lat="53.246935" lon="-2.075869"><ele>238</ele><time>2020-10-21T12:59:41Z</time><name>PT3143</name></trkpt>
<trkpt lat="53.246898" lon="-2.075889"><ele>238</ele><time>2020-10-21T12:59:44Z</time><name>PT3144</name></trkpt>
<trkpt lat="53.246870" lon="-2.075926"><ele>239</ele><time>2020-10-21T12:59:47Z</time><name>PT3145</name></trkpt>
<trkpt lat="53.246850" lon="-2.075947"><ele>238</ele><time>2020-10-21T12:59:50Z</time><name>PT3146</name></trkpt>
<trkpt lat="53.246818" lon="-2.075975"><ele>236</ele><time>2020-10-21T12:59:54Z</time><name>PT3147</name></trkpt>
<trkpt lat="53.246805" lon="-2.076026"><ele>235</ele><time>2020-10-21T12:59:59Z</time><name>PT3148</name></trkpt>
<trkpt lat="53.246796" lon="-2.076040"><ele>234</ele><time>2020-10-21T13:00:02Z</time><name>PT3149</name></trkpt>
<trkpt lat="53.246786" lon="-2.076050"><ele>233</ele><time>2020-10-21T13:00:05Z</time><name>PT3150</name></trkpt>
<trkpt lat="53.246767" lon="-2.076073"><ele>232</ele><time>2020-10-21T13:00:08Z</time><name>PT3151</name></trkpt>
<trkpt lat="53.246746" lon="-2.076106"><ele>231</ele><time>2020-10-21T13:00:11Z</time><name>PT3152</name></trkpt>
<trkpt lat="53.246704" lon="-2.076160"><ele>232</ele><time>2020-10-21T13:00:14Z</time><name>PT3153</name></trkpt>
<trkpt lat="53.246686" lon="-2.076184"><ele>232</ele><time>2020-10-21T13:00:18Z</time><name>PT3154</name></trkpt>
<trkpt lat="53.246676" lon="-2.076218"><ele>234</ele><time>2020-10-21T13:00:21Z</time><name>PT3155</name></trkpt>
<trkpt lat="53.246662" lon="-2.076266"><ele>235</ele><time>2020-10-21T13:00:24Z</time><name>PT3156</name></trkpt>
<trkpt lat="53.246641" lon="-2.076297"><ele>236</ele><time>2020-10-21T13:00:27Z</time><name>PT3157</name></trkpt>
<trkpt lat="53.246611" lon="-2.076399"><ele>241</ele><time>2020-10-21T13:00:30Z</time><name>PT3158</name></trkpt>
<trkpt lat="53.246569" lon="-2.076500"><ele>247</ele><time>2020-10-21T13:00:35Z</time><name>PT3159</name></trkpt>
<trkpt lat="53.246539" lon="-2.076563"><ele>250</ele><time>2020-10-21T13:00:38Z</time><name>PT3160</name></trkpt>
<trkpt lat="53.246506" lon="-2.076620"><ele>253</ele><time>2020-10-21T13:00:41Z</time><name>PT3161</name></trkpt>
<trkpt lat="53.246490" lon="-2.076669"><ele>254</ele><time>2020-10-21T13:00:44Z</time><name>PT3162</name></trkpt>
<trkpt lat="53.246475" lon="-2.076714"><ele>255</ele><time>2020-10-21T13:00:47Z</time><name>PT3163</name></trkpt>
<trkpt lat="53.246459" lon="-2.076767"><ele>256</ele><time>2020-10-21T13:00:50Z</time><name>PT3164</name></trkpt>
<trkpt lat="53.246451" lon="-2.076826"><ele>258</ele><time>2020-10-21T13:00:54Z</time><name>PT3165</name></trkpt>
<trkpt lat="53.246438" lon="-2.076861"><ele>260</ele><time>2020-10-21T13:00:57Z</time><name>PT3166</name></trkpt>
<trkpt lat="53.246417" lon="-2.076900"><ele>260</ele><time>2020-10-21T13:01:02Z</time><name>PT3167</name></trkpt>
<trkpt lat="53.246374" lon="-2.076951"><ele>261</ele><time>2020-10-21T13:01:05Z</time><name>PT3168</name></trkpt>
<trkpt lat="53.246353" lon="-2.077014"><ele>262</ele><time>2020-10-21T13:01:09Z</time><name>PT3169</name></trkpt>
<trkpt lat="53.246330" lon="-2.077060"><ele>263</ele><time>2020-10-21T13:01:12Z</time><name>PT3170</name></trkpt>
<trkpt lat="53.246293" lon="-2.077095"><ele>263</ele><time>2020-10-21T13:01:17Z</time><name>PT3171</name></trkpt>
<trkpt lat="53.246260" lon="-2.077150"><ele>263</ele><time>2020-10-21T13:01:20Z</time><name>PT3172</name></trkpt>
<trkpt lat="53.246224" lon="-2.077201"><ele>264</ele><time>2020-10-21T13:01:24Z</time><name>PT3173</name></trkpt>
<trkpt lat="53.246191" lon="-2.077237"><ele>262</ele><time>2020-10-21T13:01:29Z</time><name>PT3174</name></trkpt>
<trkpt lat="53.246169" lon="-2.077268"><ele>262</ele><time>2020-10-21T13:01:32Z</time><name>PT3175</name></trkpt>
<trkpt lat="53.246137" lon="-2.077314"><ele>263</ele><time>2020-10-21T13:01:35Z</time><name>PT3176</name></trkpt>
<trkpt lat="53.246109" lon="-2.077338"><ele>264</ele><time>2020-10-21T13:01:38Z</time><name>PT3177</name></trkpt>
<trkpt lat="53.246090" lon="-2.077373"><ele>262</ele><time>2020-10-21T13:01:41Z</time><name>PT3178</name></trkpt>
<trkpt lat="53.246068" lon="-2.077442"><ele>263</ele><time>2020-10-21T13:01:45Z</time><name>PT3179</name></trkpt>
<trkpt lat="53.246055" lon="-2.077489"><ele>262</ele><time>2020-10-21T13:01:48Z</time><name>PT3180</name></trkpt>
<trkpt lat="53.246036" lon="-2.077534"><ele>263</ele><time>2020-10-21T13:01:53Z</time><name>PT3181</name></trkpt>
<trkpt lat="53.246026" lon="-2.077554"><ele>263</ele><time>2020-10-21T13:01:56Z</time><name>PT3182</name></trkpt>
<trkpt lat="53.246016" lon="-2.077560"><ele>263</ele><time>2020-10-21T13:01:59Z</time><name>PT3183</name></trkpt>
<trkpt lat="53.245987" lon="-2.077604"><ele>262</ele><time>2020-10-21T13:02:06Z</time><name>PT3184</name></trkpt>
<trkpt lat="53.245961" lon="-2.077614"><ele>260</ele><time>2020-10-21T13:02:09Z</time><name>PT3185</name></trkpt>
<trkpt lat="53.245928" lon="-2.077658"><ele>258</ele><time>2020-10-21T13:02:14Z</time><name>PT3186</name></trkpt>
<trkpt lat="53.245893" lon="-2.077680"><ele>256</ele><time>2020-10-21T13:02:17Z</time><name>PT3187</name></trkpt>
<trkpt lat="53.245878" lon="-2.077700"><ele>255</ele><time>2020-10-21T13:02:20Z</time><name>PT3188</name></trkpt>
<trkpt lat="53.245859" lon="-2.077715"><ele>253</ele><time>2020-10-21T13:02:23Z</time><name>PT3189</name></trkpt>
<trkpt lat="53.245828" lon="-2.077741"><ele>252</ele><time>2020-10-21T13:02:26Z</time><name>PT3190</name></trkpt>
<trkpt lat="53.245800" lon="-2.077802"><ele>252</ele><time>2020-10-21T13:02:30Z</time><name>PT3191</name></trkpt>
<trkpt lat="53.245787" lon="-2.077820"><ele>252</ele><time>2020-10-21T13:02:33Z</time><name>PT3192</name></trkpt>
<trkpt lat="53.245769" lon="-2.077843"><ele>251</ele><time>2020-10-21T13:02:36Z</time><name>PT3193</name></trkpt>
<trkpt lat="53.245756" lon="-2.077863"><ele>250</ele><time>2020-10-21T13:02:40Z</time><name>PT3194</name></trkpt>
<trkpt lat="53.245740" lon="-2.077882"><ele>248</ele><time>2020-10-21T13:02:44Z</time><name>PT3195</name></trkpt>
<trkpt lat="53.245713" lon="-2.077903"><ele>247</ele><time>2020-10-21T13:02:47Z</time><name>PT3196</name></trkpt>
<trkpt lat="53.245691" lon="-2.077962"><ele>246</ele><time>2020-10-21T13:02:51Z</time><name>PT3197</name></trkpt>
<trkpt lat="53.245681" lon="-2.078010"><ele>245</ele><time>2020-10-21T13:02:56Z</time><name>PT3198</name></trkpt>
<trkpt lat="53.245674" lon="-2.078055"><ele>245</ele><time>2020-10-21T13:02:59Z</time><name>PT3199</name></trkpt>
<trkpt lat="53.245657" lon="-2.078116"><ele>247</ele><time>2020-10-21T13:03:02Z</time><name>PT3200</name></trkpt>
<trkpt lat="53.245632" lon="-2.078157"><ele>249</ele><time>2020-10-21T13:03:05Z</time><name>PT3201</name></trkpt>
<trkpt lat="53.245615" lon="-2.078196"><ele>247</ele><time>2020-10-21T13:03:09Z</time><name>PT3202</name></trkpt>
<trkpt lat="53.245620" lon="-2.078235"><ele>248</ele><time>2020-10-21T13:03:12Z</time><name>PT3203</name></trkpt>
<trkpt lat="53.245608" lon="-2.078288"><ele>252</ele><time>2020-10-21T13:03:15Z</time><name>PT3204</name></trkpt>
<trkpt lat="53.245606" lon="-2.078301"><ele>253</ele><time>2020-10-21T13:03:20Z</time><name>PT3205</name></trkpt>
<trkpt lat="53.245592" lon="-2.078356"><ele>252</ele><time>2020-10-21T13:03:30Z</time><name>PT3206</name></trkpt>
<trkpt lat="53.245590" lon="-2.078408"><ele>252</ele><time>2020-10-21T13:03:33Z</time><name>PT3207</name></trkpt>
<trkpt lat="53.245589" lon="-2.078428"><ele>252</ele><time>2020-10-21T13:03:38Z</time><name>PT3208</name></trkpt>
<trkpt lat="53.245590" lon="-2.078458"><ele>255</ele><time>2020-10-21T13:03:59Z</time><name>PT3209</name></trkpt>
<trkpt lat="53.245584" lon="-2.078458"><ele>256</ele><time>2020-10-21T13:04:35Z</time><name>PT3210</name></trkpt>
<trkpt lat="53.245576" lon="-2.078462"><ele>257</ele><time>2020-10-21T13:04:57Z</time><name>PT3211</name></trkpt>
<trkpt lat="53.245582" lon="-2.078464"><ele>257</ele><time>2020-10-21T13:05:02Z</time><name>PT3212</name></trkpt>
<trkpt lat="53.245585" lon="-2.078487"><ele>258</ele><time>2020-10-21T13:05:05Z</time><name>PT3213</name></trkpt>
<trkpt lat="53.245596" lon="-2.078506"><ele>258</ele><time>2020-10-21T13:05:08Z</time><name>PT3214</name></trkpt>
<trkpt lat="53.245586" lon="-2.078532"><ele>258</ele><time>2020-10-21T13:05:12Z</time><name>PT3215</name></trkpt>
<trkpt lat="53.245586" lon="-2.078542"><ele>258</ele><time>2020-10-21T13:05:15Z</time><name>PT3216</name></trkpt>
<trkpt lat="53.245574" lon="-2.078547"><ele>256</ele><time>2020-10-21T13:05:18Z</time><name>PT3217</name></trkpt>
<trkpt lat="53.245573" lon="-2.078574"><ele>254</ele><time>2020-10-21T13:05:23Z</time><name>PT3218</name></trkpt>
<trkpt lat="53.245555" lon="-2.078611"><ele>253</ele><time>2020-10-21T13:05:26Z</time><name>PT3219</name></trkpt>
<trkpt lat="53.245552" lon="-2.078646"><ele>251</ele><time>2020-10-21T13:05:29Z</time><name>PT3220</name></trkpt>
<trkpt lat="53.245537" lon="-2.078686"><ele>251</ele><time>2020-10-21T13:05:33Z</time><name>PT3221</name></trkpt>
<trkpt lat="53.245515" lon="-2.078698"><ele>249</ele><time>2020-10-21T13:05:36Z</time><name>PT3222</name></trkpt>
<trkpt lat="53.245500" lon="-2.078730"><ele>249</ele><time>2020-10-21T13:05:39Z</time><name>PT3223</name></trkpt>
<trkpt lat="53.245479" lon="-2.078749"><ele>252</ele><time>2020-10-21T13:05:44Z</time><name>PT3224</name></trkpt>
<trkpt lat="53.245468" lon="-2.078766"><ele>251</ele><time>2020-10-21T13:05:47Z</time><name>PT3225</name></trkpt>
<trkpt lat="53.245455" lon="-2.078795"><ele>252</ele><time>2020-10-21T13:05:50Z</time><name>PT3226</name></trkpt>
<trkpt lat="53.245456" lon="-2.078822"><ele>253</ele><time>2020-10-21T13:05:53Z</time><name>PT3227</name></trkpt>
<trkpt lat="53.245455" lon="-2.078843"><ele>252</ele><time>2020-10-21T13:05:56Z</time><name>PT3228</name></trkpt>
<trkpt lat="53.245457" lon="-2.078877"><ele>250</ele><time>2020-10-21T13:06:00Z</time><name>PT3229</name></trkpt>
<trkpt lat="53.245462" lon="-2.078895"><ele>249</ele><time>2020-10-21T13:06:05Z</time><name>PT3230</name></trkpt>
<trkpt lat="53.245457" lon="-2.078910"><ele>248</ele><time>2020-10-21T13:06:08Z</time><name>PT3231</name></trkpt>
<trkpt lat="53.245430" lon="-2.078961"><ele>245</ele><time>2020-10-21T13:06:11Z</time><name>PT3232</name></trkpt>
<trkpt lat="53.245425" lon="-2.078997"><ele>244</ele><time>2020-10-21T13:06:14Z</time><name>PT3233</name></trkpt>
<trkpt lat="53.245419" lon="-2.079031"><ele>243</ele><time>2020-10-21T13:06:17Z</time><name>PT3234</name></trkpt>
<trkpt lat="53.245404" lon="-2.079057"><ele>242</ele><time>2020-10-21T13:06:20Z</time><name>PT3235</name></trkpt>
<trkpt lat="53.245403" lon="-2.079141"><ele>246</ele><time>2020-10-21T13:06:24Z</time><name>PT3236</name></trkpt>
<trkpt lat="53.245401" lon="-2.079183"><ele>247</ele><time>2020-10-21T13:06:27Z</time><name>PT3237</name></trkpt>
<trkpt lat="53.245408" lon="-2.079248"><ele>244</ele><time>2020-10-21T13:06:32Z</time><name>PT3238</name></trkpt>
<trkpt lat="53.245386" lon="-2.079292"><ele>241</ele><time>2020-10-21T13:06:35Z</time><name>PT3239</name></trkpt>
<trkpt lat="53.245356" lon="-2.079353"><ele>241</ele><time>2020-10-21T13:06:38Z</time><name>PT3240</name></trkpt>
<trkpt lat="53.245322" lon="-2.079414"><ele>242</ele><time>2020-10-21T13:06:42Z</time><name>PT3241</name></trkpt>
<trkpt lat="53.245298" lon="-2.079466"><ele>243</ele><time>2020-10-21T13:06:45Z</time><name>PT3242</name></trkpt>
<trkpt lat="53.245284" lon="-2.079534"><ele>240</ele><time>2020-10-21T13:06:50Z</time><name>PT3243</name></trkpt>
<trkpt lat="53.245274" lon="-2.079583"><ele>237</ele><time>2020-10-21T13:06:53Z</time><name>PT3244</name></trkpt>
<trkpt lat="53.245267" lon="-2.079633"><ele>238</ele><time>2020-10-21T13:06:56Z</time><name>PT3245</name></trkpt>
<trkpt lat="53.245251" lon="-2.079696"><ele>240</ele><time>2020-10-21T13:07:00Z</time><name>PT3246</name></trkpt>
<trkpt lat="53.245243" lon="-2.079739"><ele>241</ele><time>2020-10-21T13:07:03Z</time><name>PT3247</name></trkpt>
<trkpt lat="53.245230" lon="-2.079784"><ele>241</ele><time>2020-10-21T13:07:08Z</time><name>PT3248</name></trkpt>
<trkpt lat="53.245215" lon="-2.079876"><ele>244</ele><time>2020-10-21T13:07:11Z</time><name>PT3249</name></trkpt>
<trkpt lat="53.245200" lon="-2.079955"><ele>245</ele><time>2020-10-21T13:07:15Z</time><name>PT3250</name></trkpt>
<trkpt lat="53.245187" lon="-2.080016"><ele>243</ele><time>2020-10-21T13:07:20Z</time><name>PT3251</name></trkpt>
<trkpt lat="53.245153" lon="-2.080098"><ele>244</ele><time>2020-10-21T13:07:23Z</time><name>PT3252</name></trkpt>
<trkpt lat="53.245133" lon="-2.080153"><ele>242</ele><time>2020-10-21T13:07:27Z</time><name>PT3253</name></trkpt>
<trkpt lat="53.245129" lon="-2.080207"><ele>243</ele><time>2020-10-21T13:07:32Z</time><name>PT3254</name></trkpt>
<trkpt lat="53.245135" lon="-2.080236"><ele>244</ele><time>2020-10-21T13:07:35Z</time><name>PT3255</name></trkpt>
<trkpt lat="53.245134" lon="-2.080305"><ele>245</ele><time>2020-10-21T13:07:38Z</time><name>PT3256</name></trkpt>
<trkpt lat="53.245121" lon="-2.080349"><ele>242</ele><time>2020-10-21T13:07:41Z</time><name>PT3257</name></trkpt>
<trkpt lat="53.245106" lon="-2.080428"><ele>240</ele><time>2020-10-21T13:07:45Z</time><name>PT3258</name></trkpt>
<trkpt lat="53.245108" lon="-2.080497"><ele>239</ele><time>2020-10-21T13:07:50Z</time><name>PT3259</name></trkpt>
<trkpt lat="53.245099" lon="-2.080527"><ele>238</ele><time>2020-10-21T13:07:53Z</time><name>PT3260</name></trkpt>
<trkpt lat="53.245102" lon="-2.080591"><ele>240</ele><time>2020-10-21T13:07:57Z</time><name>PT3261</name></trkpt>
<trkpt lat="53.245083" lon="-2.080641"><ele>242</ele><time>2020-10-21T13:08:02Z</time><name>PT3262</name></trkpt>
<trkpt lat="53.245082" lon="-2.080661"><ele>242</ele><time>2020-10-21T13:08:05Z</time><name>PT3263</name></trkpt>
<trkpt lat="53.245084" lon="-2.080747"><ele>240</ele><time>2020-10-21T13:08:08Z</time><name>PT3264</name></trkpt>
<trkpt lat="53.245095" lon="-2.080797"><ele>238</ele><time>2020-10-21T13:08:11Z</time><name>PT3265</name></trkpt>
<trkpt lat="53.245068" lon="-2.080818"><ele>237</ele><time>2020-10-21T13:08:14Z</time><name>PT3266</name></trkpt>
<trkpt lat="53.245054" lon="-2.080867"><ele>235</ele><time>2020-10-21T13:08:17Z</time><name>PT3267</name></trkpt>
<trkpt lat="53.245050" lon="-2.080902"><ele>233</ele><time>2020-10-21T13:08:20Z</time><name>PT3268</name></trkpt>
<trkpt lat="53.245039" lon="-2.080929"><ele>231</ele><time>2020-10-21T13:08:23Z</time><name>PT3269</name></trkpt>
<trkpt lat="53.245038" lon="-2.080986"><ele>231</ele><time>2020-10-21T13:08:26Z</time><name>PT3270</name></trkpt>
<trkpt lat="53.245053" lon="-2.081036"><ele>231</ele><time>2020-10-21T13:08:30Z</time><name>PT3271</name></trkpt>
<trkpt lat="53.245060" lon="-2.081092"><ele>231</ele><time>2020-10-21T13:08:35Z</time><name>PT3272</name></trkpt>
<trkpt lat="53.245075" lon="-2.081092"><ele>230</ele><time>2020-10-21T13:08:38Z</time><name>PT3273</name></trkpt>
<trkpt lat="53.245086" lon="-2.081165"><ele>230</ele><time>2020-10-21T13:08:41Z</time><name>PT3274</name></trkpt>
<trkpt lat="53.245094" lon="-2.081211"><ele>230</ele><time>2020-10-21T13:08:44Z</time><name>PT3275</name></trkpt>
<trkpt lat="53.245111" lon="-2.081287"><ele>232</ele><time>2020-10-21T13:08:48Z</time><name>PT3276</name></trkpt>
<trkpt lat="53.245133" lon="-2.081383"><ele>235</ele><time>2020-10-21T13:08:53Z</time><name>PT3277</name></trkpt>
<trkpt lat="53.245155" lon="-2.081494"><ele>237</ele><time>2020-10-21T13:08:56Z</time><name>PT3278</name></trkpt>
<trkpt lat="53.245166" lon="-2.081561"><ele>239</ele><time>2020-10-21T13:08:59Z</time><name>PT3279</name></trkpt>
<trkpt lat="53.245181" lon="-2.081621"><ele>240</ele><time>2020-10-21T13:09:02Z</time><name>PT3280</name></trkpt>
<trkpt lat="53.245207" lon="-2.081746"><ele>246</ele><time>2020-10-21T13:09:06Z</time><name>PT3281</name></trkpt>
<trkpt lat="53.245222" lon="-2.081825"><ele>249</ele><time>2020-10-21T13:09:09Z</time><name>PT3282</name></trkpt>
<trkpt lat="53.245252" lon="-2.081887"><ele>252</ele><time>2020-10-21T13:09:14Z</time><name>PT3283</name></trkpt>
<trkpt lat="53.245251" lon="-2.081905"><ele>251</ele><time>2020-10-21T13:09:14Z</time><name>PT3284</name></trkpt>
<trkpt lat="53.245254" lon="-2.081921"><ele>251</ele><time>2020-10-21T13:09:15Z</time><name>PT3285</name></trkpt>
<trkpt lat="53.245260" lon="-2.081937"><ele>251</ele><time>2020-10-21T13:09:17Z</time><name>PT3286</name></trkpt>
<trkpt lat="53.245265" lon="-2.081952"><ele>250</ele><time>2020-10-21T13:09:17Z</time><name>PT3287</name></trkpt>
<trkpt lat="53.245270" lon="-2.081962"><ele>249</ele><time>2020-10-21T13:09:18Z</time><name>PT3288</name></trkpt>
<trkpt lat="53.245274" lon="-2.081976"><ele>249</ele><time>2020-10-21T13:09:20Z</time><name>PT3289</name></trkpt>
<trkpt lat="53.245274" lon="-2.081980"><ele>248</ele><time>2020-10-21T13:09:20Z</time><name>PT3290</name></trkpt>
<trkpt lat="53.245272" lon="-2.081981"><ele>248</ele><time>2020-10-21T13:09:21Z</time><name>PT3291</name></trkpt>
<trkpt lat="53.245269" lon="-2.081984"><ele>248</ele><time>2020-10-21T13:09:23Z</time><name>PT3292</name></trkpt>
<trkpt lat="53.245272" lon="-2.081989"><ele>248</ele><time>2020-10-21T13:09:23Z</time><name>PT3293</name></trkpt>
<trkpt lat="53.245277" lon="-2.082002"><ele>248</ele><time>2020-10-21T13:09:24Z</time><name>PT3294</name></trkpt>
<trkpt lat="53.245284" lon="-2.082014"><ele>248</ele><time>2020-10-21T13:09:26Z</time><name>PT3295</name></trkpt>
<trkpt lat="53.245290" lon="-2.082025"><ele>249</ele><time>2020-10-21T13:09:26Z</time><name>PT3296</name></trkpt>
<trkpt lat="53.245293" lon="-2.082034"><ele>248</ele><time>2020-10-21T13:09:27Z</time><name>PT3297</name></trkpt>
<trkpt lat="53.245295" lon="-2.082045"><ele>248</ele><time>2020-10-21T13:09:29Z</time><name>PT3298</name></trkpt>
<trkpt lat="53.245296" lon="-2.082052"><ele>248</ele><time>2020-10-21T13:09:29Z</time><name>PT3299</name></trkpt>
<trkpt lat="53.245295" lon="-2.082053"><ele>248</ele><time>2020-10-21T13:09:30Z</time><name>PT3300</name></trkpt>
<trkpt lat="53.245291" lon="-2.082063"><ele>249</ele><time>2020-10-21T13:09:32Z</time><name>PT3301</name></trkpt>
<trkpt lat="53.245289" lon="-2.082063"><ele>249</ele><time>2020-10-21T13:09:32Z</time><name>PT3302</name></trkpt>
<trkpt lat="53.245290" lon="-2.082070"><ele>249</ele><time>2020-10-21T13:09:35Z</time><name>PT3303</name></trkpt>
<trkpt lat="53.245293" lon="-2.082068"><ele>249</ele><time>2020-10-21T13:09:35Z</time><name>PT3304</name></trkpt>
<trkpt lat="53.245293" lon="-2.082072"><ele>249</ele><time>2020-10-21T13:09:36Z</time><name>PT3305</name></trkpt>
<trkpt lat="53.245296" lon="-2.082078"><ele>248</ele><time>2020-10-21T13:09:38Z</time><name>PT3306</name></trkpt>
<trkpt lat="53.245299" lon="-2.082093"><ele>249</ele><time>2020-10-21T13:09:38Z</time><name>PT3307</name></trkpt>
<trkpt lat="53.245303" lon="-2.082101"><ele>249</ele><time>2020-10-21T13:09:39Z</time><name>PT3308</name></trkpt>
<trkpt lat="53.245310" lon="-2.082110"><ele>249</ele><time>2020-10-21T13:09:41Z</time><name>PT3309</name></trkpt>
<trkpt lat="53.245315" lon="-2.082114"><ele>249</ele><time>2020-10-21T13:09:41Z</time><name>PT3310</name></trkpt>
<trkpt lat="53.245325" lon="-2.082124"><ele>249</ele><time>2020-10-21T13:09:42Z</time><name>PT3311</name></trkpt>
<trkpt lat="53.245328" lon="-2.082133"><ele>250</ele><time>2020-10-21T13:09:44Z</time><name>PT3312</name></trkpt>
<trkpt lat="53.245335" lon="-2.082136"><ele>250</ele><time>2020-10-21T13:09:44Z</time><name>PT3313</name></trkpt>
<trkpt lat="53.245339" lon="-2.082140"><ele>249</ele><time>2020-10-21T13:09:45Z</time><name>PT3314</name></trkpt>
<trkpt lat="53.245343" lon="-2.082136"><ele>250</ele><time>2020-10-21T13:09:47Z</time><name>PT3315</name></trkpt>
<trkpt lat="53.245345" lon="-2.082134"><ele>249</ele><time>2020-10-21T13:09:47Z</time><name>PT3316</name></trkpt>
<trkpt lat="53.245347" lon="-2.082131"><ele>250</ele><time>2020-10-21T13:09:48Z</time><name>PT3317</name></trkpt>
<trkpt lat="53.245347" lon="-2.082128"><ele>249</ele><time>2020-10-21T13:09:50Z</time><name>PT3318</name></trkpt>
<trkpt lat="53.245348" lon="-2.082123"><ele>249</ele><time>2020-10-21T13:09:50Z</time><name>PT3319</name></trkpt>
<trkpt lat="53.245355" lon="-2.082110"><ele>248</ele><time>2020-10-21T13:09:59Z</time><name>PT3320</name></trkpt>
<trkpt lat="53.245357" lon="-2.082124"><ele>248</ele><time>2020-10-21T13:09:59Z</time><name>PT3321</name></trkpt>
<trkpt lat="53.245356" lon="-2.082124"><ele>247</ele><time>2020-10-21T13:10:00Z</time><name>PT3322</name></trkpt>
<trkpt lat="53.245355" lon="-2.082131"><ele>247</ele><time>2020-10-21T13:10:02Z</time><name>PT3323</name></trkpt>
<trkpt lat="53.245364" lon="-2.082126"><ele>248</ele><time>2020-10-21T13:10:08Z</time><name>PT3324</name></trkpt>
<trkpt lat="53.245368" lon="-2.082119"><ele>248</ele><time>2020-10-21T13:10:08Z</time><name>PT3325</name></trkpt>
<trkpt lat="53.245375" lon="-2.082112"><ele>248</ele><time>2020-10-21T13:10:09Z</time><name>PT3326</name></trkpt>
<trkpt lat="53.245380" lon="-2.082101"><ele>248</ele><time>2020-10-21T13:10:11Z</time><name>PT3327</name></trkpt>
<trkpt lat="53.245386" lon="-2.082097"><ele>248</ele><time>2020-10-21T13:10:11Z</time><name>PT3328</name></trkpt>
<trkpt lat="53.245391" lon="-2.082091"><ele>248</ele><time>2020-10-21T13:10:12Z</time><name>PT3329</name></trkpt>
<trkpt lat="53.245398" lon="-2.082085"><ele>249</ele><time>2020-10-21T13:10:14Z</time><name>PT3330</name></trkpt>
<trkpt lat="53.245406" lon="-2.082084"><ele>249</ele><time>2020-10-21T13:10:14Z</time><name>PT3331</name></trkpt>
<trkpt lat="53.245413" lon="-2.082076"><ele>249</ele><time>2020-10-21T13:10:15Z</time><name>PT3332</name></trkpt>
<trkpt lat="53.245420" lon="-2.082070"><ele>250</ele><time>2020-10-21T13:10:17Z</time><name>PT3333</name></trkpt>
<trkpt lat="53.245426" lon="-2.082068"><ele>250</ele><time>2020-10-21T13:10:17Z</time><name>PT3334</name></trkpt>
<trkpt lat="53.245432" lon="-2.082065"><ele>249</ele><time>2020-10-21T13:10:18Z</time><name>PT3335</name></trkpt>
<trkpt lat="53.245436" lon="-2.082062"><ele>249</ele><time>2020-10-21T13:10:20Z</time><name>PT3336</name></trkpt>
<trkpt lat="53.245443" lon="-2.082062"><ele>248</ele><time>2020-10-21T13:10:20Z</time><name>PT3337</name></trkpt>
<trkpt lat="53.245449" lon="-2.082062"><ele>249</ele><time>2020-10-21T13:10:21Z</time><name>PT3338</name></trkpt>
<trkpt lat="53.245452" lon="-2.082059"><ele>249</ele><time>2020-10-21T13:10:23Z</time><name>PT3339</name></trkpt>
<trkpt lat="53.245459" lon="-2.082063"><ele>248</ele><time>2020-10-21T13:10:23Z</time><name>PT3340</name></trkpt>
<trkpt lat="53.245465" lon="-2.082060"><ele>248</ele><time>2020-10-21T13:10:24Z</time><name>PT3341</name></trkpt>
<trkpt lat="53.245469" lon="-2.082056"><ele>248</ele><time>2020-10-21T13:10:26Z</time><name>PT3342</name></trkpt>
<trkpt lat="53.245471" lon="-2.082052"><ele>248</ele><time>2020-10-21T13:10:26Z</time><name>PT3343</name></trkpt>
<trkpt lat="53.245472" lon="-2.082046"><ele>249</ele><time>2020-10-21T13:10:27Z</time><name>PT3344</name></trkpt>
<trkpt lat="53.245477" lon="-2.082040"><ele>249</ele><time>2020-10-21T13:10:29Z</time><name>PT3345</name></trkpt>
<trkpt lat="53.245480" lon="-2.082035"><ele>249</ele><time>2020-10-21T13:10:29Z</time><name>PT3346</name></trkpt>
<trkpt lat="53.245484" lon="-2.082034"><ele>250</ele><time>2020-10-21T13:10:30Z</time><name>PT3347</name></trkpt>
<trkpt lat="53.245486" lon="-2.082033"><ele>250</ele><time>2020-10-21T13:10:32Z</time><name>PT3348</name></trkpt>
<trkpt lat="53.245490" lon="-2.082031"><ele>249</ele><time>2020-10-21T13:10:32Z</time><name>PT3349</name></trkpt>
<trkpt lat="53.245493" lon="-2.082026"><ele>250</ele><time>2020-10-21T13:10:33Z</time><name>PT3350</name></trkpt>
<trkpt lat="53.245496" lon="-2.082025"><ele>250</ele><time>2020-10-21T13:10:35Z</time><name>PT3351</name></trkpt>
<trkpt lat="53.245500" lon="-2.082022"><ele>250</ele><time>2020-10-21T13:10:35Z</time><name>PT3352</name></trkpt>
<trkpt lat="53.245505" lon="-2.082020"><ele>251</ele><time>2020-10-21T13:10:36Z</time><name>PT3353</name></trkpt>
<trkpt lat="53.245512" lon="-2.082010"><ele>252</ele><time>2020-10-21T13:10:38Z</time><name>PT3354</name></trkpt>
<trkpt lat="53.245521" lon="-2.082010"><ele>251</ele><time>2020-10-21T13:10:38Z</time><name>PT3355</name></trkpt>
<trkpt lat="53.245529" lon="-2.082006"><ele>252</ele><time>2020-10-21T13:10:39Z</time><name>PT3356</name></trkpt>
<trkpt lat="53.245536" lon="-2.082007"><ele>252</ele><time>2020-10-21T13:10:41Z</time><name>PT3357</name></trkpt>
<trkpt lat="53.245537" lon="-2.081992"><ele>252</ele><time>2020-10-21T13:10:41Z</time><name>PT3358</name></trkpt>
<trkpt lat="53.245542" lon="-2.081993"><ele>251</ele><time>2020-10-21T13:10:42Z</time><name>PT3359</name></trkpt>
<trkpt lat="53.245554" lon="-2.081986"><ele>251</ele><time>2020-10-21T13:10:44Z</time><name>PT3360</name></trkpt>
<trkpt lat="53.245562" lon="-2.081979"><ele>251</ele><time>2020-10-21T13:10:44Z</time><name>PT3361</name></trkpt>
<trkpt lat="53.245566" lon="-2.081969"><ele>252</ele><time>2020-10-21T13:10:45Z</time><name>PT3362</name></trkpt>
<trkpt lat="53.245572" lon="-2.081967"><ele>252</ele><time>2020-10-21T13:10:47Z</time><name>PT3363</name></trkpt>
<trkpt lat="53.245576" lon="-2.081965"><ele>253</ele><time>2020-10-21T13:10:47Z</time><name>PT3364</name></trkpt>
<trkpt lat="53.245581" lon="-2.081961"><ele>253</ele><time>2020-10-21T13:10:48Z</time><name>PT3365</name></trkpt>
<trkpt lat="53.245584" lon="-2.081949"><ele>254</ele><time>2020-10-21T13:10:50Z</time><name>PT3366</name></trkpt>
<trkpt lat="53.245586" lon="-2.081941"><ele>255</ele><time>2020-10-21T13:10:50Z</time><name>PT3367</name></trkpt>
<trkpt lat="53.245594" lon="-2.081939"><ele>255</ele><time>2020-10-21T13:10:51Z</time><name>PT3368</name></trkpt>
<trkpt lat="53.245598" lon="-2.081933"><ele>255</ele><time>2020-10-21T13:10:53Z</time><name>PT3369</name></trkpt>
<trkpt lat="53.245603" lon="-2.081914"><ele>254</ele><time>2020-10-21T13:10:59Z</time><name>PT3370</name></trkpt>
<trkpt lat="53.245607" lon="-2.081901"><ele>255</ele><time>2020-10-21T13:10:59Z</time><name>PT3371</name></trkpt>
<trkpt lat="53.245613" lon="-2.081881"><ele>255</ele><time>2020-10-21T13:11:00Z</time><name>PT3372</name></trkpt>
<trkpt lat="53.245618" lon="-2.081866"><ele>255</ele><time>2020-10-21T13:11:02Z</time><name>PT3373</name></trkpt>
<trkpt lat="53.245625" lon="-2.081851"><ele>255</ele><time>2020-10-21T13:11:02Z</time><name>PT3374</name></trkpt>
<trkpt lat="53.245628" lon="-2.081844"><ele>255</ele><time>2020-10-21T13:11:03Z</time><name>PT3375</name></trkpt>
<trkpt lat="53.245635" lon="-2.081827"><ele>255</ele><time>2020-10-21T13:11:05Z</time><name>PT3376</name></trkpt>
<trkpt lat="53.245636" lon="-2.081817"><ele>256</ele><time>2020-10-21T13:11:05Z</time><name>PT3377</name></trkpt>
<trkpt lat="53.245641" lon="-2.081806"><ele>256</ele><time>2020-10-21T13:11:06Z</time><name>PT3378</name></trkpt>
<trkpt lat="53.245645" lon="-2.081800"><ele>255</ele><time>2020-10-21T13:11:08Z</time><name>PT3379</name></trkpt>
<trkpt lat="53.245647" lon="-2.081788"><ele>255</ele><time>2020-10-21T13:11:08Z</time><name>PT3380</name></trkpt>
<trkpt lat="53.245652" lon="-2.081778"><ele>255</ele><time>2020-10-21T13:11:09Z</time><name>PT3381</name></trkpt>
<trkpt lat="53.245654" lon="-2.081767"><ele>256</ele><time>2020-10-21T13:11:11Z</time><name>PT3382</name></trkpt>
<trkpt lat="53.245658" lon="-2.081762"><ele>255</ele><time>2020-10-21T13:11:11Z</time><name>PT3383</name></trkpt>
<trkpt lat="53.245660" lon="-2.081753"><ele>255</ele><time>2020-10-21T13:11:12Z</time><name>PT3384</name></trkpt>
<trkpt lat="53.245663" lon="-2.081747"><ele>256</ele><time>2020-10-21T13:11:15Z</time><name>PT3385</name></trkpt>
<trkpt lat="53.245666" lon="-2.081734"><ele>255</ele><time>2020-10-21T13:11:17Z</time><name>PT3386</name></trkpt>
<trkpt lat="53.245671" lon="-2.081719"><ele>255</ele><time>2020-10-21T13:11:17Z</time><name>PT3387</name></trkpt>
<trkpt lat="53.245674" lon="-2.081711"><ele>255</ele><time>2020-10-21T13:11:18Z</time><name>PT3388</name></trkpt>
<trkpt lat="53.245677" lon="-2.081698"><ele>255</ele><time>2020-10-21T13:11:20Z</time><name>PT3389</name></trkpt>
<trkpt lat="53.245678" lon="-2.081686"><ele>255</ele><time>2020-10-21T13:11:20Z</time><name>PT3390</name></trkpt>
<trkpt lat="53.245680" lon="-2.081672"><ele>255</ele><time>2020-10-21T13:11:21Z</time><name>PT3391</name></trkpt>
<trkpt lat="53.245682" lon="-2.081644"><ele>255</ele><time>2020-10-21T13:11:23Z</time><name>PT3392</name></trkpt>
<trkpt lat="53.245687" lon="-2.081633"><ele>255</ele><time>2020-10-21T13:11:23Z</time><name>PT3393</name></trkpt>
<trkpt lat="53.245696" lon="-2.081617"><ele>256</ele><time>2020-10-21T13:11:24Z</time><name>PT3394</name></trkpt>
<trkpt lat="53.245696" lon="-2.081613"><ele>257</ele><time>2020-10-21T13:11:26Z</time><name>PT3395</name></trkpt>
<trkpt lat="53.245702" lon="-2.081602"><ele>256</ele><time>2020-10-21T13:11:26Z</time><name>PT3396</name></trkpt>
<trkpt lat="53.245710" lon="-2.081595"><ele>257</ele><time>2020-10-21T13:11:27Z</time><name>PT3397</name></trkpt>
<trkpt lat="53.245711" lon="-2.081589"><ele>257</ele><time>2020-10-21T13:11:29Z</time><name>PT3398</name></trkpt>
<trkpt lat="53.245715" lon="-2.081583"><ele>257</ele><time>2020-10-21T13:11:29Z</time><name>PT3399</name></trkpt>
<trkpt lat="53.245716" lon="-2.081569"><ele>258</ele><time>2020-10-21T13:11:30Z</time><name>PT3400</name></trkpt>
<trkpt lat="53.245717" lon="-2.081560"><ele>259</ele><time>2020-10-21T13:11:32Z</time><name>PT3401</name></trkpt>
<trkpt lat="53.245722" lon="-2.081553"><ele>259</ele><time>2020-10-21T13:11:32Z</time><name>PT3402</name></trkpt>
<trkpt lat="53.245726" lon="-2.081540"><ele>259</ele><time>2020-10-21T13:11:41Z</time><name>PT3403</name></trkpt>
<trkpt lat="53.245744" lon="-2.081501"><ele>260</ele><time>2020-10-21T13:11:41Z</time><name>PT3404</name></trkpt>
<trkpt lat="53.245756" lon="-2.081488"><ele>261</ele><time>2020-10-21T13:11:42Z</time><name>PT3405</name></trkpt>
<trkpt lat="53.245762" lon="-2.081473"><ele>260</ele><time>2020-10-21T13:11:44Z</time><name>PT3406</name></trkpt>
<trkpt lat="53.245766" lon="-2.081464"><ele>261</ele><time>2020-10-21T13:11:44Z</time><name>PT3407</name></trkpt>
<trkpt lat="53.245771" lon="-2.081456"><ele>261</ele><time>2020-10-21T13:11:45Z</time><name>PT3408</name></trkpt>
<trkpt lat="53.245777" lon="-2.081447"><ele>261</ele><time>2020-10-21T13:11:47Z</time><name>PT3409</name></trkpt>
<trkpt lat="53.245784" lon="-2.081439"><ele>261</ele><time>2020-10-21T13:11:47Z</time><name>PT3410</name></trkpt>
<trkpt lat="53.245788" lon="-2.081436"><ele>261</ele><time>2020-10-21T13:11:48Z</time><name>PT3411</name></trkpt>
<trkpt lat="53.245793" lon="-2.081431"><ele>261</ele><time>2020-10-21T13:11:50Z</time><name>PT3412</name></trkpt>
<trkpt lat="53.245796" lon="-2.081426"><ele>262</ele><time>2020-10-21T13:11:50Z</time><name>PT3413</name></trkpt>
<trkpt lat="53.245797" lon="-2.081419"><ele>262</ele><time>2020-10-21T13:11:51Z</time><name>PT3414</name></trkpt>
<trkpt lat="53.245797" lon="-2.081411"><ele>263</ele><time>2020-10-21T13:11:53Z</time><name>PT3415</name></trkpt>
<trkpt lat="53.245799" lon="-2.081414"><ele>264</ele><time>2020-10-21T13:11:53Z</time><name>PT3416</name></trkpt>
<trkpt lat="53.245806" lon="-2.081419"><ele>264</ele><time>2020-10-21T13:11:54Z</time><name>PT3417</name></trkpt>
<trkpt lat="53.245812" lon="-2.081421"><ele>264</ele><time>2020-10-21T13:11:56Z</time><name>PT3418</name></trkpt>
<trkpt lat="53.245818" lon="-2.081421"><ele>265</ele><time>2020-10-21T13:11:56Z</time><name>PT3419</name></trkpt>
<trkpt lat="53.245830" lon="-2.081432"><ele>264</ele><time>2020-10-21T13:11:57Z</time><name>PT3420</name></trkpt>
<trkpt lat="53.245833" lon="-2.081430"><ele>264</ele><time>2020-10-21T13:11:59Z</time><name>PT3421</name></trkpt>
<trkpt lat="53.245838" lon="-2.081433"><ele>264</ele><time>2020-10-21T13:11:59Z</time><name>PT3422</name></trkpt>
<trkpt lat="53.245846" lon="-2.081436"><ele>264</ele><time>2020-10-21T13:12:00Z</time><name>PT3423</name></trkpt>
<trkpt lat="53.245854" lon="-2.081443"><ele>264</ele><time>2020-10-21T13:12:02Z</time><name>PT3424</name></trkpt>
<trkpt lat="53.245860" lon="-2.081445"><ele>264</ele><time>2020-10-21T13:12:02Z</time><name>PT3425</name></trkpt>
<trkpt lat="53.245866" lon="-2.081447"><ele>264</ele><time>2020-10-21T13:12:03Z</time><name>PT3426</name></trkpt>
<trkpt lat="53.245873" lon="-2.081450"><ele>264</ele><time>2020-10-21T13:12:05Z</time><name>PT3427</name></trkpt>
<trkpt lat="53.245879" lon="-2.081454"><ele>264</ele><time>2020-10-21T13:12:05Z</time><name>PT3428</name></trkpt>
<trkpt lat="53.245885" lon="-2.081456"><ele>265</ele><time>2020-10-21T13:12:06Z</time><name>PT3429</name></trkpt>
<trkpt lat="53.245887" lon="-2.081458"><ele>265</ele><time>2020-10-21T13:12:08Z</time><name>PT3430</name></trkpt>
<trkpt lat="53.245892" lon="-2.081461"><ele>265</ele><time>2020-10-21T13:12:08Z</time><name>PT3431</name></trkpt>
<trkpt lat="53.245899" lon="-2.081463"><ele>265</ele><time>2020-10-21T13:12:09Z</time><name>PT3432</name></trkpt>
<trkpt lat="53.245904" lon="-2.081464"><ele>266</ele><time>2020-10-21T13:12:11Z</time><name>PT3433</name></trkpt>
<trkpt lat="53.245909" lon="-2.081464"><ele>266</ele><time>2020-10-21T13:12:11Z</time><name>PT3434</name></trkpt>
<trkpt lat="53.245917" lon="-2.081462"><ele>266</ele><time>2020-10-21T13:12:12Z</time><name>PT3435</name></trkpt>
<trkpt lat="53.245927" lon="-2.081460"><ele>266</ele><time>2020-10-21T13:12:14Z</time><name>PT3436</name></trkpt>
<trkpt lat="53.245934" lon="-2.081457"><ele>267</ele><time>2020-10-21T13:12:14Z</time><name>PT3437</name></trkpt>
<trkpt lat="53.245938" lon="-2.081452"><ele>267</ele><time>2020-10-21T13:12:15Z</time><name>PT3438</name></trkpt>
<trkpt lat="53.245945" lon="-2.081435"><ele>269</ele><time>2020-10-21T13:12:18Z</time><name>PT3439</name></trkpt>
<trkpt lat="53.245969" lon="-2.081426"><ele>270</ele><time>2020-10-21T13:12:23Z</time><name>PT3440</name></trkpt>
<trkpt lat="53.245976" lon="-2.081400"><ele>270</ele><time>2020-10-21T13:12:26Z</time><name>PT3441</name></trkpt>
<trkpt lat="53.245998" lon="-2.081390"><ele>272</ele><time>2020-10-21T13:12:29Z</time><name>PT3442</name></trkpt>
<trkpt lat="53.246013" lon="-2.081377"><ele>273</ele><time>2020-10-21T13:12:33Z</time><name>PT3443</name></trkpt>
<trkpt lat="53.246028" lon="-2.081367"><ele>273</ele><time>2020-10-21T13:12:36Z</time><name>PT3444</name></trkpt>
<trkpt lat="53.246035" lon="-2.081352"><ele>274</ele><time>2020-10-21T13:12:39Z</time><name>PT3445</name></trkpt>
<trkpt lat="53.246045" lon="-2.081336"><ele>275</ele><time>2020-10-21T13:12:44Z</time><name>PT3446</name></trkpt>
<trkpt lat="53.246057" lon="-2.081327"><ele>275</ele><time>2020-10-21T13:12:47Z</time><name>PT3447</name></trkpt>
<trkpt lat="53.246072" lon="-2.081317"><ele>275</ele><time>2020-10-21T13:12:50Z</time><name>PT3448</name></trkpt>
<trkpt lat="53.246090" lon="-2.081296"><ele>274</ele><time>2020-10-21T13:12:53Z</time><name>PT3449</name></trkpt>
<trkpt lat="53.246108" lon="-2.081290"><ele>276</ele><time>2020-10-21T13:12:56Z</time><name>PT3450</name></trkpt>
<trkpt lat="53.246115" lon="-2.081273"><ele>276</ele><time>2020-10-21T13:13:06Z</time><name>PT3451</name></trkpt>
<trkpt lat="53.246144" lon="-2.081231"><ele>276</ele><time>2020-10-21T13:13:09Z</time><name>PT3452</name></trkpt>
<trkpt lat="53.246166" lon="-2.081196"><ele>277</ele><time>2020-10-21T13:13:12Z</time><name>PT3453</name></trkpt>
<trkpt lat="53.246199" lon="-2.081174"><ele>278</ele><time>2020-10-21T13:13:17Z</time><name>PT3454</name></trkpt>
<trkpt lat="53.246209" lon="-2.081165"><ele>279</ele><time>2020-10-21T13:13:20Z</time><name>PT3455</name></trkpt>
<trkpt lat="53.246222" lon="-2.081126"><ele>279</ele><time>2020-10-21T13:13:23Z</time><name>PT3456</name></trkpt>
<trkpt lat="53.246246" lon="-2.081116"><ele>280</ele><time>2020-10-21T13:13:26Z</time><name>PT3457</name></trkpt>
<trkpt lat="53.246285" lon="-2.081127"><ele>282</ele><time>2020-10-21T13:13:30Z</time><name>PT3458</name></trkpt>
<trkpt lat="53.246303" lon="-2.081109"><ele>282</ele><time>2020-10-21T13:13:33Z</time><name>PT3459</name></trkpt>
<trkpt lat="53.246321" lon="-2.081109"><ele>283</ele><time>2020-10-21T13:13:38Z</time><name>PT3460</name></trkpt>
<trkpt lat="53.246341" lon="-2.081106"><ele>284</ele><time>2020-10-21T13:13:41Z</time><name>PT3461</name></trkpt>
<trkpt lat="53.246361" lon="-2.081090"><ele>285</ele><time>2020-10-21T13:13:47Z</time><name>PT3462</name></trkpt>
<trkpt lat="53.246371" lon="-2.081072"><ele>286</ele><time>2020-10-21T13:13:50Z</time><name>PT3463</name></trkpt>
<trkpt lat="53.246395" lon="-2.081072"><ele>287</ele><time>2020-10-21T13:14:00Z</time><name>PT3464</name></trkpt>
<trkpt lat="53.246416" lon="-2.081071"><ele>288</ele><time>2020-10-21T13:14:05Z</time><name>PT3465</name></trkpt>
<trkpt lat="53.246435" lon="-2.081059"><ele>288</ele><time>2020-10-21T13:14:08Z</time><name>PT3466</name></trkpt>
<trkpt lat="53.246445" lon="-2.081060"><ele>288</ele><time>2020-10-21T13:14:11Z</time><name>PT3467</name></trkpt>
<trkpt lat="53.246466" lon="-2.081054"><ele>288</ele><time>2020-10-21T13:14:14Z</time><name>PT3468</name></trkpt>
<trkpt lat="53.246493" lon="-2.081032"><ele>290</ele><time>2020-10-21T13:14:18Z</time><name>PT3469</name></trkpt>
<trkpt lat="53.246507" lon="-2.081002"><ele>291</ele><time>2020-10-21T13:14:29Z</time><name>PT3470</name></trkpt>
<trkpt lat="53.246523" lon="-2.080987"><ele>290</ele><time>2020-10-21T13:14:32Z</time><name>PT3471</name></trkpt>
<trkpt lat="53.246542" lon="-2.080984"><ele>290</ele><time>2020-10-21T13:14:35Z</time><name>PT3472</name></trkpt>
<trkpt lat="53.246553" lon="-2.080983"><ele>291</ele><time>2020-10-21T13:14:38Z</time><name>PT3473</name></trkpt>
<trkpt lat="53.246582" lon="-2.080966"><ele>292</ele><time>2020-10-21T13:14:41Z</time><name>PT3474</name></trkpt>
<trkpt lat="53.246608" lon="-2.080990"><ele>293</ele><time>2020-10-21T13:14:45Z</time><name>PT3475</name></trkpt>
<trkpt lat="53.246628" lon="-2.081006"><ele>294</ele><time>2020-10-21T13:14:50Z</time><name>PT3476</name></trkpt>
<trkpt lat="53.246658" lon="-2.081037"><ele>296</ele><time>2020-10-21T13:14:53Z</time><name>PT3477</name></trkpt>
<trkpt lat="53.246675" lon="-2.081073"><ele>298</ele><time>2020-10-21T13:14:57Z</time><name>PT3478</name></trkpt>
<trkpt lat="53.246696" lon="-2.081108"><ele>298</ele><time>2020-10-21T13:15:02Z</time><name>PT3479</name></trkpt>
<trkpt lat="53.246712" lon="-2.081147"><ele>298</ele><time>2020-10-21T13:15:05Z</time><name>PT3480</name></trkpt>
<trkpt lat="53.246737" lon="-2.081189"><ele>300</ele><time>2020-10-21T13:15:09Z</time><name>PT3481</name></trkpt>
<trkpt lat="53.246754" lon="-2.081235"><ele>302</ele><time>2020-10-21T13:15:14Z</time><name>PT3482</name></trkpt>
<trkpt lat="53.246763" lon="-2.081273"><ele>303</ele><time>2020-10-21T13:15:17Z</time><name>PT3483</name></trkpt>
<trkpt lat="53.246775" lon="-2.081309"><ele>304</ele><time>2020-10-21T13:15:20Z</time><name>PT3484</name></trkpt>
<trkpt lat="53.246789" lon="-2.081334"><ele>304</ele><time>2020-10-21T13:15:23Z</time><name>PT3485</name></trkpt>
<trkpt lat="53.246809" lon="-2.081359"><ele>306</ele><time>2020-10-21T13:15:26Z</time><name>PT3486</name></trkpt>
<trkpt lat="53.246820" lon="-2.081384"><ele>306</ele><time>2020-10-21T13:15:29Z</time><name>PT3487</name></trkpt>
<trkpt lat="53.246829" lon="-2.081440"><ele>305</ele><time>2020-10-21T13:15:33Z</time><name>PT3488</name></trkpt>
<trkpt lat="53.246843" lon="-2.081491"><ele>306</ele><time>2020-10-21T13:15:36Z</time><name>PT3489</name></trkpt>
<trkpt lat="53.246855" lon="-2.081536"><ele>307</ele><time>2020-10-21T13:15:39Z</time><name>PT3490</name></trkpt>
<trkpt lat="53.246876" lon="-2.081582"><ele>308</ele><time>2020-10-21T13:15:44Z</time><name>PT3491</name></trkpt>
<trkpt lat="53.246892" lon="-2.081621"><ele>308</ele><time>2020-10-21T13:15:47Z</time><name>PT3492</name></trkpt>
<trkpt lat="53.246912" lon="-2.081666"><ele>309</ele><time>2020-10-21T13:15:50Z</time><name>PT3493</name></trkpt>
<trkpt lat="53.246935" lon="-2.081714"><ele>310</ele><time>2020-10-21T13:15:54Z</time><name>PT3494</name></trkpt>
<trkpt lat="53.246953" lon="-2.081754"><ele>311</ele><time>2020-10-21T13:15:59Z</time><name>PT3495</name></trkpt>
<trkpt lat="53.246968" lon="-2.081783"><ele>311</ele><time>2020-10-21T13:16:02Z</time><name>PT3496</name></trkpt>
<trkpt lat="53.246984" lon="-2.081803"><ele>312</ele><time>2020-10-21T13:16:05Z</time><name>PT3497</name></trkpt>
<trkpt lat="53.247005" lon="-2.081819"><ele>312</ele><time>2020-10-21T13:16:08Z</time><name>PT3498</name></trkpt>
<trkpt lat="53.247021" lon="-2.081834"><ele>313</ele><time>2020-10-21T13:16:11Z</time><name>PT3499</name></trkpt>
<trkpt lat="53.247043" lon="-2.081863"><ele>314</ele><time>2020-10-21T13:16:15Z</time><name>PT3500</name></trkpt>
<trkpt lat="53.247058" lon="-2.081888"><ele>314</ele><time>2020-10-21T13:16:18Z</time><name>PT3501</name></trkpt>
<trkpt lat="53.247075" lon="-2.081916"><ele>314</ele><time>2020-10-21T13:16:21Z</time><name>PT3502</name></trkpt>
<trkpt lat="53.247091" lon="-2.081928"><ele>314</ele><time>2020-10-21T13:16:24Z</time><name>PT3503</name></trkpt>
<trkpt lat="53.247093" lon="-2.081932"><ele>314</ele><time>2020-10-21T13:16:27Z</time><name>PT3504</name></trkpt>
<trkpt lat="53.247114" lon="-2.081944"><ele>314</ele><time>2020-10-21T13:16:30Z</time><name>PT3505</name></trkpt>
<trkpt lat="53.247139" lon="-2.081957"><ele>314</ele><time>2020-10-21T13:16:35Z</time><name>PT3506</name></trkpt>
<trkpt lat="53.247158" lon="-2.081987"><ele>315</ele><time>2020-10-21T13:16:38Z</time><name>PT3507</name></trkpt>
<trkpt lat="53.247176" lon="-2.081996"><ele>315</ele><time>2020-10-21T13:16:41Z</time><name>PT3508</name></trkpt>
<trkpt lat="53.247205" lon="-2.082004"><ele>316</ele><time>2020-10-21T13:16:44Z</time><name>PT3509</name></trkpt>
<trkpt lat="53.247224" lon="-2.082023"><ele>316</ele><time>2020-10-21T13:16:47Z</time><name>PT3510</name></trkpt>
<trkpt lat="53.247253" lon="-2.082041"><ele>317</ele><time>2020-10-21T13:16:51Z</time><name>PT3511</name></trkpt>
<trkpt lat="53.247275" lon="-2.082013"><ele>317</ele><time>2020-10-21T13:16:56Z</time><name>PT3512</name></trkpt>
<trkpt lat="53.247279" lon="-2.081975"><ele>318</ele><time>2020-10-21T13:16:59Z</time><name>PT3513</name></trkpt>
<trkpt lat="53.247286" lon="-2.081942"><ele>318</ele><time>2020-10-21T13:17:02Z</time><name>PT3514</name></trkpt>
<trkpt lat="53.247305" lon="-2.081926"><ele>320</ele><time>2020-10-21T13:17:06Z</time><name>PT3515</name></trkpt>
<trkpt lat="53.247317" lon="-2.081922"><ele>320</ele><time>2020-10-21T13:17:09Z</time><name>PT3516</name></trkpt>
<trkpt lat="53.247328" lon="-2.081898"><ele>320</ele><time>2020-10-21T13:17:14Z</time><name>PT3517</name></trkpt>
<trkpt lat="53.247346" lon="-2.081881"><ele>320</ele><time>2020-10-21T13:17:17Z</time><name>PT3518</name></trkpt>
<trkpt lat="53.247352" lon="-2.081854"><ele>321</ele><time>2020-10-21T13:17:20Z</time><name>PT3519</name></trkpt>
<trkpt lat="53.247357" lon="-2.081831"><ele>321</ele><time>2020-10-21T13:17:23Z</time><name>PT3520</name></trkpt>
<trkpt lat="53.247368" lon="-2.081809"><ele>322</ele><time>2020-10-21T13:17:26Z</time><name>PT3521</name></trkpt>
<trkpt lat="53.247375" lon="-2.081788"><ele>324</ele><time>2020-10-21T13:17:29Z</time><name>PT3522</name></trkpt>
<trkpt lat="53.247385" lon="-2.081765"><ele>324</ele><time>2020-10-21T13:17:33Z</time><name>PT3523</name></trkpt>
<trkpt lat="53.247405" lon="-2.081742"><ele>324</ele><time>2020-10-21T13:17:38Z</time><name>PT3524</name></trkpt>
<trkpt lat="53.247417" lon="-2.081721"><ele>326</ele><time>2020-10-21T13:17:41Z</time><name>PT3525</name></trkpt>
<trkpt lat="53.247427" lon="-2.081703"><ele>326</ele><time>2020-10-21T13:17:44Z</time><name>PT3526</name></trkpt>
<trkpt lat="53.247437" lon="-2.081689"><ele>327</ele><time>2020-10-21T13:17:48Z</time><name>PT3527</name></trkpt>
<trkpt lat="53.247438" lon="-2.081667"><ele>327</ele><time>2020-10-21T13:17:56Z</time><name>PT3528</name></trkpt>
<trkpt lat="53.247465" lon="-2.081630"><ele>328</ele><time>2020-10-21T13:18:00Z</time><name>PT3529</name></trkpt>
<trkpt lat="53.247488" lon="-2.081605"><ele>327</ele><time>2020-10-21T13:18:03Z</time><name>PT3530</name></trkpt>
<trkpt lat="53.247499" lon="-2.081581"><ele>328</ele><time>2020-10-21T13:18:06Z</time><name>PT3531</name></trkpt>
<trkpt lat="53.247516" lon="-2.081547"><ele>329</ele><time>2020-10-21T13:18:11Z</time><name>PT3532</name></trkpt>
<trkpt lat="53.247524" lon="-2.081519"><ele>330</ele><time>2020-10-21T13:18:14Z</time><name>PT3533</name></trkpt>
<trkpt lat="53.247531" lon="-2.081489"><ele>331</ele><time>2020-10-21T13:18:17Z</time><name>PT3534</name></trkpt>
<trkpt lat="53.247537" lon="-2.081471"><ele>333</ele><time>2020-10-21T13:18:21Z</time><name>PT3535</name></trkpt>
<trkpt lat="53.247545" lon="-2.081445"><ele>333</ele><time>2020-10-21T13:18:24Z</time><name>PT3536</name></trkpt>
<trkpt lat="53.247556" lon="-2.081421"><ele>334</ele><time>2020-10-21T13:18:27Z</time><name>PT3537</name></trkpt>
<trkpt lat="53.247562" lon="-2.081390"><ele>335</ele><time>2020-10-21T13:18:32Z</time><name>PT3538</name></trkpt>
<trkpt lat="53.247570" lon="-2.081370"><ele>336</ele><time>2020-10-21T13:18:35Z</time><name>PT3539</name></trkpt>
<trkpt lat="53.247586" lon="-2.081348"><ele>336</ele><time>2020-10-21T13:18:38Z</time><name>PT3540</name></trkpt>
<trkpt lat="53.247604" lon="-2.081339"><ele>335</ele><time>2020-10-21T13:18:42Z</time><name>PT3541</name></trkpt>
<trkpt lat="53.247620" lon="-2.081328"><ele>336</ele><time>2020-10-21T13:18:45Z</time><name>PT3542</name></trkpt>
<trkpt lat="53.247635" lon="-2.081310"><ele>336</ele><time>2020-10-21T13:18:48Z</time><name>PT3543</name></trkpt>
<trkpt lat="53.247640" lon="-2.081283"><ele>337</ele><time>2020-10-21T13:18:53Z</time><name>PT3544</name></trkpt>
<trkpt lat="53.247638" lon="-2.081245"><ele>337</ele><time>2020-10-21T13:19:00Z</time><name>PT3545</name></trkpt>
<trkpt lat="53.247630" lon="-2.081215"><ele>337</ele><time>2020-10-21T13:19:03Z</time><name>PT3546</name></trkpt>
<trkpt lat="53.247623" lon="-2.081165"><ele>338</ele><time>2020-10-21T13:19:08Z</time><name>PT3547</name></trkpt>
<trkpt lat="53.247623" lon="-2.081137"><ele>338</ele><time>2020-10-21T13:19:11Z</time><name>PT3548</name></trkpt>
<trkpt lat="53.247622" lon="-2.081089"><ele>338</ele><time>2020-10-21T13:19:15Z</time><name>PT3549</name></trkpt>
<trkpt lat="53.247613" lon="-2.081075"><ele>338</ele><time>2020-10-21T13:19:18Z</time><name>PT3550</name></trkpt>
<trkpt lat="53.247612" lon="-2.081075"><ele>338</ele><time>2020-10-21T13:19:21Z</time><name>PT3551</name></trkpt>
<trkpt lat="53.247601" lon="-2.081045"><ele>339</ele><time>2020-10-21T13:19:29Z</time><name>PT3552</name></trkpt>
<trkpt lat="53.247591" lon="-2.081016"><ele>339</ele><time>2020-10-21T13:19:32Z</time><name>PT3553</name></trkpt>
<trkpt lat="53.247583" lon="-2.080984"><ele>340</ele><time>2020-10-21T13:19:36Z</time><name>PT3554</name></trkpt>
<trkpt lat="53.247575" lon="-2.080958"><ele>341</ele><time>2020-10-21T13:19:39Z</time><name>PT3555</name></trkpt>
<trkpt lat="53.247585" lon="-2.080902"><ele>342</ele><time>2020-10-21T13:19:50Z</time><name>PT3556</name></trkpt>
<trkpt lat="53.247594" lon="-2.080855"><ele>342</ele><time>2020-10-21T13:19:53Z</time><name>PT3557</name></trkpt>
<trkpt lat="53.247589" lon="-2.080831"><ele>342</ele><time>2020-10-21T13:19:56Z</time><name>PT3558</name></trkpt>
<trkpt lat="53.247589" lon="-2.080816"><ele>342</ele><time>2020-10-21T13:19:59Z</time><name>PT3559</name></trkpt>
<trkpt lat="53.247595" lon="-2.080753"><ele>343</ele><time>2020-10-21T13:20:09Z</time><name>PT3560</name></trkpt>
<trkpt lat="53.247594" lon="-2.080739"><ele>343</ele><time>2020-10-21T13:20:12Z</time><name>PT3561</name></trkpt>
<trkpt lat="53.247592" lon="-2.080716"><ele>345</ele><time>2020-10-21T13:20:15Z</time><name>PT3562</name></trkpt>
<trkpt lat="53.247596" lon="-2.080695"><ele>345</ele><time>2020-10-21T13:20:18Z</time><name>PT3563</name></trkpt>
<trkpt lat="53.247593" lon="-2.080663"><ele>347</ele><time>2020-10-21T13:20:23Z</time><name>PT3564</name></trkpt>
<trkpt lat="53.247584" lon="-2.080635"><ele>348</ele><time>2020-10-21T13:20:42Z</time><name>PT3565</name></trkpt>
<trkpt lat="53.247591" lon="-2.080594"><ele>349</ele><time>2020-10-21T13:20:45Z</time><name>PT3566</name></trkpt>
<trkpt lat="53.247603" lon="-2.080465"><ele>351</ele><time>2020-10-21T13:21:03Z</time><name>PT3567</name></trkpt>
<trkpt lat="53.247572" lon="-2.080399"><ele>353</ele><time>2020-10-21T13:21:06Z</time><name>PT3568</name></trkpt>
<trkpt lat="53.247539" lon="-2.080341"><ele>355</ele><time>2020-10-21T13:21:11Z</time><name>PT3569</name></trkpt>
<trkpt lat="53.247537" lon="-2.080317"><ele>355</ele><time>2020-10-21T13:21:14Z</time><name>PT3570</name></trkpt>
<trkpt lat="53.247539" lon="-2.080293"><ele>355</ele><time>2020-10-21T13:21:17Z</time><name>PT3571</name></trkpt>
<trkpt lat="53.247530" lon="-2.080274"><ele>357</ele><time>2020-10-21T13:21:21Z</time><name>PT3572</name></trkpt>
<trkpt lat="53.247514" lon="-2.080248"><ele>358</ele><time>2020-10-21T13:21:26Z</time><name>PT3573</name></trkpt>
<trkpt lat="53.247513" lon="-2.080250"><ele>358</ele><time>2020-10-21T13:21:29Z</time><name>PT3574</name></trkpt>
<trkpt lat="53.247514" lon="-2.080230"><ele>358</ele><time>2020-10-21T13:21:32Z</time><name>PT3575</name></trkpt>
<trkpt lat="53.247534" lon="-2.080210"><ele>358</ele><time>2020-10-21T13:21:35Z</time><name>PT3576</name></trkpt>
<trkpt lat="53.247564" lon="-2.080189"><ele>358</ele><time>2020-10-21T13:21:39Z</time><name>PT3577</name></trkpt>
<trkpt lat="53.247566" lon="-2.080180"><ele>359</ele><time>2020-10-21T13:21:44Z</time><name>PT3578</name></trkpt>
<trkpt lat="53.247566" lon="-2.080181"><ele>359</ele><time>2020-10-21T13:21:47Z</time><name>PT3579</name></trkpt>
<trkpt lat="53.247561" lon="-2.080178"><ele>359</ele><time>2020-10-21T13:21:56Z</time><name>PT3580</name></trkpt>
<trkpt lat="53.247562" lon="-2.080177"><ele>359</ele><time>2020-10-21T13:22:00Z</time><name>PT3581</name></trkpt>
<trkpt lat="53.247565" lon="-2.080170"><ele>359</ele><time>2020-10-21T13:22:08Z</time><name>PT3582</name></trkpt>
<trkpt lat="53.247562" lon="-2.080157"><ele>359</ele><time>2020-10-21T13:22:11Z</time><name>PT3583</name></trkpt>
<trkpt lat="53.247567" lon="-2.080137"><ele>359</ele><time>2020-10-21T13:22:14Z</time><name>PT3584</name></trkpt>
<trkpt lat="53.247585" lon="-2.080143"><ele>360</ele><time>2020-10-21T13:22:18Z</time><name>PT3585</name></trkpt>
<trkpt lat="53.247587" lon="-2.080117"><ele>361</ele><time>2020-10-21T13:22:21Z</time><name>PT3586</name></trkpt>
<trkpt lat="53.247599" lon="-2.080101"><ele>361</ele><time>2020-10-21T13:22:26Z</time><name>PT3587</name></trkpt>
<trkpt lat="53.247604" lon="-2.080092"><ele>362</ele><time>2020-10-21T13:22:29Z</time><name>PT3588</name></trkpt>
<trkpt lat="53.247621" lon="-2.080082"><ele>362</ele><time>2020-10-21T13:22:32Z</time><name>PT3589</name></trkpt>
<trkpt lat="53.247640" lon="-2.080098"><ele>363</ele><time>2020-10-21T13:22:35Z</time><name>PT3590</name></trkpt>
<trkpt lat="53.247649" lon="-2.080125"><ele>364</ele><time>2020-10-21T13:22:38Z</time><name>PT3591</name></trkpt>
<trkpt lat="53.247656" lon="-2.080134"><ele>365</ele><time>2020-10-21T13:22:42Z</time><name>PT3592</name></trkpt>
<trkpt lat="53.247663" lon="-2.080140"><ele>365</ele><time>2020-10-21T13:22:45Z</time><name>PT3593</name></trkpt>
<trkpt lat="53.247692" lon="-2.080146"><ele>366</ele><time>2020-10-21T13:22:50Z</time><name>PT3594</name></trkpt>
<trkpt lat="53.247711" lon="-2.080163"><ele>367</ele><time>2020-10-21T13:22:53Z</time><name>PT3595</name></trkpt>
<trkpt lat="53.247733" lon="-2.080160"><ele>368</ele><time>2020-10-21T13:22:56Z</time><name>PT3596</name></trkpt>
<trkpt lat="53.247737" lon="-2.080170"><ele>369</ele><time>2020-10-21T13:22:59Z</time><name>PT3597</name></trkpt>
<trkpt lat="53.247745" lon="-2.080179"><ele>370</ele><time>2020-10-21T13:23:03Z</time><name>PT3598</name></trkpt>
<trkpt lat="53.247771" lon="-2.080222"><ele>371</ele><time>2020-10-21T13:23:11Z</time><name>PT3599</name></trkpt>
<trkpt lat="53.247795" lon="-2.080262"><ele>371</ele><time>2020-10-21T13:23:14Z</time><name>PT3600</name></trkpt>
<trkpt lat="53.247825" lon="-2.080301"><ele>371</ele><time>2020-10-21T13:23:18Z</time><name>PT3601</name></trkpt>
<trkpt lat="53.247846" lon="-2.080318"><ele>372</ele><time>2020-10-21T13:23:21Z</time><name>PT3602</name></trkpt>
<trkpt lat="53.247875" lon="-2.080313"><ele>372</ele><time>2020-10-21T13:23:24Z</time><name>PT3603</name></trkpt>
<trkpt lat="53.247898" lon="-2.080310"><ele>371</ele><time>2020-10-21T13:23:27Z</time><name>PT3604</name></trkpt>
<trkpt lat="53.247936" lon="-2.080312"><ele>370</ele><time>2020-10-21T13:23:32Z</time><name>PT3605</name></trkpt>
<trkpt lat="53.247959" lon="-2.080322"><ele>370</ele><time>2020-10-21T13:23:35Z</time><name>PT3606</name></trkpt>
<trkpt lat="53.247969" lon="-2.080322"><ele>371</ele><time>2020-10-21T13:23:38Z</time><name>PT3607</name></trkpt>
<trkpt lat="53.247997" lon="-2.080341"><ele>372</ele><time>2020-10-21T13:23:41Z</time><name>PT3608</name></trkpt>
<trkpt lat="53.248031" lon="-2.080362"><ele>372</ele><time>2020-10-21T13:23:44Z</time><name>PT3609</name></trkpt>
<trkpt lat="53.248060" lon="-2.080347"><ele>372</ele><time>2020-10-21T13:23:48Z</time><name>PT3610</name></trkpt>
<trkpt lat="53.248078" lon="-2.080337"><ele>372</ele><time>2020-10-21T13:23:51Z</time><name>PT3611</name></trkpt>
<trkpt lat="53.248114" lon="-2.080331"><ele>372</ele><time>2020-10-21T13:23:56Z</time><name>PT3612</name></trkpt>
<trkpt lat="53.248139" lon="-2.080340"><ele>372</ele><time>2020-10-21T13:23:59Z</time><name>PT3613</name></trkpt>
<trkpt lat="53.248179" lon="-2.080365"><ele>372</ele><time>2020-10-21T13:24:02Z</time><name>PT3614</name></trkpt>
<trkpt lat="53.248205" lon="-2.080379"><ele>372</ele><time>2020-10-21T13:24:05Z</time><name>PT3615</name></trkpt>
<trkpt lat="53.248240" lon="-2.080368"><ele>372</ele><time>2020-10-21T13:24:09Z</time><name>PT3616</name></trkpt>
<trkpt lat="53.248262" lon="-2.080371"><ele>372</ele><time>2020-10-21T13:24:14Z</time><name>PT3617</name></trkpt>
<trkpt lat="53.248288" lon="-2.080373"><ele>372</ele><time>2020-10-21T13:24:17Z</time><name>PT3618</name></trkpt>
<trkpt lat="53.248332" lon="-2.080375"><ele>372</ele><time>2020-10-21T13:24:20Z</time><name>PT3619</name></trkpt>
<trkpt lat="53.248365" lon="-2.080376"><ele>372</ele><time>2020-10-21T13:24:24Z</time><name>PT3620</name></trkpt>
<trkpt lat="53.248392" lon="-2.080365"><ele>373</ele><time>2020-10-21T13:24:27Z</time><name>PT3621</name></trkpt>
<trkpt lat="53.248411" lon="-2.080346"><ele>372</ele><time>2020-10-21T13:24:30Z</time><name>PT3622</name></trkpt>
<trkpt lat="53.248438" lon="-2.080338"><ele>373</ele><time>2020-10-21T13:24:33Z</time><name>PT3623</name></trkpt>
<trkpt lat="53.248474" lon="-2.080317"><ele>373</ele><time>2020-10-21T13:24:38Z</time><name>PT3624</name></trkpt>
<trkpt lat="53.248504" lon="-2.080301"><ele>373</ele><time>2020-10-21T13:24:41Z</time><name>PT3625</name></trkpt>
<trkpt lat="53.248525" lon="-2.080291"><ele>374</ele><time>2020-10-21T13:24:44Z</time><name>PT3626</name></trkpt>
<trkpt lat="53.248557" lon="-2.080269"><ele>375</ele><time>2020-10-21T13:24:48Z</time><name>PT3627</name></trkpt>
<trkpt lat="53.248582" lon="-2.080264"><ele>375</ele><time>2020-10-21T13:24:51Z</time><name>PT3628</name></trkpt>
<trkpt lat="53.248610" lon="-2.080274"><ele>375</ele><time>2020-10-21T13:24:54Z</time><name>PT3629</name></trkpt>
<trkpt lat="53.248646" lon="-2.080255"><ele>375</ele><time>2020-10-21T13:24:59Z</time><name>PT3630</name></trkpt>
<trkpt lat="53.248676" lon="-2.080236"><ele>374</ele><time>2020-10-21T13:25:02Z</time><name>PT3631</name></trkpt>
<trkpt lat="53.248714" lon="-2.080236"><ele>375</ele><time>2020-10-21T13:25:06Z</time><name>PT3632</name></trkpt>
<trkpt lat="53.248751" lon="-2.080214"><ele>375</ele><time>2020-10-21T13:25:11Z</time><name>PT3633</name></trkpt>
<trkpt lat="53.248780" lon="-2.080226"><ele>376</ele><time>2020-10-21T13:25:14Z</time><name>PT3634</name></trkpt>
<trkpt lat="53.248809" lon="-2.080219"><ele>377</ele><time>2020-10-21T13:25:17Z</time><name>PT3635</name></trkpt>
<trkpt lat="53.248837" lon="-2.080201"><ele>375</ele><time>2020-10-21T13:25:20Z</time><name>PT3636</name></trkpt>
<trkpt lat="53.248873" lon="-2.080182"><ele>376</ele><time>2020-10-21T13:25:23Z</time><name>PT3637</name></trkpt>
<trkpt lat="53.248909" lon="-2.080178"><ele>376</ele><time>2020-10-21T13:25:27Z</time><name>PT3638</name></trkpt>
<trkpt lat="53.248933" lon="-2.080164"><ele>376</ele><time>2020-10-21T13:25:30Z</time><name>PT3639</name></trkpt>
<trkpt lat="53.248955" lon="-2.080147"><ele>377</ele><time>2020-10-21T13:25:35Z</time><name>PT3640</name></trkpt>
<trkpt lat="53.248968" lon="-2.080135"><ele>378</ele><time>2020-10-21T13:25:38Z</time><name>PT3641</name></trkpt>
<trkpt lat="53.248966" lon="-2.080124"><ele>378</ele><time>2020-10-21T13:25:41Z</time><name>PT3642</name></trkpt>
<trkpt lat="53.248976" lon="-2.080090"><ele>377</ele><time>2020-10-21T13:25:45Z</time><name>PT3643</name></trkpt>
<trkpt lat="53.248982" lon="-2.080087"><ele>376</ele><time>2020-10-21T13:25:48Z</time><name>PT3644</name></trkpt>
<trkpt lat="53.248985" lon="-2.080088"><ele>376</ele><time>2020-10-21T13:25:51Z</time><name>PT3645</name></trkpt>
<trkpt lat="53.248986" lon="-2.080089"><ele>375</ele><time>2020-10-21T13:25:56Z</time><name>PT3646</name></trkpt>
<trkpt lat="53.249003" lon="-2.080111"><ele>375</ele><time>2020-10-21T13:26:09Z</time><name>PT3647</name></trkpt>
<trkpt lat="53.249010" lon="-2.080114"><ele>375</ele><time>2020-10-21T13:26:14Z</time><name>PT3648</name></trkpt>
<trkpt lat="53.249021" lon="-2.080125"><ele>375</ele><time>2020-10-21T13:26:20Z</time><name>PT3649</name></trkpt>
<trkpt lat="53.249030" lon="-2.080124"><ele>375</ele><time>2020-10-21T13:26:23Z</time><name>PT3650</name></trkpt>
<trkpt lat="53.249076" lon="-2.080109"><ele>373</ele><time>2020-10-21T13:26:30Z</time><name>PT3651</name></trkpt>
<trkpt lat="53.249097" lon="-2.080066"><ele>371</ele><time>2020-10-21T13:26:35Z</time><name>PT3652</name></trkpt>
<trkpt lat="53.249101" lon="-2.080023"><ele>371</ele><time>2020-10-21T13:26:38Z</time><name>PT3653</name></trkpt>
<trkpt lat="53.249101" lon="-2.079971"><ele>370</ele><time>2020-10-21T13:26:42Z</time><name>PT3654</name></trkpt>
<trkpt lat="53.249112" lon="-2.079947"><ele>369</ele><time>2020-10-21T13:26:47Z</time><name>PT3655</name></trkpt>
<trkpt lat="53.249116" lon="-2.079945"><ele>370</ele><time>2020-10-21T13:26:50Z</time><name>PT3656</name></trkpt>
<trkpt lat="53.249133" lon="-2.079958"><ele>369</ele><time>2020-10-21T13:26:53Z</time><name>PT3657</name></trkpt>
<trkpt lat="53.249136" lon="-2.079951"><ele>369</ele><time>2020-10-21T13:26:56Z</time><name>PT3658</name></trkpt>
<trkpt lat="53.249140" lon="-2.079954"><ele>370</ele><time>2020-10-21T13:27:00Z</time><name>PT3659</name></trkpt>
<trkpt lat="53.249145" lon="-2.079974"><ele>371</ele><time>2020-10-21T13:27:11Z</time><name>PT3660</name></trkpt>
<trkpt lat="53.249148" lon="-2.079984"><ele>371</ele><time>2020-10-21T13:27:32Z</time><name>PT3661</name></trkpt>
<trkpt lat="53.249152" lon="-2.079990"><ele>371</ele><time>2020-10-21T13:27:47Z</time><name>PT3662</name></trkpt>
<trkpt lat="53.249182" lon="-2.079968"><ele>372</ele><time>2020-10-21T13:27:51Z</time><name>PT3663</name></trkpt>
<trkpt lat="53.249206" lon="-2.079959"><ele>372</ele><time>2020-10-21T13:27:54Z</time><name>PT3664</name></trkpt>
<trkpt lat="53.249240" lon="-2.079943"><ele>371</ele><time>2020-10-21T13:27:59Z</time><name>PT3665</name></trkpt>
<trkpt lat="53.249256" lon="-2.079932"><ele>371</ele><time>2020-10-21T13:28:02Z</time><name>PT3666</name></trkpt>
<trkpt lat="53.249274" lon="-2.079922"><ele>372</ele><time>2020-10-21T13:28:05Z</time><name>PT3667</name></trkpt>
<trkpt lat="53.249301" lon="-2.079896"><ele>370</ele><time>2020-10-21T13:28:08Z</time><name>PT3668</name></trkpt>
<trkpt lat="53.249329" lon="-2.079862"><ele>371</ele><time>2020-10-21T13:28:11Z</time><name>PT3669</name></trkpt>
<trkpt lat="53.249352" lon="-2.079830"><ele>370</ele><time>2020-10-21T13:28:14Z</time><name>PT3670</name></trkpt>
<trkpt lat="53.249360" lon="-2.079811"><ele>370</ele><time>2020-10-21T13:28:14Z</time><name>PT3671</name></trkpt>
<trkpt lat="53.249369" lon="-2.079800"><ele>370</ele><time>2020-10-21T13:28:15Z</time><name>PT3672</name></trkpt>
<trkpt lat="53.249377" lon="-2.079786"><ele>370</ele><time>2020-10-21T13:28:17Z</time><name>PT3673</name></trkpt>
<trkpt lat="53.249387" lon="-2.079775"><ele>371</ele><time>2020-10-21T13:28:17Z</time><name>PT3674</name></trkpt>
<trkpt lat="53.249396" lon="-2.079760"><ele>371</ele><time>2020-10-21T13:28:18Z</time><name>PT3675</name></trkpt>
<trkpt lat="53.249402" lon="-2.079746"><ele>371</ele><time>2020-10-21T13:28:20Z</time><name>PT3676</name></trkpt>
<trkpt lat="53.249408" lon="-2.079732"><ele>371</ele><time>2020-10-21T13:28:20Z</time><name>PT3677</name></trkpt>
<trkpt lat="53.249416" lon="-2.079722"><ele>371</ele><time>2020-10-21T13:28:21Z</time><name>PT3678</name></trkpt>
<trkpt lat="53.249423" lon="-2.079714"><ele>371</ele><time>2020-10-21T13:28:23Z</time><name>PT3679</name></trkpt>
<trkpt lat="53.249430" lon="-2.079706"><ele>371</ele><time>2020-10-21T13:28:23Z</time><name>PT3680</name></trkpt>
<trkpt lat="53.249436" lon="-2.079697"><ele>371</ele><time>2020-10-21T13:28:24Z</time><name>PT3681</name></trkpt>
<trkpt lat="53.249440" lon="-2.079689"><ele>371</ele><time>2020-10-21T13:28:26Z</time><name>PT3682</name></trkpt>
<trkpt lat="53.249442" lon="-2.079681"><ele>371</ele><time>2020-10-21T13:28:26Z</time><name>PT3683</name></trkpt>
<trkpt lat="53.249446" lon="-2.079680"><ele>371</ele><time>2020-10-21T13:28:27Z</time><name>PT3684</name></trkpt>
<trkpt lat="53.249448" lon="-2.079679"><ele>372</ele><time>2020-10-21T13:28:29Z</time><name>PT3685</name></trkpt>
<trkpt lat="53.249452" lon="-2.079673"><ele>372</ele><time>2020-10-21T13:28:29Z</time><name>PT3686</name></trkpt>
<trkpt lat="53.249456" lon="-2.079665"><ele>372</ele><time>2020-10-21T13:28:30Z</time><name>PT3687</name></trkpt>
<trkpt lat="53.249460" lon="-2.079663"><ele>372</ele><time>2020-10-21T13:28:32Z</time><name>PT3688</name></trkpt>
<trkpt lat="53.249466" lon="-2.079658"><ele>372</ele><time>2020-10-21T13:28:32Z</time><name>PT3689</name></trkpt>
<trkpt lat="53.249467" lon="-2.079655"><ele>372</ele><time>2020-10-21T13:28:33Z</time><name>PT3690</name></trkpt>
<trkpt lat="53.249465" lon="-2.079650"><ele>372</ele><time>2020-10-21T13:28:35Z</time><name>PT3691</name></trkpt>
<trkpt lat="53.249465" lon="-2.079645"><ele>372</ele><time>2020-10-21T13:28:35Z</time><name>PT3692</name></trkpt>
<trkpt lat="53.249466" lon="-2.079641"><ele>372</ele><time>2020-10-21T13:28:36Z</time><name>PT3693</name></trkpt>
<trkpt lat="53.249466" lon="-2.079640"><ele>372</ele><time>2020-10-21T13:28:38Z</time><name>PT3694</name></trkpt>
<trkpt lat="53.249467" lon="-2.079638"><ele>372</ele><time>2020-10-21T13:28:38Z</time><name>PT3695</name></trkpt>
<trkpt lat="53.249466" lon="-2.079637"><ele>372</ele><time>2020-10-21T13:28:39Z</time><name>PT3696</name></trkpt>
<trkpt lat="53.249469" lon="-2.079638"><ele>372</ele><time>2020-10-21T13:28:47Z</time><name>PT3697</name></trkpt>
<trkpt lat="53.249470" lon="-2.079636"><ele>373</ele><time>2020-10-21T13:28:48Z</time><name>PT3698</name></trkpt>
<trkpt lat="53.249470" lon="-2.079635"><ele>373</ele><time>2020-10-21T13:28:50Z</time><name>PT3699</name></trkpt>
<trkpt lat="53.249471" lon="-2.079633"><ele>373</ele><time>2020-10-21T13:28:56Z</time><name>PT3700</name></trkpt>
<trkpt lat="53.249473" lon="-2.079628"><ele>373</ele><time>2020-10-21T13:28:56Z</time><name>PT3701</name></trkpt>
<trkpt lat="53.249476" lon="-2.079623"><ele>373</ele><time>2020-10-21T13:28:57Z</time><name>PT3702</name></trkpt>
<trkpt lat="53.249478" lon="-2.079611"><ele>373</ele><time>2020-10-21T13:28:59Z</time><name>PT3703</name></trkpt>
<trkpt lat="53.249483" lon="-2.079598"><ele>373</ele><time>2020-10-21T13:28:59Z</time><name>PT3704</name></trkpt>
<trkpt lat="53.249490" lon="-2.079584"><ele>373</ele><time>2020-10-21T13:29:00Z</time><name>PT3705</name></trkpt>
<trkpt lat="53.249496" lon="-2.079570"><ele>373</ele><time>2020-10-21T13:29:02Z</time><name>PT3706</name></trkpt>
<trkpt lat="53.249500" lon="-2.079554"><ele>373</ele><time>2020-10-21T13:29:02Z</time><name>PT3707</name></trkpt>
<trkpt lat="53.249506" lon="-2.079540"><ele>373</ele><time>2020-10-21T13:29:03Z</time><name>PT3708</name></trkpt>
<trkpt lat="53.249511" lon="-2.079533"><ele>373</ele><time>2020-10-21T13:29:05Z</time><name>PT3709</name></trkpt>
<trkpt lat="53.249517" lon="-2.079525"><ele>373</ele><time>2020-10-21T13:29:05Z</time><name>PT3710</name></trkpt>
<trkpt lat="53.249522" lon="-2.079520"><ele>373</ele><time>2020-10-21T13:29:06Z</time><name>PT3711</name></trkpt>
<trkpt lat="53.249528" lon="-2.079516"><ele>373</ele><time>2020-10-21T13:29:08Z</time><name>PT3712</name></trkpt>
<trkpt lat="53.249535" lon="-2.079514"><ele>373</ele><time>2020-10-21T13:29:08Z</time><name>PT3713</name></trkpt>
<trkpt lat="53.249543" lon="-2.079512"><ele>373</ele><time>2020-10-21T13:29:09Z</time><name>PT3714</name></trkpt>
<trkpt lat="53.249551" lon="-2.079509"><ele>373</ele><time>2020-10-21T13:29:11Z</time><name>PT3715</name></trkpt>
<trkpt lat="53.249562" lon="-2.079506"><ele>373</ele><time>2020-10-21T13:29:11Z</time><name>PT3716</name></trkpt>
<trkpt lat="53.249570" lon="-2.079503"><ele>373</ele><time>2020-10-21T13:29:12Z</time><name>PT3717</name></trkpt>
<trkpt lat="53.249581" lon="-2.079504"><ele>373</ele><time>2020-10-21T13:29:14Z</time><name>PT3718</name></trkpt>
<trkpt lat="53.249592" lon="-2.079506"><ele>372</ele><time>2020-10-21T13:29:14Z</time><name>PT3719</name></trkpt>
<trkpt lat="53.249600" lon="-2.079506"><ele>373</ele><time>2020-10-21T13:29:15Z</time><name>PT3720</name></trkpt>
<trkpt lat="53.249608" lon="-2.079509"><ele>372</ele><time>2020-10-21T13:29:17Z</time><name>PT3721</name></trkpt>
<trkpt lat="53.249618" lon="-2.079511"><ele>372</ele><time>2020-10-21T13:29:17Z</time><name>PT3722</name></trkpt>
<trkpt lat="53.249626" lon="-2.079510"><ele>372</ele><time>2020-10-21T13:29:18Z</time><name>PT3723</name></trkpt>
<trkpt lat="53.249634" lon="-2.079510"><ele>372</ele><time>2020-10-21T13:29:20Z</time><name>PT3724</name></trkpt>
<trkpt lat="53.249643" lon="-2.079507"><ele>371</ele><time>2020-10-21T13:29:20Z</time><name>PT3725</name></trkpt>
<trkpt lat="53.249650" lon="-2.079506"><ele>371</ele><time>2020-10-21T13:29:21Z</time><name>PT3726</name></trkpt>
<trkpt lat="53.249660" lon="-2.079504"><ele>371</ele><time>2020-10-21T13:29:23Z</time><name>PT3727</name></trkpt>
<trkpt lat="53.249669" lon="-2.079500"><ele>371</ele><time>2020-10-21T13:29:23Z</time><name>PT3728</name></trkpt>
<trkpt lat="53.249679" lon="-2.079499"><ele>371</ele><time>2020-10-21T13:29:24Z</time><name>PT3729</name></trkpt>
<trkpt lat="53.249685" lon="-2.079500"><ele>370</ele><time>2020-10-21T13:29:26Z</time><name>PT3730</name></trkpt>
<trkpt lat="53.249693" lon="-2.079498"><ele>370</ele><time>2020-10-21T13:29:26Z</time><name>PT3731</name></trkpt>
<trkpt lat="53.249701" lon="-2.079495"><ele>370</ele><time>2020-10-21T13:29:27Z</time><name>PT3732</name></trkpt>
<trkpt lat="53.249717" lon="-2.079495"><ele>371</ele><time>2020-10-21T13:29:29Z</time><name>PT3733</name></trkpt>
<trkpt lat="53.249724" lon="-2.079490"><ele>371</ele><time>2020-10-21T13:29:29Z</time><name>PT3734</name></trkpt>
<trkpt lat="53.249729" lon="-2.079486"><ele>371</ele><time>2020-10-21T13:29:30Z</time><name>PT3735</name></trkpt>
<trkpt lat="53.249732" lon="-2.079479"><ele>371</ele><time>2020-10-21T13:29:32Z</time><name>PT3736</name></trkpt>
<trkpt lat="53.249736" lon="-2.079470"><ele>371</ele><time>2020-10-21T13:29:32Z</time><name>PT3737</name></trkpt>
<trkpt lat="53.249745" lon="-2.079462"><ele>370</ele><time>2020-10-21T13:29:33Z</time><name>PT3738</name></trkpt>
<trkpt lat="53.249752" lon="-2.079453"><ele>370</ele><time>2020-10-21T13:29:35Z</time><name>PT3739</name></trkpt>
<trkpt lat="53.249757" lon="-2.079443"><ele>370</ele><time>2020-10-21T13:29:35Z</time><name>PT3740</name></trkpt>
<trkpt lat="53.249762" lon="-2.079436"><ele>370</ele><time>2020-10-21T13:29:36Z</time><name>PT3741</name></trkpt>
<trkpt lat="53.249767" lon="-2.079424"><ele>370</ele><time>2020-10-21T13:29:38Z</time><name>PT3742</name></trkpt>
<trkpt lat="53.249774" lon="-2.079410"><ele>370</ele><time>2020-10-21T13:29:38Z</time><name>PT3743</name></trkpt>
<trkpt lat="53.249776" lon="-2.079398"><ele>370</ele><time>2020-10-21T13:29:39Z</time><name>PT3744</name></trkpt>
<trkpt lat="53.249783" lon="-2.079385"><ele>369</ele><time>2020-10-21T13:29:41Z</time><name>PT3745</name></trkpt>
<trkpt lat="53.249789" lon="-2.079372"><ele>369</ele><time>2020-10-21T13:29:41Z</time><name>PT3746</name></trkpt>
<trkpt lat="53.249795" lon="-2.079353"><ele>369</ele><time>2020-10-21T13:29:42Z</time><name>PT3747</name></trkpt>
<trkpt lat="53.249805" lon="-2.079339"><ele>369</ele><time>2020-10-21T13:29:44Z</time><name>PT3748</name></trkpt>
<trkpt lat="53.249811" lon="-2.079326"><ele>369</ele><time>2020-10-21T13:29:44Z</time><name>PT3749</name></trkpt>
<trkpt lat="53.249818" lon="-2.079309"><ele>370</ele><time>2020-10-21T13:29:45Z</time><name>PT3750</name></trkpt>
<trkpt lat="53.249824" lon="-2.079294"><ele>370</ele><time>2020-10-21T13:29:47Z</time><name>PT3751</name></trkpt>
<trkpt lat="53.249829" lon="-2.079275"><ele>370</ele><time>2020-10-21T13:29:47Z</time><name>PT3752</name></trkpt>
<trkpt lat="53.249834" lon="-2.079256"><ele>370</ele><time>2020-10-21T13:29:48Z</time><name>PT3753</name></trkpt>
<trkpt lat="53.249839" lon="-2.079239"><ele>370</ele><time>2020-10-21T13:29:50Z</time><name>PT3754</name></trkpt>
<trkpt lat="53.249843" lon="-2.079223"><ele>370</ele><time>2020-10-21T13:29:50Z</time><name>PT3755</name></trkpt>
<trkpt lat="53.249848" lon="-2.079209"><ele>370</ele><time>2020-10-21T13:29:51Z</time><name>PT3756</name></trkpt>
<trkpt lat="53.249853" lon="-2.079194"><ele>370</ele><time>2020-10-21T13:29:53Z</time><name>PT3757</name></trkpt>
<trkpt lat="53.249856" lon="-2.079167"><ele>370</ele><time>2020-10-21T13:29:53Z</time><name>PT3758</name></trkpt>
<trkpt lat="53.249860" lon="-2.079153"><ele>370</ele><time>2020-10-21T13:29:54Z</time><name>PT3759</name></trkpt>
<trkpt lat="53.249865" lon="-2.079138"><ele>370</ele><time>2020-10-21T13:29:56Z</time><name>PT3760</name></trkpt>
<trkpt lat="53.249865" lon="-2.079113"><ele>370</ele><time>2020-10-21T13:29:56Z</time><name>PT3761</name></trkpt>
<trkpt lat="53.249866" lon="-2.079084"><ele>371</ele><time>2020-10-21T13:29:57Z</time><name>PT3762</name></trkpt>
<trkpt lat="53.249868" lon="-2.079080"><ele>371</ele><time>2020-10-21T13:29:59Z</time><name>PT3763</name></trkpt>
<trkpt lat="53.249871" lon="-2.079075"><ele>370</ele><time>2020-10-21T13:30:00Z</time><name>PT3764</name></trkpt>
<trkpt lat="53.249874" lon="-2.079059"><ele>370</ele><time>2020-10-21T13:30:02Z</time><name>PT3765</name></trkpt>
<trkpt lat="53.249880" lon="-2.079039"><ele>371</ele><time>2020-10-21T13:30:02Z</time><name>PT3766</name></trkpt>
<trkpt lat="53.249883" lon="-2.079023"><ele>371</ele><time>2020-10-21T13:30:03Z</time><name>PT3767</name></trkpt>
<trkpt lat="53.249884" lon="-2.079014"><ele>370</ele><time>2020-10-21T13:30:05Z</time><name>PT3768</name></trkpt>
<trkpt lat="53.249887" lon="-2.078999"><ele>370</ele><time>2020-10-21T13:30:05Z</time><name>PT3769</name></trkpt>
<trkpt lat="53.249895" lon="-2.078988"><ele>370</ele><time>2020-10-21T13:30:06Z</time><name>PT3770</name></trkpt>
<trkpt lat="53.249901" lon="-2.078973"><ele>369</ele><time>2020-10-21T13:30:08Z</time><name>PT3771</name></trkpt>
<trkpt lat="53.249910" lon="-2.078955"><ele>369</ele><time>2020-10-21T13:30:08Z</time><name>PT3772</name></trkpt>
<trkpt lat="53.249915" lon="-2.078946"><ele>369</ele><time>2020-10-21T13:30:09Z</time><name>PT3773</name></trkpt>
<trkpt lat="53.249921" lon="-2.078938"><ele>369</ele><time>2020-10-21T13:30:11Z</time><name>PT3774</name></trkpt>
<trkpt lat="53.249927" lon="-2.078932"><ele>368</ele><time>2020-10-21T13:30:11Z</time><name>PT3775</name></trkpt>
<trkpt lat="53.249931" lon="-2.078924"><ele>368</ele><time>2020-10-21T13:30:12Z</time><name>PT3776</name></trkpt>
<trkpt lat="53.249937" lon="-2.078916"><ele>368</ele><time>2020-10-21T13:30:14Z</time><name>PT3777</name></trkpt>
<trkpt lat="53.249944" lon="-2.078908"><ele>367</ele><time>2020-10-21T13:30:14Z</time><name>PT3778</name></trkpt>
<trkpt lat="53.249949" lon="-2.078904"><ele>366</ele><time>2020-10-21T13:30:15Z</time><name>PT3779</name></trkpt>
<trkpt lat="53.249960" lon="-2.078901"><ele>366</ele><time>2020-10-21T13:30:17Z</time><name>PT3780</name></trkpt>
<trkpt lat="53.249973" lon="-2.078899"><ele>366</ele><time>2020-10-21T13:30:17Z</time><name>PT3781</name></trkpt>
<trkpt lat="53.249991" lon="-2.078908"><ele>367</ele><time>2020-10-21T13:30:18Z</time><name>PT3782</name></trkpt>
<trkpt lat="53.250006" lon="-2.078912"><ele>367</ele><time>2020-10-21T13:30:20Z</time><name>PT3783</name></trkpt>
<trkpt lat="53.250021" lon="-2.078917"><ele>367</ele><time>2020-10-21T13:30:20Z</time><name>PT3784</name></trkpt>
<trkpt lat="53.250035" lon="-2.078918"><ele>368</ele><time>2020-10-21T13:30:21Z</time><name>PT3785</name></trkpt>
<trkpt lat="53.250053" lon="-2.078920"><ele>368</ele><time>2020-10-21T13:30:23Z</time><name>PT3786</name></trkpt>
<trkpt lat="53.250068" lon="-2.078924"><ele>368</ele><time>2020-10-21T13:30:23Z</time><name>PT3787</name></trkpt>
<trkpt lat="53.250078" lon="-2.078928"><ele>368</ele><time>2020-10-21T13:30:25Z</time><name>PT3788</name></trkpt>
<trkpt lat="53.250088" lon="-2.078930"><ele>369</ele><time>2020-10-21T13:30:26Z</time><name>PT3789</name></trkpt>
<trkpt lat="53.250098" lon="-2.078938"><ele>368</ele><time>2020-10-21T13:30:26Z</time><name>PT3790</name></trkpt>
<trkpt lat="53.250110" lon="-2.078941"><ele>369</ele><time>2020-10-21T13:30:27Z</time><name>PT3791</name></trkpt>
<trkpt lat="53.250123" lon="-2.078940"><ele>369</ele><time>2020-10-21T13:30:29Z</time><name>PT3792</name></trkpt>
<trkpt lat="53.250133" lon="-2.078945"><ele>369</ele><time>2020-10-21T13:30:29Z</time><name>PT3793</name></trkpt>
<trkpt lat="53.250142" lon="-2.078952"><ele>368</ele><time>2020-10-21T13:30:30Z</time><name>PT3794</name></trkpt>
<trkpt lat="53.250151" lon="-2.078957"><ele>368</ele><time>2020-10-21T13:30:32Z</time><name>PT3795</name></trkpt>
<trkpt lat="53.250162" lon="-2.078956"><ele>368</ele><time>2020-10-21T13:30:32Z</time><name>PT3796</name></trkpt>
<trkpt lat="53.250172" lon="-2.078954"><ele>369</ele><time>2020-10-21T13:30:33Z</time><name>PT3797</name></trkpt>
<trkpt lat="53.250175" lon="-2.078955"><ele>370</ele><time>2020-10-21T13:30:35Z</time><name>PT3798</name></trkpt>
<trkpt lat="53.250175" lon="-2.078954"><ele>370</ele><time>2020-10-21T13:30:35Z</time><name>PT3799</name></trkpt>
<trkpt lat="53.250171" lon="-2.078954"><ele>369</ele><time>2020-10-21T13:30:36Z</time><name>PT3800</name></trkpt>
<trkpt lat="53.250181" lon="-2.078985"><ele>370</ele><time>2020-10-21T13:31:32Z</time><name>PT3801</name></trkpt>
<trkpt lat="53.250220" lon="-2.079040"><ele>370</ele><time>2020-10-21T13:31:36Z</time><name>PT3802</name></trkpt>
<trkpt lat="53.250264" lon="-2.079069"><ele>371</ele><time>2020-10-21T13:31:41Z</time><name>PT3803</name></trkpt>
<trkpt lat="53.250296" lon="-2.079070"><ele>370</ele><time>2020-10-21T13:31:44Z</time><name>PT3804</name></trkpt>
<trkpt lat="53.250308" lon="-2.079068"><ele>370</ele><time>2020-10-21T13:31:47Z</time><name>PT3805</name></trkpt>
<trkpt lat="53.250307" lon="-2.079064"><ele>370</ele><time>2020-10-21T13:31:50Z</time><name>PT3806</name></trkpt>
<trkpt lat="53.250333" lon="-2.079052"><ele>371</ele><time>2020-10-21T13:32:20Z</time><name>PT3807</name></trkpt>
<trkpt lat="53.250337" lon="-2.079050"><ele>371</ele><time>2020-10-21T13:32:23Z</time><name>PT3808</name></trkpt>
<trkpt lat="53.250374" lon="-2.079050"><ele>370</ele><time>2020-10-21T13:32:32Z</time><name>PT3809</name></trkpt>
<trkpt lat="53.250408" lon="-2.079051"><ele>369</ele><time>2020-10-21T13:32:35Z</time><name>PT3810</name></trkpt>
<trkpt lat="53.250445" lon="-2.079036"><ele>370</ele><time>2020-10-21T13:32:38Z</time><name>PT3811</name></trkpt>
<trkpt lat="53.250476" lon="-2.079011"><ele>370</ele><time>2020-10-21T13:32:41Z</time><name>PT3812</name></trkpt>
<trkpt lat="53.250519" lon="-2.078985"><ele>370</ele><time>2020-10-21T13:32:45Z</time><name>PT3813</name></trkpt>
<trkpt lat="53.250564" lon="-2.078967"><ele>371</ele><time>2020-10-21T13:32:50Z</time><name>PT3814</name></trkpt>
<trkpt lat="53.250595" lon="-2.078944"><ele>371</ele><time>2020-10-21T13:32:53Z</time><name>PT3815</name></trkpt>
<trkpt lat="53.250638" lon="-2.078940"><ele>371</ele><time>2020-10-21T13:32:56Z</time><name>PT3816</name></trkpt>
<trkpt lat="53.250687" lon="-2.078953"><ele>370</ele><time>2020-10-21T13:33:00Z</time><name>PT3817</name></trkpt>
<trkpt lat="53.250714" lon="-2.078969"><ele>370</ele><time>2020-10-21T13:33:05Z</time><name>PT3818</name></trkpt>
<trkpt lat="53.250719" lon="-2.078971"><ele>370</ele><time>2020-10-21T13:33:08Z</time><name>PT3819</name></trkpt>
<trkpt lat="53.250721" lon="-2.078978"><ele>370</ele><time>2020-10-21T13:33:20Z</time><name>PT3820</name></trkpt>
<trkpt lat="53.250721" lon="-2.078979"><ele>370</ele><time>2020-10-21T13:33:23Z</time><name>PT3821</name></trkpt>
<trkpt lat="53.250754" lon="-2.078954"><ele>370</ele><time>2020-10-21T13:33:51Z</time><name>PT3822</name></trkpt>
<trkpt lat="53.250786" lon="-2.078953"><ele>369</ele><time>2020-10-21T13:33:54Z</time><name>PT3823</name></trkpt>
<trkpt lat="53.250836" lon="-2.078946"><ele>370</ele><time>2020-10-21T13:33:59Z</time><name>PT3824</name></trkpt>
<trkpt lat="53.250871" lon="-2.078940"><ele>368</ele><time>2020-10-21T13:34:02Z</time><name>PT3825</name></trkpt>
<trkpt lat="53.250908" lon="-2.078937"><ele>369</ele><time>2020-10-21T13:34:05Z</time><name>PT3826</name></trkpt>
<trkpt lat="53.250955" lon="-2.078946"><ele>370</ele><time>2020-10-21T13:34:08Z</time><name>PT3827</name></trkpt>
<trkpt lat="53.250979" lon="-2.078948"><ele>370</ele><time>2020-10-21T13:34:11Z</time><name>PT3828</name></trkpt>
<trkpt lat="53.251009" lon="-2.078945"><ele>370</ele><time>2020-10-21T13:34:14Z</time><name>PT3829</name></trkpt>
<trkpt lat="53.251044" lon="-2.078948"><ele>370</ele><time>2020-10-21T13:34:18Z</time><name>PT3830</name></trkpt>
<trkpt lat="53.251070" lon="-2.078952"><ele>370</ele><time>2020-10-21T13:34:21Z</time><name>PT3831</name></trkpt>
<trkpt lat="53.251111" lon="-2.078958"><ele>371</ele><time>2020-10-21T13:34:26Z</time><name>PT3832</name></trkpt>
<trkpt lat="53.251145" lon="-2.078948"><ele>373</ele><time>2020-10-21T13:34:29Z</time><name>PT3833</name></trkpt>
<trkpt lat="53.251180" lon="-2.078946"><ele>373</ele><time>2020-10-21T13:34:32Z</time><name>PT3834</name></trkpt>
<trkpt lat="53.251215" lon="-2.078946"><ele>373</ele><time>2020-10-21T13:34:35Z</time><name>PT3835</name></trkpt>
<trkpt lat="53.251272" lon="-2.078945"><ele>374</ele><time>2020-10-21T13:34:39Z</time><name>PT3836</name></trkpt>
<trkpt lat="53.251316" lon="-2.078933"><ele>374</ele><time>2020-10-21T13:34:44Z</time><name>PT3837</name></trkpt>
<trkpt lat="53.251345" lon="-2.078925"><ele>375</ele><time>2020-10-21T13:34:47Z</time><name>PT3838</name></trkpt>
<trkpt lat="53.251374" lon="-2.078917"><ele>375</ele><time>2020-10-21T13:34:50Z</time><name>PT3839</name></trkpt>
<trkpt lat="53.251412" lon="-2.078894"><ele>377</ele><time>2020-10-21T13:34:53Z</time><name>PT3840</name></trkpt>
<trkpt lat="53.251448" lon="-2.078869"><ele>377</ele><time>2020-10-21T13:34:56Z</time><name>PT3841</name></trkpt>
<trkpt lat="53.251495" lon="-2.078839"><ele>376</ele><time>2020-10-21T13:35:00Z</time><name>PT3842</name></trkpt>
<trkpt lat="53.251523" lon="-2.078821"><ele>376</ele><time>2020-10-21T13:35:03Z</time><name>PT3843</name></trkpt>
<trkpt lat="53.251558" lon="-2.078801"><ele>376</ele><time>2020-10-21T13:35:06Z</time><name>PT3844</name></trkpt>
<trkpt lat="53.251592" lon="-2.078797"><ele>376</ele><time>2020-10-21T13:35:09Z</time><name>PT3845</name></trkpt>
<trkpt lat="53.251617" lon="-2.078783"><ele>377</ele><time>2020-10-21T13:35:14Z</time><name>PT3846</name></trkpt>
<trkpt lat="53.251618" lon="-2.078782"><ele>377</ele><time>2020-10-21T13:35:17Z</time><name>PT3847</name></trkpt>
<trkpt lat="53.251617" lon="-2.078789"><ele>377</ele><time>2020-10-21T13:35:23Z</time><name>PT3848</name></trkpt>
<trkpt lat="53.251620" lon="-2.078790"><ele>376</ele><time>2020-10-21T13:35:24Z</time><name>PT3849</name></trkpt>
<trkpt lat="53.251621" lon="-2.078791"><ele>376</ele><time>2020-10-21T13:35:26Z</time><name>PT3850</name></trkpt>
<trkpt lat="53.251622" lon="-2.078790"><ele>376</ele><time>2020-10-21T13:35:26Z</time><name>PT3851</name></trkpt>
<trkpt lat="53.251623" lon="-2.078792"><ele>376</ele><time>2020-10-21T13:35:29Z</time><name>PT3852</name></trkpt>
<trkpt lat="53.251623" lon="-2.078792"><ele>376</ele><time>2020-10-21T13:35:30Z</time><name>PT3853</name></trkpt>
<trkpt lat="53.251619" lon="-2.078792"><ele>376</ele><time>2020-10-21T13:35:39Z</time><name>PT3854</name></trkpt>
<trkpt lat="53.251607" lon="-2.078792"><ele>376</ele><time>2020-10-21T13:35:41Z</time><name>PT3855</name></trkpt>
<trkpt lat="53.251594" lon="-2.078797"><ele>376</ele><time>2020-10-21T13:35:41Z</time><name>PT3856</name></trkpt>
<trkpt lat="53.251584" lon="-2.078795"><ele>376</ele><time>2020-10-21T13:35:42Z</time><name>PT3857</name></trkpt>
<trkpt lat="53.251573" lon="-2.078796"><ele>376</ele><time>2020-10-21T13:35:44Z</time><name>PT3858</name></trkpt>
<trkpt lat="53.251560" lon="-2.078801"><ele>376</ele><time>2020-10-21T13:35:44Z</time><name>PT3859</name></trkpt>
<trkpt lat="53.251549" lon="-2.078805"><ele>376</ele><time>2020-10-21T13:35:45Z</time><name>PT3860</name></trkpt>
<trkpt lat="53.251537" lon="-2.078810"><ele>376</ele><time>2020-10-21T13:35:47Z</time><name>PT3861</name></trkpt>
<trkpt lat="53.251526" lon="-2.078815"><ele>376</ele><time>2020-10-21T13:35:47Z</time><name>PT3862</name></trkpt>
<trkpt lat="53.251515" lon="-2.078824"><ele>376</ele><time>2020-10-21T13:35:48Z</time><name>PT3863</name></trkpt>
<trkpt lat="53.251502" lon="-2.078832"><ele>376</ele><time>2020-10-21T13:35:50Z</time><name>PT3864</name></trkpt>
<trkpt lat="53.251491" lon="-2.078835"><ele>376</ele><time>2020-10-21T13:35:50Z</time><name>PT3865</name></trkpt>
<trkpt lat="53.251481" lon="-2.078840"><ele>376</ele><time>2020-10-21T13:35:51Z</time><name>PT3866</name></trkpt>
<trkpt lat="53.251473" lon="-2.078846"><ele>376</ele><time>2020-10-21T13:35:53Z</time><name>PT3867</name></trkpt>
<trkpt lat="53.251469" lon="-2.078851"><ele>376</ele><time>2020-10-21T13:35:53Z</time><name>PT3868</name></trkpt>
<trkpt lat="53.251468" lon="-2.078852"><ele>376</ele><time>2020-10-21T13:35:54Z</time><name>PT3869</name></trkpt>
<trkpt lat="53.251468" lon="-2.078853"><ele>376</ele><time>2020-10-21T13:35:56Z</time><name>PT3870</name></trkpt>
<trkpt lat="53.251467" lon="-2.078853"><ele>376</ele><time>2020-10-21T13:35:56Z</time><name>PT3871</name></trkpt>
<trkpt lat="53.251463" lon="-2.078855"><ele>376</ele><time>2020-10-21T13:35:59Z</time><name>PT3872</name></trkpt>
<trkpt lat="53.251453" lon="-2.078859"><ele>376</ele><time>2020-10-21T13:35:59Z</time><name>PT3873</name></trkpt>
<trkpt lat="53.251444" lon="-2.078862"><ele>376</ele><time>2020-10-21T13:36:00Z</time><name>PT3874</name></trkpt>
<trkpt lat="53.251434" lon="-2.078867"><ele>376</ele><time>2020-10-21T13:36:02Z</time><name>PT3875</name></trkpt>
<trkpt lat="53.251423" lon="-2.078875"><ele>376</ele><time>2020-10-21T13:36:02Z</time><name>PT3876</name></trkpt>
<trkpt lat="53.251411" lon="-2.078883"><ele>376</ele><time>2020-10-21T13:36:03Z</time><name>PT3877</name></trkpt>
<trkpt lat="53.251399" lon="-2.078892"><ele>376</ele><time>2020-10-21T13:36:05Z</time><name>PT3878</name></trkpt>
<trkpt lat="53.251387" lon="-2.078901"><ele>376</ele><time>2020-10-21T13:36:05Z</time><name>PT3879</name></trkpt>
<trkpt lat="53.251375" lon="-2.078906"><ele>376</ele><time>2020-10-21T13:36:06Z</time><name>PT3880</name></trkpt>
<trkpt lat="53.251356" lon="-2.078911"><ele>376</ele><time>2020-10-21T13:36:08Z</time><name>PT3881</name></trkpt>
<trkpt lat="53.251339" lon="-2.078919"><ele>377</ele><time>2020-10-21T13:36:08Z</time><name>PT3882</name></trkpt>
<trkpt lat="53.251328" lon="-2.078923"><ele>377</ele><time>2020-10-21T13:36:09Z</time><name>PT3883</name></trkpt>
<trkpt lat="53.251317" lon="-2.078926"><ele>377</ele><time>2020-10-21T13:36:11Z</time><name>PT3884</name></trkpt>
<trkpt lat="53.251306" lon="-2.078927"><ele>377</ele><time>2020-10-21T13:36:11Z</time><name>PT3885</name></trkpt>
<trkpt lat="53.251296" lon="-2.078919"><ele>378</ele><time>2020-10-21T13:36:12Z</time><name>PT3886</name></trkpt>
<trkpt lat="53.251284" lon="-2.078923"><ele>378</ele><time>2020-10-21T13:36:14Z</time><name>PT3887</name></trkpt>
<trkpt lat="53.251271" lon="-2.078926"><ele>378</ele><time>2020-10-21T13:36:14Z</time><name>PT3888</name></trkpt>
<trkpt lat="53.251257" lon="-2.078926"><ele>377</ele><time>2020-10-21T13:36:15Z</time><name>PT3889</name></trkpt>
<trkpt lat="53.251244" lon="-2.078922"><ele>377</ele><time>2020-10-21T13:36:17Z</time><name>PT3890</name></trkpt>
<trkpt lat="53.251232" lon="-2.078916"><ele>377</ele><time>2020-10-21T13:36:17Z</time><name>PT3891</name></trkpt>
<trkpt lat="53.251222" lon="-2.078914"><ele>376</ele><time>2020-10-21T13:36:18Z</time><name>PT3892</name></trkpt>
<trkpt lat="53.251214" lon="-2.078916"><ele>376</ele><time>2020-10-21T13:36:20Z</time><name>PT3893</name></trkpt>
<trkpt lat="53.251204" lon="-2.078916"><ele>376</ele><time>2020-10-21T13:36:20Z</time><name>PT3894</name></trkpt>
<trkpt lat="53.251193" lon="-2.078913"><ele>375</ele><time>2020-10-21T13:36:21Z</time><name>PT3895</name></trkpt>
<trkpt lat="53.251183" lon="-2.078909"><ele>374</ele><time>2020-10-21T13:36:23Z</time><name>PT3896</name></trkpt>
<trkpt lat="53.251176" lon="-2.078901"><ele>373</ele><time>2020-10-21T13:36:23Z</time><name>PT3897</name></trkpt>
<trkpt lat="53.251171" lon="-2.078901"><ele>373</ele><time>2020-10-21T13:36:24Z</time><name>PT3898</name></trkpt>
<trkpt lat="53.251167" lon="-2.078902"><ele>373</ele><time>2020-10-21T13:36:26Z</time><name>PT3899</name></trkpt>
<trkpt lat="53.251156" lon="-2.078900"><ele>373</ele><time>2020-10-21T13:36:26Z</time><name>PT3900</name></trkpt>
<trkpt lat="53.251146" lon="-2.078896"><ele>373</ele><time>2020-10-21T13:36:27Z</time><name>PT3901</name></trkpt>
<trkpt lat="53.251137" lon="-2.078891"><ele>372</ele><time>2020-10-21T13:36:29Z</time><name>PT3902</name></trkpt>
<trkpt lat="53.251126" lon="-2.078887"><ele>372</ele><time>2020-10-21T13:36:29Z</time><name>PT3903</name></trkpt>
<trkpt lat="53.251117" lon="-2.078881"><ele>371</ele><time>2020-10-21T13:36:31Z</time><name>PT3904</name></trkpt>
<trkpt lat="53.251106" lon="-2.078877"><ele>371</ele><time>2020-10-21T13:36:32Z</time><name>PT3905</name></trkpt>
<trkpt lat="53.251096" lon="-2.078875"><ele>370</ele><time>2020-10-21T13:36:32Z</time><name>PT3906</name></trkpt>
<trkpt lat="53.251084" lon="-2.078869"><ele>370</ele><time>2020-10-21T13:36:33Z</time><name>PT3907</name></trkpt>
<trkpt lat="53.251075" lon="-2.078867"><ele>369</ele><time>2020-10-21T13:36:35Z</time><name>PT3908</name></trkpt>
<trkpt lat="53.251064" lon="-2.078862"><ele>369</ele><time>2020-10-21T13:36:35Z</time><name>PT3909</name></trkpt>
<trkpt lat="53.251051" lon="-2.078863"><ele>368</ele><time>2020-10-21T13:36:36Z</time><name>PT3910</name></trkpt>
<trkpt lat="53.251041" lon="-2.078864"><ele>368</ele><time>2020-10-21T13:36:38Z</time><name>PT3911</name></trkpt>
<trkpt lat="53.251032" lon="-2.078866"><ele>367</ele><time>2020-10-21T13:36:38Z</time><name>PT3912</name></trkpt>
<trkpt lat="53.251020" lon="-2.078873"><ele>368</ele><time>2020-10-21T13:36:39Z</time><name>PT3913</name></trkpt>
<trkpt lat="53.251011" lon="-2.078879"><ele>368</ele><time>2020-10-21T13:36:41Z</time><name>PT3914</name></trkpt>
<trkpt lat="53.251000" lon="-2.078880"><ele>368</ele><time>2020-10-21T13:36:41Z</time><name>PT3915</name></trkpt>
<trkpt lat="53.250987" lon="-2.078884"><ele>369</ele><time>2020-10-21T13:36:42Z</time><name>PT3916</name></trkpt>
<trkpt lat="53.250973" lon="-2.078887"><ele>368</ele><time>2020-10-21T13:36:44Z</time><name>PT3917</name></trkpt>
<trkpt lat="53.250962" lon="-2.078889"><ele>368</ele><time>2020-10-21T13:36:44Z</time><name>PT3918</name></trkpt>
<trkpt lat="53.250951" lon="-2.078892"><ele>368</ele><time>2020-10-21T13:36:45Z</time><name>PT3919</name></trkpt>
<trkpt lat="53.250941" lon="-2.078893"><ele>368</ele><time>2020-10-21T13:36:47Z</time><name>PT3920</name></trkpt>
<trkpt lat="53.250932" lon="-2.078891"><ele>367</ele><time>2020-10-21T13:36:47Z</time><name>PT3921</name></trkpt>
<trkpt lat="53.250920" lon="-2.078893"><ele>368</ele><time>2020-10-21T13:36:48Z</time><name>PT3922</name></trkpt>
<trkpt lat="53.250907" lon="-2.078896"><ele>368</ele><time>2020-10-21T13:36:50Z</time><name>PT3923</name></trkpt>
<trkpt lat="53.250894" lon="-2.078897"><ele>368</ele><time>2020-10-21T13:36:50Z</time><name>PT3924</name></trkpt>
<trkpt lat="53.250881" lon="-2.078897"><ele>370</ele><time>2020-10-21T13:36:51Z</time><name>PT3925</name></trkpt>
<trkpt lat="53.250869" lon="-2.078894"><ele>369</ele><time>2020-10-21T13:36:53Z</time><name>PT3926</name></trkpt>
<trkpt lat="53.250852" lon="-2.078892"><ele>370</ele><time>2020-10-21T13:36:53Z</time><name>PT3927</name></trkpt>
<trkpt lat="53.250841" lon="-2.078894"><ele>369</ele><time>2020-10-21T13:36:54Z</time><name>PT3928</name></trkpt>
<trkpt lat="53.250827" lon="-2.078899"><ele>369</ele><time>2020-10-21T13:36:56Z</time><name>PT3929</name></trkpt>
<trkpt lat="53.250812" lon="-2.078901"><ele>369</ele><time>2020-10-21T13:36:56Z</time><name>PT3930</name></trkpt>
<trkpt lat="53.250801" lon="-2.078904"><ele>368</ele><time>2020-10-21T13:36:57Z</time><name>PT3931</name></trkpt>
<trkpt lat="53.250788" lon="-2.078902"><ele>368</ele><time>2020-10-21T13:36:59Z</time><name>PT3932</name></trkpt>
<trkpt lat="53.250775" lon="-2.078900"><ele>367</ele><time>2020-10-21T13:36:59Z</time><name>PT3933</name></trkpt>
<trkpt lat="53.250762" lon="-2.078898"><ele>367</ele><time>2020-10-21T13:37:00Z</time><name>PT3934</name></trkpt>
<trkpt lat="53.250749" lon="-2.078900"><ele>367</ele><time>2020-10-21T13:37:02Z</time><name>PT3935</name></trkpt>
<trkpt lat="53.250735" lon="-2.078902"><ele>366</ele><time>2020-10-21T13:37:02Z</time><name>PT3936</name></trkpt>
<trkpt lat="53.250723" lon="-2.078906"><ele>366</ele><time>2020-10-21T13:37:03Z</time><name>PT3937</name></trkpt>
<trkpt lat="53.250710" lon="-2.078914"><ele>366</ele><time>2020-10-21T13:37:05Z</time><name>PT3938</name></trkpt>
<trkpt lat="53.250697" lon="-2.078916"><ele>366</ele><time>2020-10-21T13:37:05Z</time><name>PT3939</name></trkpt>
<trkpt lat="53.250684" lon="-2.078919"><ele>366</ele><time>2020-10-21T13:37:06Z</time><name>PT3940</name></trkpt>
<trkpt lat="53.250675" lon="-2.078920"><ele>365</ele><time>2020-10-21T13:37:08Z</time><name>PT3941</name></trkpt>
<trkpt lat="53.250664" lon="-2.078923"><ele>365</ele><time>2020-10-21T13:37:08Z</time><name>PT3942</name></trkpt>
<trkpt lat="53.250656" lon="-2.078926"><ele>365</ele><time>2020-10-21T13:37:09Z</time><name>PT3943</name></trkpt>
<trkpt lat="53.250648" lon="-2.078935"><ele>365</ele><time>2020-10-21T13:37:11Z</time><name>PT3944</name></trkpt>
<trkpt lat="53.250644" lon="-2.078943"><ele>366</ele><time>2020-10-21T13:37:11Z</time><name>PT3945</name></trkpt>
<trkpt lat="53.250640" lon="-2.078950"><ele>367</ele><time>2020-10-21T13:37:12Z</time><name>PT3946</name></trkpt>
<trkpt lat="53.250630" lon="-2.078953"><ele>367</ele><time>2020-10-21T13:37:15Z</time><name>PT3947</name></trkpt>
<trkpt lat="53.250619" lon="-2.078954"><ele>367</ele><time>2020-10-21T13:37:17Z</time><name>PT3948</name></trkpt>
<trkpt lat="53.250605" lon="-2.078962"><ele>367</ele><time>2020-10-21T13:37:17Z</time><name>PT3949</name></trkpt>
<trkpt lat="53.250594" lon="-2.078973"><ele>366</ele><time>2020-10-21T13:37:18Z</time><name>PT3950</name></trkpt>
<trkpt lat="53.250582" lon="-2.078979"><ele>367</ele><time>2020-10-21T13:37:20Z</time><name>PT3951</name></trkpt>
<trkpt lat="53.250568" lon="-2.078994"><ele>367</ele><time>2020-10-21T13:37:20Z</time><name>PT3952</name></trkpt>
<trkpt lat="53.250556" lon="-2.079004"><ele>367</ele><time>2020-10-21T13:37:21Z</time><name>PT3953</name></trkpt>
<trkpt lat="53.250541" lon="-2.079015"><ele>366</ele><time>2020-10-21T13:37:23Z</time><name>PT3954</name></trkpt>
<trkpt lat="53.250528" lon="-2.079022"><ele>366</ele><time>2020-10-21T13:37:23Z</time><name>PT3955</name></trkpt>
<trkpt lat="53.250513" lon="-2.079028"><ele>366</ele><time>2020-10-21T13:37:24Z</time><name>PT3956</name></trkpt>
<trkpt lat="53.250502" lon="-2.079035"><ele>366</ele><time>2020-10-21T13:37:26Z</time><name>PT3957</name></trkpt>
<trkpt lat="53.250490" lon="-2.079041"><ele>366</ele><time>2020-10-21T13:37:26Z</time><name>PT3958</name></trkpt>
<trkpt lat="53.250477" lon="-2.079047"><ele>367</ele><time>2020-10-21T13:37:27Z</time><name>PT3959</name></trkpt>
<trkpt lat="53.250464" lon="-2.079052"><ele>368</ele><time>2020-10-21T13:37:29Z</time><name>PT3960</name></trkpt>
<trkpt lat="53.250453" lon="-2.079056"><ele>369</ele><time>2020-10-21T13:37:29Z</time><name>PT3961</name></trkpt>
<trkpt lat="53.250442" lon="-2.079070"><ele>371</ele><time>2020-10-21T13:37:30Z</time><name>PT3962</name></trkpt>
<trkpt lat="53.250429" lon="-2.079076"><ele>371</ele><time>2020-10-21T13:37:32Z</time><name>PT3963</name></trkpt>
<trkpt lat="53.250416" lon="-2.079080"><ele>371</ele><time>2020-10-21T13:37:32Z</time><name>PT3964</name></trkpt>
<trkpt lat="53.250406" lon="-2.079080"><ele>371</ele><time>2020-10-21T13:37:33Z</time><name>PT3965</name></trkpt>
<trkpt lat="53.250393" lon="-2.079078"><ele>371</ele><time>2020-10-21T13:37:35Z</time><name>PT3966</name></trkpt>
<trkpt lat="53.250380" lon="-2.079076"><ele>371</ele><time>2020-10-21T13:37:35Z</time><name>PT3967</name></trkpt>
<trkpt lat="53.250369" lon="-2.079076"><ele>371</ele><time>2020-10-21T13:37:36Z</time><name>PT3968</name></trkpt>
<trkpt lat="53.250355" lon="-2.079075"><ele>371</ele><time>2020-10-21T13:37:38Z</time><name>PT3969</name></trkpt>
<trkpt lat="53.250340" lon="-2.079076"><ele>370</ele><time>2020-10-21T13:37:38Z</time><name>PT3970</name></trkpt>
<trkpt lat="53.250326" lon="-2.079072"><ele>370</ele><time>2020-10-21T13:37:39Z</time><name>PT3971</name></trkpt>
<trkpt lat="53.250313" lon="-2.079071"><ele>370</ele><time>2020-10-21T13:37:41Z</time><name>PT3972</name></trkpt>
<trkpt lat="53.250303" lon="-2.079066"><ele>370</ele><time>2020-10-21T13:37:41Z</time><name>PT3973</name></trkpt>
<trkpt lat="53.250291" lon="-2.079060"><ele>370</ele><time>2020-10-21T13:37:42Z</time><name>PT3974</name></trkpt>
<trkpt lat="53.250281" lon="-2.079056"><ele>369</ele><time>2020-10-21T13:37:44Z</time><name>PT3975</name></trkpt>
<trkpt lat="53.250269" lon="-2.079052"><ele>369</ele><time>2020-10-21T13:37:44Z</time><name>PT3976</name></trkpt>
<trkpt lat="53.250255" lon="-2.079047"><ele>371</ele><time>2020-10-21T13:37:45Z</time><name>PT3977</name></trkpt>
<trkpt lat="53.250244" lon="-2.079041"><ele>370</ele><time>2020-10-21T13:37:47Z</time><name>PT3978</name></trkpt>
<trkpt lat="53.250234" lon="-2.079037"><ele>370</ele><time>2020-10-21T13:37:47Z</time><name>PT3979</name></trkpt>
<trkpt lat="53.250224" lon="-2.079033"><ele>369</ele><time>2020-10-21T13:37:48Z</time><name>PT3980</name></trkpt>
<trkpt lat="53.250216" lon="-2.079027"><ele>369</ele><time>2020-10-21T13:37:50Z</time><name>PT3981</name></trkpt>
<trkpt lat="53.250207" lon="-2.079023"><ele>368</ele><time>2020-10-21T13:37:50Z</time><name>PT3982</name></trkpt>
<trkpt lat="53.250195" lon="-2.079015"><ele>368</ele><time>2020-10-21T13:37:51Z</time><name>PT3983</name></trkpt>
<trkpt lat="53.250185" lon="-2.079007"><ele>367</ele><time>2020-10-21T13:37:53Z</time><name>PT3984</name></trkpt>
<trkpt lat="53.250171" lon="-2.079005"><ele>367</ele><time>2020-10-21T13:37:53Z</time><name>PT3985</name></trkpt>
<trkpt lat="53.250162" lon="-2.078992"><ele>367</ele><time>2020-10-21T13:37:54Z</time><name>PT3986</name></trkpt>
<trkpt lat="53.250151" lon="-2.078982"><ele>366</ele><time>2020-10-21T13:37:56Z</time><name>PT3987</name></trkpt>
<trkpt lat="53.250142" lon="-2.078973"><ele>366</ele><time>2020-10-21T13:37:56Z</time><name>PT3988</name></trkpt>
<trkpt lat="53.250130" lon="-2.078962"><ele>367</ele><time>2020-10-21T13:37:57Z</time><name>PT3989</name></trkpt>
<trkpt lat="53.250121" lon="-2.078954"><ele>367</ele><time>2020-10-21T13:37:59Z</time><name>PT3990</name></trkpt>
<trkpt lat="53.250110" lon="-2.078946"><ele>367</ele><time>2020-10-21T13:37:59Z</time><name>PT3991</name></trkpt>
<trkpt lat="53.250100" lon="-2.078937"><ele>367</ele><time>2020-10-21T13:38:00Z</time><name>PT3992</name></trkpt>
<trkpt lat="53.250090" lon="-2.078933"><ele>367</ele><time>2020-10-21T13:38:02Z</time><name>PT3993</name></trkpt>
<trkpt lat="53.250078" lon="-2.078923"><ele>367</ele><time>2020-10-21T13:38:02Z</time><name>PT3994</name></trkpt>
<trkpt lat="53.250068" lon="-2.078917"><ele>366</ele><time>2020-10-21T13:38:03Z</time><name>PT3995</name></trkpt>
<trkpt lat="53.250059" lon="-2.078905"><ele>367</ele><time>2020-10-21T13:38:05Z</time><name>PT3996</name></trkpt>
<trkpt lat="53.250048" lon="-2.078899"><ele>367</ele><time>2020-10-21T13:38:05Z</time><name>PT3997</name></trkpt>
<trkpt lat="53.250036" lon="-2.078895"><ele>366</ele><time>2020-10-21T13:38:06Z</time><name>PT3998</name></trkpt>
<trkpt lat="53.250029" lon="-2.078890"><ele>366</ele><time>2020-10-21T13:38:08Z</time><name>PT3999</name></trkpt>
<trkpt lat="53.250019" lon="-2.078888"><ele>365</ele><time>2020-10-21T13:38:08Z</time><name>PT4000</name></trkpt>
<trkpt lat="53.250010" lon="-2.078883"><ele>365</ele><time>2020-10-21T13:38:09Z</time><name>PT4001</name></trkpt>
<trkpt lat="53.249999" lon="-2.078879"><ele>365</ele><time>2020-10-21T13:38:11Z</time><name>PT4002</name></trkpt>
<trkpt lat="53.249986" lon="-2.078874"><ele>365</ele><time>2020-10-21T13:38:11Z</time><name>PT4003</name></trkpt>
<trkpt lat="53.249974" lon="-2.078869"><ele>365</ele><time>2020-10-21T13:38:12Z</time><name>PT4004</name></trkpt>
<trkpt lat="53.249963" lon="-2.078863"><ele>365</ele><time>2020-10-21T13:38:14Z</time><name>PT4005</name></trkpt>
<trkpt lat="53.249951" lon="-2.078859"><ele>365</ele><time>2020-10-21T13:38:14Z</time><name>PT4006</name></trkpt>
<trkpt lat="53.249942" lon="-2.078853"><ele>364</ele><time>2020-10-21T13:38:15Z</time><name>PT4007</name></trkpt>
<trkpt lat="53.249931" lon="-2.078847"><ele>364</ele><time>2020-10-21T13:38:17Z</time><name>PT4008</name></trkpt>
<trkpt lat="53.249891" lon="-2.078839"><ele>364</ele><time>2020-10-21T13:38:20Z</time><name>PT4009</name></trkpt>
<trkpt lat="53.249848" lon="-2.078839"><ele>364</ele><time>2020-10-21T13:38:23Z</time><name>PT4010</name></trkpt>
<trkpt lat="53.249811" lon="-2.078835"><ele>365</ele><time>2020-10-21T13:38:26Z</time><name>PT4011</name></trkpt>
<trkpt lat="53.249781" lon="-2.078842"><ele>364</ele><time>2020-10-21T13:38:29Z</time><name>PT4012</name></trkpt>
<trkpt lat="53.249728" lon="-2.078844"><ele>365</ele><time>2020-10-21T13:38:33Z</time><name>PT4013</name></trkpt>
<trkpt lat="53.249679" lon="-2.078843"><ele>364</ele><time>2020-10-21T13:38:38Z</time><name>PT4014</name></trkpt>
<trkpt lat="53.249631" lon="-2.078858"><ele>364</ele><time>2020-10-21T13:38:41Z</time><name>PT4015</name></trkpt>
<trkpt lat="53.249595" lon="-2.078883"><ele>366</ele><time>2020-10-21T13:38:45Z</time><name>PT4016</name></trkpt>
<trkpt lat="53.249583" lon="-2.078884"><ele>366</ele><time>2020-10-21T13:38:50Z</time><name>PT4017</name></trkpt>
<trkpt lat="53.249575" lon="-2.078870"><ele>367</ele><time>2020-10-21T13:39:04Z</time><name>PT4018</name></trkpt>
<trkpt lat="53.249541" lon="-2.078843"><ele>365</ele><time>2020-10-21T13:39:08Z</time><name>PT4019</name></trkpt>
<trkpt lat="53.249502" lon="-2.078801"><ele>365</ele><time>2020-10-21T13:39:11Z</time><name>PT4020</name></trkpt>
<trkpt lat="53.249472" lon="-2.078777"><ele>364</ele><time>2020-10-21T13:39:14Z</time><name>PT4021</name></trkpt>
<trkpt lat="53.249441" lon="-2.078760"><ele>363</ele><time>2020-10-21T13:39:19Z</time><name>PT4022</name></trkpt>
<trkpt lat="53.249416" lon="-2.078747"><ele>362</ele><time>2020-10-21T13:39:22Z</time><name>PT4023</name></trkpt>
<trkpt lat="53.249389" lon="-2.078750"><ele>361</ele><time>2020-10-21T13:39:25Z</time><name>PT4024</name></trkpt>
<trkpt lat="53.249337" lon="-2.078748"><ele>361</ele><time>2020-10-21T13:39:28Z</time><name>PT4025</name></trkpt>
<trkpt lat="53.249299" lon="-2.078739"><ele>361</ele><time>2020-10-21T13:39:31Z</time><name>PT4026</name></trkpt>
<trkpt lat="53.249244" lon="-2.078743"><ele>364</ele><time>2020-10-21T13:39:34Z</time><name>PT4027</name></trkpt>
<trkpt lat="53.249202" lon="-2.078756"><ele>365</ele><time>2020-10-21T13:39:37Z</time><name>PT4028</name></trkpt>
<trkpt lat="53.249166" lon="-2.078746"><ele>366</ele><time>2020-10-21T13:39:40Z</time><name>PT4029</name></trkpt>
<trkpt lat="53.249126" lon="-2.078749"><ele>366</ele><time>2020-10-21T13:39:45Z</time><name>PT4030</name></trkpt>
<trkpt lat="53.249085" lon="-2.078746"><ele>365</ele><time>2020-10-21T13:39:48Z</time><name>PT4031</name></trkpt>
<trkpt lat="53.249046" lon="-2.078745"><ele>361</ele><time>2020-10-21T13:39:52Z</time><name>PT4032</name></trkpt>
<trkpt lat="53.249007" lon="-2.078756"><ele>359</ele><time>2020-10-21T13:39:55Z</time><name>PT4033</name></trkpt>
<trkpt lat="53.248945" lon="-2.078744"><ele>360</ele><time>2020-10-21T13:39:59Z</time><name>PT4034</name></trkpt>
<trkpt lat="53.248900" lon="-2.078756"><ele>363</ele><time>2020-10-21T13:40:00Z</time><name>PT4035</name></trkpt>
<trkpt lat="53.248882" lon="-2.078773"><ele>363</ele><time>2020-10-21T13:40:01Z</time><name>PT4036</name></trkpt>
<trkpt lat="53.248864" lon="-2.078787"><ele>365</ele><time>2020-10-21T13:40:03Z</time><name>PT4037</name></trkpt>
<trkpt lat="53.248850" lon="-2.078792"><ele>365</ele><time>2020-10-21T13:40:03Z</time><name>PT4038</name></trkpt>
<trkpt lat="53.248835" lon="-2.078796"><ele>365</ele><time>2020-10-21T13:40:04Z</time><name>PT4039</name></trkpt>
<trkpt lat="53.248820" lon="-2.078797"><ele>366</ele><time>2020-10-21T13:40:06Z</time><name>PT4040</name></trkpt>
<trkpt lat="53.248805" lon="-2.078802"><ele>366</ele><time>2020-10-21T13:40:06Z</time><name>PT4041</name></trkpt>
<trkpt lat="53.248788" lon="-2.078814"><ele>367</ele><time>2020-10-21T13:40:07Z</time><name>PT4042</name></trkpt>
<trkpt lat="53.248772" lon="-2.078817"><ele>367</ele><time>2020-10-21T13:40:09Z</time><name>PT4043</name></trkpt>
<trkpt lat="53.248758" lon="-2.078823"><ele>367</ele><time>2020-10-21T13:40:09Z</time><name>PT4044</name></trkpt>
<trkpt lat="53.248746" lon="-2.078831"><ele>367</ele><time>2020-10-21T13:40:11Z</time><name>PT4045</name></trkpt>
<trkpt lat="53.248733" lon="-2.078838"><ele>367</ele><time>2020-10-21T13:40:11Z</time><name>PT4046</name></trkpt>
<trkpt lat="53.248718" lon="-2.078846"><ele>368</ele><time>2020-10-21T13:40:13Z</time><name>PT4047</name></trkpt>
<trkpt lat="53.248706" lon="-2.078853"><ele>368</ele><time>2020-10-21T13:40:13Z</time><name>PT4048</name></trkpt>
<trkpt lat="53.248694" lon="-2.078856"><ele>368</ele><time>2020-10-21T13:40:14Z</time><name>PT4049</name></trkpt>
<trkpt lat="53.248683" lon="-2.078857"><ele>368</ele><time>2020-10-21T13:40:16Z</time><name>PT4050</name></trkpt>
<trkpt lat="53.248671" lon="-2.078859"><ele>368</ele><time>2020-10-21T13:40:16Z</time><name>PT4051</name></trkpt>
<trkpt lat="53.248659" lon="-2.078864"><ele>368</ele><time>2020-10-21T13:40:17Z</time><name>PT4052</name></trkpt>
<trkpt lat="53.248645" lon="-2.078873"><ele>368</ele><time>2020-10-21T13:40:19Z</time><name>PT4053</name></trkpt>
<trkpt lat="53.248633" lon="-2.078879"><ele>368</ele><time>2020-10-21T13:40:19Z</time><name>PT4054</name></trkpt>
<trkpt lat="53.248621" lon="-2.078880"><ele>368</ele><time>2020-10-21T13:40:21Z</time><name>PT4055</name></trkpt>
<trkpt lat="53.248616" lon="-2.078881"><ele>368</ele><time>2020-10-21T13:40:21Z</time><name>PT4056</name></trkpt>
<trkpt lat="53.248615" lon="-2.078882"><ele>368</ele><time>2020-10-21T13:40:22Z</time><name>PT4057</name></trkpt>
<trkpt lat="53.248612" lon="-2.078885"><ele>369</ele><time>2020-10-21T13:40:24Z</time><name>PT4058</name></trkpt>
<trkpt lat="53.248605" lon="-2.078895"><ele>368</ele><time>2020-10-21T13:40:24Z</time><name>PT4059</name></trkpt>
<trkpt lat="53.248598" lon="-2.078905"><ele>368</ele><time>2020-10-21T13:40:25Z</time><name>PT4060</name></trkpt>
<trkpt lat="53.248590" lon="-2.078912"><ele>368</ele><time>2020-10-21T13:40:27Z</time><name>PT4061</name></trkpt>
<trkpt lat="53.248582" lon="-2.078915"><ele>368</ele><time>2020-10-21T13:40:27Z</time><name>PT4062</name></trkpt>
<trkpt lat="53.248575" lon="-2.078920"><ele>368</ele><time>2020-10-21T13:40:28Z</time><name>PT4063</name></trkpt>
<trkpt lat="53.248567" lon="-2.078930"><ele>368</ele><time>2020-10-21T13:40:30Z</time><name>PT4064</name></trkpt>
<trkpt lat="53.248557" lon="-2.078937"><ele>368</ele><time>2020-10-21T13:40:30Z</time><name>PT4065</name></trkpt>
<trkpt lat="53.248548" lon="-2.078943"><ele>367</ele><time>2020-10-21T13:40:31Z</time><name>PT4066</name></trkpt>
<trkpt lat="53.248537" lon="-2.078944"><ele>367</ele><time>2020-10-21T13:40:33Z</time><name>PT4067</name></trkpt>
<trkpt lat="53.248526" lon="-2.078947"><ele>367</ele><time>2020-10-21T13:40:33Z</time><name>PT4068</name></trkpt>
<trkpt lat="53.248515" lon="-2.078949"><ele>367</ele><time>2020-10-21T13:40:34Z</time><name>PT4069</name></trkpt>
<trkpt lat="53.248505" lon="-2.078951"><ele>367</ele><time>2020-10-21T13:40:36Z</time><name>PT4070</name></trkpt>
<trkpt lat="53.248492" lon="-2.078950"><ele>366</ele><time>2020-10-21T13:40:36Z</time><name>PT4071</name></trkpt>
<trkpt lat="53.248481" lon="-2.078946"><ele>366</ele><time>2020-10-21T13:40:37Z</time><name>PT4072</name></trkpt>
<trkpt lat="53.248472" lon="-2.078942"><ele>366</ele><time>2020-10-21T13:40:39Z</time><name>PT4073</name></trkpt>
<trkpt lat="53.248463" lon="-2.078943"><ele>365</ele><time>2020-10-21T13:40:39Z</time><name>PT4074</name></trkpt>
<trkpt lat="53.248455" lon="-2.078948"><ele>365</ele><time>2020-10-21T13:40:40Z</time><name>PT4075</name></trkpt>
<trkpt lat="53.248444" lon="-2.078950"><ele>365</ele><time>2020-10-21T13:40:42Z</time><name>PT4076</name></trkpt>
<trkpt lat="53.248433" lon="-2.078950"><ele>365</ele><time>2020-10-21T13:40:42Z</time><name>PT4077</name></trkpt>
<trkpt lat="53.248421" lon="-2.078948"><ele>364</ele><time>2020-10-21T13:40:43Z</time><name>PT4078</name></trkpt>
<trkpt lat="53.248412" lon="-2.078948"><ele>363</ele><time>2020-10-21T13:40:45Z</time><name>PT4079</name></trkpt>
<trkpt lat="53.248402" lon="-2.078946"><ele>363</ele><time>2020-10-21T13:40:45Z</time><name>PT4080</name></trkpt>
<trkpt lat="53.248389" lon="-2.078945"><ele>362</ele><time>2020-10-21T13:40:46Z</time><name>PT4081</name></trkpt>
<trkpt lat="53.248375" lon="-2.078947"><ele>363</ele><time>2020-10-21T13:40:48Z</time><name>PT4082</name></trkpt>
<trkpt lat="53.248364" lon="-2.078950"><ele>363</ele><time>2020-10-21T13:40:48Z</time><name>PT4083</name></trkpt>
<trkpt lat="53.248352" lon="-2.078954"><ele>363</ele><time>2020-10-21T13:40:49Z</time><name>PT4084</name></trkpt>
<trkpt lat="53.248339" lon="-2.078960"><ele>363</ele><time>2020-10-21T13:40:51Z</time><name>PT4085</name></trkpt>
<trkpt lat="53.248328" lon="-2.078965"><ele>363</ele><time>2020-10-21T13:40:51Z</time><name>PT4086</name></trkpt>
<trkpt lat="53.248316" lon="-2.078966"><ele>363</ele><time>2020-10-21T13:40:52Z</time><name>PT4087</name></trkpt>
<trkpt lat="53.248306" lon="-2.078967"><ele>363</ele><time>2020-10-21T13:40:54Z</time><name>PT4088</name></trkpt>
<trkpt lat="53.248298" lon="-2.078969"><ele>363</ele><time>2020-10-21T13:40:54Z</time><name>PT4089</name></trkpt>
<trkpt lat="53.248286" lon="-2.078972"><ele>364</ele><time>2020-10-21T13:40:55Z</time><name>PT4090</name></trkpt>
<trkpt lat="53.248276" lon="-2.078973"><ele>363</ele><time>2020-10-21T13:40:57Z</time><name>PT4091</name></trkpt>
<trkpt lat="53.248266" lon="-2.078976"><ele>363</ele><time>2020-10-21T13:40:57Z</time><name>PT4092</name></trkpt>
<trkpt lat="53.248255" lon="-2.078980"><ele>363</ele><time>2020-10-21T13:40:58Z</time><name>PT4093</name></trkpt>
<trkpt lat="53.248239" lon="-2.078983"><ele>363</ele><time>2020-10-21T13:41:00Z</time><name>PT4094</name></trkpt>
<trkpt lat="53.248225" lon="-2.078988"><ele>363</ele><time>2020-10-21T13:41:00Z</time><name>PT4095</name></trkpt>
<trkpt lat="53.248214" lon="-2.078990"><ele>363</ele><time>2020-10-21T13:41:01Z</time><name>PT4096</name></trkpt>
<trkpt lat="53.248201" lon="-2.078993"><ele>363</ele><time>2020-10-21T13:41:03Z</time><name>PT4097</name></trkpt>
<trkpt lat="53.248187" lon="-2.078998"><ele>363</ele><time>2020-10-21T13:41:03Z</time><name>PT4098</name></trkpt>
<trkpt lat="53.248177" lon="-2.079000"><ele>363</ele><time>2020-10-21T13:41:04Z</time><name>PT4099</name></trkpt>
<trkpt lat="53.248166" lon="-2.079004"><ele>363</ele><time>2020-10-21T13:41:06Z</time><name>PT4100</name></trkpt>
<trkpt lat="53.248153" lon="-2.079014"><ele>363</ele><time>2020-10-21T13:41:06Z</time><name>PT4101</name></trkpt>
<trkpt lat="53.248142" lon="-2.079020"><ele>363</ele><time>2020-10-21T13:41:07Z</time><name>PT4102</name></trkpt>
<trkpt lat="53.248129" lon="-2.079025"><ele>363</ele><time>2020-10-21T13:41:09Z</time><name>PT4103</name></trkpt>
<trkpt lat="53.248115" lon="-2.079024"><ele>363</ele><time>2020-10-21T13:41:09Z</time><name>PT4104</name></trkpt>
<trkpt lat="53.248101" lon="-2.079031"><ele>363</ele><time>2020-10-21T13:41:10Z</time><name>PT4105</name></trkpt>
<trkpt lat="53.248090" lon="-2.079041"><ele>363</ele><time>2020-10-21T13:41:12Z</time><name>PT4106</name></trkpt>
<trkpt lat="53.248080" lon="-2.079051"><ele>363</ele><time>2020-10-21T13:41:12Z</time><name>PT4107</name></trkpt>
<trkpt lat="53.248072" lon="-2.079062"><ele>362</ele><time>2020-10-21T13:41:13Z</time><name>PT4108</name></trkpt>
<trkpt lat="53.248062" lon="-2.079074"><ele>362</ele><time>2020-10-21T13:41:15Z</time><name>PT4109</name></trkpt>
<trkpt lat="53.248056" lon="-2.079087"><ele>362</ele><time>2020-10-21T13:41:15Z</time><name>PT4110</name></trkpt>
<trkpt lat="53.248049" lon="-2.079105"><ele>362</ele><time>2020-10-21T13:41:16Z</time><name>PT4111</name></trkpt>
<trkpt lat="53.248042" lon="-2.079120"><ele>362</ele><time>2020-10-21T13:41:18Z</time><name>PT4112</name></trkpt>
<trkpt lat="53.248036" lon="-2.079133"><ele>362</ele><time>2020-10-21T13:41:18Z</time><name>PT4113</name></trkpt>
<trkpt lat="53.248028" lon="-2.079145"><ele>361</ele><time>2020-10-21T13:41:19Z</time><name>PT4114</name></trkpt>
<trkpt lat="53.248019" lon="-2.079162"><ele>361</ele><time>2020-10-21T13:41:21Z</time><name>PT4115</name></trkpt>
<trkpt lat="53.248013" lon="-2.079180"><ele>361</ele><time>2020-10-21T13:41:21Z</time><name>PT4116</name></trkpt>
<trkpt lat="53.248007" lon="-2.079195"><ele>361</ele><time>2020-10-21T13:41:22Z</time><name>PT4117</name></trkpt>
<trkpt lat="53.248000" lon="-2.079208"><ele>361</ele><time>2020-10-21T13:41:24Z</time><name>PT4118</name></trkpt>
<trkpt lat="53.247991" lon="-2.079224"><ele>361</ele><time>2020-10-21T13:41:24Z</time><name>PT4119</name></trkpt>
<trkpt lat="53.247982" lon="-2.079241"><ele>361</ele><time>2020-10-21T13:41:25Z</time><name>PT4120</name></trkpt>
<trkpt lat="53.247975" lon="-2.079252"><ele>361</ele><time>2020-10-21T13:41:27Z</time><name>PT4121</name></trkpt>
<trkpt lat="53.247966" lon="-2.079264"><ele>361</ele><time>2020-10-21T13:41:27Z</time><name>PT4122</name></trkpt>
<trkpt lat="53.247956" lon="-2.079276"><ele>360</ele><time>2020-10-21T13:41:28Z</time><name>PT4123</name></trkpt>
<trkpt lat="53.247946" lon="-2.079289"><ele>360</ele><time>2020-10-21T13:41:30Z</time><name>PT4124</name></trkpt>
<trkpt lat="53.247938" lon="-2.079302"><ele>361</ele><time>2020-10-21T13:41:30Z</time><name>PT4125</name></trkpt>
<trkpt lat="53.247930" lon="-2.079318"><ele>360</ele><time>2020-10-21T13:41:31Z</time><name>PT4126</name></trkpt>
<trkpt lat="53.247921" lon="-2.079333"><ele>360</ele><time>2020-10-21T13:41:33Z</time><name>PT4127</name></trkpt>
<trkpt lat="53.247914" lon="-2.079348"><ele>360</ele><time>2020-10-21T13:41:33Z</time><name>PT4128</name></trkpt>
<trkpt lat="53.247904" lon="-2.079360"><ele>360</ele><time>2020-10-21T13:41:34Z</time><name>PT4129</name></trkpt>
<trkpt lat="53.247894" lon="-2.079379"><ele>360</ele><time>2020-10-21T13:41:36Z</time><name>PT4130</name></trkpt>
<trkpt lat="53.247885" lon="-2.079397"><ele>359</ele><time>2020-10-21T13:41:36Z</time><name>PT4131</name></trkpt>
<trkpt lat="53.247876" lon="-2.079410"><ele>359</ele><time>2020-10-21T13:41:37Z</time><name>PT4132</name></trkpt>
<trkpt lat="53.247865" lon="-2.079423"><ele>359</ele><time>2020-10-21T13:41:39Z</time><name>PT4133</name></trkpt>
<trkpt lat="53.247853" lon="-2.079436"><ele>359</ele><time>2020-10-21T13:41:39Z</time><name>PT4134</name></trkpt>
<trkpt lat="53.247842" lon="-2.079446"><ele>359</ele><time>2020-10-21T13:41:40Z</time><name>PT4135</name></trkpt>
<trkpt lat="53.247830" lon="-2.079456"><ele>359</ele><time>2020-10-21T13:41:42Z</time><name>PT4136</name></trkpt>
<trkpt lat="53.247819" lon="-2.079468"><ele>359</ele><time>2020-10-21T13:41:42Z</time><name>PT4137</name></trkpt>
<trkpt lat="53.247807" lon="-2.079476"><ele>360</ele><time>2020-10-21T13:41:43Z</time><name>PT4138</name></trkpt>
<trkpt lat="53.247796" lon="-2.079491"><ele>360</ele><time>2020-10-21T13:41:45Z</time><name>PT4139</name></trkpt>
<trkpt lat="53.247783" lon="-2.079502"><ele>360</ele><time>2020-10-21T13:41:45Z</time><name>PT4140</name></trkpt>
<trkpt lat="53.247771" lon="-2.079511"><ele>359</ele><time>2020-10-21T13:41:46Z</time><name>PT4141</name></trkpt>
<trkpt lat="53.247760" lon="-2.079517"><ele>359</ele><time>2020-10-21T13:41:48Z</time><name>PT4142</name></trkpt>
<trkpt lat="53.247747" lon="-2.079520"><ele>359</ele><time>2020-10-21T13:41:48Z</time><name>PT4143</name></trkpt>
<trkpt lat="53.247735" lon="-2.079517"><ele>359</ele><time>2020-10-21T13:41:49Z</time><name>PT4144</name></trkpt>
<trkpt lat="53.247727" lon="-2.079524"><ele>359</ele><time>2020-10-21T13:41:51Z</time><name>PT4145</name></trkpt>
<trkpt lat="53.247715" lon="-2.079532"><ele>359</ele><time>2020-10-21T13:41:51Z</time><name>PT4146</name></trkpt>
<trkpt lat="53.247704" lon="-2.079533"><ele>358</ele><time>2020-10-21T13:41:52Z</time><name>PT4147</name></trkpt>
<trkpt lat="53.247694" lon="-2.079539"><ele>357</ele><time>2020-10-21T13:41:54Z</time><name>PT4148</name></trkpt>
<trkpt lat="53.247682" lon="-2.079545"><ele>357</ele><time>2020-10-21T13:41:54Z</time><name>PT4149</name></trkpt>
<trkpt lat="53.247671" lon="-2.079552"><ele>357</ele><time>2020-10-21T13:41:55Z</time><name>PT4150</name></trkpt>
<trkpt lat="53.247661" lon="-2.079563"><ele>358</ele><time>2020-10-21T13:41:57Z</time><name>PT4151</name></trkpt>
<trkpt lat="53.247656" lon="-2.079577"><ele>357</ele><time>2020-10-21T13:41:57Z</time><name>PT4152</name></trkpt>
<trkpt lat="53.247646" lon="-2.079590"><ele>357</ele><time>2020-10-21T13:41:58Z</time><name>PT4153</name></trkpt>
<trkpt lat="53.247634" lon="-2.079601"><ele>357</ele><time>2020-10-21T13:42:00Z</time><name>PT4154</name></trkpt>
<trkpt lat="53.247624" lon="-2.079614"><ele>357</ele><time>2020-10-21T13:42:00Z</time><name>PT4155</name></trkpt>
<trkpt lat="53.247614" lon="-2.079632"><ele>357</ele><time>2020-10-21T13:42:01Z</time><name>PT4156</name></trkpt>
<trkpt lat="53.247603" lon="-2.079647"><ele>357</ele><time>2020-10-21T13:42:03Z</time><name>PT4157</name></trkpt>
<trkpt lat="53.247596" lon="-2.079665"><ele>357</ele><time>2020-10-21T13:42:03Z</time><name>PT4158</name></trkpt>
<trkpt lat="53.247587" lon="-2.079685"><ele>357</ele><time>2020-10-21T13:42:04Z</time><name>PT4159</name></trkpt>
<trkpt lat="53.247580" lon="-2.079707"><ele>358</ele><time>2020-10-21T13:42:06Z</time><name>PT4160</name></trkpt>
<trkpt lat="53.247574" lon="-2.079728"><ele>358</ele><time>2020-10-21T13:42:06Z</time><name>PT4161</name></trkpt>
<trkpt lat="53.247567" lon="-2.079745"><ele>358</ele><time>2020-10-21T13:42:07Z</time><name>PT4162</name></trkpt>
<trkpt lat="53.247560" lon="-2.079767"><ele>358</ele><time>2020-10-21T13:42:09Z</time><name>PT4163</name></trkpt>
<trkpt lat="53.247553" lon="-2.079790"><ele>359</ele><time>2020-10-21T13:42:09Z</time><name>PT4164</name></trkpt>
<trkpt lat="53.247548" lon="-2.079811"><ele>359</ele><time>2020-10-21T13:42:10Z</time><name>PT4165</name></trkpt>
<trkpt lat="53.247544" lon="-2.079835"><ele>359</ele><time>2020-10-21T13:42:12Z</time><name>PT4166</name></trkpt>
<trkpt lat="53.247539" lon="-2.079856"><ele>359</ele><time>2020-10-21T13:42:12Z</time><name>PT4167</name></trkpt>
<trkpt lat="53.247536" lon="-2.079879"><ele>359</ele><time>2020-10-21T13:42:13Z</time><name>PT4168</name></trkpt>
<trkpt lat="53.247529" lon="-2.079900"><ele>360</ele><time>2020-10-21T13:42:15Z</time><name>PT4169</name></trkpt>
<trkpt lat="53.247526" lon="-2.079917"><ele>360</ele><time>2020-10-21T13:42:15Z</time><name>PT4170</name></trkpt>
<trkpt lat="53.247525" lon="-2.079937"><ele>360</ele><time>2020-10-21T13:42:16Z</time><name>PT4171</name></trkpt>
<trkpt lat="53.247525" lon="-2.079962"><ele>360</ele><time>2020-10-21T13:42:18Z</time><name>PT4172</name></trkpt>
<trkpt lat="53.247525" lon="-2.079983"><ele>361</ele><time>2020-10-21T13:42:18Z</time><name>PT4173</name></trkpt>
<trkpt lat="53.247524" lon="-2.080005"><ele>361</ele><time>2020-10-21T13:42:19Z</time><name>PT4174</name></trkpt>
<trkpt lat="53.247524" lon="-2.080030"><ele>361</ele><time>2020-10-21T13:42:21Z</time><name>PT4175</name></trkpt>
<trkpt lat="53.247525" lon="-2.080047"><ele>360</ele><time>2020-10-21T13:42:21Z</time><name>PT4176</name></trkpt>
<trkpt lat="53.247526" lon="-2.080064"><ele>360</ele><time>2020-10-21T13:42:22Z</time><name>PT4177</name></trkpt>
<trkpt lat="53.247527" lon="-2.080080"><ele>360</ele><time>2020-10-21T13:42:24Z</time><name>PT4178</name></trkpt>
<trkpt lat="53.247527" lon="-2.080091"><ele>360</ele><time>2020-10-21T13:42:24Z</time><name>PT4179</name></trkpt>
<trkpt lat="53.247527" lon="-2.080096"><ele>360</ele><time>2020-10-21T13:42:25Z</time><name>PT4180</name></trkpt>
<trkpt lat="53.247527" lon="-2.080098"><ele>360</ele><time>2020-10-21T13:42:27Z</time><name>PT4181</name></trkpt>
<trkpt lat="53.247528" lon="-2.080098"><ele>360</ele><time>2020-10-21T13:42:27Z</time><name>PT4182</name></trkpt>
<trkpt lat="53.247528" lon="-2.080100"><ele>360</ele><time>2020-10-21T13:42:28Z</time><name>PT4183</name></trkpt>
<trkpt lat="53.247527" lon="-2.080106"><ele>360</ele><time>2020-10-21T13:42:36Z</time><name>PT4184</name></trkpt>
<trkpt lat="53.247528" lon="-2.080114"><ele>360</ele><time>2020-10-21T13:42:37Z</time><name>PT4185</name></trkpt>
<trkpt lat="53.247525" lon="-2.080123"><ele>359</ele><time>2020-10-21T13:42:39Z</time><name>PT4186</name></trkpt>
<trkpt lat="53.247526" lon="-2.080136"><ele>359</ele><time>2020-10-21T13:42:39Z</time><name>PT4187</name></trkpt>
<trkpt lat="53.247526" lon="-2.080147"><ele>359</ele><time>2020-10-21T13:42:40Z</time><name>PT4188</name></trkpt>
<trkpt lat="53.247530" lon="-2.080156"><ele>359</ele><time>2020-10-21T13:42:42Z</time><name>PT4189</name></trkpt>
<trkpt lat="53.247532" lon="-2.080165"><ele>359</ele><time>2020-10-21T13:42:42Z</time><name>PT4190</name></trkpt>
<trkpt lat="53.247534" lon="-2.080166"><ele>359</ele><time>2020-10-21T13:42:43Z</time><name>PT4191</name></trkpt>
<trkpt lat="53.247530" lon="-2.080166"><ele>359</ele><time>2020-10-21T13:42:45Z</time><name>PT4192</name></trkpt>
<trkpt lat="53.247532" lon="-2.080172"><ele>358</ele><time>2020-10-21T13:42:45Z</time><name>PT4193</name></trkpt>
<trkpt lat="53.247531" lon="-2.080170"><ele>358</ele><time>2020-10-21T13:42:46Z</time><name>PT4194</name></trkpt>
<trkpt lat="53.247526" lon="-2.080182"><ele>358</ele><time>2020-10-21T13:42:48Z</time><name>PT4195</name></trkpt>
<trkpt lat="53.247524" lon="-2.080186"><ele>358</ele><time>2020-10-21T13:42:49Z</time><name>PT4196</name></trkpt>
<trkpt lat="53.247515" lon="-2.080186"><ele>358</ele><time>2020-10-21T13:42:51Z</time><name>PT4197</name></trkpt>
<trkpt lat="53.247508" lon="-2.080178"><ele>357</ele><time>2020-10-21T13:42:51Z</time><name>PT4198</name></trkpt>
<trkpt lat="53.247502" lon="-2.080178"><ele>357</ele><time>2020-10-21T13:42:52Z</time><name>PT4199</name></trkpt>
<trkpt lat="53.247502" lon="-2.080182"><ele>357</ele><time>2020-10-21T13:42:54Z</time><name>PT4200</name></trkpt>
<trkpt lat="53.247501" lon="-2.080184"><ele>357</ele><time>2020-10-21T13:42:54Z</time><name>PT4201</name></trkpt>
<trkpt lat="53.247499" lon="-2.080184"><ele>357</ele><time>2020-10-21T13:42:55Z</time><name>PT4202</name></trkpt>
<trkpt lat="53.247488" lon="-2.080187"><ele>358</ele><time>2020-10-21T13:43:27Z</time><name>PT4203</name></trkpt>
<trkpt lat="53.247479" lon="-2.080189"><ele>358</ele><time>2020-10-21T13:43:30Z</time><name>PT4204</name></trkpt>
<trkpt lat="53.247483" lon="-2.080216"><ele>358</ele><time>2020-10-21T13:43:45Z</time><name>PT4205</name></trkpt>
<trkpt lat="53.247486" lon="-2.080244"><ele>358</ele><time>2020-10-21T13:43:48Z</time><name>PT4206</name></trkpt>
<trkpt lat="53.247495" lon="-2.080261"><ele>358</ele><time>2020-10-21T13:43:52Z</time><name>PT4207</name></trkpt>
<trkpt lat="53.247497" lon="-2.080299"><ele>358</ele><time>2020-10-21T13:43:55Z</time><name>PT4208</name></trkpt>
<trkpt lat="53.247500" lon="-2.080301"><ele>358</ele><time>2020-10-21T13:44:00Z</time><name>PT4209</name></trkpt>
<trkpt lat="53.247517" lon="-2.080331"><ele>357</ele><time>2020-10-21T13:44:06Z</time><name>PT4210</name></trkpt>
<trkpt lat="53.247525" lon="-2.080355"><ele>357</ele><time>2020-10-21T13:44:09Z</time><name>PT4211</name></trkpt>
<trkpt lat="53.247535" lon="-2.080363"><ele>357</ele><time>2020-10-21T13:44:13Z</time><name>PT4212</name></trkpt>
<trkpt lat="53.247542" lon="-2.080383"><ele>357</ele><time>2020-10-21T13:44:16Z</time><name>PT4213</name></trkpt>
<trkpt lat="53.247552" lon="-2.080417"><ele>356</ele><time>2020-10-21T13:44:19Z</time><name>PT4214</name></trkpt>
<trkpt lat="53.247563" lon="-2.080453"><ele>355</ele><time>2020-10-21T13:44:24Z</time><name>PT4215</name></trkpt>
<trkpt lat="53.247568" lon="-2.080472"><ele>354</ele><time>2020-10-21T13:44:27Z</time><name>PT4216</name></trkpt>
<trkpt lat="53.247565" lon="-2.080501"><ele>353</ele><time>2020-10-21T13:44:30Z</time><name>PT4217</name></trkpt>
<trkpt lat="53.247565" lon="-2.080526"><ele>353</ele><time>2020-10-21T13:44:33Z</time><name>PT4218</name></trkpt>
<trkpt lat="53.247567" lon="-2.080574"><ele>352</ele><time>2020-10-21T13:44:37Z</time><name>PT4219</name></trkpt>
<trkpt lat="53.247568" lon="-2.080581"><ele>352</ele><time>2020-10-21T13:44:42Z</time><name>PT4220</name></trkpt>
<trkpt lat="53.247565" lon="-2.080614"><ele>352</ele><time>2020-10-21T13:44:45Z</time><name>PT4221</name></trkpt>
<trkpt lat="53.247567" lon="-2.080648"><ele>351</ele><time>2020-10-21T13:44:48Z</time><name>PT4222</name></trkpt>
<trkpt lat="53.247565" lon="-2.080692"><ele>351</ele><time>2020-10-21T13:44:52Z</time><name>PT4223</name></trkpt>
<trkpt lat="53.247564" lon="-2.080700"><ele>351</ele><time>2020-10-21T13:44:57Z</time><name>PT4224</name></trkpt>
<trkpt lat="53.247570" lon="-2.080736"><ele>350</ele><time>2020-10-21T13:45:00Z</time><name>PT4225</name></trkpt>
<trkpt lat="53.247560" lon="-2.080775"><ele>350</ele><time>2020-10-21T13:45:04Z</time><name>PT4226</name></trkpt>
<trkpt lat="53.247552" lon="-2.080822"><ele>348</ele><time>2020-10-21T13:45:09Z</time><name>PT4227</name></trkpt>
<trkpt lat="53.247555" lon="-2.080849"><ele>348</ele><time>2020-10-21T13:45:12Z</time><name>PT4228</name></trkpt>
<trkpt lat="53.247560" lon="-2.080881"><ele>347</ele><time>2020-10-21T13:45:15Z</time><name>PT4229</name></trkpt>
<trkpt lat="53.247566" lon="-2.080911"><ele>346</ele><time>2020-10-21T13:45:19Z</time><name>PT4230</name></trkpt>
<trkpt lat="53.247570" lon="-2.080956"><ele>345</ele><time>2020-10-21T13:45:22Z</time><name>PT4231</name></trkpt>
<trkpt lat="53.247584" lon="-2.080989"><ele>345</ele><time>2020-10-21T13:45:25Z</time><name>PT4232</name></trkpt>
<trkpt lat="53.247592" lon="-2.081018"><ele>344</ele><time>2020-10-21T13:45:28Z</time><name>PT4233</name></trkpt>
<trkpt lat="53.247601" lon="-2.081057"><ele>343</ele><time>2020-10-21T13:45:31Z</time><name>PT4234</name></trkpt>
<trkpt lat="53.247611" lon="-2.081119"><ele>343</ele><time>2020-10-21T13:45:36Z</time><name>PT4235</name></trkpt>
<trkpt lat="53.247627" lon="-2.081186"><ele>342</ele><time>2020-10-21T13:45:39Z</time><name>PT4236</name></trkpt>
<trkpt lat="53.247640" lon="-2.081237"><ele>342</ele><time>2020-10-21T13:45:43Z</time><name>PT4237</name></trkpt>
<trkpt lat="53.247635" lon="-2.081276"><ele>341</ele><time>2020-10-21T13:45:46Z</time><name>PT4238</name></trkpt>
<trkpt lat="53.247619" lon="-2.081301"><ele>339</ele><time>2020-10-21T13:45:51Z</time><name>PT4239</name></trkpt>
<trkpt lat="53.247606" lon="-2.081313"><ele>339</ele><time>2020-10-21T13:45:54Z</time><name>PT4240</name></trkpt>
<trkpt lat="53.247593" lon="-2.081326"><ele>339</ele><time>2020-10-21T13:45:57Z</time><name>PT4241</name></trkpt>
<trkpt lat="53.247573" lon="-2.081348"><ele>338</ele><time>2020-10-21T13:46:00Z</time><name>PT4242</name></trkpt>
<trkpt lat="53.247571" lon="-2.081372"><ele>338</ele><time>2020-10-21T13:46:03Z</time><name>PT4243</name></trkpt>
<trkpt lat="53.247563" lon="-2.081393"><ele>337</ele><time>2020-10-21T13:46:06Z</time><name>PT4244</name></trkpt>
<trkpt lat="53.247561" lon="-2.081395"><ele>337</ele><time>2020-10-21T13:46:10Z</time><name>PT4245</name></trkpt>
<trkpt lat="53.247553" lon="-2.081404"><ele>337</ele><time>2020-10-21T13:46:13Z</time><name>PT4246</name></trkpt>
<trkpt lat="53.247550" lon="-2.081426"><ele>336</ele><time>2020-10-21T13:46:16Z</time><name>PT4247</name></trkpt>
<trkpt lat="53.247538" lon="-2.081449"><ele>335</ele><time>2020-10-21T13:46:24Z</time><name>PT4248</name></trkpt>
<trkpt lat="53.247537" lon="-2.081454"><ele>335</ele><time>2020-10-21T13:46:27Z</time><name>PT4249</name></trkpt>
<trkpt lat="53.247534" lon="-2.081464"><ele>335</ele><time>2020-10-21T13:46:33Z</time><name>PT4250</name></trkpt>
<trkpt lat="53.247523" lon="-2.081497"><ele>334</ele><time>2020-10-21T13:46:36Z</time><name>PT4251</name></trkpt>
<trkpt lat="53.247509" lon="-2.081515"><ele>334</ele><time>2020-10-21T13:46:39Z</time><name>PT4252</name></trkpt>
<trkpt lat="53.247495" lon="-2.081540"><ele>333</ele><time>2020-10-21T13:46:42Z</time><name>PT4253</name></trkpt>
<trkpt lat="53.247482" lon="-2.081576"><ele>331</ele><time>2020-10-21T13:46:46Z</time><name>PT4254</name></trkpt>
<trkpt lat="53.247472" lon="-2.081610"><ele>330</ele><time>2020-10-21T13:46:51Z</time><name>PT4255</name></trkpt>
<trkpt lat="53.247465" lon="-2.081631"><ele>329</ele><time>2020-10-21T13:46:54Z</time><name>PT4256</name></trkpt>
<trkpt lat="53.247461" lon="-2.081631"><ele>329</ele><time>2020-10-21T13:46:57Z</time><name>PT4257</name></trkpt>
<trkpt lat="53.247450" lon="-2.081650"><ele>328</ele><time>2020-10-21T13:47:00Z</time><name>PT4258</name></trkpt>
<trkpt lat="53.247438" lon="-2.081689"><ele>327</ele><time>2020-10-21T13:47:03Z</time><name>PT4259</name></trkpt>
<trkpt lat="53.247423" lon="-2.081720"><ele>327</ele><time>2020-10-21T13:47:07Z</time><name>PT4260</name></trkpt>
<trkpt lat="53.247410" lon="-2.081737"><ele>326</ele><time>2020-10-21T13:47:10Z</time><name>PT4261</name></trkpt>
<trkpt lat="53.247397" lon="-2.081759"><ele>325</ele><time>2020-10-21T13:47:14Z</time><name>PT4262</name></trkpt>
<trkpt lat="53.247382" lon="-2.081787"><ele>324</ele><time>2020-10-21T13:47:17Z</time><name>PT4263</name></trkpt>
<trkpt lat="53.247374" lon="-2.081814"><ele>323</ele><time>2020-10-21T13:47:20Z</time><name>PT4264</name></trkpt>
<trkpt lat="53.247358" lon="-2.081852"><ele>322</ele><time>2020-10-21T13:47:23Z</time><name>PT4265</name></trkpt>
<trkpt lat="53.247345" lon="-2.081875"><ele>321</ele><time>2020-10-21T13:47:26Z</time><name>PT4266</name></trkpt>
<trkpt lat="53.247325" lon="-2.081892"><ele>320</ele><time>2020-10-21T13:47:30Z</time><name>PT4267</name></trkpt>
<trkpt lat="53.247308" lon="-2.081914"><ele>319</ele><time>2020-10-21T13:47:35Z</time><name>PT4268</name></trkpt>
<trkpt lat="53.247289" lon="-2.081949"><ele>318</ele><time>2020-10-21T13:47:38Z</time><name>PT4269</name></trkpt>
<trkpt lat="53.247266" lon="-2.081978"><ele>317</ele><time>2020-10-21T13:47:41Z</time><name>PT4270</name></trkpt>
<trkpt lat="53.247256" lon="-2.081996"><ele>317</ele><time>2020-10-21T13:47:44Z</time><name>PT4271</name></trkpt>
<trkpt lat="53.247239" lon="-2.082000"><ele>317</ele><time>2020-10-21T13:47:47Z</time><name>PT4272</name></trkpt>
<trkpt lat="53.247214" lon="-2.081996"><ele>316</ele><time>2020-10-21T13:47:51Z</time><name>PT4273</name></trkpt>
<trkpt lat="53.247192" lon="-2.081983"><ele>315</ele><time>2020-10-21T13:47:56Z</time><name>PT4274</name></trkpt>
<trkpt lat="53.247174" lon="-2.081976"><ele>315</ele><time>2020-10-21T13:47:59Z</time><name>PT4275</name></trkpt>
<trkpt lat="53.247162" lon="-2.081964"><ele>315</ele><time>2020-10-21T13:48:02Z</time><name>PT4276</name></trkpt>
<trkpt lat="53.247144" lon="-2.081956"><ele>314</ele><time>2020-10-21T13:48:05Z</time><name>PT4277</name></trkpt>
<trkpt lat="53.247119" lon="-2.081947"><ele>314</ele><time>2020-10-21T13:48:08Z</time><name>PT4278</name></trkpt>
<trkpt lat="53.247099" lon="-2.081934"><ele>313</ele><time>2020-10-21T13:48:11Z</time><name>PT4279</name></trkpt>
<trkpt lat="53.247069" lon="-2.081903"><ele>313</ele><time>2020-10-21T13:48:15Z</time><name>PT4280</name></trkpt>
<trkpt lat="53.247050" lon="-2.081878"><ele>313</ele><time>2020-10-21T13:48:18Z</time><name>PT4281</name></trkpt>
<trkpt lat="53.247029" lon="-2.081857"><ele>313</ele><time>2020-10-21T13:48:23Z</time><name>PT4282</name></trkpt>
<trkpt lat="53.247009" lon="-2.081845"><ele>312</ele><time>2020-10-21T13:48:26Z</time><name>PT4283</name></trkpt>
<trkpt lat="53.246980" lon="-2.081813"><ele>311</ele><time>2020-10-21T13:48:29Z</time><name>PT4284</name></trkpt>
<trkpt lat="53.246962" lon="-2.081777"><ele>311</ele><time>2020-10-21T13:48:32Z</time><name>PT4285</name></trkpt>
<trkpt lat="53.246938" lon="-2.081731"><ele>310</ele><time>2020-10-21T13:48:36Z</time><name>PT4286</name></trkpt>
<trkpt lat="53.246920" lon="-2.081693"><ele>310</ele><time>2020-10-21T13:48:39Z</time><name>PT4287</name></trkpt>
<trkpt lat="53.246899" lon="-2.081657"><ele>309</ele><time>2020-10-21T13:48:44Z</time><name>PT4288</name></trkpt>
<trkpt lat="53.246880" lon="-2.081619"><ele>309</ele><time>2020-10-21T13:48:47Z</time><name>PT4289</name></trkpt>
<trkpt lat="53.246859" lon="-2.081564"><ele>308</ele><time>2020-10-21T13:48:50Z</time><name>PT4290</name></trkpt>
<trkpt lat="53.246836" lon="-2.081504"><ele>308</ele><time>2020-10-21T13:48:54Z</time><name>PT4291</name></trkpt>
<trkpt lat="53.246827" lon="-2.081445"><ele>308</ele><time>2020-10-21T13:48:57Z</time><name>PT4292</name></trkpt>
<trkpt lat="53.246821" lon="-2.081398"><ele>307</ele><time>2020-10-21T13:49:02Z</time><name>PT4293</name></trkpt>
<trkpt lat="53.246802" lon="-2.081380"><ele>307</ele><time>2020-10-21T13:49:05Z</time><name>PT4294</name></trkpt>
<trkpt lat="53.246779" lon="-2.081339"><ele>306</ele><time>2020-10-21T13:49:08Z</time><name>PT4295</name></trkpt>
<trkpt lat="53.246765" lon="-2.081290"><ele>306</ele><time>2020-10-21T13:49:11Z</time><name>PT4296</name></trkpt>
<trkpt lat="53.246748" lon="-2.081234"><ele>304</ele><time>2020-10-21T13:49:15Z</time><name>PT4297</name></trkpt>
<trkpt lat="53.246737" lon="-2.081192"><ele>303</ele><time>2020-10-21T13:49:18Z</time><name>PT4298</name></trkpt>
<trkpt lat="53.246721" lon="-2.081158"><ele>302</ele><time>2020-10-21T13:49:21Z</time><name>PT4299</name></trkpt>
<trkpt lat="53.246697" lon="-2.081105"><ele>301</ele><time>2020-10-21T13:49:26Z</time><name>PT4300</name></trkpt>
<trkpt lat="53.246674" lon="-2.081067"><ele>301</ele><time>2020-10-21T13:49:29Z</time><name>PT4301</name></trkpt>
<trkpt lat="53.246660" lon="-2.081035"><ele>300</ele><time>2020-10-21T13:49:32Z</time><name>PT4302</name></trkpt>
<trkpt lat="53.246634" lon="-2.081015"><ele>299</ele><time>2020-10-21T13:49:35Z</time><name>PT4303</name></trkpt>
<trkpt lat="53.246619" lon="-2.080999"><ele>299</ele><time>2020-10-21T13:49:38Z</time><name>PT4304</name></trkpt>
<trkpt lat="53.246607" lon="-2.080992"><ele>299</ele><time>2020-10-21T13:49:41Z</time><name>PT4305</name></trkpt>
<trkpt lat="53.246598" lon="-2.080987"><ele>298</ele><time>2020-10-21T13:49:47Z</time><name>PT4306</name></trkpt>
<trkpt lat="53.246564" lon="-2.080993"><ele>296</ele><time>2020-10-21T13:49:51Z</time><name>PT4307</name></trkpt>
<trkpt lat="53.246544" lon="-2.081013"><ele>295</ele><time>2020-10-21T13:49:54Z</time><name>PT4308</name></trkpt>
<trkpt lat="53.246520" lon="-2.081038"><ele>293</ele><time>2020-10-21T13:49:59Z</time><name>PT4309</name></trkpt>
<trkpt lat="53.246504" lon="-2.081050"><ele>292</ele><time>2020-10-21T13:50:02Z</time><name>PT4310</name></trkpt>
<trkpt lat="53.246488" lon="-2.081046"><ele>291</ele><time>2020-10-21T13:50:05Z</time><name>PT4311</name></trkpt>
<trkpt lat="53.246469" lon="-2.081044"><ele>290</ele><time>2020-10-21T13:50:08Z</time><name>PT4312</name></trkpt>
<trkpt lat="53.246445" lon="-2.081047"><ele>290</ele><time>2020-10-21T13:50:11Z</time><name>PT4313</name></trkpt>
<trkpt lat="53.246431" lon="-2.081045"><ele>289</ele><time>2020-10-21T13:50:14Z</time><name>PT4314</name></trkpt>
<trkpt lat="53.246419" lon="-2.081047"><ele>289</ele><time>2020-10-21T13:50:17Z</time><name>PT4315</name></trkpt>
<trkpt lat="53.246405" lon="-2.081052"><ele>289</ele><time>2020-10-21T13:50:20Z</time><name>PT4316</name></trkpt>
<trkpt lat="53.246387" lon="-2.081069"><ele>287</ele><time>2020-10-21T13:50:23Z</time><name>PT4317</name></trkpt>
<trkpt lat="53.246376" lon="-2.081092"><ele>286</ele><time>2020-10-21T13:50:26Z</time><name>PT4318</name></trkpt>
<trkpt lat="53.246350" lon="-2.081102"><ele>285</ele><time>2020-10-21T13:50:30Z</time><name>PT4319</name></trkpt>
<trkpt lat="53.246331" lon="-2.081117"><ele>284</ele><time>2020-10-21T13:50:33Z</time><name>PT4320</name></trkpt>
<trkpt lat="53.246317" lon="-2.081126"><ele>284</ele><time>2020-10-21T13:50:36Z</time><name>PT4321</name></trkpt>
<trkpt lat="53.246298" lon="-2.081139"><ele>283</ele><time>2020-10-21T13:50:41Z</time><name>PT4322</name></trkpt>
<trkpt lat="53.246281" lon="-2.081156"><ele>282</ele><time>2020-10-21T13:50:44Z</time><name>PT4323</name></trkpt>
<trkpt lat="53.246262" lon="-2.081168"><ele>282</ele><time>2020-10-21T13:50:47Z</time><name>PT4324</name></trkpt>
<trkpt lat="53.246250" lon="-2.081205"><ele>281</ele><time>2020-10-21T13:50:50Z</time><name>PT4325</name></trkpt>
<trkpt lat="53.246242" lon="-2.081227"><ele>279</ele><time>2020-10-21T13:50:53Z</time><name>PT4326</name></trkpt>
<trkpt lat="53.246221" lon="-2.081248"><ele>277</ele><time>2020-10-21T13:50:57Z</time><name>PT4327</name></trkpt>
<trkpt lat="53.246199" lon="-2.081266"><ele>277</ele><time>2020-10-21T13:51:02Z</time><name>PT4328</name></trkpt>
<trkpt lat="53.246187" lon="-2.081268"><ele>275</ele><time>2020-10-21T13:51:05Z</time><name>PT4329</name></trkpt>
<trkpt lat="53.246180" lon="-2.081268"><ele>274</ele><time>2020-10-21T13:51:09Z</time><name>PT4330</name></trkpt>
<trkpt lat="53.246168" lon="-2.081272"><ele>273</ele><time>2020-10-21T13:51:12Z</time><name>PT4331</name></trkpt>
<trkpt lat="53.246138" lon="-2.081288"><ele>272</ele><time>2020-10-21T13:51:20Z</time><name>PT4332</name></trkpt>
<trkpt lat="53.246131" lon="-2.081291"><ele>272</ele><time>2020-10-21T13:51:23Z</time><name>PT4333</name></trkpt>
<trkpt lat="53.246129" lon="-2.081300"><ele>272</ele><time>2020-10-21T13:51:29Z</time><name>PT4334</name></trkpt>
<trkpt lat="53.246094" lon="-2.081304"><ele>271</ele><time>2020-10-21T13:51:33Z</time><name>PT4335</name></trkpt>
<trkpt lat="53.246063" lon="-2.081318"><ele>269</ele><time>2020-10-21T13:51:38Z</time><name>PT4336</name></trkpt>
<trkpt lat="53.246044" lon="-2.081336"><ele>268</ele><time>2020-10-21T13:51:41Z</time><name>PT4337</name></trkpt>
<trkpt lat="53.246030" lon="-2.081332"><ele>267</ele><time>2020-10-21T13:51:44Z</time><name>PT4338</name></trkpt>
<trkpt lat="53.246001" lon="-2.081357"><ele>268</ele><time>2020-10-21T13:51:47Z</time><name>PT4339</name></trkpt>
<trkpt lat="53.245982" lon="-2.081375"><ele>267</ele><time>2020-10-21T13:51:50Z</time><name>PT4340</name></trkpt>
<trkpt lat="53.245954" lon="-2.081401"><ele>267</ele><time>2020-10-21T13:51:54Z</time><name>PT4341</name></trkpt>
<trkpt lat="53.245930" lon="-2.081405"><ele>267</ele><time>2020-10-21T13:51:57Z</time><name>PT4342</name></trkpt>
<trkpt lat="53.245905" lon="-2.081400"><ele>266</ele><time>2020-10-21T13:52:00Z</time><name>PT4343</name></trkpt>
<trkpt lat="53.245878" lon="-2.081389"><ele>266</ele><time>2020-10-21T13:52:05Z</time><name>PT4344</name></trkpt>
<trkpt lat="53.245849" lon="-2.081384"><ele>266</ele><time>2020-10-21T13:52:08Z</time><name>PT4345</name></trkpt>
<trkpt lat="53.245820" lon="-2.081395"><ele>265</ele><time>2020-10-21T13:52:11Z</time><name>PT4346</name></trkpt>
<trkpt lat="53.245789" lon="-2.081408"><ele>264</ele><time>2020-10-21T13:52:15Z</time><name>PT4347</name></trkpt>
<trkpt lat="53.245762" lon="-2.081420"><ele>263</ele><time>2020-10-21T13:52:18Z</time><name>PT4348</name></trkpt>
<trkpt lat="53.245740" lon="-2.081458"><ele>262</ele><time>2020-10-21T13:52:23Z</time><name>PT4349</name></trkpt>
<trkpt lat="53.245721" lon="-2.081492"><ele>261</ele><time>2020-10-21T13:52:26Z</time><name>PT4350</name></trkpt>
<trkpt lat="53.245705" lon="-2.081531"><ele>259</ele><time>2020-10-21T13:52:29Z</time><name>PT4351</name></trkpt>
<trkpt lat="53.245697" lon="-2.081575"><ele>259</ele><time>2020-10-21T13:52:33Z</time><name>PT4352</name></trkpt>
<trkpt lat="53.245693" lon="-2.081581"><ele>258</ele><time>2020-10-21T13:52:36Z</time><name>PT4353</name></trkpt>
<trkpt lat="53.245685" lon="-2.081650"><ele>258</ele><time>2020-10-21T13:52:41Z</time><name>PT4354</name></trkpt>
<trkpt lat="53.245676" lon="-2.081692"><ele>257</ele><time>2020-10-21T13:52:44Z</time><name>PT4355</name></trkpt>
<trkpt lat="53.245665" lon="-2.081736"><ele>255</ele><time>2020-10-21T13:52:47Z</time><name>PT4356</name></trkpt>
<trkpt lat="53.245663" lon="-2.081764"><ele>254</ele><time>2020-10-21T13:52:50Z</time><name>PT4357</name></trkpt>
<trkpt lat="53.245664" lon="-2.081811"><ele>252</ele><time>2020-10-21T13:52:54Z</time><name>PT4358</name></trkpt>
<trkpt lat="53.245659" lon="-2.081837"><ele>252</ele><time>2020-10-21T13:52:57Z</time><name>PT4359</name></trkpt>
<trkpt lat="53.245654" lon="-2.081851"><ele>250</ele><time>2020-10-21T13:53:02Z</time><name>PT4360</name></trkpt>
<trkpt lat="53.245635" lon="-2.081891"><ele>250</ele><time>2020-10-21T13:53:05Z</time><name>PT4361</name></trkpt>
<trkpt lat="53.245606" lon="-2.081907"><ele>250</ele><time>2020-10-21T13:53:08Z</time><name>PT4362</name></trkpt>
<trkpt lat="53.245575" lon="-2.081932"><ele>249</ele><time>2020-10-21T13:53:12Z</time><name>PT4363</name></trkpt>
<trkpt lat="53.245537" lon="-2.081948"><ele>250</ele><time>2020-10-21T13:53:17Z</time><name>PT4364</name></trkpt>
<trkpt lat="53.245511" lon="-2.081952"><ele>248</ele><time>2020-10-21T13:53:20Z</time><name>PT4365</name></trkpt>
<trkpt lat="53.245488" lon="-2.081979"><ele>248</ele><time>2020-10-21T13:53:23Z</time><name>PT4366</name></trkpt>
<trkpt lat="53.245461" lon="-2.082023"><ele>245</ele><time>2020-10-21T13:53:26Z</time><name>PT4367</name></trkpt>
<trkpt lat="53.245417" lon="-2.082104"><ele>248</ele><time>2020-10-21T13:53:30Z</time><name>PT4368</name></trkpt>
<trkpt lat="53.245391" lon="-2.082121"><ele>250</ele><time>2020-10-21T13:53:35Z</time><name>PT4369</name></trkpt>
<trkpt lat="53.245351" lon="-2.082152"><ele>245</ele><time>2020-10-21T13:53:44Z</time><name>PT4370</name></trkpt>
<trkpt lat="53.245309" lon="-2.082192"><ele>242</ele><time>2020-10-21T13:53:47Z</time><name>PT4371</name></trkpt>
<trkpt lat="53.245285" lon="-2.082204"><ele>240</ele><time>2020-10-21T13:53:50Z</time><name>PT4372</name></trkpt>
<trkpt lat="53.245251" lon="-2.082239"><ele>239</ele><time>2020-10-21T13:53:54Z</time><name>PT4373</name></trkpt>
<trkpt lat="53.245216" lon="-2.082262"><ele>236</ele><time>2020-10-21T13:53:59Z</time><name>PT4374</name></trkpt>
<trkpt lat="53.245187" lon="-2.082273"><ele>236</ele><time>2020-10-21T13:54:02Z</time><name>PT4375</name></trkpt>
<trkpt lat="53.245162" lon="-2.082281"><ele>236</ele><time>2020-10-21T13:54:05Z</time><name>PT4376</name></trkpt>
<trkpt lat="53.245148" lon="-2.082293"><ele>235</ele><time>2020-10-21T13:54:08Z</time><name>PT4377</name></trkpt>
<trkpt lat="53.245117" lon="-2.082296"><ele>234</ele><time>2020-10-21T13:54:11Z</time><name>PT4378</name></trkpt>
<trkpt lat="53.245086" lon="-2.082306"><ele>233</ele><time>2020-10-21T13:54:14Z</time><name>PT4379</name></trkpt>
<trkpt lat="53.245059" lon="-2.082322"><ele>232</ele><time>2020-10-21T13:54:17Z</time><name>PT4380</name></trkpt>
<trkpt lat="53.245010" lon="-2.082346"><ele>231</ele><time>2020-10-21T13:54:21Z</time><name>PT4381</name></trkpt>
<trkpt lat="53.244977" lon="-2.082351"><ele>231</ele><time>2020-10-21T13:54:24Z</time><name>PT4382</name></trkpt>
<trkpt lat="53.244929" lon="-2.082365"><ele>233</ele><time>2020-10-21T13:54:29Z</time><name>PT4383</name></trkpt>
<trkpt lat="53.244884" lon="-2.082384"><ele>233</ele><time>2020-10-21T13:54:32Z</time><name>PT4384</name></trkpt>
<trkpt lat="53.244851" lon="-2.082389"><ele>232</ele><time>2020-10-21T13:54:35Z</time><name>PT4385</name></trkpt>
<trkpt lat="53.244821" lon="-2.082398"><ele>235</ele><time>2020-10-21T13:54:38Z</time><name>PT4386</name></trkpt>
<trkpt lat="53.244803" lon="-2.082399"><ele>231</ele><time>2020-10-21T13:54:42Z</time><name>PT4387</name></trkpt>
<trkpt lat="53.244743" lon="-2.082388"><ele>229</ele><time>2020-10-21T13:54:47Z</time><name>PT4388</name></trkpt>
<trkpt lat="53.244715" lon="-2.082408"><ele>226</ele><time>2020-10-21T13:54:50Z</time><name>PT4389</name></trkpt>
<trkpt lat="53.244689" lon="-2.082408"><ele>225</ele><time>2020-10-21T13:54:53Z</time><name>PT4390</name></trkpt>
<trkpt lat="53.244671" lon="-2.082410"><ele>224</ele><time>2020-10-21T13:54:56Z</time><name>PT4391</name></trkpt>
<trkpt lat="53.244636" lon="-2.082394"><ele>221</ele><time>2020-10-21T13:55:00Z</time><name>PT4392</name></trkpt>
<trkpt lat="53.244607" lon="-2.082368"><ele>218</ele><time>2020-10-21T13:55:05Z</time><name>PT4393</name></trkpt>
<trkpt lat="53.244570" lon="-2.082360"><ele>217</ele><time>2020-10-21T13:55:08Z</time><name>PT4394</name></trkpt>
<trkpt lat="53.244548" lon="-2.082355"><ele>215</ele><time>2020-10-21T13:55:11Z</time><name>PT4395</name></trkpt>
<trkpt lat="53.244496" lon="-2.082352"><ele>214</ele><time>2020-10-21T13:55:14Z</time><name>PT4396</name></trkpt>
<trkpt lat="53.244457" lon="-2.082356"><ele>213</ele><time>2020-10-21T13:55:17Z</time><name>PT4397</name></trkpt>
<trkpt lat="53.244428" lon="-2.082364"><ele>211</ele><time>2020-10-21T13:55:21Z</time><name>PT4398</name></trkpt>
<trkpt lat="53.244380" lon="-2.082397"><ele>211</ele><time>2020-10-21T13:55:26Z</time><name>PT4399</name></trkpt>
<trkpt lat="53.244359" lon="-2.082417"><ele>211</ele><time>2020-10-21T13:55:29Z</time><name>PT4400</name></trkpt>
<trkpt lat="53.244357" lon="-2.082417"><ele>211</ele><time>2020-10-21T13:55:32Z</time><name>PT4401</name></trkpt>
<trkpt lat="53.244339" lon="-2.082424"><ele>209</ele><time>2020-10-21T13:55:35Z</time><name>PT4402</name></trkpt>
<trkpt lat="53.244327" lon="-2.082468"><ele>207</ele><time>2020-10-21T13:55:38Z</time><name>PT4403</name></trkpt>
<trkpt lat="53.244292" lon="-2.082506"><ele>206</ele><time>2020-10-21T13:55:41Z</time><name>PT4404</name></trkpt>
<trkpt lat="53.244264" lon="-2.082529"><ele>205</ele><time>2020-10-21T13:55:44Z</time><name>PT4405</name></trkpt>
<trkpt lat="53.244223" lon="-2.082564"><ele>204</ele><time>2020-10-21T13:55:48Z</time><name>PT4406</name></trkpt>
<trkpt lat="53.244188" lon="-2.082595"><ele>203</ele><time>2020-10-21T13:55:51Z</time><name>PT4407</name></trkpt>
<trkpt lat="53.244132" lon="-2.082624"><ele>202</ele><time>2020-10-21T13:55:56Z</time><name>PT4408</name></trkpt>
<trkpt lat="53.244102" lon="-2.082653"><ele>200</ele><time>2020-10-21T13:55:59Z</time><name>PT4409</name></trkpt>
<trkpt lat="53.244065" lon="-2.082681"><ele>199</ele><time>2020-10-21T13:56:02Z</time><name>PT4410</name></trkpt>
<trkpt lat="53.244027" lon="-2.082701"><ele>200</ele><time>2020-10-21T13:56:05Z</time><name>PT4411</name></trkpt>
<trkpt lat="53.244000" lon="-2.082704"><ele>199</ele><time>2020-10-21T13:56:08Z</time><name>PT4412</name></trkpt>
<trkpt lat="53.243960" lon="-2.082708"><ele>198</ele><time>2020-10-21T13:56:12Z</time><name>PT4413</name></trkpt>
<trkpt lat="53.243925" lon="-2.082692"><ele>197</ele><time>2020-10-21T13:56:17Z</time><name>PT4414</name></trkpt>
<trkpt lat="53.243898" lon="-2.082688"><ele>196</ele><time>2020-10-21T13:56:20Z</time><name>PT4415</name></trkpt>
<trkpt lat="53.243870" lon="-2.082694"><ele>195</ele><time>2020-10-21T13:56:23Z</time><name>PT4416</name></trkpt>
<trkpt lat="53.243838" lon="-2.082711"><ele>195</ele><time>2020-10-21T13:56:26Z</time><name>PT4417</name></trkpt>
<trkpt lat="53.243813" lon="-2.082768"><ele>196</ele><time>2020-10-21T13:56:29Z</time><name>PT4418</name></trkpt>
<trkpt lat="53.243803" lon="-2.082785"><ele>197</ele><time>2020-10-21T13:56:32Z</time><name>PT4419</name></trkpt>
<trkpt lat="53.243772" lon="-2.082796"><ele>196</ele><time>2020-10-21T13:56:36Z</time><name>PT4420</name></trkpt>
<trkpt lat="53.243736" lon="-2.082794"><ele>195</ele><time>2020-10-21T13:56:39Z</time><name>PT4421</name></trkpt>
<trkpt lat="53.243693" lon="-2.082821"><ele>196</ele><time>2020-10-21T13:56:42Z</time><name>PT4422</name></trkpt>
<trkpt lat="53.243659" lon="-2.082857"><ele>194</ele><time>2020-10-21T13:56:47Z</time><name>PT4423</name></trkpt>
<trkpt lat="53.243610" lon="-2.082859"><ele>195</ele><time>2020-10-21T13:56:50Z</time><name>PT4424</name></trkpt>
<trkpt lat="53.243549" lon="-2.082849"><ele>196</ele><time>2020-10-21T13:56:54Z</time><name>PT4425</name></trkpt>
<trkpt lat="53.243501" lon="-2.082834"><ele>197</ele><time>2020-10-21T13:56:57Z</time><name>PT4426</name></trkpt>
<trkpt lat="53.243438" lon="-2.082819"><ele>198</ele><time>2020-10-21T13:57:02Z</time><name>PT4427</name></trkpt>
<trkpt lat="53.243381" lon="-2.082808"><ele>201</ele><time>2020-10-21T13:57:05Z</time><name>PT4428</name></trkpt>
<trkpt lat="53.243320" lon="-2.082802"><ele>203</ele><time>2020-10-21T13:57:08Z</time><name>PT4429</name></trkpt>
<trkpt lat="53.243269" lon="-2.082802"><ele>205</ele><time>2020-10-21T13:57:11Z</time><name>PT4430</name></trkpt>
<trkpt lat="53.243215" lon="-2.082776"><ele>206</ele><time>2020-10-21T13:57:15Z</time><name>PT4431</name></trkpt>
<trkpt lat="53.243153" lon="-2.082756"><ele>208</ele><time>2020-10-21T13:57:20Z</time><name>PT4432</name></trkpt>
<trkpt lat="53.243099" lon="-2.082737"><ele>208</ele><time>2020-10-21T13:57:23Z</time><name>PT4433</name></trkpt>
<trkpt lat="53.243063" lon="-2.082722"><ele>209</ele><time>2020-10-21T13:57:26Z</time><name>PT4434</name></trkpt>
<trkpt lat="53.243012" lon="-2.082697"><ele>209</ele><time>2020-10-21T13:57:30Z</time><name>PT4435</name></trkpt>
<trkpt lat="53.242957" lon="-2.082680"><ele>210</ele><time>2020-10-21T13:57:35Z</time><name>PT4436</name></trkpt>
<trkpt lat="53.242922" lon="-2.082678"><ele>210</ele><time>2020-10-21T13:57:38Z</time><name>PT4437</name></trkpt>
<trkpt lat="53.242886" lon="-2.082674"><ele>210</ele><time>2020-10-21T13:57:41Z</time><name>PT4438</name></trkpt>
<trkpt lat="53.242859" lon="-2.082684"><ele>211</ele><time>2020-10-21T13:57:44Z</time><name>PT4439</name></trkpt>
<trkpt lat="53.242838" lon="-2.082692"><ele>211</ele><time>2020-10-21T13:57:47Z</time><name>PT4440</name></trkpt>
<trkpt lat="53.242816" lon="-2.082702"><ele>211</ele><time>2020-10-21T13:57:50Z</time><name>PT4441</name></trkpt>
<trkpt lat="53.242802" lon="-2.082704"><ele>213</ele><time>2020-10-21T13:57:53Z</time><name>PT4442</name></trkpt>
<trkpt lat="53.242783" lon="-2.082704"><ele>213</ele><time>2020-10-21T13:57:57Z</time><name>PT4443</name></trkpt>
<trkpt lat="53.242757" lon="-2.082695"><ele>213</ele><time>2020-10-21T13:58:00Z</time><name>PT4444</name></trkpt>
<trkpt lat="53.242729" lon="-2.082698"><ele>212</ele><time>2020-10-21T13:58:03Z</time><name>PT4445</name></trkpt>
<trkpt lat="53.242695" lon="-2.082689"><ele>212</ele><time>2020-10-21T13:58:06Z</time><name>PT4446</name></trkpt>
<trkpt lat="53.242665" lon="-2.082687"><ele>212</ele><time>2020-10-21T13:58:09Z</time><name>PT4447</name></trkpt>
<trkpt lat="53.242635" lon="-2.082680"><ele>211</ele><time>2020-10-21T13:58:12Z</time><name>PT4448</name></trkpt>
<trkpt lat="53.242600" lon="-2.082683"><ele>212</ele><time>2020-10-21T13:58:15Z</time><name>PT4449</name></trkpt>
<trkpt lat="53.242560" lon="-2.082663"><ele>210</ele><time>2020-10-21T13:58:20Z</time><name>PT4450</name></trkpt>
<trkpt lat="53.242537" lon="-2.082624"><ele>210</ele><time>2020-10-21T13:58:23Z</time><name>PT4451</name></trkpt>
<trkpt lat="53.242528" lon="-2.082617"><ele>210</ele><time>2020-10-21T13:58:27Z</time><name>PT4452</name></trkpt>
<trkpt lat="53.242499" lon="-2.082596"><ele>208</ele><time>2020-10-21T13:59:02Z</time><name>PT4453</name></trkpt>
<trkpt lat="53.242467" lon="-2.082578"><ele>208</ele><time>2020-10-21T13:59:05Z</time><name>PT4454</name></trkpt>
<trkpt lat="53.242451" lon="-2.082587"><ele>207</ele><time>2020-10-21T13:59:08Z</time><name>PT4455</name></trkpt>
<trkpt lat="53.242433" lon="-2.082590"><ele>207</ele><time>2020-10-21T13:59:11Z</time><name>PT4456</name></trkpt>
<trkpt lat="53.242419" lon="-2.082603"><ele>208</ele><time>2020-10-21T13:59:21Z</time><name>PT4457</name></trkpt>
<trkpt lat="53.242353" lon="-2.082641"><ele>204</ele><time>2020-10-21T13:59:26Z</time><name>PT4458</name></trkpt>
<trkpt lat="53.242320" lon="-2.082687"><ele>203</ele><time>2020-10-21T13:59:29Z</time><name>PT4459</name></trkpt>
<trkpt lat="53.242292" lon="-2.082704"><ele>203</ele><time>2020-10-21T13:59:32Z</time><name>PT4460</name></trkpt>
<trkpt lat="53.242240" lon="-2.082709"><ele>203</ele><time>2020-10-21T13:59:35Z</time><name>PT4461</name></trkpt>
<trkpt lat="53.242208" lon="-2.082741"><ele>203</ele><time>2020-10-21T13:59:38Z</time><name>PT4462</name></trkpt>
<trkpt lat="53.242195" lon="-2.082753"><ele>205</ele><time>2020-10-21T13:59:41Z</time><name>PT4463</name></trkpt>
<trkpt lat="53.242168" lon="-2.082771"><ele>205</ele><time>2020-10-21T13:59:54Z</time><name>PT4464</name></trkpt>
<trkpt lat="53.242108" lon="-2.082815"><ele>206</ele><time>2020-10-21T13:59:59Z</time><name>PT4465</name></trkpt>
<trkpt lat="53.242067" lon="-2.082856"><ele>205</ele><time>2020-10-21T14:00:02Z</time><name>PT4466</name></trkpt>
<trkpt lat="53.242011" lon="-2.082898"><ele>205</ele><time>2020-10-21T14:00:05Z</time><name>PT4467</name></trkpt>
<trkpt lat="53.241980" lon="-2.082933"><ele>205</ele><time>2020-10-21T14:00:09Z</time><name>PT4468</name></trkpt>
<trkpt lat="53.241967" lon="-2.082956"><ele>205</ele><time>2020-10-21T14:00:12Z</time><name>PT4469</name></trkpt>
<trkpt lat="53.241931" lon="-2.082986"><ele>204</ele><time>2020-10-21T14:00:17Z</time><name>PT4470</name></trkpt>
<trkpt lat="53.241888" lon="-2.083023"><ele>205</ele><time>2020-10-21T14:00:20Z</time><name>PT4471</name></trkpt>
<trkpt lat="53.241851" lon="-2.083063"><ele>205</ele><time>2020-10-21T14:00:23Z</time><name>PT4472</name></trkpt>
<trkpt lat="53.241813" lon="-2.083107"><ele>206</ele><time>2020-10-21T14:00:26Z</time><name>PT4473</name></trkpt>
<trkpt lat="53.241760" lon="-2.083159"><ele>207</ele><time>2020-10-21T14:00:30Z</time><name>PT4474</name></trkpt>
<trkpt lat="53.241708" lon="-2.083222"><ele>207</ele><time>2020-10-21T14:00:35Z</time><name>PT4475</name></trkpt>
<trkpt lat="53.241670" lon="-2.083253"><ele>207</ele><time>2020-10-21T14:00:38Z</time><name>PT4476</name></trkpt>
<trkpt lat="53.241628" lon="-2.083291"><ele>206</ele><time>2020-10-21T14:00:41Z</time><name>PT4477</name></trkpt>
<trkpt lat="53.241596" lon="-2.083319"><ele>206</ele><time>2020-10-21T14:00:44Z</time><name>PT4478</name></trkpt>
<trkpt lat="53.241562" lon="-2.083370"><ele>205</ele><time>2020-10-21T14:00:47Z</time><name>PT4479</name></trkpt>
<trkpt lat="53.241512" lon="-2.083417"><ele>205</ele><time>2020-10-21T14:00:51Z</time><name>PT4480</name></trkpt>
<trkpt lat="53.241473" lon="-2.083454"><ele>203</ele><time>2020-10-21T14:00:56Z</time><name>PT4481</name></trkpt>
<trkpt lat="53.241429" lon="-2.083496"><ele>203</ele><time>2020-10-21T14:00:59Z</time><name>PT4482</name></trkpt>
<trkpt lat="53.241396" lon="-2.083534"><ele>203</ele><time>2020-10-21T14:01:02Z</time><name>PT4483</name></trkpt>
<trkpt lat="53.241347" lon="-2.083570"><ele>203</ele><time>2020-10-21T14:01:06Z</time><name>PT4484</name></trkpt>
<trkpt lat="53.241306" lon="-2.083589"><ele>203</ele><time>2020-10-21T14:01:11Z</time><name>PT4485</name></trkpt>
<trkpt lat="53.241297" lon="-2.083598"><ele>203</ele><time>2020-10-21T14:01:14Z</time><name>PT4486</name></trkpt>
<trkpt lat="53.241278" lon="-2.083612"><ele>203</ele><time>2020-10-21T14:01:32Z</time><name>PT4487</name></trkpt>
<trkpt lat="53.241233" lon="-2.083632"><ele>204</ele><time>2020-10-21T14:01:35Z</time><name>PT4488</name></trkpt>
<trkpt lat="53.241171" lon="-2.083650"><ele>204</ele><time>2020-10-21T14:01:38Z</time><name>PT4489</name></trkpt>
<trkpt lat="53.241109" lon="-2.083678"><ele>205</ele><time>2020-10-21T14:01:42Z</time><name>PT4490</name></trkpt>
<trkpt lat="53.241062" lon="-2.083678"><ele>205</ele><time>2020-10-21T14:01:45Z</time><name>PT4491</name></trkpt>
<trkpt lat="53.241018" lon="-2.083682"><ele>205</ele><time>2020-10-21T14:01:48Z</time><name>PT4492</name></trkpt>
<trkpt lat="53.240962" lon="-2.083655"><ele>205</ele><time>2020-10-21T14:01:53Z</time><name>PT4493</name></trkpt>
<trkpt lat="53.240914" lon="-2.083610"><ele>205</ele><time>2020-10-21T14:01:56Z</time><name>PT4494</name></trkpt>
<trkpt lat="53.240889" lon="-2.083566"><ele>205</ele><time>2020-10-21T14:01:59Z</time><name>PT4495</name></trkpt>
<trkpt lat="53.240882" lon="-2.083551"><ele>204</ele><time>2020-10-21T14:02:03Z</time><name>PT4496</name></trkpt>
<trkpt lat="53.240871" lon="-2.083499"><ele>205</ele><time>2020-10-21T14:02:23Z</time><name>PT4497</name></trkpt>
<trkpt lat="53.240856" lon="-2.083430"><ele>204</ele><time>2020-10-21T14:02:26Z</time><name>PT4498</name></trkpt>
<trkpt lat="53.240834" lon="-2.083346"><ele>203</ele><time>2020-10-21T14:02:30Z</time><name>PT4499</name></trkpt>
<trkpt lat="53.240817" lon="-2.083264"><ele>202</ele><time>2020-10-21T14:02:35Z</time><name>PT4500</name></trkpt>
<trkpt lat="53.240808" lon="-2.083198"><ele>202</ele><time>2020-10-21T14:02:38Z</time><name>PT4501</name></trkpt>
<trkpt lat="53.240797" lon="-2.083127"><ele>202</ele><time>2020-10-21T14:02:41Z</time><name>PT4502</name></trkpt>
<trkpt lat="53.240787" lon="-2.083061"><ele>202</ele><time>2020-10-21T14:02:44Z</time><name>PT4503</name></trkpt>
<trkpt lat="53.240777" lon="-2.082970"><ele>202</ele><time>2020-10-21T14:02:47Z</time><name>PT4504</name></trkpt>
<trkpt lat="53.240771" lon="-2.082870"><ele>203</ele><time>2020-10-21T14:02:51Z</time><name>PT4505</name></trkpt>
<trkpt lat="53.240762" lon="-2.082775"><ele>203</ele><time>2020-10-21T14:02:56Z</time><name>PT4506</name></trkpt>
<trkpt lat="53.240753" lon="-2.082686"><ele>202</ele><time>2020-10-21T14:02:59Z</time><name>PT4507</name></trkpt>
<trkpt lat="53.240744" lon="-2.082586"><ele>203</ele><time>2020-10-21T14:03:03Z</time><name>PT4508</name></trkpt>
<trkpt lat="53.240737" lon="-2.082484"><ele>203</ele><time>2020-10-21T14:03:08Z</time><name>PT4509</name></trkpt>
<trkpt lat="53.240744" lon="-2.082414"><ele>202</ele><time>2020-10-21T14:03:11Z</time><name>PT4510</name></trkpt>
<trkpt lat="53.240747" lon="-2.082319"><ele>202</ele><time>2020-10-21T14:03:14Z</time><name>PT4511</name></trkpt>
<trkpt lat="53.240737" lon="-2.082219"><ele>202</ele><time>2020-10-21T14:03:18Z</time><name>PT4512</name></trkpt>
<trkpt lat="53.240730" lon="-2.082156"><ele>202</ele><time>2020-10-21T14:03:21Z</time><name>PT4513</name></trkpt>
<trkpt lat="53.240725" lon="-2.082067"><ele>201</ele><time>2020-10-21T14:03:26Z</time><name>PT4514</name></trkpt>
<trkpt lat="53.240731" lon="-2.081990"><ele>200</ele><time>2020-10-21T14:03:29Z</time><name>PT4515</name></trkpt>
<trkpt lat="53.240725" lon="-2.081886"><ele>201</ele><time>2020-10-21T14:03:33Z</time><name>PT4516</name></trkpt>
<trkpt lat="53.240720" lon="-2.081798"><ele>201</ele><time>2020-10-21T14:03:38Z</time><name>PT4517</name></trkpt>
<trkpt lat="53.240708" lon="-2.081725"><ele>201</ele><time>2020-10-21T14:03:41Z</time><name>PT4518</name></trkpt>
<trkpt lat="53.240696" lon="-2.081635"><ele>201</ele><time>2020-10-21T14:03:44Z</time><name>PT4519</name></trkpt>
<trkpt lat="53.240673" lon="-2.081565"><ele>201</ele><time>2020-10-21T14:03:48Z</time><name>PT4520</name></trkpt>
<trkpt lat="53.240660" lon="-2.081460"><ele>202</ele><time>2020-10-21T14:03:53Z</time><name>PT4521</name></trkpt>
<trkpt lat="53.240652" lon="-2.081391"><ele>202</ele><time>2020-10-21T14:03:56Z</time><name>PT4522</name></trkpt>
<trkpt lat="53.240645" lon="-2.081321"><ele>202</ele><time>2020-10-21T14:03:59Z</time><name>PT4523</name></trkpt>
<trkpt lat="53.240638" lon="-2.081219"><ele>202</ele><time>2020-10-21T14:04:02Z</time><name>PT4524</name></trkpt>
<trkpt lat="53.240629" lon="-2.081121"><ele>203</ele><time>2020-10-21T14:04:06Z</time><name>PT4525</name></trkpt>
<trkpt lat="53.240615" lon="-2.081048"><ele>203</ele><time>2020-10-21T14:04:09Z</time><name>PT4526</name></trkpt>
<trkpt lat="53.240589" lon="-2.080957"><ele>203</ele><time>2020-10-21T14:04:14Z</time><name>PT4527</name></trkpt>
<trkpt lat="53.240557" lon="-2.080867"><ele>203</ele><time>2020-10-21T14:04:17Z</time><name>PT4528</name></trkpt>
<trkpt lat="53.240534" lon="-2.080779"><ele>203</ele><time>2020-10-21T14:04:21Z</time><name>PT4529</name></trkpt>
<trkpt lat="53.240516" lon="-2.080717"><ele>204</ele><time>2020-10-21T14:04:24Z</time><name>PT4530</name></trkpt>
<trkpt lat="53.240492" lon="-2.080645"><ele>204</ele><time>2020-10-21T14:04:29Z</time><name>PT4531</name></trkpt>
<trkpt lat="53.240477" lon="-2.080576"><ele>203</ele><time>2020-10-21T14:04:32Z</time><name>PT4532</name></trkpt>
<trkpt lat="53.240450" lon="-2.080499"><ele>202</ele><time>2020-10-21T14:04:36Z</time><name>PT4533</name></trkpt>
<trkpt lat="53.240420" lon="-2.080415"><ele>203</ele><time>2020-10-21T14:04:41Z</time><name>PT4534</name></trkpt>
<trkpt lat="53.240402" lon="-2.080346"><ele>203</ele><time>2020-10-21T14:04:44Z</time><name>PT4535</name></trkpt>
<trkpt lat="53.240382" lon="-2.080271"><ele>203</ele><time>2020-10-21T14:04:47Z</time><name>PT4536</name></trkpt>
<trkpt lat="53.240360" lon="-2.080208"><ele>203</ele><time>2020-10-21T14:04:50Z</time><name>PT4537</name></trkpt>
<trkpt lat="53.240339" lon="-2.080117"><ele>203</ele><time>2020-10-21T14:04:53Z</time><name>PT4538</name></trkpt>
<trkpt lat="53.240306" lon="-2.080037"><ele>203</ele><time>2020-10-21T14:04:57Z</time><name>PT4539</name></trkpt>
<trkpt lat="53.240278" lon="-2.079948"><ele>203</ele><time>2020-10-21T14:05:02Z</time><name>PT4540</name></trkpt>
<trkpt lat="53.240253" lon="-2.079874"><ele>204</ele><time>2020-10-21T14:05:05Z</time><name>PT4541</name></trkpt>
<trkpt lat="53.240249" lon="-2.079851"><ele>205</ele><time>2020-10-21T14:05:09Z</time><name>PT4542</name></trkpt>
<trkpt lat="53.240248" lon="-2.079843"><ele>205</ele><time>2020-10-21T14:05:27Z</time><name>PT4543</name></trkpt>
<trkpt lat="53.240240" lon="-2.079810"><ele>205</ele><time>2020-10-21T14:05:32Z</time><name>PT4544</name></trkpt>
<trkpt lat="53.240239" lon="-2.079810"><ele>205</ele><time>2020-10-21T14:05:35Z</time><name>PT4545</name></trkpt>
<trkpt lat="53.240236" lon="-2.079802"><ele>205</ele><time>2020-10-21T14:05:48Z</time><name>PT4546</name></trkpt>
<trkpt lat="53.240224" lon="-2.079771"><ele>205</ele><time>2020-10-21T14:05:51Z</time><name>PT4547</name></trkpt>
<trkpt lat="53.240224" lon="-2.079779"><ele>205</ele><time>2020-10-21T14:05:54Z</time><name>PT4548</name></trkpt>
<trkpt lat="53.240224" lon="-2.079768"><ele>205</ele><time>2020-10-21T14:05:57Z</time><name>PT4549</name></trkpt>
<trkpt lat="53.240225" lon="-2.079765"><ele>205</ele><time>2020-10-21T14:06:02Z</time><name>PT4550</name></trkpt>
<trkpt lat="53.240219" lon="-2.079733"><ele>205</ele><time>2020-10-21T14:06:12Z</time><name>PT4551</name></trkpt>
<trkpt lat="53.240219" lon="-2.079730"><ele>205</ele><time>2020-10-21T14:06:15Z</time><name>PT4552</name></trkpt>
<trkpt lat="53.240208" lon="-2.079704"><ele>205</ele><time>2020-10-21T14:06:50Z</time><name>PT4553</name></trkpt>
<trkpt lat="53.240191" lon="-2.079654"><ele>204</ele><time>2020-10-21T14:06:53Z</time><name>PT4554</name></trkpt>
<trkpt lat="53.240174" lon="-2.079606"><ele>204</ele><time>2020-10-21T14:06:56Z</time><name>PT4555</name></trkpt>
<trkpt lat="53.240152" lon="-2.079559"><ele>203</ele><time>2020-10-21T14:07:00Z</time><name>PT4556</name></trkpt>
<trkpt lat="53.240136" lon="-2.079511"><ele>201</ele><time>2020-10-21T14:07:03Z</time><name>PT4557</name></trkpt>
<trkpt lat="53.240114" lon="-2.079438"><ele>201</ele><time>2020-10-21T14:07:08Z</time><name>PT4558</name></trkpt>
<trkpt lat="53.240102" lon="-2.079379"><ele>200</ele><time>2020-10-21T14:07:11Z</time><name>PT4559</name></trkpt>
<trkpt lat="53.240095" lon="-2.079343"><ele>199</ele><time>2020-10-21T14:07:14Z</time><name>PT4560</name></trkpt>
<trkpt lat="53.240084" lon="-2.079270"><ele>200</ele><time>2020-10-21T14:07:18Z</time><name>PT4561</name></trkpt>
<trkpt lat="53.240069" lon="-2.079201"><ele>199</ele><time>2020-10-21T14:07:23Z</time><name>PT4562</name></trkpt>
<trkpt lat="53.240066" lon="-2.079135"><ele>199</ele><time>2020-10-21T14:07:26Z</time><name>PT4563</name></trkpt>
<trkpt lat="53.240067" lon="-2.079055"><ele>201</ele><time>2020-10-21T14:07:29Z</time><name>PT4564</name></trkpt>
<trkpt lat="53.240090" lon="-2.078959"><ele>202</ele><time>2020-10-21T14:07:32Z</time><name>PT4565</name></trkpt>
<trkpt lat="53.240098" lon="-2.078888"><ele>203</ele><time>2020-10-21T14:07:35Z</time><name>PT4566</name></trkpt>
<trkpt lat="53.240102" lon="-2.078792"><ele>204</ele><time>2020-10-21T14:07:39Z</time><name>PT4567</name></trkpt>
<trkpt lat="53.240114" lon="-2.078731"><ele>204</ele><time>2020-10-21T14:07:44Z</time><name>PT4568</name></trkpt>
<trkpt lat="53.240128" lon="-2.078679"><ele>205</ele><time>2020-10-21T14:07:47Z</time><name>PT4569</name></trkpt>
<trkpt lat="53.240148" lon="-2.078600"><ele>205</ele><time>2020-10-21T14:07:50Z</time><name>PT4570</name></trkpt>
<trkpt lat="53.240150" lon="-2.078548"><ele>205</ele><time>2020-10-21T14:07:53Z</time><name>PT4571</name></trkpt>
<trkpt lat="53.240162" lon="-2.078496"><ele>205</ele><time>2020-10-21T14:07:56Z</time><name>PT4572</name></trkpt>
<trkpt lat="53.240168" lon="-2.078441"><ele>205</ele><time>2020-10-21T14:07:59Z</time><name>PT4573</name></trkpt>
<trkpt lat="53.240183" lon="-2.078375"><ele>206</ele><time>2020-10-21T14:08:03Z</time><name>PT4574</name></trkpt>
<trkpt lat="53.240190" lon="-2.078323"><ele>206</ele><time>2020-10-21T14:08:06Z</time><name>PT4575</name></trkpt>
<trkpt lat="53.240199" lon="-2.078239"><ele>206</ele><time>2020-10-21T14:08:11Z</time><name>PT4576</name></trkpt>
<trkpt lat="53.240207" lon="-2.078178"><ele>206</ele><time>2020-10-21T14:08:14Z</time><name>PT4577</name></trkpt>
<trkpt lat="53.240212" lon="-2.078114"><ele>206</ele><time>2020-10-21T14:08:17Z</time><name>PT4578</name></trkpt>
<trkpt lat="53.240229" lon="-2.078047"><ele>207</ele><time>2020-10-21T14:08:20Z</time><name>PT4579</name></trkpt>
<trkpt lat="53.240242" lon="-2.077967"><ele>208</ele><time>2020-10-21T14:08:24Z</time><name>PT4580</name></trkpt>
<trkpt lat="53.240256" lon="-2.077896"><ele>209</ele><time>2020-10-21T14:08:29Z</time><name>PT4581</name></trkpt>
<trkpt lat="53.240267" lon="-2.077844"><ele>209</ele><time>2020-10-21T14:08:32Z</time><name>PT4582</name></trkpt>
<trkpt lat="53.240278" lon="-2.077788"><ele>210</ele><time>2020-10-21T14:08:35Z</time><name>PT4583</name></trkpt>
<trkpt lat="53.240286" lon="-2.077731"><ele>210</ele><time>2020-10-21T14:08:38Z</time><name>PT4584</name></trkpt>
<trkpt lat="53.240302" lon="-2.077653"><ele>212</ele><time>2020-10-21T14:08:41Z</time><name>PT4585</name></trkpt>
<trkpt lat="53.240312" lon="-2.077597"><ele>213</ele><time>2020-10-21T14:08:44Z</time><name>PT4586</name></trkpt>
<trkpt lat="53.240320" lon="-2.077520"><ele>214</ele><time>2020-10-21T14:08:48Z</time><name>PT4587</name></trkpt>
<trkpt lat="53.240329" lon="-2.077440"><ele>215</ele><time>2020-10-21T14:08:53Z</time><name>PT4588</name></trkpt>
<trkpt lat="53.240328" lon="-2.077356"><ele>215</ele><time>2020-10-21T14:08:56Z</time><name>PT4589</name></trkpt>
<trkpt lat="53.240322" lon="-2.077282"><ele>215</ele><time>2020-10-21T14:09:00Z</time><name>PT4590</name></trkpt>
<trkpt lat="53.240313" lon="-2.077224"><ele>215</ele><time>2020-10-21T14:09:03Z</time><name>PT4591</name></trkpt>
<trkpt lat="53.240302" lon="-2.077136"><ele>216</ele><time>2020-10-21T14:09:08Z</time><name>PT4592</name></trkpt>
<trkpt lat="53.240293" lon="-2.077080"><ele>216</ele><time>2020-10-21T14:09:11Z</time><name>PT4593</name></trkpt>
<trkpt lat="53.240288" lon="-2.077022"><ele>216</ele><time>2020-10-21T14:09:14Z</time><name>PT4594</name></trkpt>
<trkpt lat="53.240280" lon="-2.076947"><ele>217</ele><time>2020-10-21T14:09:17Z</time><name>PT4595</name></trkpt>
<trkpt lat="53.240275" lon="-2.076895"><ele>217</ele><time>2020-10-21T14:09:20Z</time><name>PT4596</name></trkpt>
<trkpt lat="53.240266" lon="-2.076838"><ele>217</ele><time>2020-10-21T14:09:23Z</time><name>PT4597</name></trkpt>
<trkpt lat="53.240261" lon="-2.076761"><ele>217</ele><time>2020-10-21T14:09:27Z</time><name>PT4598</name></trkpt>
<trkpt lat="53.240257" lon="-2.076705"><ele>218</ele><time>2020-10-21T14:09:30Z</time><name>PT4599</name></trkpt>
<trkpt lat="53.240250" lon="-2.076648"><ele>218</ele><time>2020-10-21T14:09:33Z</time><name>PT4600</name></trkpt>
<trkpt lat="53.240245" lon="-2.076593"><ele>218</ele><time>2020-10-21T14:09:36Z</time><name>PT4601</name></trkpt>
<trkpt lat="53.240240" lon="-2.076536"><ele>219</ele><time>2020-10-21T14:09:39Z</time><name>PT4602</name></trkpt>
<trkpt lat="53.240238" lon="-2.076462"><ele>219</ele><time>2020-10-21T14:09:44Z</time><name>PT4603</name></trkpt>
<trkpt lat="53.240237" lon="-2.076415"><ele>219</ele><time>2020-10-21T14:09:47Z</time><name>PT4604</name></trkpt>
<trkpt lat="53.240238" lon="-2.076353"><ele>219</ele><time>2020-10-21T14:09:50Z</time><name>PT4605</name></trkpt>
<trkpt lat="53.240240" lon="-2.076296"><ele>220</ele><time>2020-10-21T14:09:54Z</time><name>PT4606</name></trkpt>
<trkpt lat="53.240237" lon="-2.076254"><ele>221</ele><time>2020-10-21T14:09:57Z</time><name>PT4607</name></trkpt>
<trkpt lat="53.240225" lon="-2.076172"><ele>222</ele><time>2020-10-21T14:10:02Z</time><name>PT4608</name></trkpt>
<trkpt lat="53.240226" lon="-2.076110"><ele>223</ele><time>2020-10-21T14:10:05Z</time><name>PT4609</name></trkpt>
<trkpt lat="53.240227" lon="-2.076040"><ele>224</ele><time>2020-10-21T14:10:08Z</time><name>PT4610</name></trkpt>
<trkpt lat="53.240225" lon="-2.075986"><ele>224</ele><time>2020-10-21T14:10:11Z</time><name>PT4611</name></trkpt>
<trkpt lat="53.240224" lon="-2.075937"><ele>224</ele><time>2020-10-21T14:10:14Z</time><name>PT4612</name></trkpt>
<trkpt lat="53.240222" lon="-2.075881"><ele>224</ele><time>2020-10-21T14:10:18Z</time><name>PT4613</name></trkpt>
<trkpt lat="53.240219" lon="-2.075809"><ele>225</ele><time>2020-10-21T14:10:23Z</time><name>PT4614</name></trkpt>
<trkpt lat="53.240218" lon="-2.075755"><ele>225</ele><time>2020-10-21T14:10:26Z</time><name>PT4615</name></trkpt>
<trkpt lat="53.240219" lon="-2.075693"><ele>226</ele><time>2020-10-21T14:10:29Z</time><name>PT4616</name></trkpt>
<trkpt lat="53.240224" lon="-2.075617"><ele>226</ele><time>2020-10-21T14:10:32Z</time><name>PT4617</name></trkpt>
<trkpt lat="53.240230" lon="-2.075548"><ele>226</ele><time>2020-10-21T14:10:36Z</time><name>PT4618</name></trkpt>
<trkpt lat="53.240225" lon="-2.075492"><ele>227</ele><time>2020-10-21T14:10:39Z</time><name>PT4619</name></trkpt>
<trkpt lat="53.240227" lon="-2.075410"><ele>228</ele><time>2020-10-21T14:10:44Z</time><name>PT4620</name></trkpt>
<trkpt lat="53.240234" lon="-2.075329"><ele>229</ele><time>2020-10-21T14:10:47Z</time><name>PT4621</name></trkpt>
<trkpt lat="53.240248" lon="-2.075260"><ele>228</ele><time>2020-10-21T14:10:51Z</time><name>PT4622</name></trkpt>
<trkpt lat="53.240256" lon="-2.075201"><ele>229</ele><time>2020-10-21T14:10:54Z</time><name>PT4623</name></trkpt>
<trkpt lat="53.240269" lon="-2.075126"><ele>229</ele><time>2020-10-21T14:10:59Z</time><name>PT4624</name></trkpt>
<trkpt lat="53.240281" lon="-2.075047"><ele>230</ele><time>2020-10-21T14:11:02Z</time><name>PT4625</name></trkpt>
<trkpt lat="53.240292" lon="-2.074983"><ele>230</ele><time>2020-10-21T14:11:05Z</time><name>PT4626</name></trkpt>
<trkpt lat="53.240305" lon="-2.074895"><ele>231</ele><time>2020-10-21T14:11:09Z</time><name>PT4627</name></trkpt>
<trkpt lat="53.240322" lon="-2.074838"><ele>231</ele><time>2020-10-21T14:11:12Z</time><name>PT4628</name></trkpt>
<trkpt lat="53.240337" lon="-2.074782"><ele>232</ele><time>2020-10-21T14:11:15Z</time><name>PT4629</name></trkpt>
<trkpt lat="53.240364" lon="-2.074704"><ele>232</ele><time>2020-10-21T14:11:20Z</time><name>PT4630</name></trkpt>
<trkpt lat="53.240384" lon="-2.074640"><ele>232</ele><time>2020-10-21T14:11:23Z</time><name>PT4631</name></trkpt>
<trkpt lat="53.240390" lon="-2.074619"><ele>232</ele><time>2020-10-21T14:11:23Z</time><name>PT4632</name></trkpt>
<trkpt lat="53.240396" lon="-2.074599"><ele>232</ele><time>2020-10-21T14:11:24Z</time><name>PT4633</name></trkpt>
<trkpt lat="53.240403" lon="-2.074579"><ele>232</ele><time>2020-10-21T14:11:26Z</time><name>PT4634</name></trkpt>
<trkpt lat="53.240407" lon="-2.074560"><ele>232</ele><time>2020-10-21T14:11:26Z</time><name>PT4635</name></trkpt>
<trkpt lat="53.240412" lon="-2.074539"><ele>232</ele><time>2020-10-21T14:11:27Z</time><name>PT4636</name></trkpt>
<trkpt lat="53.240416" lon="-2.074519"><ele>232</ele><time>2020-10-21T14:11:29Z</time><name>PT4637</name></trkpt>
<trkpt lat="53.240420" lon="-2.074498"><ele>232</ele><time>2020-10-21T14:11:29Z</time><name>PT4638</name></trkpt>
<trkpt lat="53.240426" lon="-2.074476"><ele>232</ele><time>2020-10-21T14:11:30Z</time><name>PT4639</name></trkpt>
<trkpt lat="53.240432" lon="-2.074455"><ele>232</ele><time>2020-10-21T14:11:32Z</time><name>PT4640</name></trkpt>
<trkpt lat="53.240437" lon="-2.074436"><ele>232</ele><time>2020-10-21T14:11:32Z</time><name>PT4641</name></trkpt>
<trkpt lat="53.240442" lon="-2.074416"><ele>232</ele><time>2020-10-21T14:11:33Z</time><name>PT4642</name></trkpt>
<trkpt lat="53.240448" lon="-2.074397"><ele>232</ele><time>2020-10-21T14:11:35Z</time><name>PT4643</name></trkpt>
<trkpt lat="53.240452" lon="-2.074377"><ele>232</ele><time>2020-10-21T14:11:35Z</time><name>PT4644</name></trkpt>
<trkpt lat="53.240457" lon="-2.074358"><ele>232</ele><time>2020-10-21T14:11:36Z</time><name>PT4645</name></trkpt>
<trkpt lat="53.240463" lon="-2.074340"><ele>232</ele><time>2020-10-21T14:11:38Z</time><name>PT4646</name></trkpt>
<trkpt lat="53.240468" lon="-2.074325"><ele>232</ele><time>2020-10-21T14:11:38Z</time><name>PT4647</name></trkpt>
<trkpt lat="53.240478" lon="-2.074307"><ele>232</ele><time>2020-10-21T14:11:39Z</time><name>PT4648</name></trkpt>
<trkpt lat="53.240484" lon="-2.074285"><ele>232</ele><time>2020-10-21T14:11:41Z</time><name>PT4649</name></trkpt>
<trkpt lat="53.240488" lon="-2.074267"><ele>232</ele><time>2020-10-21T14:11:41Z</time><name>PT4650</name></trkpt>
<trkpt lat="53.240492" lon="-2.074248"><ele>232</ele><time>2020-10-21T14:11:42Z</time><name>PT4651</name></trkpt>
<trkpt lat="53.240496" lon="-2.074230"><ele>232</ele><time>2020-10-21T14:11:44Z</time><name>PT4652</name></trkpt>
<trkpt lat="53.240499" lon="-2.074215"><ele>232</ele><time>2020-10-21T14:11:44Z</time><name>PT4653</name></trkpt>
<trkpt lat="53.240502" lon="-2.074195"><ele>232</ele><time>2020-10-21T14:11:45Z</time><name>PT4654</name></trkpt>
<trkpt lat="53.240508" lon="-2.074176"><ele>233</ele><time>2020-10-21T14:11:47Z</time><name>PT4655</name></trkpt>
<trkpt lat="53.240512" lon="-2.074157"><ele>233</ele><time>2020-10-21T14:11:47Z</time><name>PT4656</name></trkpt>
<trkpt lat="53.240518" lon="-2.074135"><ele>233</ele><time>2020-10-21T14:11:48Z</time><name>PT4657</name></trkpt>
<trkpt lat="53.240523" lon="-2.074115"><ele>234</ele><time>2020-10-21T14:11:50Z</time><name>PT4658</name></trkpt>
<trkpt lat="53.240527" lon="-2.074098"><ele>234</ele><time>2020-10-21T14:11:50Z</time><name>PT4659</name></trkpt>
<trkpt lat="53.240532" lon="-2.074081"><ele>234</ele><time>2020-10-21T14:11:51Z</time><name>PT4660</name></trkpt>
<trkpt lat="53.240535" lon="-2.074060"><ele>234</ele><time>2020-10-21T14:11:53Z</time><name>PT4661</name></trkpt>
<trkpt lat="53.240539" lon="-2.074041"><ele>234</ele><time>2020-10-21T14:11:53Z</time><name>PT4662</name></trkpt>
<trkpt lat="53.240543" lon="-2.074019"><ele>234</ele><time>2020-10-21T14:11:54Z</time><name>PT4663</name></trkpt>
<trkpt lat="53.240546" lon="-2.073998"><ele>234</ele><time>2020-10-21T14:11:56Z</time><name>PT4664</name></trkpt>
<trkpt lat="53.240551" lon="-2.073981"><ele>234</ele><time>2020-10-21T14:11:56Z</time><name>PT4665</name></trkpt>
<trkpt lat="53.240555" lon="-2.073960"><ele>235</ele><time>2020-10-21T14:11:57Z</time><name>PT4666</name></trkpt>
<trkpt lat="53.240560" lon="-2.073947"><ele>234</ele><time>2020-10-21T14:11:59Z</time><name>PT4667</name></trkpt>
<trkpt lat="53.240565" lon="-2.073926"><ele>235</ele><time>2020-10-21T14:11:59Z</time><name>PT4668</name></trkpt>
<trkpt lat="53.240570" lon="-2.073905"><ele>235</ele><time>2020-10-21T14:12:00Z</time><name>PT4669</name></trkpt>
<trkpt lat="53.240573" lon="-2.073888"><ele>235</ele><time>2020-10-21T14:12:02Z</time><name>PT4670</name></trkpt>
<trkpt lat="53.240577" lon="-2.073869"><ele>235</ele><time>2020-10-21T14:12:02Z</time><name>PT4671</name></trkpt>
<trkpt lat="53.240580" lon="-2.073844"><ele>235</ele><time>2020-10-21T14:12:03Z</time><name>PT4672</name></trkpt>
<trkpt lat="53.240585" lon="-2.073822"><ele>235</ele><time>2020-10-21T14:12:05Z</time><name>PT4673</name></trkpt>
<trkpt lat="53.240588" lon="-2.073798"><ele>235</ele><time>2020-10-21T14:12:05Z</time><name>PT4674</name></trkpt>
<trkpt lat="53.240594" lon="-2.073776"><ele>236</ele><time>2020-10-21T14:12:06Z</time><name>PT4675</name></trkpt>
<trkpt lat="53.240599" lon="-2.073756"><ele>236</ele><time>2020-10-21T14:12:08Z</time><name>PT4676</name></trkpt>
<trkpt lat="53.240602" lon="-2.073736"><ele>236</ele><time>2020-10-21T14:12:08Z</time><name>PT4677</name></trkpt>
<trkpt lat="53.240606" lon="-2.073713"><ele>236</ele><time>2020-10-21T14:12:09Z</time><name>PT4678</name></trkpt>
<trkpt lat="53.240608" lon="-2.073693"><ele>236</ele><time>2020-10-21T14:12:11Z</time><name>PT4679</name></trkpt>
<trkpt lat="53.240615" lon="-2.073671"><ele>236</ele><time>2020-10-21T14:12:11Z</time><name>PT4680</name></trkpt>
<trkpt lat="53.240620" lon="-2.073648"><ele>237</ele><time>2020-10-21T14:12:12Z</time><name>PT4681</name></trkpt>
<trkpt lat="53.240624" lon="-2.073629"><ele>237</ele><time>2020-10-21T14:12:14Z</time><name>PT4682</name></trkpt>
<trkpt lat="53.240628" lon="-2.073609"><ele>236</ele><time>2020-10-21T14:12:14Z</time><name>PT4683</name></trkpt>
<trkpt lat="53.240633" lon="-2.073591"><ele>236</ele><time>2020-10-21T14:12:15Z</time><name>PT4684</name></trkpt>
<trkpt lat="53.240637" lon="-2.073577"><ele>237</ele><time>2020-10-21T14:12:17Z</time><name>PT4685</name></trkpt>
<trkpt lat="53.240642" lon="-2.073560"><ele>237</ele><time>2020-10-21T14:12:17Z</time><name>PT4686</name></trkpt>
<trkpt lat="53.240648" lon="-2.073543"><ele>236</ele><time>2020-10-21T14:12:18Z</time><name>PT4687</name></trkpt>
<trkpt lat="53.240652" lon="-2.073527"><ele>236</ele><time>2020-10-21T14:12:20Z</time><name>PT4688</name></trkpt>
<trkpt lat="53.240658" lon="-2.073510"><ele>237</ele><time>2020-10-21T14:12:20Z</time><name>PT4689</name></trkpt>
<trkpt lat="53.240662" lon="-2.073494"><ele>236</ele><time>2020-10-21T14:12:21Z</time><name>PT4690</name></trkpt>
<trkpt lat="53.240665" lon="-2.073478"><ele>236</ele><time>2020-10-21T14:12:23Z</time><name>PT4691</name></trkpt>
<trkpt lat="53.240670" lon="-2.073459"><ele>236</ele><time>2020-10-21T14:12:23Z</time><name>PT4692</name></trkpt>
<trkpt lat="53.240676" lon="-2.073441"><ele>236</ele><time>2020-10-21T14:12:24Z</time><name>PT4693</name></trkpt>
<trkpt lat="53.240681" lon="-2.073425"><ele>237</ele><time>2020-10-21T14:12:26Z</time><name>PT4694</name></trkpt>
<trkpt lat="53.240687" lon="-2.073408"><ele>237</ele><time>2020-10-21T14:12:26Z</time><name>PT4695</name></trkpt>
<trkpt lat="53.240691" lon="-2.073393"><ele>236</ele><time>2020-10-21T14:12:27Z</time><name>PT4696</name></trkpt>
<trkpt lat="53.240695" lon="-2.073377"><ele>236</ele><time>2020-10-21T14:12:29Z</time><name>PT4697</name></trkpt>
<trkpt lat="53.240699" lon="-2.073360"><ele>236</ele><time>2020-10-21T14:12:29Z</time><name>PT4698</name></trkpt>
<trkpt lat="53.240704" lon="-2.073346"><ele>236</ele><time>2020-10-21T14:12:30Z</time><name>PT4699</name></trkpt>
<trkpt lat="53.240709" lon="-2.073330"><ele>236</ele><time>2020-10-21T14:12:32Z</time><name>PT4700</name></trkpt>
<trkpt lat="53.240714" lon="-2.073314"><ele>236</ele><time>2020-10-21T14:12:32Z</time><name>PT4701</name></trkpt>
<trkpt lat="53.240719" lon="-2.073295"><ele>236</ele><time>2020-10-21T14:12:33Z</time><name>PT4702</name></trkpt>
<trkpt lat="53.240724" lon="-2.073275"><ele>237</ele><time>2020-10-21T14:12:35Z</time><name>PT4703</name></trkpt>
<trkpt lat="53.240729" lon="-2.073259"><ele>236</ele><time>2020-10-21T14:12:35Z</time><name>PT4704</name></trkpt>
<trkpt lat="53.240730" lon="-2.073240"><ele>236</ele><time>2020-10-21T14:12:36Z</time><name>PT4705</name></trkpt>
<trkpt lat="53.240736" lon="-2.073220"><ele>236</ele><time>2020-10-21T14:12:38Z</time><name>PT4706</name></trkpt>
<trkpt lat="53.240739" lon="-2.073205"><ele>235</ele><time>2020-10-21T14:12:38Z</time><name>PT4707</name></trkpt>
<trkpt lat="53.240744" lon="-2.073187"><ele>235</ele><time>2020-10-21T14:12:39Z</time><name>PT4708</name></trkpt>
<trkpt lat="53.240750" lon="-2.073167"><ele>236</ele><time>2020-10-21T14:12:41Z</time><name>PT4709</name></trkpt>
<trkpt lat="53.240753" lon="-2.073149"><ele>235</ele><time>2020-10-21T14:12:41Z</time><name>PT4710</name></trkpt>
<trkpt lat="53.240757" lon="-2.073129"><ele>235</ele><time>2020-10-21T14:12:42Z</time><name>PT4711</name></trkpt>
<trkpt lat="53.240760" lon="-2.073106"><ele>235</ele><time>2020-10-21T14:12:44Z</time><name>PT4712</name></trkpt>
<trkpt lat="53.240763" lon="-2.073086"><ele>235</ele><time>2020-10-21T14:12:44Z</time><name>PT4713</name></trkpt>
<trkpt lat="53.240766" lon="-2.073066"><ele>235</ele><time>2020-10-21T14:12:45Z</time><name>PT4714</name></trkpt>
<trkpt lat="53.240770" lon="-2.073050"><ele>235</ele><time>2020-10-21T14:12:47Z</time><name>PT4715</name></trkpt>
<trkpt lat="53.240772" lon="-2.073034"><ele>235</ele><time>2020-10-21T14:12:47Z</time><name>PT4716</name></trkpt>
<trkpt lat="53.240774" lon="-2.073017"><ele>235</ele><time>2020-10-21T14:12:48Z</time><name>PT4717</name></trkpt>
<trkpt lat="53.240777" lon="-2.072998"><ele>235</ele><time>2020-10-21T14:12:50Z</time><name>PT4718</name></trkpt>
<trkpt lat="53.240781" lon="-2.072980"><ele>235</ele><time>2020-10-21T14:12:50Z</time><name>PT4719</name></trkpt>
<trkpt lat="53.240785" lon="-2.072962"><ele>235</ele><time>2020-10-21T14:12:51Z</time><name>PT4720</name></trkpt>
<trkpt lat="53.240789" lon="-2.072947"><ele>235</ele><time>2020-10-21T14:12:53Z</time><name>PT4721</name></trkpt>
<trkpt lat="53.240791" lon="-2.072928"><ele>235</ele><time>2020-10-21T14:12:53Z</time><name>PT4722</name></trkpt>
<trkpt lat="53.240794" lon="-2.072911"><ele>235</ele><time>2020-10-21T14:12:54Z</time><name>PT4723</name></trkpt>
<trkpt lat="53.240796" lon="-2.072896"><ele>235</ele><time>2020-10-21T14:12:56Z</time><name>PT4724</name></trkpt>
<trkpt lat="53.240800" lon="-2.072881"><ele>235</ele><time>2020-10-21T14:12:56Z</time><name>PT4725</name></trkpt>
<trkpt lat="53.240802" lon="-2.072865"><ele>235</ele><time>2020-10-21T14:12:57Z</time><name>PT4726</name></trkpt>
<trkpt lat="53.240805" lon="-2.072847"><ele>235</ele><time>2020-10-21T14:12:59Z</time><name>PT4727</name></trkpt>
<trkpt lat="53.240809" lon="-2.072834"><ele>235</ele><time>2020-10-21T14:12:59Z</time><name>PT4728</name></trkpt>
<trkpt lat="53.240813" lon="-2.072818"><ele>235</ele><time>2020-10-21T14:13:00Z</time><name>PT4729</name></trkpt>
<trkpt lat="53.240817" lon="-2.072804"><ele>235</ele><time>2020-10-21T14:13:02Z</time><name>PT4730</name></trkpt>
<trkpt lat="53.240821" lon="-2.072791"><ele>236</ele><time>2020-10-21T14:13:02Z</time><name>PT4731</name></trkpt>
<trkpt lat="53.240823" lon="-2.072772"><ele>236</ele><time>2020-10-21T14:13:03Z</time><name>PT4732</name></trkpt>
<trkpt lat="53.240827" lon="-2.072757"><ele>236</ele><time>2020-10-21T14:13:05Z</time><name>PT4733</name></trkpt>
<trkpt lat="53.240830" lon="-2.072751"><ele>236</ele><time>2020-10-21T14:13:05Z</time><name>PT4734</name></trkpt>
<trkpt lat="53.240832" lon="-2.072748"><ele>236</ele><time>2020-10-21T14:13:06Z</time><name>PT4735</name></trkpt>
<trkpt lat="53.240832" lon="-2.072746"><ele>236</ele><time>2020-10-21T14:13:08Z</time><name>PT4736</name></trkpt>
<trkpt lat="53.240832" lon="-2.072735"><ele>237</ele><time>2020-10-21T14:13:08Z</time><name>PT4737</name></trkpt>
<trkpt lat="53.240835" lon="-2.072722"><ele>236</ele><time>2020-10-21T14:13:09Z</time><name>PT4738</name></trkpt>
<trkpt lat="53.240838" lon="-2.072705"><ele>236</ele><time>2020-10-21T14:13:11Z</time><name>PT4739</name></trkpt>
<trkpt lat="53.240843" lon="-2.072688"><ele>236</ele><time>2020-10-21T14:13:11Z</time><name>PT4740</name></trkpt>
<trkpt lat="53.240848" lon="-2.072672"><ele>237</ele><time>2020-10-21T14:13:12Z</time><name>PT4741</name></trkpt>
<trkpt lat="53.240853" lon="-2.072656"><ele>237</ele><time>2020-10-21T14:13:14Z</time><name>PT4742</name></trkpt>
<trkpt lat="53.240856" lon="-2.072637"><ele>238</ele><time>2020-10-21T14:13:14Z</time><name>PT4743</name></trkpt>
<trkpt lat="53.240858" lon="-2.072617"><ele>238</ele><time>2020-10-21T14:13:15Z</time><name>PT4744</name></trkpt>
<trkpt lat="53.240862" lon="-2.072600"><ele>237</ele><time>2020-10-21T14:13:17Z</time><name>PT4745</name></trkpt>
<trkpt lat="53.240866" lon="-2.072587"><ele>237</ele><time>2020-10-21T14:13:17Z</time><name>PT4746</name></trkpt>
<trkpt lat="53.240868" lon="-2.072567"><ele>236</ele><time>2020-10-21T14:13:18Z</time><name>PT4747</name></trkpt>
<trkpt lat="53.240868" lon="-2.072547"><ele>236</ele><time>2020-10-21T14:13:20Z</time><name>PT4748</name></trkpt>
<trkpt lat="53.240867" lon="-2.072531"><ele>236</ele><time>2020-10-21T14:13:20Z</time><name>PT4749</name></trkpt>
<trkpt lat="53.240863" lon="-2.072511"><ele>236</ele><time>2020-10-21T14:13:21Z</time><name>PT4750</name></trkpt>
<trkpt lat="53.240860" lon="-2.072487"><ele>236</ele><time>2020-10-21T14:13:23Z</time><name>PT4751</name></trkpt>
<trkpt lat="53.240859" lon="-2.072468"><ele>236</ele><time>2020-10-21T14:13:23Z</time><name>PT4752</name></trkpt>
<trkpt lat="53.240856" lon="-2.072454"><ele>236</ele><time>2020-10-21T14:13:24Z</time><name>PT4753</name></trkpt>
<trkpt lat="53.240849" lon="-2.072433"><ele>237</ele><time>2020-10-21T14:13:26Z</time><name>PT4754</name></trkpt>
<trkpt lat="53.240844" lon="-2.072410"><ele>237</ele><time>2020-10-21T14:13:26Z</time><name>PT4755</name></trkpt>
<trkpt lat="53.240838" lon="-2.072388"><ele>237</ele><time>2020-10-21T14:13:27Z</time><name>PT4756</name></trkpt>
<trkpt lat="53.240833" lon="-2.072363"><ele>238</ele><time>2020-10-21T14:13:29Z</time><name>PT4757</name></trkpt>
<trkpt lat="53.240826" lon="-2.072344"><ele>238</ele><time>2020-10-21T14:13:29Z</time><name>PT4758</name></trkpt>
<trkpt lat="53.240822" lon="-2.072330"><ele>238</ele><time>2020-10-21T14:13:30Z</time><name>PT4759</name></trkpt>
<trkpt lat="53.240815" lon="-2.072315"><ele>238</ele><time>2020-10-21T14:13:32Z</time><name>PT4760</name></trkpt>
<trkpt lat="53.240808" lon="-2.072295"><ele>237</ele><time>2020-10-21T14:13:32Z</time><name>PT4761</name></trkpt>
<trkpt lat="53.240800" lon="-2.072275"><ele>237</ele><time>2020-10-21T14:13:33Z</time><name>PT4762</name></trkpt>
<trkpt lat="53.240794" lon="-2.072256"><ele>237</ele><time>2020-10-21T14:13:35Z</time><name>PT4763</name></trkpt>
<trkpt lat="53.240789" lon="-2.072234"><ele>237</ele><time>2020-10-21T14:13:35Z</time><name>PT4764</name></trkpt>
<trkpt lat="53.240783" lon="-2.072213"><ele>237</ele><time>2020-10-21T14:13:36Z</time><name>PT4765</name></trkpt>
<trkpt lat="53.240778" lon="-2.072200"><ele>238</ele><time>2020-10-21T14:13:38Z</time><name>PT4766</name></trkpt>
<trkpt lat="53.240772" lon="-2.072183"><ele>238</ele><time>2020-10-21T14:13:38Z</time><name>PT4767</name></trkpt>
<trkpt lat="53.240764" lon="-2.072163"><ele>238</ele><time>2020-10-21T14:13:39Z</time><name>PT4768</name></trkpt>
<trkpt lat="53.240757" lon="-2.072144"><ele>238</ele><time>2020-10-21T14:13:41Z</time><name>PT4769</name></trkpt>
<trkpt lat="53.240752" lon="-2.072127"><ele>238</ele><time>2020-10-21T14:13:41Z</time><name>PT4770</name></trkpt>
<trkpt lat="53.240747" lon="-2.072114"><ele>238</ele><time>2020-10-21T14:13:42Z</time><name>PT4771</name></trkpt>
<trkpt lat="53.240740" lon="-2.072100"><ele>238</ele><time>2020-10-21T14:13:44Z</time><name>PT4772</name></trkpt>
<trkpt lat="53.240732" lon="-2.072084"><ele>238</ele><time>2020-10-21T14:13:44Z</time><name>PT4773</name></trkpt>
<trkpt lat="53.240720" lon="-2.072065"><ele>238</ele><time>2020-10-21T14:13:45Z</time><name>PT4774</name></trkpt>
<trkpt lat="53.240716" lon="-2.072054"><ele>238</ele><time>2020-10-21T14:13:47Z</time><name>PT4775</name></trkpt>
<trkpt lat="53.240711" lon="-2.072039"><ele>237</ele><time>2020-10-21T14:13:47Z</time><name>PT4776</name></trkpt>
<trkpt lat="53.240703" lon="-2.072020"><ele>237</ele><time>2020-10-21T14:13:48Z</time><name>PT4777</name></trkpt>
<trkpt lat="53.240695" lon="-2.072008"><ele>237</ele><time>2020-10-21T14:13:50Z</time><name>PT4778</name></trkpt>
<trkpt lat="53.240689" lon="-2.071993"><ele>237</ele><time>2020-10-21T14:13:50Z</time><name>PT4779</name></trkpt>
<trkpt lat="53.240680" lon="-2.071972"><ele>237</ele><time>2020-10-21T14:13:51Z</time><name>PT4780</name></trkpt>
<trkpt lat="53.240675" lon="-2.071956"><ele>237</ele><time>2020-10-21T14:13:53Z</time><name>PT4781</name></trkpt>
<trkpt lat="53.240669" lon="-2.071937"><ele>238</ele><time>2020-10-21T14:13:53Z</time><name>PT4782</name></trkpt>
<trkpt lat="53.240664" lon="-2.071917"><ele>237</ele><time>2020-10-21T14:13:54Z</time><name>PT4783</name></trkpt>
<trkpt lat="53.240659" lon="-2.071901"><ele>237</ele><time>2020-10-21T14:13:56Z</time><name>PT4784</name></trkpt>
<trkpt lat="53.240655" lon="-2.071886"><ele>237</ele><time>2020-10-21T14:13:56Z</time><name>PT4785</name></trkpt>
<trkpt lat="53.240647" lon="-2.071870"><ele>237</ele><time>2020-10-21T14:13:57Z</time><name>PT4786</name></trkpt>
<trkpt lat="53.240642" lon="-2.071853"><ele>237</ele><time>2020-10-21T14:13:59Z</time><name>PT4787</name></trkpt>
<trkpt lat="53.240639" lon="-2.071837"><ele>237</ele><time>2020-10-21T14:13:59Z</time><name>PT4788</name></trkpt>
<trkpt lat="53.240634" lon="-2.071816"><ele>237</ele><time>2020-10-21T14:14:00Z</time><name>PT4789</name></trkpt>
<trkpt lat="53.240626" lon="-2.071794"><ele>237</ele><time>2020-10-21T14:14:02Z</time><name>PT4790</name></trkpt>
<trkpt lat="53.240622" lon="-2.071779"><ele>237</ele><time>2020-10-21T14:14:02Z</time><name>PT4791</name></trkpt>
<trkpt lat="53.240614" lon="-2.071760"><ele>237</ele><time>2020-10-21T14:14:03Z</time><name>PT4792</name></trkpt>
<trkpt lat="53.240607" lon="-2.071741"><ele>237</ele><time>2020-10-21T14:14:05Z</time><name>PT4793</name></trkpt>
<trkpt lat="53.240599" lon="-2.071720"><ele>237</ele><time>2020-10-21T14:14:05Z</time><name>PT4794</name></trkpt>
<trkpt lat="53.240599" lon="-2.071705"><ele>237</ele><time>2020-10-21T14:14:06Z</time><name>PT4795</name></trkpt>
<trkpt lat="53.240597" lon="-2.071694"><ele>237</ele><time>2020-10-21T14:14:08Z</time><name>PT4796</name></trkpt>
<trkpt lat="53.240596" lon="-2.071684"><ele>237</ele><time>2020-10-21T14:14:08Z</time><name>PT4797</name></trkpt>
<trkpt lat="53.240595" lon="-2.071673"><ele>237</ele><time>2020-10-21T14:14:09Z</time><name>PT4798</name></trkpt>
<trkpt lat="53.240591" lon="-2.071663"><ele>237</ele><time>2020-10-21T14:14:11Z</time><name>PT4799</name></trkpt>
<trkpt lat="53.240580" lon="-2.071645"><ele>238</ele><time>2020-10-21T14:14:11Z</time><name>PT4800</name></trkpt>
<trkpt lat="53.240570" lon="-2.071625"><ele>238</ele><time>2020-10-21T14:14:12Z</time><name>PT4801</name></trkpt>
<trkpt lat="53.240561" lon="-2.071603"><ele>239</ele><time>2020-10-21T14:14:14Z</time><name>PT4802</name></trkpt>
<trkpt lat="53.240553" lon="-2.071584"><ele>239</ele><time>2020-10-21T14:14:14Z</time><name>PT4803</name></trkpt>
<trkpt lat="53.240545" lon="-2.071565"><ele>239</ele><time>2020-10-21T14:14:15Z</time><name>PT4804</name></trkpt>
<trkpt lat="53.240537" lon="-2.071541"><ele>239</ele><time>2020-10-21T14:14:17Z</time><name>PT4805</name></trkpt>
<trkpt lat="53.240532" lon="-2.071522"><ele>239</ele><time>2020-10-21T14:14:17Z</time><name>PT4806</name></trkpt>
<trkpt lat="53.240527" lon="-2.071501"><ele>239</ele><time>2020-10-21T14:14:18Z</time><name>PT4807</name></trkpt>
<trkpt lat="53.240527" lon="-2.071487"><ele>238</ele><time>2020-10-21T14:14:20Z</time><name>PT4808</name></trkpt>
<trkpt lat="53.240528" lon="-2.071472"><ele>239</ele><time>2020-10-21T14:14:20Z</time><name>PT4809</name></trkpt>
<trkpt lat="53.240532" lon="-2.071459"><ele>239</ele><time>2020-10-21T14:14:21Z</time><name>PT4810</name></trkpt>
<trkpt lat="53.240535" lon="-2.071447"><ele>239</ele><time>2020-10-21T14:14:23Z</time><name>PT4811</name></trkpt>
<trkpt lat="53.240543" lon="-2.071387"><ele>238</ele><time>2020-10-21T14:14:26Z</time><name>PT4812</name></trkpt>
<trkpt lat="53.240526" lon="-2.071307"><ele>238</ele><time>2020-10-21T14:14:30Z</time><name>PT4813</name></trkpt>
<trkpt lat="53.240506" lon="-2.071244"><ele>238</ele><time>2020-10-21T14:14:33Z</time><name>PT4814</name></trkpt>
<trkpt lat="53.240483" lon="-2.071165"><ele>238</ele><time>2020-10-21T14:14:38Z</time><name>PT4815</name></trkpt>
<trkpt lat="53.240466" lon="-2.071101"><ele>238</ele><time>2020-10-21T14:14:41Z</time><name>PT4816</name></trkpt>
<trkpt lat="53.240438" lon="-2.071017"><ele>237</ele><time>2020-10-21T14:14:44Z</time><name>PT4817</name></trkpt>
<trkpt lat="53.240417" lon="-2.070942"><ele>237</ele><time>2020-10-21T14:14:48Z</time><name>PT4818</name></trkpt>
<trkpt lat="53.240393" lon="-2.070862"><ele>238</ele><time>2020-10-21T14:14:53Z</time><name>PT4819</name></trkpt>
<trkpt lat="53.240379" lon="-2.070803"><ele>238</ele><time>2020-10-21T14:14:56Z</time><name>PT4820</name></trkpt>
<trkpt lat="53.240366" lon="-2.070721"><ele>238</ele><time>2020-10-21T14:14:59Z</time><name>PT4821</name></trkpt>
<trkpt lat="53.240350" lon="-2.070644"><ele>237</ele><time>2020-10-21T14:15:03Z</time><name>PT4822</name></trkpt>
<trkpt lat="53.240336" lon="-2.070589"><ele>236</ele><time>2020-10-21T14:15:06Z</time><name>PT4823</name></trkpt>
<trkpt lat="53.240315" lon="-2.070516"><ele>237</ele><time>2020-10-21T14:15:11Z</time><name>PT4824</name></trkpt>
<trkpt lat="53.240303" lon="-2.070463"><ele>237</ele><time>2020-10-21T14:15:14Z</time><name>PT4825</name></trkpt>
<trkpt lat="53.240289" lon="-2.070385"><ele>238</ele><time>2020-10-21T14:15:17Z</time><name>PT4826</name></trkpt>
<trkpt lat="53.240288" lon="-2.070325"><ele>237</ele><time>2020-10-21T14:15:20Z</time><name>PT4827</name></trkpt>
<trkpt lat="53.240272" lon="-2.070252"><ele>236</ele><time>2020-10-21T14:15:24Z</time><name>PT4828</name></trkpt>
<trkpt lat="53.240269" lon="-2.070189"><ele>235</ele><time>2020-10-21T14:15:27Z</time><name>PT4829</name></trkpt>
<trkpt lat="53.240257" lon="-2.070119"><ele>237</ele><time>2020-10-21T14:15:30Z</time><name>PT4830</name></trkpt>
<trkpt lat="53.240241" lon="-2.070061"><ele>236</ele><time>2020-10-21T14:15:33Z</time><name>PT4831</name></trkpt>
<trkpt lat="53.240230" lon="-2.069981"><ele>236</ele><time>2020-10-21T14:15:38Z</time><name>PT4832</name></trkpt>
<trkpt lat="53.240219" lon="-2.069919"><ele>237</ele><time>2020-10-21T14:15:41Z</time><name>PT4833</name></trkpt>
<trkpt lat="53.240215" lon="-2.069854"><ele>236</ele><time>2020-10-21T14:15:44Z</time><name>PT4834</name></trkpt>
<trkpt lat="53.240207" lon="-2.069768"><ele>236</ele><time>2020-10-21T14:15:47Z</time><name>PT4835</name></trkpt>
<trkpt lat="53.240197" lon="-2.069712"><ele>237</ele><time>2020-10-21T14:15:50Z</time><name>PT4836</name></trkpt>
<trkpt lat="53.240188" lon="-2.069635"><ele>236</ele><time>2020-10-21T14:15:54Z</time><name>PT4837</name></trkpt>
<trkpt lat="53.240183" lon="-2.069581"><ele>236</ele><time>2020-10-21T14:15:57Z</time><name>PT4838</name></trkpt>
<trkpt lat="53.240163" lon="-2.069502"><ele>237</ele><time>2020-10-21T14:16:02Z</time><name>PT4839</name></trkpt>
<trkpt lat="53.240143" lon="-2.069425"><ele>239</ele><time>2020-10-21T14:16:05Z</time><name>PT4840</name></trkpt>
<trkpt lat="53.240144" lon="-2.069376"><ele>238</ele><time>2020-10-21T14:16:08Z</time><name>PT4841</name></trkpt>
<trkpt lat="53.240134" lon="-2.069298"><ele>237</ele><time>2020-10-21T14:16:12Z</time><name>PT4842</name></trkpt>
<trkpt lat="53.240104" lon="-2.069219"><ele>237</ele><time>2020-10-21T14:16:17Z</time><name>PT4843</name></trkpt>
<trkpt lat="53.240090" lon="-2.069158"><ele>238</ele><time>2020-10-21T14:16:20Z</time><name>PT4844</name></trkpt>
<trkpt lat="53.240074" lon="-2.069088"><ele>239</ele><time>2020-10-21T14:16:23Z</time><name>PT4845</name></trkpt>
<trkpt lat="53.240063" lon="-2.069008"><ele>238</ele><time>2020-10-21T14:16:26Z</time><name>PT4846</name></trkpt>
<trkpt lat="53.240046" lon="-2.068931"><ele>240</ele><time>2020-10-21T14:16:30Z</time><name>PT4847</name></trkpt>
<trkpt lat="53.240034" lon="-2.068872"><ele>241</ele><time>2020-10-21T14:16:33Z</time><name>PT4848</name></trkpt>
<trkpt lat="53.240020" lon="-2.068793"><ele>241</ele><time>2020-10-21T14:16:38Z</time><name>PT4849</name></trkpt>
<trkpt lat="53.240013" lon="-2.068734"><ele>241</ele><time>2020-10-21T14:16:41Z</time><name>PT4850</name></trkpt>
<trkpt lat="53.240008" lon="-2.068639"><ele>239</ele><time>2020-10-21T14:16:44Z</time><name>PT4851</name></trkpt>
<trkpt lat="53.240006" lon="-2.068575"><ele>238</ele><time>2020-10-21T14:16:47Z</time><name>PT4852</name></trkpt>
<trkpt lat="53.240001" lon="-2.068518"><ele>237</ele><time>2020-10-21T14:16:50Z</time><name>PT4853</name></trkpt>
<trkpt lat="53.239989" lon="-2.068467"><ele>238</ele><time>2020-10-21T14:16:53Z</time><name>PT4854</name></trkpt>
<trkpt lat="53.239975" lon="-2.068384"><ele>239</ele><time>2020-10-21T14:16:57Z</time><name>PT4855</name></trkpt>
<trkpt lat="53.239961" lon="-2.068331"><ele>239</ele><time>2020-10-21T14:17:00Z</time><name>PT4856</name></trkpt>
<trkpt lat="53.239949" lon="-2.068257"><ele>239</ele><time>2020-10-21T14:17:05Z</time><name>PT4857</name></trkpt>
<trkpt lat="53.239941" lon="-2.068203"><ele>239</ele><time>2020-10-21T14:17:08Z</time><name>PT4858</name></trkpt>
<trkpt lat="53.239936" lon="-2.068152"><ele>238</ele><time>2020-10-21T14:17:11Z</time><name>PT4859</name></trkpt>
<trkpt lat="53.239935" lon="-2.068101"><ele>237</ele><time>2020-10-21T14:17:14Z</time><name>PT4860</name></trkpt>
<trkpt lat="53.239933" lon="-2.068023"><ele>237</ele><time>2020-10-21T14:17:17Z</time><name>PT4861</name></trkpt>
<trkpt lat="53.239928" lon="-2.067963"><ele>236</ele><time>2020-10-21T14:17:20Z</time><name>PT4862</name></trkpt>
<trkpt lat="53.239919" lon="-2.067902"><ele>237</ele><time>2020-10-21T14:17:23Z</time><name>PT4863</name></trkpt>
<trkpt lat="53.239899" lon="-2.067816"><ele>238</ele><time>2020-10-21T14:17:27Z</time><name>PT4864</name></trkpt>
<trkpt lat="53.239887" lon="-2.067752"><ele>238</ele><time>2020-10-21T14:17:30Z</time><name>PT4865</name></trkpt>
<trkpt lat="53.239871" lon="-2.067679"><ele>238</ele><time>2020-10-21T14:17:35Z</time><name>PT4866</name></trkpt>
<trkpt lat="53.239863" lon="-2.067621"><ele>238</ele><time>2020-10-21T14:17:38Z</time><name>PT4867</name></trkpt>
<trkpt lat="53.239859" lon="-2.067546"><ele>238</ele><time>2020-10-21T14:17:41Z</time><name>PT4868</name></trkpt>
<trkpt lat="53.239851" lon="-2.067485"><ele>239</ele><time>2020-10-21T14:17:44Z</time><name>PT4869</name></trkpt>
<trkpt lat="53.239841" lon="-2.067412"><ele>239</ele><time>2020-10-21T14:17:48Z</time><name>PT4870</name></trkpt>
<trkpt lat="53.239831" lon="-2.067333"><ele>238</ele><time>2020-10-21T14:17:53Z</time><name>PT4871</name></trkpt>
<trkpt lat="53.239822" lon="-2.067264"><ele>238</ele><time>2020-10-21T14:17:56Z</time><name>PT4872</name></trkpt>
<trkpt lat="53.239811" lon="-2.067206"><ele>239</ele><time>2020-10-21T14:17:59Z</time><name>PT4873</name></trkpt>
<trkpt lat="53.239793" lon="-2.067127"><ele>239</ele><time>2020-10-21T14:18:03Z</time><name>PT4874</name></trkpt>
<trkpt lat="53.239778" lon="-2.067046"><ele>239</ele><time>2020-10-21T14:18:08Z</time><name>PT4875</name></trkpt>
<trkpt lat="53.239764" lon="-2.066967"><ele>240</ele><time>2020-10-21T14:18:11Z</time><name>PT4876</name></trkpt>
<trkpt lat="53.239753" lon="-2.066911"><ele>240</ele><time>2020-10-21T14:18:14Z</time><name>PT4877</name></trkpt>
<trkpt lat="53.239738" lon="-2.066862"><ele>240</ele><time>2020-10-21T14:18:17Z</time><name>PT4878</name></trkpt>
<trkpt lat="53.239730" lon="-2.066780"><ele>239</ele><time>2020-10-21T14:18:21Z</time><name>PT4879</name></trkpt>
<trkpt lat="53.239724" lon="-2.066726"><ele>239</ele><time>2020-10-21T14:18:24Z</time><name>PT4880</name></trkpt>
<trkpt lat="53.239714" lon="-2.066660"><ele>239</ele><time>2020-10-21T14:18:27Z</time><name>PT4881</name></trkpt>
<trkpt lat="53.239694" lon="-2.066582"><ele>240</ele><time>2020-10-21T14:18:32Z</time><name>PT4882</name></trkpt>
<trkpt lat="53.239686" lon="-2.066511"><ele>240</ele><time>2020-10-21T14:18:35Z</time><name>PT4883</name></trkpt>
<trkpt lat="53.239672" lon="-2.066440"><ele>239</ele><time>2020-10-21T14:18:39Z</time><name>PT4884</name></trkpt>
<trkpt lat="53.239665" lon="-2.066372"><ele>239</ele><time>2020-10-21T14:18:44Z</time><name>PT4885</name></trkpt>
<trkpt lat="53.239646" lon="-2.066297"><ele>241</ele><time>2020-10-21T14:18:47Z</time><name>PT4886</name></trkpt>
<trkpt lat="53.239634" lon="-2.066239"><ele>240</ele><time>2020-10-21T14:18:50Z</time><name>PT4887</name></trkpt>
<trkpt lat="53.239626" lon="-2.066169"><ele>238</ele><time>2020-10-21T14:18:54Z</time><name>PT4888</name></trkpt>
<trkpt lat="53.239622" lon="-2.066110"><ele>238</ele><time>2020-10-21T14:18:57Z</time><name>PT4889</name></trkpt>
<trkpt lat="53.239612" lon="-2.066073"><ele>239</ele><time>2020-10-21T14:19:02Z</time><name>PT4890</name></trkpt>
<trkpt lat="53.239610" lon="-2.066073"><ele>239</ele><time>2020-10-21T14:19:05Z</time><name>PT4891</name></trkpt>
<trkpt lat="53.239610" lon="-2.066069"><ele>239</ele><time>2020-10-21T14:19:11Z</time><name>PT4892</name></trkpt>
<trkpt lat="53.239609" lon="-2.065999"><ele>239</ele><time>2020-10-21T14:19:14Z</time><name>PT4893</name></trkpt>
<trkpt lat="53.239614" lon="-2.065930"><ele>237</ele><time>2020-10-21T14:19:18Z</time><name>PT4894</name></trkpt>
<trkpt lat="53.239613" lon="-2.065861"><ele>235</ele><time>2020-10-21T14:19:23Z</time><name>PT4895</name></trkpt>
<trkpt lat="53.239600" lon="-2.065807"><ele>236</ele><time>2020-10-21T14:19:26Z</time><name>PT4896</name></trkpt>
<trkpt lat="53.239581" lon="-2.065751"><ele>239</ele><time>2020-10-21T14:19:29Z</time><name>PT4897</name></trkpt>
<trkpt lat="53.239577" lon="-2.065733"><ele>239</ele><time>2020-10-21T14:19:29Z</time><name>PT4898</name></trkpt>
<trkpt lat="53.239571" lon="-2.065713"><ele>240</ele><time>2020-10-21T14:19:31Z</time><name>PT4899</name></trkpt>
<trkpt lat="53.239565" lon="-2.065696"><ele>240</ele><time>2020-10-21T14:19:32Z</time><name>PT4900</name></trkpt>
<trkpt lat="53.239560" lon="-2.065680"><ele>241</ele><time>2020-10-21T14:19:32Z</time><name>PT4901</name></trkpt>
<trkpt lat="53.239557" lon="-2.065664"><ele>241</ele><time>2020-10-21T14:19:33Z</time><name>PT4902</name></trkpt>
<trkpt lat="53.239553" lon="-2.065645"><ele>241</ele><time>2020-10-21T14:19:35Z</time><name>PT4903</name></trkpt>
<trkpt lat="53.239550" lon="-2.065628"><ele>241</ele><time>2020-10-21T14:19:35Z</time><name>PT4904</name></trkpt>
<trkpt lat="53.239547" lon="-2.065613"><ele>241</ele><time>2020-10-21T14:19:36Z</time><name>PT4905</name></trkpt>
<trkpt lat="53.239545" lon="-2.065596"><ele>241</ele><time>2020-10-21T14:19:38Z</time><name>PT4906</name></trkpt>
<trkpt lat="53.239546" lon="-2.065581"><ele>241</ele><time>2020-10-21T14:19:38Z</time><name>PT4907</name></trkpt>
<trkpt lat="53.239548" lon="-2.065565"><ele>241</ele><time>2020-10-21T14:19:39Z</time><name>PT4908</name></trkpt>
<trkpt lat="53.239549" lon="-2.065551"><ele>240</ele><time>2020-10-21T14:19:41Z</time><name>PT4909</name></trkpt>
<trkpt lat="53.239549" lon="-2.065538"><ele>240</ele><time>2020-10-21T14:19:41Z</time><name>PT4910</name></trkpt>
<trkpt lat="53.239549" lon="-2.065526"><ele>240</ele><time>2020-10-21T14:19:42Z</time><name>PT4911</name></trkpt>
<trkpt lat="53.239550" lon="-2.065515"><ele>240</ele><time>2020-10-21T14:19:44Z</time><name>PT4912</name></trkpt>
<trkpt lat="53.239550" lon="-2.065505"><ele>239</ele><time>2020-10-21T14:19:44Z</time><name>PT4913</name></trkpt></trkseg></trk></gpx>